<?xml version='1.0' encoding='UTF-8'?><gpx version="1.1" creator="JPX - https://github.com/jenetics/jpx" xmlns="http://www.topografix.com/GPX/1/1"><trk><trkseg><trkpt lat="43.5820917" lon="11.8667433"><ele>279.0</ele><time>2026-04-25T08:05:20.029Z</time></trkpt><trkpt lat="43.5821333" lon="11.8666717"><ele>279.0</ele><time>2026-04-25T08:05:21.031Z</time></trkpt><trkpt lat="43.5821833" lon="11.8665883"><ele>279.0</ele><time>2026-04-25T08:05:22.032Z</time></trkpt><trkpt lat="43.5822483" lon="11.86649"><ele>279.0</ele><time>2026-04-25T08:05:23.028Z</time></trkpt><trkpt lat="43.5823083" lon="11.86639"><ele>279.0</ele><time>2026-04-25T08:05:24.027Z</time></trkpt><trkpt lat="43.5823667" lon="11.86629"><ele>279.0</ele><time>2026-04-25T08:05:25.031Z</time></trkpt><trkpt lat="43.5824217" lon="11.8662017"><ele>279.0</ele><time>2026-04-25T08:05:26.026Z</time></trkpt><trkpt lat="43.58248" lon="11.86613"><ele>279.0</ele><time>2026-04-25T08:05:27.031Z</time></trkpt><trkpt lat="43.5825367" lon="11.866085"><ele>279.0</ele><time>2026-04-25T08:05:28.028Z</time></trkpt><trkpt lat="43.582615" lon="11.8660733"><ele>279.0</ele><time>2026-04-25T08:05:30.033Z</time></trkpt><trkpt lat="43.5827217" lon="11.866125"><ele>279.0</ele><time>2026-04-25T08:05:32.031Z</time></trkpt><trkpt lat="43.582795" lon="11.86617"><ele>279.0</ele><time>2026-04-25T08:05:33.03Z</time></trkpt><trkpt lat="43.5828767" lon="11.866215"><ele>281.4</ele><time>2026-04-25T08:05:34.029Z</time></trkpt><trkpt lat="43.5829583" lon="11.86626"><ele>283.79999999999995</ele><time>2026-04-25T08:05:35.027Z</time></trkpt><trkpt lat="43.583045" lon="11.8663"><ele>286.20000000000005</ele><time>2026-04-25T08:05:36.025Z</time></trkpt><trkpt lat="43.5831367" lon="11.8663383"><ele>288.6</ele><time>2026-04-25T08:05:37.027Z</time></trkpt><trkpt lat="43.58324" lon="11.8663667"><ele>291.0</ele><time>2026-04-25T08:05:38.039Z</time></trkpt><trkpt lat="43.5833533" lon="11.8663867"><ele>291.0</ele><time>2026-04-25T08:05:39.028Z</time></trkpt><trkpt lat="43.583465" lon="11.866395"><ele>291.0</ele><time>2026-04-25T08:05:40.033Z</time></trkpt><trkpt lat="43.58358" lon="11.8664"><ele>291.0</ele><time>2026-04-25T08:05:41.03Z</time></trkpt><trkpt lat="43.583695" lon="11.8664"><ele>291.0</ele><time>2026-04-25T08:05:42.029Z</time></trkpt><trkpt lat="43.5838067" lon="11.8664033"><ele>294.0</ele><time>2026-04-25T08:05:43.026Z</time></trkpt><trkpt lat="43.5839183" lon="11.8664117"><ele>297.0</ele><time>2026-04-25T08:05:44.028Z</time></trkpt><trkpt lat="43.58403" lon="11.866425"><ele>300.0</ele><time>2026-04-25T08:05:45.03Z</time></trkpt><trkpt lat="43.5841417" lon="11.8664367"><ele>303.0</ele><time>2026-04-25T08:05:46.026Z</time></trkpt><trkpt lat="43.5842517" lon="11.8664417"><ele>306.0</ele><time>2026-04-25T08:05:47.028Z</time></trkpt><trkpt lat="43.58436" lon="11.8664417"><ele>306.0</ele><time>2026-04-25T08:05:48.025Z</time></trkpt><trkpt lat="43.5844717" lon="11.8664317"><ele>306.0</ele><time>2026-04-25T08:05:49.029Z</time></trkpt><trkpt lat="43.584585" lon="11.866415"><ele>306.0</ele><time>2026-04-25T08:05:50.029Z</time></trkpt><trkpt lat="43.5846883" lon="11.86639"><ele>306.0</ele><time>2026-04-25T08:05:51.031Z</time></trkpt><trkpt lat="43.5847867" lon="11.8663567"><ele>306.0</ele><time>2026-04-25T08:05:52.034Z</time></trkpt><trkpt lat="43.5848833" lon="11.8663133"><ele>309.4</ele><time>2026-04-25T08:05:53.033Z</time></trkpt><trkpt lat="43.5849867" lon="11.8662583"><ele>312.8</ele><time>2026-04-25T08:05:54.024Z</time></trkpt><trkpt lat="43.5850933" lon="11.8662033"><ele>316.2</ele><time>2026-04-25T08:05:55.028Z</time></trkpt><trkpt lat="43.5852" lon="11.8661633"><ele>319.59999999999997</ele><time>2026-04-25T08:05:56.026Z</time></trkpt><trkpt lat="43.585305" lon="11.8661367"><ele>323.0</ele><time>2026-04-25T08:05:57.034Z</time></trkpt><trkpt lat="43.585415" lon="11.8661133"><ele>325.79999999999995</ele><time>2026-04-25T08:05:58.025Z</time></trkpt><trkpt lat="43.585525" lon="11.8660933"><ele>328.6</ele><time>2026-04-25T08:05:59.029Z</time></trkpt><trkpt lat="43.585635" lon="11.8660867"><ele>331.4</ele><time>2026-04-25T08:06:00.033Z</time></trkpt><trkpt lat="43.5857467" lon="11.86609"><ele>334.20000000000005</ele><time>2026-04-25T08:06:01.031Z</time></trkpt><trkpt lat="43.58586" lon="11.8661017"><ele>337.0</ele><time>2026-04-25T08:06:02.029Z</time></trkpt><trkpt lat="43.5859733" lon="11.866125"><ele>337.0</ele><time>2026-04-25T08:06:03.025Z</time></trkpt><trkpt lat="43.5860633" lon="11.8661633"><ele>337.0</ele><time>2026-04-25T08:06:04.03Z</time></trkpt><trkpt lat="43.58615" lon="11.8661933"><ele>337.0</ele><time>2026-04-25T08:06:05.031Z</time></trkpt><trkpt lat="43.586225" lon="11.866215"><ele>337.0</ele><time>2026-04-25T08:06:06.03Z</time></trkpt><trkpt lat="43.586295" lon="11.866205"><ele>337.0</ele><time>2026-04-25T08:06:07.028Z</time></trkpt><trkpt lat="43.5863724" lon="11.8661438"><ele>337.0</ele><time>2026-04-25T08:06:09.033Z</time></trkpt><trkpt lat="43.5863645" lon="11.8660184"><ele>339.0</ele><time>2026-04-25T08:06:11.029Z</time></trkpt><trkpt lat="43.5863077" lon="11.8659505"><ele>341.0</ele><time>2026-04-25T08:06:12.029Z</time></trkpt><trkpt lat="43.5862205" lon="11.8658888"><ele>343.0</ele><time>2026-04-25T08:06:13.028Z</time></trkpt><trkpt lat="43.58611" lon="11.8658286"><ele>345.0</ele><time>2026-04-25T08:06:14.035Z</time></trkpt><trkpt lat="43.5859889" lon="11.8657698"><ele>347.0</ele><time>2026-04-25T08:06:15.027Z</time></trkpt><trkpt lat="43.585852" lon="11.8657144"><ele>348.25</ele><time>2026-04-25T08:06:16.038Z</time></trkpt><trkpt lat="43.5857089" lon="11.8656546"><ele>349.5</ele><time>2026-04-25T08:06:17.03Z</time></trkpt><trkpt lat="43.5855689" lon="11.8655897"><ele>350.75</ele><time>2026-04-25T08:06:18.031Z</time></trkpt><trkpt lat="43.585442" lon="11.8655296"><ele>352.0</ele><time>2026-04-25T08:06:19.028Z</time></trkpt><trkpt lat="43.5853174" lon="11.8654757"><ele>352.0</ele><time>2026-04-25T08:06:20.028Z</time></trkpt><trkpt lat="43.5852011" lon="11.8654258"><ele>352.0</ele><time>2026-04-25T08:06:21.03Z</time></trkpt><trkpt lat="43.5851064" lon="11.8653732"><ele>352.0</ele><time>2026-04-25T08:06:22.029Z</time></trkpt><trkpt lat="43.58504" lon="11.8653151"><ele>352.0</ele><time>2026-04-25T08:06:23.031Z</time></trkpt><trkpt lat="43.5849987" lon="11.8652443"><ele>352.0</ele><time>2026-04-25T08:06:24.031Z</time></trkpt><trkpt lat="43.5849847" lon="11.8651592"><ele>352.0</ele><time>2026-04-25T08:06:25.027Z</time></trkpt><trkpt lat="43.5850233" lon="11.8650082"><ele>352.0</ele><time>2026-04-25T08:06:27.03Z</time></trkpt><trkpt lat="43.5850757" lon="11.8649527"><ele>352.0</ele><time>2026-04-25T08:06:29.031Z</time></trkpt><trkpt lat="43.5850583" lon="11.8648617"><ele>352.0</ele><time>2026-04-25T08:07:05.027Z</time></trkpt><trkpt lat="43.58508" lon="11.8647383"><ele>352.0</ele><time>2026-04-25T08:07:07.029Z</time></trkpt><trkpt lat="43.5850967" lon="11.8646533"><ele>352.0</ele><time>2026-04-25T08:07:08.027Z</time></trkpt><trkpt lat="43.5851167" lon="11.8645583"><ele>352.0</ele><time>2026-04-25T08:07:09.03Z</time></trkpt><trkpt lat="43.5851467" lon="11.8644133"><ele>352.0</ele><time>2026-04-25T08:07:11.033Z</time></trkpt><trkpt lat="43.5851517" lon="11.86431"><ele>352.0</ele><time>2026-04-25T08:07:13.033Z</time></trkpt><trkpt lat="43.5851433" lon="11.8642067"><ele>352.0</ele><time>2026-04-25T08:07:16.026Z</time></trkpt><trkpt lat="43.5851633" lon="11.8643467"><ele>352.0</ele><time>2026-04-25T08:07:48.025Z</time></trkpt><trkpt lat="43.585145" lon="11.8644633"><ele>352.0</ele><time>2026-04-25T08:07:49.025Z</time></trkpt><trkpt lat="43.5851167" lon="11.86458"><ele>352.0</ele><time>2026-04-25T08:07:50.027Z</time></trkpt><trkpt lat="43.58509" lon="11.86468"><ele>352.0</ele><time>2026-04-25T08:07:51.029Z</time></trkpt><trkpt lat="43.5850633" lon="11.8647683"><ele>352.0</ele><time>2026-04-25T08:07:52.033Z</time></trkpt><trkpt lat="43.585035" lon="11.8648967"><ele>352.0</ele><time>2026-04-25T08:07:54.029Z</time></trkpt><trkpt lat="43.5850933" lon="11.8649567"><ele>352.0</ele><time>2026-04-25T08:07:56.03Z</time></trkpt><trkpt lat="43.5851633" lon="11.864975"><ele>352.0</ele><time>2026-04-25T08:07:58.031Z</time></trkpt><trkpt lat="43.5853117" lon="11.86496"><ele>355.5</ele><time>2026-04-25T08:09:07.029Z</time></trkpt><trkpt lat="43.58543" lon="11.8649917"><ele>359.0</ele><time>2026-04-25T08:09:09.028Z</time></trkpt><trkpt lat="43.5855" lon="11.8650017"><ele>362.5</ele><time>2026-04-25T08:09:10.028Z</time></trkpt><trkpt lat="43.585575" lon="11.865005"><ele>366.0</ele><time>2026-04-25T08:09:11.027Z</time></trkpt><trkpt lat="43.585645" lon="11.8650167"><ele>369.5</ele><time>2026-04-25T08:09:12.028Z</time></trkpt><trkpt lat="43.5857117" lon="11.8650317"><ele>373.0</ele><time>2026-04-25T08:09:13.033Z</time></trkpt><trkpt lat="43.5857817" lon="11.8650467"><ele>373.0</ele><time>2026-04-25T08:09:14.033Z</time></trkpt><trkpt lat="43.5858617" lon="11.865045"><ele>373.0</ele><time>2026-04-25T08:09:15.033Z</time></trkpt><trkpt lat="43.5859467" lon="11.8650367"><ele>373.0</ele><time>2026-04-25T08:09:16.032Z</time></trkpt><trkpt lat="43.5860383" lon="11.86502"><ele>373.0</ele><time>2026-04-25T08:09:17.031Z</time></trkpt><trkpt lat="43.5861267" lon="11.8650033"><ele>373.0</ele><time>2026-04-25T08:09:18.026Z</time></trkpt><trkpt lat="43.5862217" lon="11.8649767"><ele>373.0</ele><time>2026-04-25T08:09:19.035Z</time></trkpt><trkpt lat="43.5863267" lon="11.8649467"><ele>376.0</ele><time>2026-04-25T08:09:20.028Z</time></trkpt><trkpt lat="43.586435" lon="11.86491"><ele>379.0</ele><time>2026-04-25T08:09:21.032Z</time></trkpt><trkpt lat="43.5865367" lon="11.8648733"><ele>382.0</ele><time>2026-04-25T08:09:22.032Z</time></trkpt><trkpt lat="43.5866367" lon="11.8648267"><ele>385.0</ele><time>2026-04-25T08:09:23.033Z</time></trkpt><trkpt lat="43.5867317" lon="11.8647967"><ele>388.0</ele><time>2026-04-25T08:09:24.03Z</time></trkpt><trkpt lat="43.586815" lon="11.8647767"><ele>388.00000000000006</ele><time>2026-04-25T08:09:25.023Z</time></trkpt><trkpt lat="43.5869" lon="11.864775"><ele>388.0</ele><time>2026-04-25T08:09:26.033Z</time></trkpt><trkpt lat="43.5869883" lon="11.864785"><ele>388.0</ele><time>2026-04-25T08:09:27.028Z</time></trkpt><trkpt lat="43.5870783" lon="11.864805"><ele>388.0</ele><time>2026-04-25T08:09:28.03Z</time></trkpt><trkpt lat="43.5871617" lon="11.8648283"><ele>388.00000000000006</ele><time>2026-04-25T08:09:29.029Z</time></trkpt><trkpt lat="43.58724" lon="11.8648217"><ele>388.0</ele><time>2026-04-25T08:09:30.03Z</time></trkpt><trkpt lat="43.5873267" lon="11.8648083"><ele>391.4</ele><time>2026-04-25T08:09:31.03Z</time></trkpt><trkpt lat="43.5874117" lon="11.8647933"><ele>394.79999999999995</ele><time>2026-04-25T08:09:32.031Z</time></trkpt><trkpt lat="43.5875" lon="11.8647733"><ele>398.2</ele><time>2026-04-25T08:09:33.038Z</time></trkpt><trkpt lat="43.5876017" lon="11.8647483"><ele>401.6</ele><time>2026-04-25T08:09:34.028Z</time></trkpt><trkpt lat="43.5876933" lon="11.8647367"><ele>405.0</ele><time>2026-04-25T08:09:35.028Z</time></trkpt><trkpt lat="43.5877833" lon="11.864745"><ele>407.6666666666667</ele><time>2026-04-25T08:09:36.029Z</time></trkpt><trkpt lat="43.587865" lon="11.86478"><ele>410.33333333333337</ele><time>2026-04-25T08:09:37.031Z</time></trkpt><trkpt lat="43.58793" lon="11.8648333"><ele>413.0</ele><time>2026-04-25T08:09:38.028Z</time></trkpt><trkpt lat="43.587985" lon="11.86489"><ele>415.6666666666667</ele><time>2026-04-25T08:09:39.033Z</time></trkpt><trkpt lat="43.5880467" lon="11.864935"><ele>418.33333333333337</ele><time>2026-04-25T08:09:40.031Z</time></trkpt><trkpt lat="43.5881517" lon="11.864945"><ele>421.0</ele><time>2026-04-25T08:09:42.025Z</time></trkpt><trkpt lat="43.5882467" lon="11.8648167"><ele>421.00000000000006</ele><time>2026-04-25T08:09:44.03Z</time></trkpt><trkpt lat="43.5882883" lon="11.8647117"><ele>421.0</ele><time>2026-04-25T08:09:45.028Z</time></trkpt><trkpt lat="43.588335" lon="11.8646167"><ele>421.0</ele><time>2026-04-25T08:09:46.03Z</time></trkpt><trkpt lat="43.588385" lon="11.8645267"><ele>421.0</ele><time>2026-04-25T08:09:47.032Z</time></trkpt><trkpt lat="43.588455" lon="11.8644667"><ele>421.00000000000006</ele><time>2026-04-25T08:09:48.031Z</time></trkpt><trkpt lat="43.5885317" lon="11.8644383"><ele>421.0</ele><time>2026-04-25T08:09:49.027Z</time></trkpt><trkpt lat="43.588625" lon="11.8644183"><ele>422.8</ele><time>2026-04-25T08:09:50.032Z</time></trkpt><trkpt lat="43.5887267" lon="11.8644033"><ele>424.6</ele><time>2026-04-25T08:09:51.033Z</time></trkpt><trkpt lat="43.58882" lon="11.8643967"><ele>426.4</ele><time>2026-04-25T08:09:52.029Z</time></trkpt><trkpt lat="43.58891" lon="11.864405"><ele>428.2</ele><time>2026-04-25T08:09:53.03Z</time></trkpt><trkpt lat="43.5890017" lon="11.8644183"><ele>430.0</ele><time>2026-04-25T08:09:54.028Z</time></trkpt><trkpt lat="43.5891067" lon="11.8644417"><ele>430.0</ele><time>2026-04-25T08:09:55.032Z</time></trkpt><trkpt lat="43.5892167" lon="11.864465"><ele>430.0</ele><time>2026-04-25T08:09:56.03Z</time></trkpt><trkpt lat="43.5893217" lon="11.8644683"><ele>430.0</ele><time>2026-04-25T08:09:57.03Z</time></trkpt><trkpt lat="43.5894183" lon="11.8644567"><ele>430.0</ele><time>2026-04-25T08:09:58.026Z</time></trkpt><trkpt lat="43.5895117" lon="11.8644267"><ele>430.0</ele><time>2026-04-25T08:09:59.029Z</time></trkpt><trkpt lat="43.5895883" lon="11.8644"><ele>431.4</ele><time>2026-04-25T08:10:00.029Z</time></trkpt><trkpt lat="43.5896667" lon="11.864395"><ele>432.8</ele><time>2026-04-25T08:10:01.028Z</time></trkpt><trkpt lat="43.5897517" lon="11.864415"><ele>434.20000000000005</ele><time>2026-04-25T08:10:02.029Z</time></trkpt><trkpt lat="43.5898433" lon="11.8644317"><ele>435.6</ele><time>2026-04-25T08:10:03.028Z</time></trkpt><trkpt lat="43.5899417" lon="11.864435"><ele>437.0</ele><time>2026-04-25T08:10:04.03Z</time></trkpt><trkpt lat="43.5900483" lon="11.86441"><ele>437.0</ele><time>2026-04-25T08:10:05.029Z</time></trkpt><trkpt lat="43.5901533" lon="11.8643783"><ele>437.00000000000006</ele><time>2026-04-25T08:10:06.03Z</time></trkpt><trkpt lat="43.5902583" lon="11.8643533"><ele>437.00000000000006</ele><time>2026-04-25T08:10:07.026Z</time></trkpt><trkpt lat="43.5903633" lon="11.864335"><ele>437.0</ele><time>2026-04-25T08:10:08.028Z</time></trkpt><trkpt lat="43.5904567" lon="11.864325"><ele>437.0</ele><time>2026-04-25T08:10:09.03Z</time></trkpt><trkpt lat="43.5905417" lon="11.8643017"><ele>441.66666666666663</ele><time>2026-04-25T08:10:10.029Z</time></trkpt><trkpt lat="43.5906283" lon="11.8642617"><ele>446.3333333333333</ele><time>2026-04-25T08:10:11.03Z</time></trkpt><trkpt lat="43.5907167" lon="11.8642217"><ele>451.0</ele><time>2026-04-25T08:10:12.026Z</time></trkpt><trkpt lat="43.59079" lon="11.8641717"><ele>455.66666666666663</ele><time>2026-04-25T08:10:13.031Z</time></trkpt><trkpt lat="43.5908383" lon="11.8641117"><ele>460.3333333333333</ele><time>2026-04-25T08:10:14.028Z</time></trkpt><trkpt lat="43.5908783" lon="11.86403"><ele>465.0</ele><time>2026-04-25T08:10:15.027Z</time></trkpt><trkpt lat="43.59091" lon="11.863915"><ele>465.0</ele><time>2026-04-25T08:10:16.034Z</time></trkpt><trkpt lat="43.5909483" lon="11.8637783"><ele>465.0</ele><time>2026-04-25T08:10:17.028Z</time></trkpt><trkpt lat="43.590985" lon="11.8636267"><ele>465.0</ele><time>2026-04-25T08:10:18.025Z</time></trkpt><trkpt lat="43.5910183" lon="11.8634783"><ele>465.0</ele><time>2026-04-25T08:10:19.031Z</time></trkpt><trkpt lat="43.5910567" lon="11.8633267"><ele>466.25</ele><time>2026-04-25T08:10:20.032Z</time></trkpt><trkpt lat="43.5911017" lon="11.8631717"><ele>467.5</ele><time>2026-04-25T08:10:21.032Z</time></trkpt><trkpt lat="43.5911517" lon="11.8630283"><ele>468.75</ele><time>2026-04-25T08:10:22.027Z</time></trkpt><trkpt lat="43.5912117" lon="11.862895"><ele>470.0</ele><time>2026-04-25T08:10:23.026Z</time></trkpt><trkpt lat="43.5912817" lon="11.8627733"><ele>470.6</ele><time>2026-04-25T08:10:24.03Z</time></trkpt><trkpt lat="43.59135" lon="11.862655"><ele>471.2</ele><time>2026-04-25T08:10:25.03Z</time></trkpt><trkpt lat="43.591425" lon="11.86254"><ele>471.79999999999995</ele><time>2026-04-25T08:10:26.027Z</time></trkpt><trkpt lat="43.5914983" lon="11.86243"><ele>472.4</ele><time>2026-04-25T08:10:27.033Z</time></trkpt><trkpt lat="43.5915617" lon="11.862335"><ele>473.0</ele><time>2026-04-25T08:10:28.037Z</time></trkpt><trkpt lat="43.5916083" lon="11.8622467"><ele>472.79999999999995</ele><time>2026-04-25T08:10:29.026Z</time></trkpt><trkpt lat="43.5916533" lon="11.8621417"><ele>472.59999999999997</ele><time>2026-04-25T08:10:30.029Z</time></trkpt><trkpt lat="43.5916933" lon="11.8620117"><ele>472.40000000000003</ele><time>2026-04-25T08:10:31.026Z</time></trkpt><trkpt lat="43.5917383" lon="11.86187"><ele>472.20000000000005</ele><time>2026-04-25T08:10:32.033Z</time></trkpt><trkpt lat="43.5917833" lon="11.8617283"><ele>472.0</ele><time>2026-04-25T08:10:33.033Z</time></trkpt><trkpt lat="43.591825" lon="11.8615917"><ele>472.0</ele><time>2026-04-25T08:10:34.03Z</time></trkpt><trkpt lat="43.591865" lon="11.8614683"><ele>472.00000000000006</ele><time>2026-04-25T08:10:35.029Z</time></trkpt><trkpt lat="43.5919017" lon="11.8613483"><ele>472.00000000000006</ele><time>2026-04-25T08:10:36.029Z</time></trkpt><trkpt lat="43.5919417" lon="11.8612217"><ele>472.0</ele><time>2026-04-25T08:10:37.031Z</time></trkpt><trkpt lat="43.5919917" lon="11.8610967"><ele>472.0</ele><time>2026-04-25T08:10:38.029Z</time></trkpt><trkpt lat="43.59204" lon="11.8609983"><ele>474.00000000000006</ele><time>2026-04-25T08:10:39.029Z</time></trkpt><trkpt lat="43.5921067" lon="11.860905"><ele>476.0</ele><time>2026-04-25T08:10:40.028Z</time></trkpt><trkpt lat="43.5921633" lon="11.8608383"><ele>478.0</ele><time>2026-04-25T08:10:41.028Z</time></trkpt><trkpt lat="43.5922233" lon="11.8607667"><ele>480.0</ele><time>2026-04-25T08:10:42.033Z</time></trkpt><trkpt lat="43.5922767" lon="11.8606817"><ele>482.00000000000006</ele><time>2026-04-25T08:10:43.026Z</time></trkpt><trkpt lat="43.592325" lon="11.860575"><ele>484.0</ele><time>2026-04-25T08:10:44.03Z</time></trkpt><trkpt lat="43.5923733" lon="11.8604617"><ele>484.0</ele><time>2026-04-25T08:10:45.029Z</time></trkpt><trkpt lat="43.5924167" lon="11.8603233"><ele>484.0</ele><time>2026-04-25T08:10:46.028Z</time></trkpt><trkpt lat="43.592455" lon="11.8601783"><ele>484.0</ele><time>2026-04-25T08:10:47.032Z</time></trkpt><trkpt lat="43.5925017" lon="11.8600283"><ele>484.0</ele><time>2026-04-25T08:10:48.028Z</time></trkpt><trkpt lat="43.5925433" lon="11.8598817"><ele>485.6</ele><time>2026-04-25T08:10:49.03Z</time></trkpt><trkpt lat="43.59258" lon="11.8597367"><ele>487.2</ele><time>2026-04-25T08:10:50.03Z</time></trkpt><trkpt lat="43.5926233" lon="11.8595883"><ele>488.80000000000007</ele><time>2026-04-25T08:10:51.027Z</time></trkpt><trkpt lat="43.59266" lon="11.8594417"><ele>490.40000000000003</ele><time>2026-04-25T08:10:52.035Z</time></trkpt><trkpt lat="43.5926983" lon="11.859305"><ele>492.0</ele><time>2026-04-25T08:10:53.032Z</time></trkpt><trkpt lat="43.5927383" lon="11.8591733"><ele>492.6</ele><time>2026-04-25T08:10:54.033Z</time></trkpt><trkpt lat="43.5927733" lon="11.8590383"><ele>493.20000000000005</ele><time>2026-04-25T08:10:55.032Z</time></trkpt><trkpt lat="43.59281" lon="11.8589183"><ele>493.8</ele><time>2026-04-25T08:10:56.03Z</time></trkpt><trkpt lat="43.592845" lon="11.8587983"><ele>494.4</ele><time>2026-04-25T08:10:57.032Z</time></trkpt><trkpt lat="43.5928767" lon="11.8586833"><ele>495.0</ele><time>2026-04-25T08:10:58.031Z</time></trkpt><trkpt lat="43.5929067" lon="11.8585833"><ele>496.4</ele><time>2026-04-25T08:10:59.036Z</time></trkpt><trkpt lat="43.5929533" lon="11.85848"><ele>497.8</ele><time>2026-04-25T08:11:00.033Z</time></trkpt><trkpt lat="43.5930133" lon="11.8583817"><ele>499.20000000000005</ele><time>2026-04-25T08:11:01.035Z</time></trkpt><trkpt lat="43.5930933" lon="11.8583033"><ele>500.6</ele><time>2026-04-25T08:11:02.027Z</time></trkpt><trkpt lat="43.5931867" lon="11.8582283"><ele>502.0</ele><time>2026-04-25T08:11:03.031Z</time></trkpt><trkpt lat="43.5932683" lon="11.8581417"><ele>502.1666666666667</ele><time>2026-04-25T08:11:04.031Z</time></trkpt><trkpt lat="43.5933483" lon="11.85806"><ele>502.33333333333337</ele><time>2026-04-25T08:11:05.031Z</time></trkpt><trkpt lat="43.5934183" lon="11.85799"><ele>502.5</ele><time>2026-04-25T08:11:06.028Z</time></trkpt><trkpt lat="43.593485" lon="11.857925"><ele>502.66666666666663</ele><time>2026-04-25T08:11:07.03Z</time></trkpt><trkpt lat="43.593565" lon="11.85788"><ele>502.8333333333333</ele><time>2026-04-25T08:11:08.035Z</time></trkpt><trkpt lat="43.593645" lon="11.8578283"><ele>503.0</ele><time>2026-04-25T08:11:09.029Z</time></trkpt><trkpt lat="43.5937117" lon="11.857775"><ele>503.59999999999997</ele><time>2026-04-25T08:11:10.032Z</time></trkpt><trkpt lat="43.5937717" lon="11.8577183"><ele>504.19999999999993</ele><time>2026-04-25T08:11:11.03Z</time></trkpt><trkpt lat="43.5938433" lon="11.85765"><ele>504.8</ele><time>2026-04-25T08:11:13.028Z</time></trkpt><trkpt lat="43.5939133" lon="11.8576767"><ele>505.4</ele><time>2026-04-25T08:12:43.026Z</time></trkpt><trkpt lat="43.5940133" lon="11.85766"><ele>506.0</ele><time>2026-04-25T08:12:45.03Z</time></trkpt><trkpt lat="43.594115" lon="11.8575783"><ele>507.49999999999994</ele><time>2026-04-25T08:12:47.035Z</time></trkpt><trkpt lat="43.5942233" lon="11.857565"><ele>509.0</ele><time>2026-04-25T08:12:49.025Z</time></trkpt><trkpt lat="43.5943133" lon="11.8576017"><ele>510.5</ele><time>2026-04-25T08:12:51.033Z</time></trkpt><trkpt lat="43.5942533" lon="11.8575667"><ele>512.0</ele><time>2026-04-25T08:13:14.03Z</time></trkpt><trkpt lat="43.5941883" lon="11.857565"><ele>513.5</ele><time>2026-04-25T08:13:15.031Z</time></trkpt><trkpt lat="43.594125" lon="11.8575833"><ele>515.0</ele><time>2026-04-25T08:13:16.026Z</time></trkpt><trkpt lat="43.5940617" lon="11.8576183"><ele>515.0</ele><time>2026-04-25T08:13:17.027Z</time></trkpt><trkpt lat="43.5939967" lon="11.857655"><ele>515.0</ele><time>2026-04-25T08:13:18.029Z</time></trkpt><trkpt lat="43.59389" lon="11.8576633"><ele>515.0</ele><time>2026-04-25T08:13:20.026Z</time></trkpt><trkpt lat="43.5938233" lon="11.8575783"><ele>515.0</ele><time>2026-04-25T08:13:22.029Z</time></trkpt><trkpt lat="43.59383" lon="11.8574533"><ele>515.0</ele><time>2026-04-25T08:13:24.024Z</time></trkpt><trkpt lat="43.5938583" lon="11.85737"><ele>515.0</ele><time>2026-04-25T08:13:25.039Z</time></trkpt><trkpt lat="43.59388" lon="11.8572833"><ele>515.0</ele><time>2026-04-25T08:13:26.03Z</time></trkpt><trkpt lat="43.5939" lon="11.857145"><ele>515.0</ele><time>2026-04-25T08:13:28.033Z</time></trkpt><trkpt lat="43.5938117" lon="11.857035"><ele>515.0</ele><time>2026-04-25T08:13:30.031Z</time></trkpt><trkpt lat="43.59373" lon="11.856995"><ele>515.0</ele><time>2026-04-25T08:13:31.039Z</time></trkpt><trkpt lat="43.5936433" lon="11.8569583"><ele>515.0</ele><time>2026-04-25T08:13:32.032Z</time></trkpt><trkpt lat="43.5935383" lon="11.8569117"><ele>515.0</ele><time>2026-04-25T08:13:33.031Z</time></trkpt><trkpt lat="43.5934267" lon="11.8568533"><ele>515.0</ele><time>2026-04-25T08:13:34.034Z</time></trkpt><trkpt lat="43.593325" lon="11.8567967"><ele>515.0</ele><time>2026-04-25T08:13:35.027Z</time></trkpt><trkpt lat="43.5932317" lon="11.85675"><ele>515.0</ele><time>2026-04-25T08:13:36.032Z</time></trkpt><trkpt lat="43.5931417" lon="11.8567017"><ele>515.0</ele><time>2026-04-25T08:13:37.032Z</time></trkpt><trkpt lat="43.59306" lon="11.8566533"><ele>515.0</ele><time>2026-04-25T08:13:38.029Z</time></trkpt><trkpt lat="43.5930017" lon="11.85661"><ele>515.0</ele><time>2026-04-25T08:13:39.033Z</time></trkpt><trkpt lat="43.592915" lon="11.8565417"><ele>515.0</ele><time>2026-04-25T08:13:41.028Z</time></trkpt><trkpt lat="43.5928383" lon="11.8564933"><ele>515.0</ele><time>2026-04-25T08:13:52.027Z</time></trkpt><trkpt lat="43.592775" lon="11.8564367"><ele>515.0</ele><time>2026-04-25T08:13:54.032Z</time></trkpt><trkpt lat="43.5927183" lon="11.85637"><ele>515.0</ele><time>2026-04-25T08:13:57.029Z</time></trkpt><trkpt lat="43.592655" lon="11.8563333"><ele>512.5</ele><time>2026-04-25T08:14:00.035Z</time></trkpt><trkpt lat="43.5925783" lon="11.8562883"><ele>510.0</ele><time>2026-04-25T08:14:02.027Z</time></trkpt><trkpt lat="43.5924967" lon="11.8562867"><ele>507.5</ele><time>2026-04-25T08:14:04.031Z</time></trkpt><trkpt lat="43.5924183" lon="11.8563167"><ele>505.0</ele><time>2026-04-25T08:14:06.027Z</time></trkpt><trkpt lat="43.592355" lon="11.856305"><ele>502.49999999999994</ele><time>2026-04-25T08:14:08.027Z</time></trkpt><trkpt lat="43.5922783" lon="11.8563067"><ele>500.0</ele><time>2026-04-25T08:14:10.033Z</time></trkpt><trkpt lat="43.592255" lon="11.8564017"><ele>500.0</ele><time>2026-04-25T08:14:12.029Z</time></trkpt><trkpt lat="43.5922033" lon="11.8564917"><ele>500.0</ele><time>2026-04-25T08:14:14.029Z</time></trkpt><trkpt lat="43.5921267" lon="11.85655"><ele>500.0</ele><time>2026-04-25T08:14:16.03Z</time></trkpt><trkpt lat="43.59203" lon="11.85658"><ele>500.0</ele><time>2026-04-25T08:14:18.03Z</time></trkpt><trkpt lat="43.59194" lon="11.8566133"><ele>500.0</ele><time>2026-04-25T08:14:20.044Z</time></trkpt><trkpt lat="43.59188" lon="11.8567033"><ele>496.49999999999994</ele><time>2026-04-25T08:14:23.029Z</time></trkpt><trkpt lat="43.591815" lon="11.8567567"><ele>493.0</ele><time>2026-04-25T08:14:25.031Z</time></trkpt><trkpt lat="43.59172" lon="11.8567767"><ele>489.5</ele><time>2026-04-25T08:14:27.028Z</time></trkpt><trkpt lat="43.59162" lon="11.85684"><ele>486.0</ele><time>2026-04-25T08:14:29.029Z</time></trkpt><trkpt lat="43.5915333" lon="11.8568967"><ele>482.49999999999994</ele><time>2026-04-25T08:14:31.031Z</time></trkpt><trkpt lat="43.591475" lon="11.8569317"><ele>479.0</ele><time>2026-04-25T08:14:33.031Z</time></trkpt><trkpt lat="43.5913617" lon="11.85694"><ele>478.99999999999994</ele><time>2026-04-25T08:14:44.03Z</time></trkpt><trkpt lat="43.59142" lon="11.8569867"><ele>479.0</ele><time>2026-04-25T08:15:11.033Z</time></trkpt><trkpt lat="43.5914917" lon="11.8569483"><ele>479.0</ele><time>2026-04-25T08:15:14.027Z</time></trkpt><trkpt lat="43.5915683" lon="11.8568917"><ele>479.0</ele><time>2026-04-25T08:15:17.028Z</time></trkpt><trkpt lat="43.5916633" lon="11.8568283"><ele>478.99999999999994</ele><time>2026-04-25T08:15:19.03Z</time></trkpt><trkpt lat="43.59176" lon="11.856795"><ele>479.0</ele><time>2026-04-25T08:15:21.035Z</time></trkpt><trkpt lat="43.59186" lon="11.856775"><ele>478.99999999999994</ele><time>2026-04-25T08:15:23.033Z</time></trkpt><trkpt lat="43.5919217" lon="11.856715"><ele>479.0</ele><time>2026-04-25T08:15:25.033Z</time></trkpt><trkpt lat="43.5919683" lon="11.85662"><ele>479.0</ele><time>2026-04-25T08:15:27.029Z</time></trkpt><trkpt lat="43.5920367" lon="11.85659"><ele>479.0</ele><time>2026-04-25T08:15:29.034Z</time></trkpt><trkpt lat="43.59214" lon="11.856555"><ele>478.99999999999994</ele><time>2026-04-25T08:15:31.036Z</time></trkpt><trkpt lat="43.5922217" lon="11.8564767"><ele>479.0</ele><time>2026-04-25T08:15:33.032Z</time></trkpt><trkpt lat="43.5922767" lon="11.8563467"><ele>482.49999999999994</ele><time>2026-04-25T08:15:35.032Z</time></trkpt><trkpt lat="43.5923333" lon="11.8562867"><ele>486.0</ele><time>2026-04-25T08:15:37.03Z</time></trkpt><trkpt lat="43.5924183" lon="11.8563"><ele>489.5</ele><time>2026-04-25T08:15:39.029Z</time></trkpt><trkpt lat="43.59251" lon="11.8562767"><ele>493.0</ele><time>2026-04-25T08:15:41.029Z</time></trkpt><trkpt lat="43.5925917" lon="11.85628"><ele>496.49999999999994</ele><time>2026-04-25T08:15:43.029Z</time></trkpt><trkpt lat="43.592665" lon="11.85633"><ele>500.0</ele><time>2026-04-25T08:15:45.03Z</time></trkpt><trkpt lat="43.5927417" lon="11.85641"><ele>500.0</ele><time>2026-04-25T08:15:47.025Z</time></trkpt><trkpt lat="43.5928183" lon="11.8564883"><ele>500.0</ele><time>2026-04-25T08:15:49.034Z</time></trkpt><trkpt lat="43.59287" lon="11.85641"><ele>500.0</ele><time>2026-04-25T08:15:53.032Z</time></trkpt><trkpt lat="43.59282" lon="11.8562667"><ele>500.0</ele><time>2026-04-25T08:15:55.029Z</time></trkpt><trkpt lat="43.5927917" lon="11.85613"><ele>500.0</ele><time>2026-04-25T08:15:57.033Z</time></trkpt><trkpt lat="43.5928367" lon="11.8560233"><ele>505.6</ele><time>2026-04-25T08:15:59.03Z</time></trkpt><trkpt lat="43.5929183" lon="11.8559333"><ele>511.2</ele><time>2026-04-25T08:16:01.03Z</time></trkpt><trkpt lat="43.5930233" lon="11.8559"><ele>516.8</ele><time>2026-04-25T08:16:03.034Z</time></trkpt><trkpt lat="43.59314" lon="11.855895"><ele>522.4</ele><time>2026-04-25T08:16:05.028Z</time></trkpt><trkpt lat="43.593255" lon="11.855865"><ele>528.0</ele><time>2026-04-25T08:16:07.031Z</time></trkpt><trkpt lat="43.5933533" lon="11.85581"><ele>528.0</ele><time>2026-04-25T08:16:09.037Z</time></trkpt><trkpt lat="43.5934817" lon="11.855775"><ele>528.0</ele><time>2026-04-25T08:16:11.028Z</time></trkpt><trkpt lat="43.5935467" lon="11.8557417"><ele>528.0</ele><time>2026-04-25T08:16:12.032Z</time></trkpt><trkpt lat="43.5936167" lon="11.85571"><ele>528.0</ele><time>2026-04-25T08:16:13.028Z</time></trkpt><trkpt lat="43.5937383" lon="11.8556867"><ele>528.0</ele><time>2026-04-25T08:16:15.032Z</time></trkpt><trkpt lat="43.59381" lon="11.85567"><ele>531.8</ele><time>2026-04-25T08:16:16.029Z</time></trkpt><trkpt lat="43.5939133" lon="11.8556083"><ele>535.5999999999999</ele><time>2026-04-25T08:16:18.031Z</time></trkpt><trkpt lat="43.5940083" lon="11.8555133"><ele>539.4000000000001</ele><time>2026-04-25T08:16:20.031Z</time></trkpt><trkpt lat="43.5941017" lon="11.85544"><ele>543.2</ele><time>2026-04-25T08:16:22.034Z</time></trkpt><trkpt lat="43.5941567" lon="11.8553967"><ele>547.0</ele><time>2026-04-25T08:16:23.035Z</time></trkpt><trkpt lat="43.5942575" lon="11.8553508"><ele>547.0</ele><time>2026-04-25T08:16:25.038Z</time></trkpt><trkpt lat="43.5943864" lon="11.8553457"><ele>547.0</ele><time>2026-04-25T08:16:27.033Z</time></trkpt><trkpt lat="43.5944559" lon="11.8553321"><ele>547.0</ele><time>2026-04-25T08:16:28.036Z</time></trkpt><trkpt lat="43.5945226" lon="11.8553138"><ele>547.0</ele><time>2026-04-25T08:16:29.031Z</time></trkpt><trkpt lat="43.5945816" lon="11.8552447"><ele>547.0</ele><time>2026-04-25T08:16:31.03Z</time></trkpt><trkpt lat="43.5946228" lon="11.8551286"><ele>547.0</ele><time>2026-04-25T08:16:33.027Z</time></trkpt><trkpt lat="43.5946949" lon="11.8550364"><ele>552.1666666666667</ele><time>2026-04-25T08:16:35.035Z</time></trkpt><trkpt lat="43.5947589" lon="11.8549684"><ele>557.3333333333334</ele><time>2026-04-25T08:16:37.028Z</time></trkpt><trkpt lat="43.5947962" lon="11.8548633"><ele>562.5</ele><time>2026-04-25T08:16:39.029Z</time></trkpt><trkpt lat="43.5948275" lon="11.8547449"><ele>567.6666666666666</ele><time>2026-04-25T08:16:41.026Z</time></trkpt><trkpt lat="43.594883" lon="11.8546565"><ele>572.8333333333333</ele><time>2026-04-25T08:16:43.028Z</time></trkpt><trkpt lat="43.5949618" lon="11.8545778"><ele>578.0</ele><time>2026-04-25T08:16:45.028Z</time></trkpt><trkpt lat="43.5950601" lon="11.8544966"><ele>578.0</ele><time>2026-04-25T08:16:47.032Z</time></trkpt><trkpt lat="43.5951577" lon="11.8544357"><ele>578.0</ele><time>2026-04-25T08:16:49.034Z</time></trkpt><trkpt lat="43.5952615" lon="11.8543855"><ele>578.0</ele><time>2026-04-25T08:16:51.027Z</time></trkpt><trkpt lat="43.5953553" lon="11.8543093"><ele>578.0</ele><time>2026-04-25T08:16:53.025Z</time></trkpt><trkpt lat="43.5954584" lon="11.8542646"><ele>578.0</ele><time>2026-04-25T08:16:55.031Z</time></trkpt><trkpt lat="43.5955243" lon="11.8542435"><ele>583.6</ele><time>2026-04-25T08:16:56.033Z</time></trkpt><trkpt lat="43.5955945" lon="11.8542245"><ele>589.1999999999999</ele><time>2026-04-25T08:16:57.033Z</time></trkpt><trkpt lat="43.5957062" lon="11.8541677"><ele>594.8</ele><time>2026-04-25T08:16:59.029Z</time></trkpt><trkpt lat="43.5957876" lon="11.8540765"><ele>600.4</ele><time>2026-04-25T08:17:01.029Z</time></trkpt><trkpt lat="43.595908" lon="11.8540123"><ele>606.0</ele><time>2026-04-25T08:17:03.029Z</time></trkpt><trkpt lat="43.595978" lon="11.8539802"><ele>606.0</ele><time>2026-04-25T08:17:04.027Z</time></trkpt><trkpt lat="43.5960367" lon="11.8539459"><ele>606.0</ele><time>2026-04-25T08:17:05.025Z</time></trkpt><trkpt lat="43.5960994" lon="11.8538504"><ele>606.0</ele><time>2026-04-25T08:17:07.025Z</time></trkpt><trkpt lat="43.5961086" lon="11.8537079"><ele>606.0</ele><time>2026-04-25T08:17:09.031Z</time></trkpt><trkpt lat="43.5961177" lon="11.8535533"><ele>606.0</ele><time>2026-04-25T08:17:11.033Z</time></trkpt><trkpt lat="43.5961433" lon="11.8534189"><ele>606.4</ele><time>2026-04-25T08:17:13.033Z</time></trkpt><trkpt lat="43.5960967" lon="11.8532833"><ele>606.8</ele><time>2026-04-25T08:17:31.024Z</time></trkpt><trkpt lat="43.5960533" lon="11.8531233"><ele>607.1999999999999</ele><time>2026-04-25T08:17:33.024Z</time></trkpt><trkpt lat="43.596025" lon="11.8530233"><ele>607.6</ele><time>2026-04-25T08:17:34.03Z</time></trkpt><trkpt lat="43.595995" lon="11.8529233"><ele>608.0</ele><time>2026-04-25T08:17:35.031Z</time></trkpt><trkpt lat="43.5959683" lon="11.8528133"><ele>608.0</ele><time>2026-04-25T08:17:36.03Z</time></trkpt><trkpt lat="43.595945" lon="11.8527033"><ele>608.0</ele><time>2026-04-25T08:17:37.033Z</time></trkpt><trkpt lat="43.5959333" lon="11.8525883"><ele>608.0</ele><time>2026-04-25T08:17:38.03Z</time></trkpt><trkpt lat="43.5959383" lon="11.8524883"><ele>608.0</ele><time>2026-04-25T08:17:39.035Z</time></trkpt><trkpt lat="43.5959517" lon="11.8523917"><ele>608.0</ele><time>2026-04-25T08:17:40.028Z</time></trkpt><trkpt lat="43.5959833" lon="11.8523"><ele>608.0</ele><time>2026-04-25T08:17:41.026Z</time></trkpt><trkpt lat="43.59603" lon="11.8522"><ele>606.0</ele><time>2026-04-25T08:17:42.027Z</time></trkpt><trkpt lat="43.5960667" lon="11.8520833"><ele>604.0</ele><time>2026-04-25T08:17:43.03Z</time></trkpt><trkpt lat="43.5960883" lon="11.8519583"><ele>602.0</ele><time>2026-04-25T08:17:44.025Z</time></trkpt><trkpt lat="43.5960983" lon="11.85183"><ele>600.0</ele><time>2026-04-25T08:17:45.031Z</time></trkpt><trkpt lat="43.596105" lon="11.8517"><ele>598.0</ele><time>2026-04-25T08:17:46.027Z</time></trkpt><trkpt lat="43.59611" lon="11.85158"><ele>597.0</ele><time>2026-04-25T08:17:47.031Z</time></trkpt><trkpt lat="43.596095" lon="11.85146"><ele>596.0</ele><time>2026-04-25T08:17:48.029Z</time></trkpt><trkpt lat="43.5960617" lon="11.8513417"><ele>595.0</ele><time>2026-04-25T08:17:49.06Z</time></trkpt><trkpt lat="43.59601" lon="11.851225"><ele>594.0</ele><time>2026-04-25T08:17:50.027Z</time></trkpt><trkpt lat="43.59596" lon="11.8511167"><ele>593.0</ele><time>2026-04-25T08:17:51.026Z</time></trkpt><trkpt lat="43.5959067" lon="11.8510117"><ele>593.6</ele><time>2026-04-25T08:17:52.031Z</time></trkpt><trkpt lat="43.5958467" lon="11.8509167"><ele>594.1999999999999</ele><time>2026-04-25T08:17:53.028Z</time></trkpt><trkpt lat="43.5957867" lon="11.8508217"><ele>594.8</ele><time>2026-04-25T08:17:54.028Z</time></trkpt><trkpt lat="43.5957333" lon="11.8507"><ele>595.4</ele><time>2026-04-25T08:17:55.036Z</time></trkpt><trkpt lat="43.5956917" lon="11.85058"><ele>596.0</ele><time>2026-04-25T08:17:56.032Z</time></trkpt><trkpt lat="43.5956467" lon="11.8504917"><ele>596.0</ele><time>2026-04-25T08:17:57.029Z</time></trkpt><trkpt lat="43.5955783" lon="11.8504233"><ele>596.0</ele><time>2026-04-25T08:17:58.029Z</time></trkpt><trkpt lat="43.5954967" lon="11.8503717"><ele>596.0</ele><time>2026-04-25T08:17:59.029Z</time></trkpt><trkpt lat="43.59541" lon="11.85033"><ele>596.0</ele><time>2026-04-25T08:18:00.034Z</time></trkpt><trkpt lat="43.5953283" lon="11.8503"><ele>596.0</ele><time>2026-04-25T08:18:01.025Z</time></trkpt><trkpt lat="43.5952583" lon="11.8502633"><ele>596.0</ele><time>2026-04-25T08:18:02.026Z</time></trkpt><trkpt lat="43.5951967" lon="11.8501967"><ele>596.0</ele><time>2026-04-25T08:18:03.027Z</time></trkpt><trkpt lat="43.595125" lon="11.8501283"><ele>596.0</ele><time>2026-04-25T08:18:04.027Z</time></trkpt><trkpt lat="43.5950517" lon="11.850055"><ele>596.0</ele><time>2026-04-25T08:18:05.028Z</time></trkpt><trkpt lat="43.5949833" lon="11.84997"><ele>596.0</ele><time>2026-04-25T08:18:06.028Z</time></trkpt><trkpt lat="43.59491" lon="11.8498817"><ele>596.0</ele><time>2026-04-25T08:18:07.029Z</time></trkpt><trkpt lat="43.5948417" lon="11.849805"><ele>596.0</ele><time>2026-04-25T08:18:08.033Z</time></trkpt><trkpt lat="43.594785" lon="11.849725"><ele>596.0</ele><time>2026-04-25T08:18:09.028Z</time></trkpt><trkpt lat="43.594735" lon="11.8496383"><ele>596.0</ele><time>2026-04-25T08:18:10.026Z</time></trkpt><trkpt lat="43.5946983" lon="11.849555"><ele>596.0</ele><time>2026-04-25T08:18:11.029Z</time></trkpt><trkpt lat="43.5946767" lon="11.8494733"><ele>596.0</ele><time>2026-04-25T08:18:12.022Z</time></trkpt><trkpt lat="43.5947083" lon="11.8493067"><ele>596.0</ele><time>2026-04-25T08:18:14.028Z</time></trkpt><trkpt lat="43.59476" lon="11.8492417"><ele>594.8</ele><time>2026-04-25T08:18:15.028Z</time></trkpt><trkpt lat="43.59482" lon="11.8491383"><ele>593.6</ele><time>2026-04-25T08:18:17.025Z</time></trkpt><trkpt lat="43.5947533" lon="11.84907"><ele>592.4</ele><time>2026-04-25T08:18:19.037Z</time></trkpt><trkpt lat="43.5946783" lon="11.8490333"><ele>591.2</ele><time>2026-04-25T08:18:20.03Z</time></trkpt><trkpt lat="43.5945833" lon="11.849005"><ele>590.0</ele><time>2026-04-25T08:18:21.027Z</time></trkpt><trkpt lat="43.59449" lon="11.8489733"><ele>590.0</ele><time>2026-04-25T08:18:22.029Z</time></trkpt><trkpt lat="43.5944017" lon="11.848935"><ele>590.0</ele><time>2026-04-25T08:18:23.024Z</time></trkpt><trkpt lat="43.59432" lon="11.848885"><ele>590.0</ele><time>2026-04-25T08:18:24.029Z</time></trkpt><trkpt lat="43.5942417" lon="11.848835"><ele>590.0</ele><time>2026-04-25T08:18:25.028Z</time></trkpt><trkpt lat="43.5941783" lon="11.8487733"><ele>590.0</ele><time>2026-04-25T08:18:26.027Z</time></trkpt><trkpt lat="43.59415" lon="11.8486333"><ele>590.0</ele><time>2026-04-25T08:18:28.026Z</time></trkpt><trkpt lat="43.594105" lon="11.8485167"><ele>590.0</ele><time>2026-04-25T08:18:30.026Z</time></trkpt><trkpt lat="43.5940483" lon="11.8484567"><ele>590.0</ele><time>2026-04-25T08:18:31.029Z</time></trkpt><trkpt lat="43.5939983" lon="11.8483883"><ele>590.0</ele><time>2026-04-25T08:18:32.03Z</time></trkpt><trkpt lat="43.5938967" lon="11.84827"><ele>590.0</ele><time>2026-04-25T08:18:34.031Z</time></trkpt><trkpt lat="43.5938433" lon="11.8481983"><ele>590.0</ele><time>2026-04-25T08:18:35.027Z</time></trkpt><trkpt lat="43.59378" lon="11.8481283"><ele>588.0</ele><time>2026-04-25T08:18:36.033Z</time></trkpt><trkpt lat="43.59371" lon="11.84806"><ele>586.0</ele><time>2026-04-25T08:18:37.034Z</time></trkpt><trkpt lat="43.593645" lon="11.8479967"><ele>584.0</ele><time>2026-04-25T08:18:38.036Z</time></trkpt><trkpt lat="43.5935817" lon="11.8479267"><ele>582.0</ele><time>2026-04-25T08:18:39.031Z</time></trkpt><trkpt lat="43.5935283" lon="11.8478433"><ele>580.0</ele><time>2026-04-25T08:18:40.026Z</time></trkpt><trkpt lat="43.5934767" lon="11.8477583"><ele>578.0</ele><time>2026-04-25T08:18:41.029Z</time></trkpt><trkpt lat="43.59344" lon="11.8476733"><ele>575.7142857142858</ele><time>2026-04-25T08:18:42.028Z</time></trkpt><trkpt lat="43.5933983" lon="11.8476"><ele>573.4285714285714</ele><time>2026-04-25T08:18:43.029Z</time></trkpt><trkpt lat="43.593365" lon="11.8475233"><ele>571.1428571428571</ele><time>2026-04-25T08:18:44.025Z</time></trkpt><trkpt lat="43.5933133" lon="11.8474583"><ele>568.8571428571429</ele><time>2026-04-25T08:18:45.025Z</time></trkpt><trkpt lat="43.593255" lon="11.84742"><ele>566.5714285714286</ele><time>2026-04-25T08:18:46.033Z</time></trkpt><trkpt lat="43.5931817" lon="11.847375"><ele>564.2857142857143</ele><time>2026-04-25T08:18:47.024Z</time></trkpt><trkpt lat="43.593105" lon="11.8473583"><ele>562.0</ele><time>2026-04-25T08:18:48.028Z</time></trkpt><trkpt lat="43.59303" lon="11.84735"><ele>562.0</ele><time>2026-04-25T08:18:49.03Z</time></trkpt><trkpt lat="43.5929583" lon="11.847355"><ele>562.0</ele><time>2026-04-25T08:18:50.027Z</time></trkpt><trkpt lat="43.592845" lon="11.8473783"><ele>562.0</ele><time>2026-04-25T08:18:52.032Z</time></trkpt><trkpt lat="43.5927333" lon="11.84739"><ele>562.0</ele><time>2026-04-25T08:18:54.028Z</time></trkpt><trkpt lat="43.59267" lon="11.84737"><ele>562.0</ele><time>2026-04-25T08:18:55.029Z</time></trkpt><trkpt lat="43.592565" lon="11.8472883"><ele>559.8000000000001</ele><time>2026-04-25T08:18:57.034Z</time></trkpt><trkpt lat="43.592525" lon="11.8471467"><ele>557.6</ele><time>2026-04-25T08:18:59.029Z</time></trkpt><trkpt lat="43.59252" lon="11.8470033"><ele>555.4000000000001</ele><time>2026-04-25T08:19:01.031Z</time></trkpt><trkpt lat="43.5924933" lon="11.84689"><ele>553.2</ele><time>2026-04-25T08:19:03.033Z</time></trkpt><trkpt lat="43.59243" lon="11.8468"><ele>551.0</ele><time>2026-04-25T08:19:05.029Z</time></trkpt><trkpt lat="43.592365" lon="11.8467217"><ele>549.4</ele><time>2026-04-25T08:19:07.036Z</time></trkpt><trkpt lat="43.592315" lon="11.8466383"><ele>547.8</ele><time>2026-04-25T08:19:09.027Z</time></trkpt><trkpt lat="43.5922583" lon="11.8464617"><ele>546.1999999999999</ele><time>2026-04-25T08:20:08.03Z</time></trkpt><trkpt lat="43.5922483" lon="11.8463417"><ele>544.6</ele><time>2026-04-25T08:20:09.025Z</time></trkpt><trkpt lat="43.5922383" lon="11.84622"><ele>543.0</ele><time>2026-04-25T08:20:10.03Z</time></trkpt><trkpt lat="43.5921983" lon="11.8461017"><ele>543.0</ele><time>2026-04-25T08:20:11.028Z</time></trkpt><trkpt lat="43.592145" lon="11.8459883"><ele>543.0</ele><time>2026-04-25T08:20:12.03Z</time></trkpt><trkpt lat="43.5920717" lon="11.8458817"><ele>543.0</ele><time>2026-04-25T08:20:13.029Z</time></trkpt><trkpt lat="43.5920033" lon="11.8457817"><ele>543.0</ele><time>2026-04-25T08:20:14.039Z</time></trkpt><trkpt lat="43.591915" lon="11.8456783"><ele>543.0</ele><time>2026-04-25T08:20:15.032Z</time></trkpt><trkpt lat="43.59183" lon="11.845565"><ele>540.4</ele><time>2026-04-25T08:20:16.029Z</time></trkpt><trkpt lat="43.5917433" lon="11.8454633"><ele>537.8</ele><time>2026-04-25T08:20:17.035Z</time></trkpt><trkpt lat="43.5916567" lon="11.8453667"><ele>535.2</ele><time>2026-04-25T08:20:18.032Z</time></trkpt><trkpt lat="43.5915667" lon="11.845285"><ele>532.6</ele><time>2026-04-25T08:20:19.035Z</time></trkpt><trkpt lat="43.59148" lon="11.8452017"><ele>530.0</ele><time>2026-04-25T08:20:20.032Z</time></trkpt><trkpt lat="43.5914" lon="11.8451117"><ele>527.8</ele><time>2026-04-25T08:20:21.038Z</time></trkpt><trkpt lat="43.59133" lon="11.8450117"><ele>525.6</ele><time>2026-04-25T08:20:22.036Z</time></trkpt><trkpt lat="43.5912633" lon="11.8449017"><ele>523.4</ele><time>2026-04-25T08:20:23.035Z</time></trkpt><trkpt lat="43.5912017" lon="11.8447867"><ele>521.2</ele><time>2026-04-25T08:20:24.029Z</time></trkpt><trkpt lat="43.5911517" lon="11.8446683"><ele>519.0</ele><time>2026-04-25T08:20:25.027Z</time></trkpt><trkpt lat="43.5911" lon="11.8445617"><ele>518.2</ele><time>2026-04-25T08:20:26.026Z</time></trkpt><trkpt lat="43.591035" lon="11.8444717"><ele>517.4</ele><time>2026-04-25T08:20:27.031Z</time></trkpt><trkpt lat="43.5909583" lon="11.8443817"><ele>516.6</ele><time>2026-04-25T08:20:28.032Z</time></trkpt><trkpt lat="43.590865" lon="11.8443017"><ele>515.8</ele><time>2026-04-25T08:20:29.039Z</time></trkpt><trkpt lat="43.59076" lon="11.8442233"><ele>515.0</ele><time>2026-04-25T08:20:30.033Z</time></trkpt><trkpt lat="43.5906517" lon="11.8441533"><ele>515.0</ele><time>2026-04-25T08:20:31.03Z</time></trkpt><trkpt lat="43.5905567" lon="11.8440617"><ele>515.0</ele><time>2026-04-25T08:20:32.028Z</time></trkpt><trkpt lat="43.5904583" lon="11.8439567"><ele>515.0</ele><time>2026-04-25T08:20:33.03Z</time></trkpt><trkpt lat="43.5903733" lon="11.8438183"><ele>515.0</ele><time>2026-04-25T08:20:34.03Z</time></trkpt><trkpt lat="43.5902983" lon="11.8436567"><ele>514.75</ele><time>2026-04-25T08:20:35.029Z</time></trkpt><trkpt lat="43.5902217" lon="11.8434983"><ele>514.5</ele><time>2026-04-25T08:20:36.029Z</time></trkpt><trkpt lat="43.5901367" lon="11.8433433"><ele>514.25</ele><time>2026-04-25T08:20:37.027Z</time></trkpt><trkpt lat="43.5900483" lon="11.8431967"><ele>514.0</ele><time>2026-04-25T08:20:38.031Z</time></trkpt><trkpt lat="43.58996" lon="11.8430533"><ele>514.25</ele><time>2026-04-25T08:20:39.032Z</time></trkpt><trkpt lat="43.589875" lon="11.84291"><ele>514.5</ele><time>2026-04-25T08:20:40.027Z</time></trkpt><trkpt lat="43.5897933" lon="11.8427633"><ele>514.75</ele><time>2026-04-25T08:20:41.03Z</time></trkpt><trkpt lat="43.5897033" lon="11.8426217"><ele>515.0</ele><time>2026-04-25T08:20:42.028Z</time></trkpt><trkpt lat="43.5896233" lon="11.84248"><ele>515.0</ele><time>2026-04-25T08:20:43.026Z</time></trkpt><trkpt lat="43.5895517" lon="11.8423467"><ele>515.0</ele><time>2026-04-25T08:20:44.03Z</time></trkpt><trkpt lat="43.5894867" lon="11.84222"><ele>515.0</ele><time>2026-04-25T08:20:45.031Z</time></trkpt><trkpt lat="43.5894283" lon="11.84212"><ele>515.0</ele><time>2026-04-25T08:20:46.029Z</time></trkpt><trkpt lat="43.5893583" lon="11.8420583"><ele>515.0</ele><time>2026-04-25T08:20:47.032Z</time></trkpt><trkpt lat="43.58929" lon="11.8420167"><ele>515.7142857142858</ele><time>2026-04-25T08:20:48.026Z</time></trkpt><trkpt lat="43.5892233" lon="11.8419833"><ele>516.4285714285714</ele><time>2026-04-25T08:20:49.032Z</time></trkpt><trkpt lat="43.5891567" lon="11.8419717"><ele>517.1428571428571</ele><time>2026-04-25T08:20:50.039Z</time></trkpt><trkpt lat="43.5890783" lon="11.84195"><ele>517.8571428571429</ele><time>2026-04-25T08:20:52.033Z</time></trkpt><trkpt lat="43.58904" lon="11.8418433"><ele>518.5714285714286</ele><time>2026-04-25T08:21:31.026Z</time></trkpt><trkpt lat="43.5890117" lon="11.8417633"><ele>519.2857142857143</ele><time>2026-04-25T08:21:32.027Z</time></trkpt><trkpt lat="43.58896" lon="11.8416833"><ele>520.0</ele><time>2026-04-25T08:21:33.033Z</time></trkpt><trkpt lat="43.5888917" lon="11.8415917"><ele>520.2</ele><time>2026-04-25T08:21:34.028Z</time></trkpt><trkpt lat="43.588805" lon="11.8414967"><ele>520.4</ele><time>2026-04-25T08:21:35.033Z</time></trkpt><trkpt lat="43.5887183" lon="11.841395"><ele>520.6</ele><time>2026-04-25T08:21:36.03Z</time></trkpt><trkpt lat="43.5886317" lon="11.8412917"><ele>520.8</ele><time>2026-04-25T08:21:37.039Z</time></trkpt><trkpt lat="43.58855" lon="11.8412"><ele>521.0</ele><time>2026-04-25T08:21:38.036Z</time></trkpt><trkpt lat="43.58848" lon="11.84111"><ele>521.0</ele><time>2026-04-25T08:21:39.03Z</time></trkpt><trkpt lat="43.58841" lon="11.841035"><ele>521.0</ele><time>2026-04-25T08:21:40.026Z</time></trkpt><trkpt lat="43.5883433" lon="11.840965"><ele>521.0</ele><time>2026-04-25T08:21:41.027Z</time></trkpt><trkpt lat="43.58829" lon="11.8408833"><ele>521.0</ele><time>2026-04-25T08:21:42.031Z</time></trkpt><trkpt lat="43.5882617" lon="11.8408033"><ele>521.0</ele><time>2026-04-25T08:21:43.029Z</time></trkpt><trkpt lat="43.5882967" lon="11.840665"><ele>521.0</ele><time>2026-04-25T08:21:45.03Z</time></trkpt><trkpt lat="43.588365" lon="11.8405567"><ele>523.4</ele><time>2026-04-25T08:21:47.038Z</time></trkpt><trkpt lat="43.5883517" lon="11.840405"><ele>525.8</ele><time>2026-04-25T08:21:49.026Z</time></trkpt><trkpt lat="43.5883017" lon="11.84031"><ele>528.1999999999999</ele><time>2026-04-25T08:21:50.026Z</time></trkpt><trkpt lat="43.58825" lon="11.8402117"><ele>530.6</ele><time>2026-04-25T08:21:51.028Z</time></trkpt><trkpt lat="43.5881983" lon="11.8401017"><ele>533.0</ele><time>2026-04-25T08:21:52.032Z</time></trkpt><trkpt lat="43.5881433" lon="11.8399983"><ele>535.1666666666666</ele><time>2026-04-25T08:21:53.027Z</time></trkpt><trkpt lat="43.5880933" lon="11.8398933"><ele>537.3333333333333</ele><time>2026-04-25T08:21:54.036Z</time></trkpt><trkpt lat="43.5880467" lon="11.8397917"><ele>539.5</ele><time>2026-04-25T08:21:55.034Z</time></trkpt><trkpt lat="43.5880083" lon="11.839695"><ele>541.6666666666666</ele><time>2026-04-25T08:21:56.031Z</time></trkpt><trkpt lat="43.587975" lon="11.8395967"><ele>543.8333333333334</ele><time>2026-04-25T08:21:57.033Z</time></trkpt><trkpt lat="43.5879633" lon="11.839485"><ele>546.0</ele><time>2026-04-25T08:21:58.028Z</time></trkpt><trkpt lat="43.5879717" lon="11.83937"><ele>546.3333333333334</ele><time>2026-04-25T08:21:59.035Z</time></trkpt><trkpt lat="43.5879733" lon="11.83927"><ele>546.6666666666666</ele><time>2026-04-25T08:22:00.029Z</time></trkpt><trkpt lat="43.5879783" lon="11.83916"><ele>547.0</ele><time>2026-04-25T08:22:01.029Z</time></trkpt><trkpt lat="43.587985" lon="11.839065"><ele>547.3333333333333</ele><time>2026-04-25T08:22:02.026Z</time></trkpt><trkpt lat="43.587955" lon="11.83897"><ele>547.6666666666666</ele><time>2026-04-25T08:22:03.034Z</time></trkpt><trkpt lat="43.58791" lon="11.8388667"><ele>548.0</ele><time>2026-04-25T08:22:04.028Z</time></trkpt><trkpt lat="43.5878633" lon="11.8387533"><ele>547.1999999999999</ele><time>2026-04-25T08:22:05.032Z</time></trkpt><trkpt lat="43.5878117" lon="11.8386367"><ele>546.4</ele><time>2026-04-25T08:22:06.029Z</time></trkpt><trkpt lat="43.58776" lon="11.8385233"><ele>545.5999999999999</ele><time>2026-04-25T08:22:07.031Z</time></trkpt><trkpt lat="43.5877067" lon="11.838425"><ele>544.8</ele><time>2026-04-25T08:22:08.04Z</time></trkpt><trkpt lat="43.5876633" lon="11.8383417"><ele>544.0</ele><time>2026-04-25T08:22:09.031Z</time></trkpt><trkpt lat="43.5876333" lon="11.8382067"><ele>544.0</ele><time>2026-04-25T08:22:11.034Z</time></trkpt><trkpt lat="43.5876583" lon="11.8381117"><ele>544.0</ele><time>2026-04-25T08:22:20.025Z</time></trkpt><trkpt lat="43.587685" lon="11.8379617"><ele>544.0</ele><time>2026-04-25T08:22:22.028Z</time></trkpt><trkpt lat="43.5877133" lon="11.8378833"><ele>544.0</ele><time>2026-04-25T08:22:23.028Z</time></trkpt><trkpt lat="43.5877583" lon="11.8378217"><ele>544.0</ele><time>2026-04-25T08:22:24.033Z</time></trkpt><trkpt lat="43.5878217" lon="11.8377683"><ele>544.0</ele><time>2026-04-25T08:22:25.026Z</time></trkpt><trkpt lat="43.5878783" lon="11.8377133"><ele>544.0</ele><time>2026-04-25T08:22:26.029Z</time></trkpt><trkpt lat="43.587925" lon="11.8376467"><ele>544.0</ele><time>2026-04-25T08:22:27.028Z</time></trkpt><trkpt lat="43.5879683" lon="11.8375483"><ele>544.0</ele><time>2026-04-25T08:22:28.031Z</time></trkpt><trkpt lat="43.5880067" lon="11.8374317"><ele>544.0</ele><time>2026-04-25T08:22:29.026Z</time></trkpt><trkpt lat="43.5880367" lon="11.8373283"><ele>544.0</ele><time>2026-04-25T08:22:30.032Z</time></trkpt><trkpt lat="43.5880633" lon="11.8372283"><ele>544.0</ele><time>2026-04-25T08:22:31.029Z</time></trkpt><trkpt lat="43.5880517" lon="11.8370917"><ele>544.1666666666667</ele><time>2026-04-25T08:22:33.031Z</time></trkpt><trkpt lat="43.5880217" lon="11.8369967"><ele>544.3333333333334</ele><time>2026-04-25T08:22:34.029Z</time></trkpt><trkpt lat="43.588" lon="11.8368983"><ele>544.5</ele><time>2026-04-25T08:22:35.031Z</time></trkpt><trkpt lat="43.5879883" lon="11.836805"><ele>544.6666666666666</ele><time>2026-04-25T08:22:36.028Z</time></trkpt><trkpt lat="43.588" lon="11.83669"><ele>544.8333333333333</ele><time>2026-04-25T08:22:37.029Z</time></trkpt><trkpt lat="43.5880317" lon="11.8365767"><ele>545.0</ele><time>2026-04-25T08:22:38.029Z</time></trkpt><trkpt lat="43.5880683" lon="11.83649"><ele>545.1666666666666</ele><time>2026-04-25T08:22:39.031Z</time></trkpt><trkpt lat="43.5881033" lon="11.8364167"><ele>545.3333333333333</ele><time>2026-04-25T08:22:40.03Z</time></trkpt><trkpt lat="43.5881817" lon="11.8362833"><ele>545.5</ele><time>2026-04-25T08:22:42.03Z</time></trkpt><trkpt lat="43.5882283" lon="11.836195"><ele>545.6666666666666</ele><time>2026-04-25T08:22:43.027Z</time></trkpt><trkpt lat="43.5882717" lon="11.836115"><ele>545.8333333333334</ele><time>2026-04-25T08:22:44.03Z</time></trkpt><trkpt lat="43.5883183" lon="11.8360433"><ele>546.0</ele><time>2026-04-25T08:22:45.034Z</time></trkpt><trkpt lat="43.58841" lon="11.835945"><ele>547.5</ele><time>2026-04-25T08:22:47.028Z</time></trkpt><trkpt lat="43.5884767" lon="11.8358767"><ele>549.0</ele><time>2026-04-25T08:22:49.036Z</time></trkpt><trkpt lat="43.588515" lon="11.8357817"><ele>550.5</ele><time>2026-04-25T08:22:51.034Z</time></trkpt><trkpt lat="43.5885433" lon="11.83567"><ele>552.0</ele><time>2026-04-25T08:22:53.029Z</time></trkpt><trkpt lat="43.58857" lon="11.8355867"><ele>553.5</ele><time>2026-04-25T08:22:55.028Z</time></trkpt><trkpt lat="43.588535" lon="11.8357017"><ele>555.0</ele><time>2026-04-25T08:23:30.027Z</time></trkpt><trkpt lat="43.5884833" lon="11.8358283"><ele>555.0</ele><time>2026-04-25T08:23:32.029Z</time></trkpt><trkpt lat="43.5884133" lon="11.8359133"><ele>555.0</ele><time>2026-04-25T08:23:34.027Z</time></trkpt><trkpt lat="43.5883217" lon="11.8360167"><ele>555.0</ele><time>2026-04-25T08:23:36.032Z</time></trkpt><trkpt lat="43.58828" lon="11.836095"><ele>555.0</ele><time>2026-04-25T08:23:37.033Z</time></trkpt><trkpt lat="43.5882333" lon="11.8361817"><ele>555.0</ele><time>2026-04-25T08:23:38.03Z</time></trkpt><trkpt lat="43.5881833" lon="11.8362683"><ele>555.0</ele><time>2026-04-25T08:23:39.031Z</time></trkpt><trkpt lat="43.5881433" lon="11.8363433"><ele>553.7142857142858</ele><time>2026-04-25T08:23:40.028Z</time></trkpt><trkpt lat="43.5880967" lon="11.8364083"><ele>552.4285714285714</ele><time>2026-04-25T08:23:41.026Z</time></trkpt><trkpt lat="43.5880483" lon="11.8364733"><ele>551.1428571428571</ele><time>2026-04-25T08:23:42.031Z</time></trkpt><trkpt lat="43.588005" lon="11.83656"><ele>549.8571428571429</ele><time>2026-04-25T08:23:43.032Z</time></trkpt><trkpt lat="43.58797" lon="11.83667"><ele>548.5714285714286</ele><time>2026-04-25T08:23:44.029Z</time></trkpt><trkpt lat="43.5879433" lon="11.8367767"><ele>547.2857142857143</ele><time>2026-04-25T08:23:45.027Z</time></trkpt><trkpt lat="43.5879433" lon="11.8368733"><ele>546.0</ele><time>2026-04-25T08:23:46.032Z</time></trkpt><trkpt lat="43.587965" lon="11.8369667"><ele>545.8333333333334</ele><time>2026-04-25T08:23:47.031Z</time></trkpt><trkpt lat="43.5879967" lon="11.8370683"><ele>545.6666666666666</ele><time>2026-04-25T08:23:48.033Z</time></trkpt><trkpt lat="43.588025" lon="11.837165"><ele>545.5</ele><time>2026-04-25T08:23:49.029Z</time></trkpt><trkpt lat="43.5880367" lon="11.8372517"><ele>545.3333333333333</ele><time>2026-04-25T08:23:50.029Z</time></trkpt><trkpt lat="43.5880117" lon="11.83743"><ele>545.1666666666666</ele><time>2026-04-25T08:23:52.032Z</time></trkpt><trkpt lat="43.58797" lon="11.8375417"><ele>545.0</ele><time>2026-04-25T08:23:53.028Z</time></trkpt><trkpt lat="43.5879267" lon="11.837635"><ele>544.8333333333333</ele><time>2026-04-25T08:23:54.026Z</time></trkpt><trkpt lat="43.58787" lon="11.837705"><ele>544.6666666666666</ele><time>2026-04-25T08:23:55.028Z</time></trkpt><trkpt lat="43.5878133" lon="11.837755"><ele>544.5</ele><time>2026-04-25T08:23:56.028Z</time></trkpt><trkpt lat="43.587755" lon="11.8378117"><ele>544.3333333333334</ele><time>2026-04-25T08:23:57.031Z</time></trkpt><trkpt lat="43.5876883" lon="11.8379233"><ele>544.1666666666667</ele><time>2026-04-25T08:23:59.056Z</time></trkpt><trkpt lat="43.5876233" lon="11.8378833"><ele>544.0</ele><time>2026-04-25T08:24:07.029Z</time></trkpt><trkpt lat="43.5875917" lon="11.8377267"><ele>546.8333333333334</ele><time>2026-04-25T08:24:09.03Z</time></trkpt><trkpt lat="43.5876167" lon="11.83756"><ele>549.6666666666667</ele><time>2026-04-25T08:24:11.029Z</time></trkpt><trkpt lat="43.587635" lon="11.8374583"><ele>552.5</ele><time>2026-04-25T08:24:12.037Z</time></trkpt><trkpt lat="43.5876567" lon="11.8373533"><ele>555.3333333333334</ele><time>2026-04-25T08:24:13.03Z</time></trkpt><trkpt lat="43.5876817" lon="11.8372483"><ele>558.1666666666666</ele><time>2026-04-25T08:24:14.027Z</time></trkpt><trkpt lat="43.587695" lon="11.837145"><ele>561.0</ele><time>2026-04-25T08:24:15.033Z</time></trkpt><trkpt lat="43.5876917" lon="11.8370383"><ele>561.0</ele><time>2026-04-25T08:24:16.03Z</time></trkpt><trkpt lat="43.5876717" lon="11.8369233"><ele>561.0</ele><time>2026-04-25T08:24:17.028Z</time></trkpt><trkpt lat="43.587655" lon="11.836815"><ele>561.0</ele><time>2026-04-25T08:24:18.03Z</time></trkpt><trkpt lat="43.5876533" lon="11.836725"><ele>561.0</ele><time>2026-04-25T08:24:19.025Z</time></trkpt><trkpt lat="43.587705" lon="11.8365717"><ele>561.0</ele><time>2026-04-25T08:24:21.028Z</time></trkpt><trkpt lat="43.5877483" lon="11.8364783"><ele>561.0</ele><time>2026-04-25T08:24:22.032Z</time></trkpt><trkpt lat="43.5878017" lon="11.8363917"><ele>560.0</ele><time>2026-04-25T08:24:23.031Z</time></trkpt><trkpt lat="43.587845" lon="11.8363133"><ele>559.0</ele><time>2026-04-25T08:24:24.031Z</time></trkpt><trkpt lat="43.5878817" lon="11.8362233"><ele>558.0</ele><time>2026-04-25T08:24:25.029Z</time></trkpt><trkpt lat="43.5879083" lon="11.836125"><ele>557.0</ele><time>2026-04-25T08:24:26.033Z</time></trkpt><trkpt lat="43.587945" lon="11.8360217"><ele>556.0</ele><time>2026-04-25T08:24:27.028Z</time></trkpt><trkpt lat="43.5879817" lon="11.8359367"><ele>555.0</ele><time>2026-04-25T08:24:28.031Z</time></trkpt><trkpt lat="43.5880233" lon="11.8357817"><ele>555.0</ele><time>2026-04-25T08:24:30.029Z</time></trkpt><trkpt lat="43.5880433" lon="11.8356333"><ele>555.0</ele><time>2026-04-25T08:24:32.034Z</time></trkpt><trkpt lat="43.5880283" lon="11.8354767"><ele>555.0</ele><time>2026-04-25T08:24:34.031Z</time></trkpt><trkpt lat="43.5879867" lon="11.83534"><ele>555.0</ele><time>2026-04-25T08:24:36.027Z</time></trkpt><trkpt lat="43.58791" lon="11.8352317"><ele>555.0</ele><time>2026-04-25T08:24:38.028Z</time></trkpt><trkpt lat="43.5878317" lon="11.8351383"><ele>556.5</ele><time>2026-04-25T08:24:40.023Z</time></trkpt><trkpt lat="43.5877533" lon="11.83507"><ele>558.0</ele><time>2026-04-25T08:24:42.027Z</time></trkpt><trkpt lat="43.5876817" lon="11.83499"><ele>559.5</ele><time>2026-04-25T08:24:44.114Z</time></trkpt><trkpt lat="43.587655" lon="11.8349"><ele>561.0</ele><time>2026-04-25T08:24:47.032Z</time></trkpt><trkpt lat="43.5876983" lon="11.8348017"><ele>562.5</ele><time>2026-04-25T08:24:49.025Z</time></trkpt><trkpt lat="43.5877483" lon="11.8347017"><ele>564.0</ele><time>2026-04-25T08:24:51.031Z</time></trkpt><trkpt lat="43.5878017" lon="11.8346083"><ele>564.0</ele><time>2026-04-25T08:24:53.031Z</time></trkpt><trkpt lat="43.5878483" lon="11.8345117"><ele>564.0</ele><time>2026-04-25T08:24:55.03Z</time></trkpt><trkpt lat="43.5878267" lon="11.8343667"><ele>564.0</ele><time>2026-04-25T08:24:57.031Z</time></trkpt><trkpt lat="43.5878033" lon="11.8342833"><ele>564.0</ele><time>2026-04-25T08:24:58.025Z</time></trkpt><trkpt lat="43.58777" lon="11.8341183"><ele>564.0</ele><time>2026-04-25T08:25:00.024Z</time></trkpt><trkpt lat="43.5877567" lon="11.8339683"><ele>565.4</ele><time>2026-04-25T08:25:02.032Z</time></trkpt><trkpt lat="43.5877433" lon="11.833845"><ele>566.8</ele><time>2026-04-25T08:25:04.032Z</time></trkpt><trkpt lat="43.5876533" lon="11.8337567"><ele>568.2</ele><time>2026-04-25T08:25:06.029Z</time></trkpt><trkpt lat="43.587565" lon="11.8336317"><ele>569.6</ele><time>2026-04-25T08:25:08.03Z</time></trkpt><trkpt lat="43.5875067" lon="11.8335017"><ele>571.0</ele><time>2026-04-25T08:25:10.033Z</time></trkpt><trkpt lat="43.5874467" lon="11.8333733"><ele>571.2857142857143</ele><time>2026-04-25T08:25:12.027Z</time></trkpt><trkpt lat="43.58741" lon="11.8332917"><ele>571.5714285714286</ele><time>2026-04-25T08:25:13.024Z</time></trkpt><trkpt lat="43.58738" lon="11.8332117"><ele>571.8571428571429</ele><time>2026-04-25T08:25:14.031Z</time></trkpt><trkpt lat="43.5873483" lon="11.8331267"><ele>572.1428571428571</ele><time>2026-04-25T08:25:15.03Z</time></trkpt><trkpt lat="43.5873117" lon="11.8330367"><ele>572.4285714285714</ele><time>2026-04-25T08:25:16.026Z</time></trkpt><trkpt lat="43.5872867" lon="11.8329417"><ele>572.7142857142858</ele><time>2026-04-25T08:25:17.032Z</time></trkpt><trkpt lat="43.5872667" lon="11.832855"><ele>573.0</ele><time>2026-04-25T08:25:18.032Z</time></trkpt><trkpt lat="43.5872333" lon="11.8327617"><ele>573.0</ele><time>2026-04-25T08:25:19.033Z</time></trkpt><trkpt lat="43.5871967" lon="11.8326633"><ele>573.0</ele><time>2026-04-25T08:25:20.028Z</time></trkpt><trkpt lat="43.5871717" lon="11.8325783"><ele>573.0</ele><time>2026-04-25T08:25:21.034Z</time></trkpt><trkpt lat="43.58715" lon="11.8324"><ele>573.0</ele><time>2026-04-25T08:25:23.05Z</time></trkpt><trkpt lat="43.5871383" lon="11.8323017"><ele>573.0</ele><time>2026-04-25T08:25:24.026Z</time></trkpt><trkpt lat="43.587125" lon="11.832155"><ele>573.1999999999999</ele><time>2026-04-25T08:25:26.029Z</time></trkpt><trkpt lat="43.587085" lon="11.8319783"><ele>573.4</ele><time>2026-04-25T08:25:28.031Z</time></trkpt><trkpt lat="43.587065" lon="11.8318933"><ele>573.5999999999999</ele><time>2026-04-25T08:25:29.034Z</time></trkpt><trkpt lat="43.5870733" lon="11.83173"><ele>573.8</ele><time>2026-04-25T08:25:31.026Z</time></trkpt><trkpt lat="43.5870767" lon="11.831615"><ele>574.0</ele><time>2026-04-25T08:25:32.032Z</time></trkpt><trkpt lat="43.587075" lon="11.8315083"><ele>572.8333333333334</ele><time>2026-04-25T08:25:33.036Z</time></trkpt><trkpt lat="43.58708" lon="11.8314017"><ele>571.6666666666667</ele><time>2026-04-25T08:25:34.028Z</time></trkpt><trkpt lat="43.5871133" lon="11.8313067"><ele>570.5</ele><time>2026-04-25T08:25:35.025Z</time></trkpt><trkpt lat="43.5871617" lon="11.8312217"><ele>569.3333333333334</ele><time>2026-04-25T08:25:36.029Z</time></trkpt><trkpt lat="43.5872167" lon="11.8311283"><ele>568.1666666666666</ele><time>2026-04-25T08:25:37.033Z</time></trkpt><trkpt lat="43.5872633" lon="11.8310483"><ele>567.0</ele><time>2026-04-25T08:25:38.031Z</time></trkpt><trkpt lat="43.5873017" lon="11.8309717"><ele>566.6</ele><time>2026-04-25T08:25:39.029Z</time></trkpt><trkpt lat="43.587325" lon="11.830825"><ele>566.2</ele><time>2026-04-25T08:25:41.029Z</time></trkpt><trkpt lat="43.5873483" lon="11.8306633"><ele>565.8</ele><time>2026-04-25T08:25:43.029Z</time></trkpt><trkpt lat="43.587385" lon="11.8305567"><ele>565.4</ele><time>2026-04-25T08:25:45.029Z</time></trkpt><trkpt lat="43.5874117" lon="11.8304283"><ele>565.0</ele><time>2026-04-25T08:25:47.027Z</time></trkpt><trkpt lat="43.5873833" lon="11.830325"><ele>565.0</ele><time>2026-04-25T08:25:50.03Z</time></trkpt><trkpt lat="43.587285" lon="11.830355"><ele>565.0</ele><time>2026-04-25T08:26:05.029Z</time></trkpt><trkpt lat="43.5872283" lon="11.83042"><ele>565.0</ele><time>2026-04-25T08:26:06.056Z</time></trkpt><trkpt lat="43.5871217" lon="11.830475"><ele>565.0</ele><time>2026-04-25T08:26:08.028Z</time></trkpt><trkpt lat="43.587045" lon="11.8305367"><ele>565.0</ele><time>2026-04-25T08:26:10.028Z</time></trkpt><trkpt lat="43.5869617" lon="11.8305833"><ele>564.1666666666667</ele><time>2026-04-25T08:26:12.028Z</time></trkpt><trkpt lat="43.58686" lon="11.8305567"><ele>563.3333333333334</ele><time>2026-04-25T08:26:14.027Z</time></trkpt><trkpt lat="43.5867917" lon="11.8305167"><ele>562.5</ele><time>2026-04-25T08:26:15.032Z</time></trkpt><trkpt lat="43.58673" lon="11.8304733"><ele>561.6666666666666</ele><time>2026-04-25T08:26:16.026Z</time></trkpt><trkpt lat="43.5866667" lon="11.83043"><ele>560.8333333333333</ele><time>2026-04-25T08:26:17.034Z</time></trkpt><trkpt lat="43.5865617" lon="11.8303783"><ele>560.0</ele><time>2026-04-25T08:26:19.033Z</time></trkpt><trkpt lat="43.586495" lon="11.8303717"><ele>560.0</ele><time>2026-04-25T08:26:20.03Z</time></trkpt><trkpt lat="43.5864183" lon="11.8303717"><ele>560.0</ele><time>2026-04-25T08:26:21.03Z</time></trkpt><trkpt lat="43.5863383" lon="11.830365"><ele>560.0</ele><time>2026-04-25T08:26:22.03Z</time></trkpt><trkpt lat="43.5862667" lon="11.8303483"><ele>560.0</ele><time>2026-04-25T08:26:23.032Z</time></trkpt><trkpt lat="43.5861817" lon="11.8303383"><ele>560.0</ele><time>2026-04-25T08:26:24.03Z</time></trkpt><trkpt lat="43.5861017" lon="11.8303117"><ele>560.0</ele><time>2026-04-25T08:26:25.033Z</time></trkpt><trkpt lat="43.58602" lon="11.8302783"><ele>557.5714285714286</ele><time>2026-04-25T08:26:26.033Z</time></trkpt><trkpt lat="43.5859583" lon="11.8302467"><ele>555.1428571428571</ele><time>2026-04-25T08:26:27.031Z</time></trkpt><trkpt lat="43.5858917" lon="11.83022"><ele>552.7142857142858</ele><time>2026-04-25T08:26:28.03Z</time></trkpt><trkpt lat="43.58583" lon="11.8301883"><ele>550.2857142857142</ele><time>2026-04-25T08:26:29.031Z</time></trkpt><trkpt lat="43.5857633" lon="11.83017"><ele>547.8571428571429</ele><time>2026-04-25T08:26:30.044Z</time></trkpt><trkpt lat="43.58569" lon="11.83017"><ele>545.4285714285714</ele><time>2026-04-25T08:26:31.032Z</time></trkpt><trkpt lat="43.58562" lon="11.8301633"><ele>543.0</ele><time>2026-04-25T08:26:32.028Z</time></trkpt><trkpt lat="43.5855133" lon="11.8300567"><ele>543.0</ele><time>2026-04-25T08:26:34.03Z</time></trkpt><trkpt lat="43.58546" lon="11.8299517"><ele>543.0</ele><time>2026-04-25T08:26:35.04Z</time></trkpt><trkpt lat="43.5853967" lon="11.8298383"><ele>543.0</ele><time>2026-04-25T08:26:36.029Z</time></trkpt><trkpt lat="43.5853367" lon="11.829745"><ele>543.0</ele><time>2026-04-25T08:26:37.027Z</time></trkpt><trkpt lat="43.585275" lon="11.8296633"><ele>543.0</ele><time>2026-04-25T08:26:38.033Z</time></trkpt><trkpt lat="43.5852183" lon="11.8296"><ele>543.0</ele><time>2026-04-25T08:26:39.027Z</time></trkpt><trkpt lat="43.585155" lon="11.8295433"><ele>541.6666666666666</ele><time>2026-04-25T08:26:40.03Z</time></trkpt><trkpt lat="43.5850967" lon="11.829485"><ele>540.3333333333334</ele><time>2026-04-25T08:26:41.031Z</time></trkpt><trkpt lat="43.5850467" lon="11.8294117"><ele>539.0</ele><time>2026-04-25T08:26:42.027Z</time></trkpt><trkpt lat="43.5850133" lon="11.8293217"><ele>537.6666666666667</ele><time>2026-04-25T08:26:43.028Z</time></trkpt><trkpt lat="43.58498" lon="11.8292217"><ele>536.3333333333334</ele><time>2026-04-25T08:26:44.029Z</time></trkpt><trkpt lat="43.584945" lon="11.82912"><ele>535.0</ele><time>2026-04-25T08:26:45.031Z</time></trkpt><trkpt lat="43.5849167" lon="11.8290133"><ele>535.0</ele><time>2026-04-25T08:26:46.03Z</time></trkpt><trkpt lat="43.5849017" lon="11.8289233"><ele>535.0</ele><time>2026-04-25T08:26:47.029Z</time></trkpt><trkpt lat="43.5849017" lon="11.828755"><ele>535.0</ele><time>2026-04-25T08:26:49.03Z</time></trkpt><trkpt lat="43.584895" lon="11.8286467"><ele>535.0</ele><time>2026-04-25T08:26:50.029Z</time></trkpt><trkpt lat="43.5848783" lon="11.828545"><ele>535.0</ele><time>2026-04-25T08:26:51.031Z</time></trkpt><trkpt lat="43.58486" lon="11.8284517"><ele>535.0</ele><time>2026-04-25T08:26:52.024Z</time></trkpt><trkpt lat="43.58483" lon="11.8283"><ele>535.0</ele><time>2026-04-25T08:26:54.025Z</time></trkpt><trkpt lat="43.5848033" lon="11.82819"><ele>535.0</ele><time>2026-04-25T08:26:56.032Z</time></trkpt><trkpt lat="43.5847567" lon="11.8281017"><ele>535.0</ele><time>2026-04-25T08:26:59.026Z</time></trkpt><trkpt lat="43.5846783" lon="11.8281033"><ele>535.0</ele><time>2026-04-25T08:27:01.029Z</time></trkpt><trkpt lat="43.58461" lon="11.828065"><ele>535.0</ele><time>2026-04-25T08:27:03.042Z</time></trkpt><trkpt lat="43.58453" lon="11.827975"><ele>535.0</ele><time>2026-04-25T08:27:05.023Z</time></trkpt><trkpt lat="43.584435" lon="11.8278567"><ele>533.0</ele><time>2026-04-25T08:27:07.037Z</time></trkpt><trkpt lat="43.5843933" lon="11.827785"><ele>531.0</ele><time>2026-04-25T08:27:08.029Z</time></trkpt><trkpt lat="43.5843517" lon="11.827715"><ele>529.0</ele><time>2026-04-25T08:27:09.028Z</time></trkpt><trkpt lat="43.5842733" lon="11.82761"><ele>527.0</ele><time>2026-04-25T08:27:11.032Z</time></trkpt><trkpt lat="43.5842067" lon="11.8275067"><ele>525.0</ele><time>2026-04-25T08:27:13.046Z</time></trkpt><trkpt lat="43.58417" lon="11.8274183"><ele>523.0</ele><time>2026-04-25T08:27:14.028Z</time></trkpt><trkpt lat="43.5841367" lon="11.8273083"><ele>523.0</ele><time>2026-04-25T08:27:15.03Z</time></trkpt><trkpt lat="43.5840967" lon="11.8271867"><ele>523.0</ele><time>2026-04-25T08:27:16.025Z</time></trkpt><trkpt lat="43.584055" lon="11.8270717"><ele>523.0</ele><time>2026-04-25T08:27:17.029Z</time></trkpt><trkpt lat="43.5840133" lon="11.826955"><ele>523.0</ele><time>2026-04-25T08:27:18.027Z</time></trkpt><trkpt lat="43.5839683" lon="11.826845"><ele>523.0</ele><time>2026-04-25T08:27:19.026Z</time></trkpt><trkpt lat="43.583915" lon="11.8267467"><ele>524.5</ele><time>2026-04-25T08:27:20.034Z</time></trkpt><trkpt lat="43.5838517" lon="11.8266667"><ele>526.0</ele><time>2026-04-25T08:27:21.035Z</time></trkpt><trkpt lat="43.5837933" lon="11.8266017"><ele>527.5</ele><time>2026-04-25T08:27:22.028Z</time></trkpt><trkpt lat="43.5837267" lon="11.8265183"><ele>529.0</ele><time>2026-04-25T08:27:24.031Z</time></trkpt><trkpt lat="43.5838117" lon="11.8264633"><ele>530.5</ele><time>2026-04-25T08:27:26.035Z</time></trkpt><trkpt lat="43.5838817" lon="11.8264483"><ele>532.0</ele><time>2026-04-25T08:27:27.028Z</time></trkpt><trkpt lat="43.5839633" lon="11.826425"><ele>532.0</ele><time>2026-04-25T08:27:28.03Z</time></trkpt><trkpt lat="43.5840517" lon="11.8263867"><ele>532.0</ele><time>2026-04-25T08:27:29.031Z</time></trkpt><trkpt lat="43.584145" lon="11.8263317"><ele>532.0</ele><time>2026-04-25T08:27:30.028Z</time></trkpt><trkpt lat="43.5842333" lon="11.826265"><ele>532.0</ele><time>2026-04-25T08:27:31.03Z</time></trkpt><trkpt lat="43.58432" lon="11.82619"><ele>532.0</ele><time>2026-04-25T08:27:32.024Z</time></trkpt><trkpt lat="43.5844017" lon="11.826125"><ele>532.0</ele><time>2026-04-25T08:27:33.034Z</time></trkpt><trkpt lat="43.5844767" lon="11.82608"><ele>532.0</ele><time>2026-04-25T08:27:34.028Z</time></trkpt><trkpt lat="43.5845533" lon="11.8260417"><ele>532.0</ele><time>2026-04-25T08:27:35.029Z</time></trkpt><trkpt lat="43.5846283" lon="11.8259883"><ele>532.0</ele><time>2026-04-25T08:27:36.031Z</time></trkpt><trkpt lat="43.5847" lon="11.8259133"><ele>532.0</ele><time>2026-04-25T08:27:37.037Z</time></trkpt><trkpt lat="43.584775" lon="11.8258267"><ele>532.0</ele><time>2026-04-25T08:27:38.024Z</time></trkpt><trkpt lat="43.5848467" lon="11.8257333"><ele>534.0</ele><time>2026-04-25T08:27:39.029Z</time></trkpt><trkpt lat="43.584915" lon="11.8256433"><ele>536.0</ele><time>2026-04-25T08:27:40.029Z</time></trkpt><trkpt lat="43.5849767" lon="11.82556"><ele>538.0</ele><time>2026-04-25T08:27:41.032Z</time></trkpt><trkpt lat="43.5850333" lon="11.8254933"><ele>540.0</ele><time>2026-04-25T08:27:42.029Z</time></trkpt><trkpt lat="43.5850867" lon="11.82544"><ele>542.0</ele><time>2026-04-25T08:27:43.031Z</time></trkpt><trkpt lat="43.5851683" lon="11.825365"><ele>544.0</ele><time>2026-04-25T08:27:45.028Z</time></trkpt><trkpt lat="43.5851683" lon="11.825255"><ele>544.0</ele><time>2026-04-25T08:27:48.027Z</time></trkpt><trkpt lat="43.5851083" lon="11.825165"><ele>544.0</ele><time>2026-04-25T08:27:50.044Z</time></trkpt><trkpt lat="43.5850433" lon="11.825105"><ele>544.0</ele><time>2026-04-25T08:27:53.029Z</time></trkpt><trkpt lat="43.585045" lon="11.8249533"><ele>544.0</ele><time>2026-04-25T08:27:56.033Z</time></trkpt><trkpt lat="43.5850117" lon="11.824805"><ele>544.0</ele><time>2026-04-25T08:27:58.027Z</time></trkpt><trkpt lat="43.5849283" lon="11.8247133"><ele>545.3333333333334</ele><time>2026-04-25T08:28:00.03Z</time></trkpt><trkpt lat="43.584835" lon="11.8247367"><ele>546.6666666666667</ele><time>2026-04-25T08:28:02.029Z</time></trkpt><trkpt lat="43.5847633" lon="11.8247383"><ele>548.0</ele><time>2026-04-25T08:28:04.027Z</time></trkpt><trkpt lat="43.5846567" lon="11.82464"><ele>549.3333333333334</ele><time>2026-04-25T08:28:06.03Z</time></trkpt><trkpt lat="43.5845833" lon="11.82461"><ele>550.6666666666666</ele><time>2026-04-25T08:28:07.027Z</time></trkpt><trkpt lat="43.5845167" lon="11.8246017"><ele>552.0</ele><time>2026-04-25T08:28:08.032Z</time></trkpt><trkpt lat="43.5844083" lon="11.8246117"><ele>553.0</ele><time>2026-04-25T08:28:10.028Z</time></trkpt><trkpt lat="43.584315" lon="11.8245633"><ele>554.0</ele><time>2026-04-25T08:28:12.03Z</time></trkpt><trkpt lat="43.5842633" lon="11.8244483"><ele>555.0</ele><time>2026-04-25T08:28:14.03Z</time></trkpt><trkpt lat="43.5842367" lon="11.82431"><ele>556.0</ele><time>2026-04-25T08:28:16.027Z</time></trkpt><trkpt lat="43.5842283" lon="11.8242233"><ele>557.0</ele><time>2026-04-25T08:28:17.025Z</time></trkpt><trkpt lat="43.5842167" lon="11.824135"><ele>558.0</ele><time>2026-04-25T08:28:18.03Z</time></trkpt><trkpt lat="43.5841983" lon="11.8240417"><ele>559.1666666666666</ele><time>2026-04-25T08:28:19.031Z</time></trkpt><trkpt lat="43.5841617" lon="11.82394"><ele>560.3333333333334</ele><time>2026-04-25T08:28:20.033Z</time></trkpt><trkpt lat="43.5841233" lon="11.8238367"><ele>561.5</ele><time>2026-04-25T08:28:21.029Z</time></trkpt><trkpt lat="43.5840833" lon="11.8237383"><ele>562.6666666666667</ele><time>2026-04-25T08:28:22.032Z</time></trkpt><trkpt lat="43.5840467" lon="11.8236533"><ele>563.8333333333334</ele><time>2026-04-25T08:28:23.027Z</time></trkpt><trkpt lat="43.584025" lon="11.82357"><ele>565.0</ele><time>2026-04-25T08:28:24.029Z</time></trkpt><trkpt lat="43.584045" lon="11.8234317"><ele>566.1428571428571</ele><time>2026-04-25T08:28:26.028Z</time></trkpt><trkpt lat="43.5840717" lon="11.8233367"><ele>567.2857142857142</ele><time>2026-04-25T08:28:27.03Z</time></trkpt><trkpt lat="43.5840983" lon="11.8232367"><ele>568.4285714285714</ele><time>2026-04-25T08:28:28.03Z</time></trkpt><trkpt lat="43.5841233" lon="11.8231433"><ele>569.5714285714286</ele><time>2026-04-25T08:28:29.028Z</time></trkpt><trkpt lat="43.5841383" lon="11.82305"><ele>570.7142857142858</ele><time>2026-04-25T08:28:30.029Z</time></trkpt><trkpt lat="43.58415" lon="11.8229517"><ele>571.8571428571429</ele><time>2026-04-25T08:28:31.026Z</time></trkpt><trkpt lat="43.5841467" lon="11.8228383"><ele>573.0</ele><time>2026-04-25T08:28:32.035Z</time></trkpt><trkpt lat="43.5841433" lon="11.822725"><ele>574.3333333333334</ele><time>2026-04-25T08:28:33.033Z</time></trkpt><trkpt lat="43.584135" lon="11.8226233"><ele>575.6666666666666</ele><time>2026-04-25T08:28:34.032Z</time></trkpt><trkpt lat="43.5841233" lon="11.8225367"><ele>577.0</ele><time>2026-04-25T08:28:35.029Z</time></trkpt><trkpt lat="43.584065" lon="11.822435"><ele>578.3333333333333</ele><time>2026-04-25T08:28:37.026Z</time></trkpt><trkpt lat="43.5840133" lon="11.822365"><ele>579.6666666666666</ele><time>2026-04-25T08:28:38.027Z</time></trkpt><trkpt lat="43.5839783" lon="11.822275"><ele>581.0</ele><time>2026-04-25T08:28:39.027Z</time></trkpt><trkpt lat="43.58395" lon="11.822175"><ele>581.0</ele><time>2026-04-25T08:28:40.029Z</time></trkpt><trkpt lat="43.5839217" lon="11.82207"><ele>581.0</ele><time>2026-04-25T08:28:41.031Z</time></trkpt><trkpt lat="43.583915" lon="11.821965"><ele>581.0</ele><time>2026-04-25T08:28:42.029Z</time></trkpt><trkpt lat="43.583905" lon="11.8218683"><ele>581.0</ele><time>2026-04-25T08:28:43.032Z</time></trkpt><trkpt lat="43.5838967" lon="11.8217683"><ele>581.0</ele><time>2026-04-25T08:28:44.026Z</time></trkpt><trkpt lat="43.58389" lon="11.821675"><ele>581.0</ele><time>2026-04-25T08:28:45.031Z</time></trkpt><trkpt lat="43.5838633" lon="11.82152"><ele>581.6666666666666</ele><time>2026-04-25T08:28:47.032Z</time></trkpt><trkpt lat="43.583835" lon="11.8214367"><ele>582.3333333333333</ele><time>2026-04-25T08:28:48.027Z</time></trkpt><trkpt lat="43.5838" lon="11.8213617"><ele>583.0</ele><time>2026-04-25T08:28:49.032Z</time></trkpt><trkpt lat="43.583695" lon="11.821275"><ele>583.6666666666666</ele><time>2026-04-25T08:28:51.028Z</time></trkpt><trkpt lat="43.5836383" lon="11.8212367"><ele>584.3333333333334</ele><time>2026-04-25T08:28:52.033Z</time></trkpt><trkpt lat="43.5835567" lon="11.8211083"><ele>585.0</ele><time>2026-04-25T08:28:54.033Z</time></trkpt><trkpt lat="43.58351" lon="11.8209483"><ele>587.0</ele><time>2026-04-25T08:28:56.034Z</time></trkpt><trkpt lat="43.5834917" lon="11.820855"><ele>589.0</ele><time>2026-04-25T08:28:57.032Z</time></trkpt><trkpt lat="43.5834633" lon="11.8207533"><ele>591.0</ele><time>2026-04-25T08:28:58.043Z</time></trkpt><trkpt lat="43.5834367" lon="11.8206533"><ele>593.0</ele><time>2026-04-25T08:28:59.031Z</time></trkpt><trkpt lat="43.5834133" lon="11.8205517"><ele>595.0</ele><time>2026-04-25T08:29:00.032Z</time></trkpt><trkpt lat="43.5833867" lon="11.820455"><ele>597.0</ele><time>2026-04-25T08:29:01.03Z</time></trkpt><trkpt lat="43.583365" lon="11.8202933"><ele>597.0</ele><time>2026-04-25T08:29:03.032Z</time></trkpt><trkpt lat="43.583355" lon="11.8202033"><ele>597.0</ele><time>2026-04-25T08:29:04.025Z</time></trkpt><trkpt lat="43.58335" lon="11.820115"><ele>597.0</ele><time>2026-04-25T08:29:05.026Z</time></trkpt><trkpt lat="43.5833333" lon="11.8200217"><ele>597.0</ele><time>2026-04-25T08:29:06.032Z</time></trkpt><trkpt lat="43.5833133" lon="11.8199383"><ele>597.0</ele><time>2026-04-25T08:29:07.03Z</time></trkpt><trkpt lat="43.583305" lon="11.81977"><ele>597.0</ele><time>2026-04-25T08:29:09.031Z</time></trkpt><trkpt lat="43.583305" lon="11.819665"><ele>597.8000000000001</ele><time>2026-04-25T08:29:10.032Z</time></trkpt><trkpt lat="43.5833033" lon="11.8195417"><ele>598.6</ele><time>2026-04-25T08:29:11.031Z</time></trkpt><trkpt lat="43.5833" lon="11.8194083"><ele>599.4000000000001</ele><time>2026-04-25T08:29:12.03Z</time></trkpt><trkpt lat="43.58329" lon="11.8192733"><ele>600.2</ele><time>2026-04-25T08:29:13.03Z</time></trkpt><trkpt lat="43.58328" lon="11.81914"><ele>601.0</ele><time>2026-04-25T08:29:14.026Z</time></trkpt><trkpt lat="43.583275" lon="11.81903"><ele>602.3333333333334</ele><time>2026-04-25T08:29:15.031Z</time></trkpt><trkpt lat="43.5832717" lon="11.8189017"><ele>603.6666666666667</ele><time>2026-04-25T08:29:17.028Z</time></trkpt><trkpt lat="43.58324" lon="11.818785"><ele>605.0</ele><time>2026-04-25T08:30:00.031Z</time></trkpt><trkpt lat="43.5832133" lon="11.81867"><ele>606.3333333333334</ele><time>2026-04-25T08:30:02.026Z</time></trkpt><trkpt lat="43.58319" lon="11.8185633"><ele>607.6666666666666</ele><time>2026-04-25T08:30:04.033Z</time></trkpt><trkpt lat="43.5831533" lon="11.818455"><ele>609.0</ele><time>2026-04-25T08:30:06.033Z</time></trkpt><trkpt lat="43.583125" lon="11.8183383"><ele>609.0</ele><time>2026-04-25T08:30:09.024Z</time></trkpt><trkpt lat="43.583145" lon="11.818435"><ele>609.0</ele><time>2026-04-25T08:31:30.026Z</time></trkpt><trkpt lat="43.58318" lon="11.8185967"><ele>609.0</ele><time>2026-04-25T08:31:32.027Z</time></trkpt><trkpt lat="43.5832217" lon="11.8187333"><ele>609.0</ele><time>2026-04-25T08:31:34.028Z</time></trkpt><trkpt lat="43.5832417" lon="11.8188283"><ele>609.0</ele><time>2026-04-25T08:31:36.026Z</time></trkpt><trkpt lat="43.5833233" lon="11.81883"><ele>609.0</ele><time>2026-04-25T08:31:41.026Z</time></trkpt><trkpt lat="43.5834167" lon="11.8186933"><ele>609.0</ele><time>2026-04-25T08:31:43.034Z</time></trkpt><trkpt lat="43.5834733" lon="11.81859"><ele>609.0</ele><time>2026-04-25T08:31:45.028Z</time></trkpt><trkpt lat="43.5835483" lon="11.8185017"><ele>609.0</ele><time>2026-04-25T08:31:51.027Z</time></trkpt><trkpt lat="43.58362" lon="11.81843"><ele>609.0</ele><time>2026-04-25T08:31:53.031Z</time></trkpt><trkpt lat="43.5837067" lon="11.8183817"><ele>611.3333333333334</ele><time>2026-04-25T08:31:55.027Z</time></trkpt><trkpt lat="43.5838033" lon="11.818385"><ele>613.6666666666666</ele><time>2026-04-25T08:31:57.027Z</time></trkpt><trkpt lat="43.5838683" lon="11.8183217"><ele>616.0</ele><time>2026-04-25T08:32:00.034Z</time></trkpt><trkpt lat="43.5838633" lon="11.818235"><ele>618.3333333333333</ele><time>2026-04-25T08:32:02.027Z</time></trkpt><trkpt lat="43.5838767" lon="11.8181333"><ele>620.6666666666666</ele><time>2026-04-25T08:32:04.028Z</time></trkpt><trkpt lat="43.5839017" lon="11.81799"><ele>623.0</ele><time>2026-04-25T08:32:06.032Z</time></trkpt><trkpt lat="43.5839467" lon="11.8178967"><ele>623.0</ele><time>2026-04-25T08:32:08.033Z</time></trkpt><trkpt lat="43.58398" lon="11.8177583"><ele>623.0</ele><time>2026-04-25T08:32:10.028Z</time></trkpt><trkpt lat="43.58399" lon="11.8176667"><ele>623.0</ele><time>2026-04-25T08:32:11.034Z</time></trkpt><trkpt lat="43.5840017" lon="11.81758"><ele>623.0</ele><time>2026-04-25T08:32:12.029Z</time></trkpt><trkpt lat="43.5840033" lon="11.8174383"><ele>623.0</ele><time>2026-04-25T08:32:14.03Z</time></trkpt><trkpt lat="43.5840733" lon="11.8173567"><ele>623.0</ele><time>2026-04-25T08:32:17.028Z</time></trkpt><trkpt lat="43.584125" lon="11.817275"><ele>625.0</ele><time>2026-04-25T08:32:19.032Z</time></trkpt><trkpt lat="43.5841467" lon="11.817155"><ele>627.0</ele><time>2026-04-25T08:32:21.033Z</time></trkpt><trkpt lat="43.58414" lon="11.81705"><ele>629.0</ele><time>2026-04-25T08:32:23.034Z</time></trkpt><trkpt lat="43.5841383" lon="11.8169367"><ele>631.0</ele><time>2026-04-25T08:32:25.031Z</time></trkpt><trkpt lat="43.5841683" lon="11.8168267"><ele>633.0</ele><time>2026-04-25T08:32:27.029Z</time></trkpt><trkpt lat="43.5842083" lon="11.8167067"><ele>635.0</ele><time>2026-04-25T08:32:29.028Z</time></trkpt><trkpt lat="43.5842533" lon="11.8165833"><ele>636.6666666666666</ele><time>2026-04-25T08:32:31.031Z</time></trkpt><trkpt lat="43.584255" lon="11.81648"><ele>638.3333333333333</ele><time>2026-04-25T08:32:33.032Z</time></trkpt><trkpt lat="43.5842717" lon="11.8163667"><ele>640.0</ele><time>2026-04-25T08:32:35.031Z</time></trkpt><trkpt lat="43.584305" lon="11.816265"><ele>641.6666666666666</ele><time>2026-04-25T08:32:38.026Z</time></trkpt><trkpt lat="43.5843433" lon="11.816185"><ele>643.3333333333334</ele><time>2026-04-25T08:32:41.038Z</time></trkpt><trkpt lat="43.5844" lon="11.8161217"><ele>645.0</ele><time>2026-04-25T08:32:44.026Z</time></trkpt><trkpt lat="43.58441" lon="11.816025"><ele>645.0</ele><time>2026-04-25T08:32:47.036Z</time></trkpt><trkpt lat="43.58447" lon="11.8159867"><ele>645.0</ele><time>2026-04-25T08:32:51.031Z</time></trkpt><trkpt lat="43.5845283" lon="11.8159483"><ele>645.0</ele><time>2026-04-25T08:32:57.027Z</time></trkpt><trkpt lat="43.584565" lon="11.8158417"><ele>645.0</ele><time>2026-04-25T08:33:04.028Z</time></trkpt><trkpt lat="43.5845817" lon="11.8157567"><ele>645.0</ele><time>2026-04-25T08:33:06.025Z</time></trkpt><trkpt lat="43.58464" lon="11.8157133"><ele>645.0</ele><time>2026-04-25T08:33:08.029Z</time></trkpt><trkpt lat="43.5847333" lon="11.815725"><ele>645.0</ele><time>2026-04-25T08:33:11.029Z</time></trkpt><trkpt lat="43.5848067" lon="11.8157183"><ele>650.0</ele><time>2026-04-25T08:33:13.028Z</time></trkpt><trkpt lat="43.5848783" lon="11.8156533"><ele>655.0</ele><time>2026-04-25T08:33:16.028Z</time></trkpt><trkpt lat="43.5849517" lon="11.8156317"><ele>660.0</ele><time>2026-04-25T08:33:18.033Z</time></trkpt><trkpt lat="43.58502" lon="11.815605"><ele>665.0</ele><time>2026-04-25T08:33:20.03Z</time></trkpt><trkpt lat="43.58505" lon="11.8154817"><ele>670.0</ele><time>2026-04-25T08:33:24.031Z</time></trkpt><trkpt lat="43.5849817" lon="11.8153667"><ele>675.0</ele><time>2026-04-25T08:33:35.032Z</time></trkpt><trkpt lat="43.5849433" lon="11.8152767"><ele>675.0</ele><time>2026-04-25T08:33:38.026Z</time></trkpt><trkpt lat="43.58493" lon="11.8151917"><ele>675.0</ele><time>2026-04-25T08:33:41.029Z</time></trkpt><trkpt lat="43.5849167" lon="11.8151067"><ele>675.0</ele><time>2026-04-25T08:33:45.027Z</time></trkpt><trkpt lat="43.584935" lon="11.815015"><ele>675.0</ele><time>2026-04-25T08:33:48.032Z</time></trkpt><trkpt lat="43.58496" lon="11.8149267"><ele>675.0</ele><time>2026-04-25T08:33:50.033Z</time></trkpt><trkpt lat="43.584995" lon="11.8148283"><ele>675.0</ele><time>2026-04-25T08:33:53.032Z</time></trkpt><trkpt lat="43.5850417" lon="11.8147467"><ele>675.0</ele><time>2026-04-25T08:33:55.03Z</time></trkpt><trkpt lat="43.585125" lon="11.814685"><ele>675.2</ele><time>2026-04-25T08:33:57.028Z</time></trkpt><trkpt lat="43.5851983" lon="11.8146117"><ele>675.4</ele><time>2026-04-25T08:33:59.029Z</time></trkpt><trkpt lat="43.5852467" lon="11.8144983"><ele>675.5999999999999</ele><time>2026-04-25T08:34:01.035Z</time></trkpt><trkpt lat="43.5852667" lon="11.81436"><ele>675.8</ele><time>2026-04-25T08:34:03.029Z</time></trkpt><trkpt lat="43.58526" lon="11.814225"><ele>676.0</ele><time>2026-04-25T08:34:05.03Z</time></trkpt><trkpt lat="43.5852617" lon="11.8140517"><ele>675.0</ele><time>2026-04-25T08:34:07.029Z</time></trkpt><trkpt lat="43.5852633" lon="11.813955"><ele>674.0</ele><time>2026-04-25T08:34:08.028Z</time></trkpt><trkpt lat="43.5852567" lon="11.81386"><ele>673.0</ele><time>2026-04-25T08:34:09.04Z</time></trkpt><trkpt lat="43.5852483" lon="11.81376"><ele>672.0</ele><time>2026-04-25T08:34:10.03Z</time></trkpt><trkpt lat="43.5852383" lon="11.81366"><ele>671.0</ele><time>2026-04-25T08:34:11.026Z</time></trkpt><trkpt lat="43.5852183" lon="11.813545"><ele>670.0</ele><time>2026-04-25T08:34:12.026Z</time></trkpt><trkpt lat="43.5852083" lon="11.8134417"><ele>669.0</ele><time>2026-04-25T08:34:13.03Z</time></trkpt><trkpt lat="43.5852117" lon="11.8132717"><ele>669.0</ele><time>2026-04-25T08:34:15.027Z</time></trkpt><trkpt lat="43.5852383" lon="11.813115"><ele>669.0</ele><time>2026-04-25T08:34:17.029Z</time></trkpt><trkpt lat="43.5852417" lon="11.8129833"><ele>669.0</ele><time>2026-04-25T08:34:19.031Z</time></trkpt><trkpt lat="43.5852433" lon="11.8128733"><ele>669.0</ele><time>2026-04-25T08:34:21.027Z</time></trkpt><trkpt lat="43.5852717" lon="11.8127317"><ele>669.0</ele><time>2026-04-25T08:34:23.026Z</time></trkpt><trkpt lat="43.5852917" lon="11.8125817"><ele>670.0</ele><time>2026-04-25T08:34:25.023Z</time></trkpt><trkpt lat="43.5852833" lon="11.8124633"><ele>671.0</ele><time>2026-04-25T08:34:27.033Z</time></trkpt><trkpt lat="43.58528" lon="11.8123533"><ele>672.0</ele><time>2026-04-25T08:34:29.034Z</time></trkpt><trkpt lat="43.585255" lon="11.8122583"><ele>673.0</ele><time>2026-04-25T08:34:31.029Z</time></trkpt><trkpt lat="43.5852267" lon="11.8121517"><ele>674.0</ele><time>2026-04-25T08:34:33.031Z</time></trkpt><trkpt lat="43.5851883" lon="11.8120483"><ele>675.0</ele><time>2026-04-25T08:34:35.031Z</time></trkpt><trkpt lat="43.5851467" lon="11.8119283"><ele>677.1666666666666</ele><time>2026-04-25T08:34:39.027Z</time></trkpt><trkpt lat="43.5851167" lon="11.8118217"><ele>679.3333333333334</ele><time>2026-04-25T08:34:42.032Z</time></trkpt><trkpt lat="43.58509" lon="11.8117417"><ele>681.5</ele><time>2026-04-25T08:34:44.031Z</time></trkpt><trkpt lat="43.5850433" lon="11.8116383"><ele>683.6666666666667</ele><time>2026-04-25T08:34:46.03Z</time></trkpt><trkpt lat="43.58499" lon="11.81159"><ele>685.8333333333334</ele><time>2026-04-25T08:34:48.031Z</time></trkpt><trkpt lat="43.5848917" lon="11.8115567"><ele>688.0</ele><time>2026-04-25T08:34:50.037Z</time></trkpt><trkpt lat="43.5848467" lon="11.81148"><ele>688.0</ele><time>2026-04-25T08:34:52.032Z</time></trkpt><trkpt lat="43.5848633" lon="11.8113467"><ele>688.0</ele><time>2026-04-25T08:34:54.036Z</time></trkpt><trkpt lat="43.5849233" lon="11.81121"><ele>688.0</ele><time>2026-04-25T08:34:56.029Z</time></trkpt><trkpt lat="43.5849867" lon="11.8110783"><ele>688.0</ele><time>2026-04-25T08:34:58.03Z</time></trkpt><trkpt lat="43.5850417" lon="11.81093"><ele>688.0</ele><time>2026-04-25T08:35:00.03Z</time></trkpt><trkpt lat="43.58507" lon="11.81085"><ele>689.0</ele><time>2026-04-25T08:35:01.032Z</time></trkpt><trkpt lat="43.5851267" lon="11.8107"><ele>690.0</ele><time>2026-04-25T08:35:03.034Z</time></trkpt><trkpt lat="43.5851667" lon="11.810555"><ele>691.0</ele><time>2026-04-25T08:35:05.031Z</time></trkpt><trkpt lat="43.5851483" lon="11.81047"><ele>692.0</ele><time>2026-04-25T08:35:07.027Z</time></trkpt><trkpt lat="43.5851467" lon="11.81037"><ele>693.0</ele><time>2026-04-25T08:35:09.029Z</time></trkpt><trkpt lat="43.58516" lon="11.8102283"><ele>693.0</ele><time>2026-04-25T08:35:11.03Z</time></trkpt><trkpt lat="43.5852033" lon="11.8100683"><ele>693.0</ele><time>2026-04-25T08:35:13.026Z</time></trkpt><trkpt lat="43.5852433" lon="11.80998"><ele>693.0</ele><time>2026-04-25T08:35:14.028Z</time></trkpt><trkpt lat="43.5852933" lon="11.8098867"><ele>693.0</ele><time>2026-04-25T08:35:15.028Z</time></trkpt><trkpt lat="43.5853483" lon="11.80979"><ele>693.0</ele><time>2026-04-25T08:35:16.027Z</time></trkpt><trkpt lat="43.585395" lon="11.8097"><ele>692.5714285714286</ele><time>2026-04-25T08:35:17.025Z</time></trkpt><trkpt lat="43.5854433" lon="11.80961"><ele>692.1428571428571</ele><time>2026-04-25T08:35:18.029Z</time></trkpt><trkpt lat="43.5854867" lon="11.8095217"><ele>691.7142857142858</ele><time>2026-04-25T08:35:19.032Z</time></trkpt><trkpt lat="43.5855267" lon="11.8094333"><ele>691.2857142857142</ele><time>2026-04-25T08:35:20.035Z</time></trkpt><trkpt lat="43.5855717" lon="11.80936"><ele>690.8571428571429</ele><time>2026-04-25T08:35:21.041Z</time></trkpt><trkpt lat="43.5856267" lon="11.809305"><ele>690.4285714285714</ele><time>2026-04-25T08:35:22.03Z</time></trkpt><trkpt lat="43.5856917" lon="11.8092667"><ele>690.0</ele><time>2026-04-25T08:35:23.029Z</time></trkpt><trkpt lat="43.58576" lon="11.8092333"><ele>691.0</ele><time>2026-04-25T08:35:24.038Z</time></trkpt><trkpt lat="43.5858267" lon="11.8092"><ele>692.0</ele><time>2026-04-25T08:35:25.032Z</time></trkpt><trkpt lat="43.5858883" lon="11.80917"><ele>693.0</ele><time>2026-04-25T08:35:26.028Z</time></trkpt><trkpt lat="43.5859983" lon="11.80909"><ele>694.0</ele><time>2026-04-25T08:35:28.029Z</time></trkpt><trkpt lat="43.5860583" lon="11.8090367"><ele>695.0</ele><time>2026-04-25T08:35:29.033Z</time></trkpt><trkpt lat="43.58612" lon="11.80898"><ele>696.0</ele><time>2026-04-25T08:35:30.029Z</time></trkpt><trkpt lat="43.5862283" lon="11.808875"><ele>693.0</ele><time>2026-04-25T08:35:32.029Z</time></trkpt><trkpt lat="43.5862733" lon="11.8088067"><ele>690.0</ele><time>2026-04-25T08:35:33.037Z</time></trkpt><trkpt lat="43.58631" lon="11.80873"><ele>687.0</ele><time>2026-04-25T08:35:34.031Z</time></trkpt><trkpt lat="43.586345" lon="11.8086417"><ele>684.0</ele><time>2026-04-25T08:35:35.031Z</time></trkpt><trkpt lat="43.5863833" lon="11.8085417"><ele>681.0</ele><time>2026-04-25T08:35:36.031Z</time></trkpt><trkpt lat="43.5864283" lon="11.8084417"><ele>678.0</ele><time>2026-04-25T08:35:37.031Z</time></trkpt><trkpt lat="43.5864733" lon="11.80835"><ele>677.8333333333334</ele><time>2026-04-25T08:35:38.027Z</time></trkpt><trkpt lat="43.5865183" lon="11.808265"><ele>677.6666666666666</ele><time>2026-04-25T08:35:39.028Z</time></trkpt><trkpt lat="43.5865683" lon="11.80819"><ele>677.5</ele><time>2026-04-25T08:35:40.029Z</time></trkpt><trkpt lat="43.586625" lon="11.80813"><ele>677.3333333333333</ele><time>2026-04-25T08:35:41.029Z</time></trkpt><trkpt lat="43.586685" lon="11.8080783"><ele>677.1666666666666</ele><time>2026-04-25T08:35:42.041Z</time></trkpt><trkpt lat="43.5867817" lon="11.80797"><ele>677.0</ele><time>2026-04-25T08:35:44.028Z</time></trkpt><trkpt lat="43.586825" lon="11.807905"><ele>677.0</ele><time>2026-04-25T08:35:45.026Z</time></trkpt><trkpt lat="43.5868683" lon="11.8077667"><ele>677.0</ele><time>2026-04-25T08:35:47.027Z</time></trkpt><trkpt lat="43.5868733" lon="11.8076783"><ele>677.0</ele><time>2026-04-25T08:35:48.029Z</time></trkpt><trkpt lat="43.58689" lon="11.80752"><ele>677.0</ele><time>2026-04-25T08:35:50.029Z</time></trkpt><trkpt lat="43.5869567" lon="11.80739"><ele>677.0</ele><time>2026-04-25T08:35:52.027Z</time></trkpt><trkpt lat="43.58702" lon="11.8073"><ele>674.2</ele><time>2026-04-25T08:35:53.029Z</time></trkpt><trkpt lat="43.58709" lon="11.8071933"><ele>671.4000000000001</ele><time>2026-04-25T08:35:54.031Z</time></trkpt><trkpt lat="43.58716" lon="11.80708"><ele>668.5999999999999</ele><time>2026-04-25T08:35:55.026Z</time></trkpt><trkpt lat="43.58723" lon="11.8069667"><ele>665.8</ele><time>2026-04-25T08:35:56.042Z</time></trkpt><trkpt lat="43.587295" lon="11.806865"><ele>663.0</ele><time>2026-04-25T08:35:57.031Z</time></trkpt><trkpt lat="43.587345" lon="11.8067667"><ele>662.3333333333334</ele><time>2026-04-25T08:35:58.031Z</time></trkpt><trkpt lat="43.5873833" lon="11.8066633"><ele>661.6666666666666</ele><time>2026-04-25T08:35:59.028Z</time></trkpt><trkpt lat="43.5874117" lon="11.80655"><ele>661.0</ele><time>2026-04-25T08:36:00.027Z</time></trkpt><trkpt lat="43.587425" lon="11.80642"><ele>660.3333333333333</ele><time>2026-04-25T08:36:01.028Z</time></trkpt><trkpt lat="43.5874433" lon="11.8063"><ele>659.6666666666666</ele><time>2026-04-25T08:36:02.026Z</time></trkpt><trkpt lat="43.5874633" lon="11.8061967"><ele>659.0</ele><time>2026-04-25T08:36:03.032Z</time></trkpt><trkpt lat="43.58749" lon="11.806115"><ele>657.8000000000001</ele><time>2026-04-25T08:36:04.027Z</time></trkpt><trkpt lat="43.58754" lon="11.805965"><ele>656.6</ele><time>2026-04-25T08:36:06.03Z</time></trkpt><trkpt lat="43.5875833" lon="11.8058267"><ele>655.4</ele><time>2026-04-25T08:36:08.028Z</time></trkpt><trkpt lat="43.587675" lon="11.8057767"><ele>654.2</ele><time>2026-04-25T08:36:10.028Z</time></trkpt><trkpt lat="43.5877433" lon="11.8057617"><ele>653.0</ele><time>2026-04-25T08:36:11.028Z</time></trkpt><trkpt lat="43.58782" lon="11.805735"><ele>652.6666666666666</ele><time>2026-04-25T08:36:12.027Z</time></trkpt><trkpt lat="43.5878933" lon="11.8056883"><ele>652.3333333333333</ele><time>2026-04-25T08:36:13.03Z</time></trkpt><trkpt lat="43.5879617" lon="11.8056417"><ele>652.0</ele><time>2026-04-25T08:36:14.028Z</time></trkpt><trkpt lat="43.5880317" lon="11.805615"><ele>651.6666666666666</ele><time>2026-04-25T08:36:15.029Z</time></trkpt><trkpt lat="43.5881583" lon="11.8055767"><ele>651.3333333333334</ele><time>2026-04-25T08:36:17.029Z</time></trkpt><trkpt lat="43.5882217" lon="11.80555"><ele>651.0</ele><time>2026-04-25T08:36:18.028Z</time></trkpt><trkpt lat="43.5883033" lon="11.80553"><ele>651.0</ele><time>2026-04-25T08:36:20.027Z</time></trkpt><trkpt lat="43.5884167" lon="11.8054983"><ele>651.0</ele><time>2026-04-25T08:36:22.028Z</time></trkpt><trkpt lat="43.5884817" lon="11.8054917"><ele>651.0</ele><time>2026-04-25T08:36:23.029Z</time></trkpt><trkpt lat="43.588615" lon="11.805505"><ele>651.0</ele><time>2026-04-25T08:36:25.027Z</time></trkpt><trkpt lat="43.58869" lon="11.8055067"><ele>651.0</ele><time>2026-04-25T08:36:26.028Z</time></trkpt><trkpt lat="43.588775" lon="11.8055017"><ele>649.8333333333334</ele><time>2026-04-25T08:36:27.027Z</time></trkpt><trkpt lat="43.58886" lon="11.8054833"><ele>648.6666666666666</ele><time>2026-04-25T08:36:28.03Z</time></trkpt><trkpt lat="43.5889367" lon="11.80546"><ele>647.5</ele><time>2026-04-25T08:36:29.03Z</time></trkpt><trkpt lat="43.5890117" lon="11.805445"><ele>646.3333333333333</ele><time>2026-04-25T08:36:30.029Z</time></trkpt><trkpt lat="43.58909" lon="11.80542"><ele>645.1666666666666</ele><time>2026-04-25T08:36:31.029Z</time></trkpt><trkpt lat="43.58915" lon="11.8053733"><ele>644.0</ele><time>2026-04-25T08:36:32.029Z</time></trkpt><trkpt lat="43.5892067" lon="11.8053283"><ele>644.0</ele><time>2026-04-25T08:36:33.031Z</time></trkpt><trkpt lat="43.5892683" lon="11.8052867"><ele>644.0</ele><time>2026-04-25T08:36:34.028Z</time></trkpt><trkpt lat="43.5893833" lon="11.8052467"><ele>644.0</ele><time>2026-04-25T08:36:36.029Z</time></trkpt><trkpt lat="43.589505" lon="11.8052217"><ele>644.0</ele><time>2026-04-25T08:36:38.032Z</time></trkpt><trkpt lat="43.5895717" lon="11.8051967"><ele>644.0</ele><time>2026-04-25T08:36:39.027Z</time></trkpt><trkpt lat="43.5896417" lon="11.8051717"><ele>642.0</ele><time>2026-04-25T08:36:40.03Z</time></trkpt><trkpt lat="43.5897183" lon="11.8051633"><ele>640.0</ele><time>2026-04-25T08:36:41.03Z</time></trkpt><trkpt lat="43.589795" lon="11.8051767"><ele>638.0</ele><time>2026-04-25T08:36:42.027Z</time></trkpt><trkpt lat="43.5898667" lon="11.8051917"><ele>636.0</ele><time>2026-04-25T08:36:43.032Z</time></trkpt><trkpt lat="43.589935" lon="11.8051967"><ele>634.0</ele><time>2026-04-25T08:36:44.03Z</time></trkpt><trkpt lat="43.5900133" lon="11.8051817"><ele>632.0</ele><time>2026-04-25T08:36:45.028Z</time></trkpt><trkpt lat="43.5900933" lon="11.80516"><ele>632.0000000000001</ele><time>2026-04-25T08:36:46.029Z</time></trkpt><trkpt lat="43.5901717" lon="11.8051433"><ele>632.0</ele><time>2026-04-25T08:36:47.027Z</time></trkpt><trkpt lat="43.5902433" lon="11.8051433"><ele>632.0</ele><time>2026-04-25T08:36:48.027Z</time></trkpt><trkpt lat="43.59031" lon="11.8051533"><ele>632.0</ele><time>2026-04-25T08:36:49.027Z</time></trkpt><trkpt lat="43.5903717" lon="11.8051883"><ele>632.0</ele><time>2026-04-25T08:36:50.027Z</time></trkpt><trkpt lat="43.5904317" lon="11.8052433"><ele>632.0000000000001</ele><time>2026-04-25T08:36:51.029Z</time></trkpt><trkpt lat="43.5904867" lon="11.8052983"><ele>632.0</ele><time>2026-04-25T08:36:52.035Z</time></trkpt><trkpt lat="43.5905817" lon="11.8053967"><ele>630.0000000000001</ele><time>2026-04-25T08:36:54.029Z</time></trkpt><trkpt lat="43.5906417" lon="11.8054317"><ele>628.0</ele><time>2026-04-25T08:36:55.029Z</time></trkpt><trkpt lat="43.5907133" lon="11.8054517"><ele>626.0</ele><time>2026-04-25T08:36:56.031Z</time></trkpt><trkpt lat="43.59079" lon="11.8054633"><ele>624.0</ele><time>2026-04-25T08:36:57.028Z</time></trkpt><trkpt lat="43.5908633" lon="11.805475"><ele>622.0</ele><time>2026-04-25T08:36:58.028Z</time></trkpt><trkpt lat="43.5909333" lon="11.8055"><ele>620.0000000000001</ele><time>2026-04-25T08:36:59.029Z</time></trkpt><trkpt lat="43.5910083" lon="11.8055467"><ele>618.0</ele><time>2026-04-25T08:37:00.031Z</time></trkpt><trkpt lat="43.5910733" lon="11.8055967"><ele>618.0</ele><time>2026-04-25T08:37:01.027Z</time></trkpt><trkpt lat="43.5911667" lon="11.80566"><ele>618.0</ele><time>2026-04-25T08:37:03.033Z</time></trkpt><trkpt lat="43.5912817" lon="11.8056417"><ele>618.0</ele><time>2026-04-25T08:37:05.029Z</time></trkpt><trkpt lat="43.591355" lon="11.8056483"><ele>618.0</ele><time>2026-04-25T08:37:06.031Z</time></trkpt><trkpt lat="43.59143" lon="11.8056683"><ele>618.0</ele><time>2026-04-25T08:37:07.044Z</time></trkpt><trkpt lat="43.5915133" lon="11.80567"><ele>616.0000000000001</ele><time>2026-04-25T08:37:08.029Z</time></trkpt><trkpt lat="43.591595" lon="11.8056567"><ele>614.0</ele><time>2026-04-25T08:37:09.033Z</time></trkpt><trkpt lat="43.59167" lon="11.80565"><ele>612.0</ele><time>2026-04-25T08:37:10.029Z</time></trkpt><trkpt lat="43.5917433" lon="11.8056467"><ele>610.0</ele><time>2026-04-25T08:37:11.029Z</time></trkpt><trkpt lat="43.5918133" lon="11.805645"><ele>608.0</ele><time>2026-04-25T08:37:12.025Z</time></trkpt><trkpt lat="43.5918933" lon="11.8056517"><ele>606.0000000000001</ele><time>2026-04-25T08:37:13.033Z</time></trkpt><trkpt lat="43.5919617" lon="11.8056517"><ele>604.0</ele><time>2026-04-25T08:37:14.027Z</time></trkpt><trkpt lat="43.592035" lon="11.805665"><ele>600.8571428571429</ele><time>2026-04-25T08:37:15.03Z</time></trkpt><trkpt lat="43.5921017" lon="11.8057"><ele>597.7142857142858</ele><time>2026-04-25T08:37:16.026Z</time></trkpt><trkpt lat="43.5921567" lon="11.8057467"><ele>594.5714285714286</ele><time>2026-04-25T08:37:17.03Z</time></trkpt><trkpt lat="43.5922083" lon="11.8058217"><ele>591.4285714285714</ele><time>2026-04-25T08:37:18.028Z</time></trkpt><trkpt lat="43.5922533" lon="11.8059167"><ele>588.2857142857142</ele><time>2026-04-25T08:37:19.027Z</time></trkpt><trkpt lat="43.5922967" lon="11.806"><ele>585.1428571428571</ele><time>2026-04-25T08:37:20.03Z</time></trkpt><trkpt lat="43.592345" lon="11.8060817"><ele>582.0</ele><time>2026-04-25T08:37:21.029Z</time></trkpt><trkpt lat="43.5924017" lon="11.8061617"><ele>581.6666666666666</ele><time>2026-04-25T08:37:22.031Z</time></trkpt><trkpt lat="43.5924733" lon="11.8062417"><ele>581.3333333333334</ele><time>2026-04-25T08:37:23.029Z</time></trkpt><trkpt lat="43.5925383" lon="11.80632"><ele>581.0</ele><time>2026-04-25T08:37:24.031Z</time></trkpt><trkpt lat="43.5926033" lon="11.806395"><ele>580.6666666666667</ele><time>2026-04-25T08:37:25.024Z</time></trkpt><trkpt lat="43.5926617" lon="11.8064617"><ele>580.3333333333334</ele><time>2026-04-25T08:37:26.029Z</time></trkpt><trkpt lat="43.592715" lon="11.80651"><ele>580.0</ele><time>2026-04-25T08:37:27.027Z</time></trkpt><trkpt lat="43.5927817" lon="11.8065667"><ele>579.8333333333334</ele><time>2026-04-25T08:37:29.025Z</time></trkpt><trkpt lat="43.5928517" lon="11.80654"><ele>579.6666666666667</ele><time>2026-04-25T08:39:32.027Z</time></trkpt><trkpt lat="43.5929417" lon="11.8066317"><ele>579.5</ele><time>2026-04-25T08:39:35.027Z</time></trkpt><trkpt lat="43.5930117" lon="11.806705"><ele>579.3333333333334</ele><time>2026-04-25T08:39:37.028Z</time></trkpt><trkpt lat="43.5930367" lon="11.8067933"><ele>579.1666666666666</ele><time>2026-04-25T08:39:40.029Z</time></trkpt><trkpt lat="43.5930917" lon="11.80691"><ele>579.0</ele><time>2026-04-25T08:39:42.03Z</time></trkpt><trkpt lat="43.5931733" lon="11.8070433"><ele>579.0</ele><time>2026-04-25T08:39:44.022Z</time></trkpt><trkpt lat="43.5932133" lon="11.8071283"><ele>579.0</ele><time>2026-04-25T08:39:45.029Z</time></trkpt><trkpt lat="43.5932433" lon="11.807235"><ele>579.0</ele><time>2026-04-25T08:39:46.032Z</time></trkpt><trkpt lat="43.5932733" lon="11.807345"><ele>579.0</ele><time>2026-04-25T08:39:47.029Z</time></trkpt><trkpt lat="43.5932967" lon="11.80745"><ele>579.0</ele><time>2026-04-25T08:39:48.03Z</time></trkpt><trkpt lat="43.5933183" lon="11.8075467"><ele>579.0</ele><time>2026-04-25T08:39:49.026Z</time></trkpt><trkpt lat="43.5933483" lon="11.8076333"><ele>579.0</ele><time>2026-04-25T08:39:50.025Z</time></trkpt><trkpt lat="43.593385" lon="11.8077067"><ele>579.0</ele><time>2026-04-25T08:39:51.031Z</time></trkpt><trkpt lat="43.5934533" lon="11.8077667"><ele>579.0</ele><time>2026-04-25T08:39:53.029Z</time></trkpt><trkpt lat="43.5935167" lon="11.8078117"><ele>579.0</ele><time>2026-04-25T08:39:55.032Z</time></trkpt><trkpt lat="43.5935933" lon="11.807885"><ele>579.0</ele><time>2026-04-25T08:39:57.031Z</time></trkpt><trkpt lat="43.5936567" lon="11.80796"><ele>579.0</ele><time>2026-04-25T08:39:59.031Z</time></trkpt><trkpt lat="43.5937067" lon="11.8080667"><ele>579.0</ele><time>2026-04-25T08:40:01.031Z</time></trkpt><trkpt lat="43.5937617" lon="11.8082"><ele>579.0</ele><time>2026-04-25T08:40:03.036Z</time></trkpt><trkpt lat="43.5937983" lon="11.8082983"><ele>579.0</ele><time>2026-04-25T08:40:05.026Z</time></trkpt><trkpt lat="43.5938667" lon="11.8084017"><ele>579.0</ele><time>2026-04-25T08:40:08.031Z</time></trkpt><trkpt lat="43.5939683" lon="11.8084717"><ele>579.0</ele><time>2026-04-25T08:40:10.031Z</time></trkpt><trkpt lat="43.5940367" lon="11.808525"><ele>577.5</ele><time>2026-04-25T08:40:11.028Z</time></trkpt><trkpt lat="43.5941017" lon="11.80858"><ele>576.0</ele><time>2026-04-25T08:40:12.028Z</time></trkpt><trkpt lat="43.59416" lon="11.8086317"><ele>574.5</ele><time>2026-04-25T08:40:13.028Z</time></trkpt><trkpt lat="43.5942233" lon="11.8086817"><ele>573.0</ele><time>2026-04-25T08:40:14.028Z</time></trkpt><trkpt lat="43.5942783" lon="11.8087417"><ele>571.5</ele><time>2026-04-25T08:40:15.028Z</time></trkpt><trkpt lat="43.5943567" lon="11.8088267"><ele>570.0</ele><time>2026-04-25T08:40:17.029Z</time></trkpt><trkpt lat="43.5944067" lon="11.80892"><ele>570.0</ele><time>2026-04-25T08:40:19.033Z</time></trkpt><trkpt lat="43.5944517" lon="11.8090333"><ele>570.0</ele><time>2026-04-25T08:40:21.033Z</time></trkpt><trkpt lat="43.59448" lon="11.8091317"><ele>570.0</ele><time>2026-04-25T08:40:23.03Z</time></trkpt><trkpt lat="43.594515" lon="11.8092167"><ele>570.0</ele><time>2026-04-25T08:40:27.031Z</time></trkpt><trkpt lat="43.5945417" lon="11.8093267"><ele>570.0</ele><time>2026-04-25T08:40:30.029Z</time></trkpt><trkpt lat="43.5945567" lon="11.8094167"><ele>570.0</ele><time>2026-04-25T08:40:32.029Z</time></trkpt><trkpt lat="43.5945683" lon="11.8095067"><ele>570.1428571428571</ele><time>2026-04-25T08:40:34.027Z</time></trkpt><trkpt lat="43.5945917" lon="11.8096067"><ele>570.2857142857143</ele><time>2026-04-25T08:40:36.032Z</time></trkpt><trkpt lat="43.5946467" lon="11.8097"><ele>570.4285714285714</ele><time>2026-04-25T08:40:39.03Z</time></trkpt><trkpt lat="43.5947117" lon="11.8097483"><ele>570.5714285714286</ele><time>2026-04-25T08:40:41.027Z</time></trkpt><trkpt lat="43.5947867" lon="11.80973"><ele>570.7142857142857</ele><time>2026-04-25T08:40:43.029Z</time></trkpt><trkpt lat="43.594835" lon="11.8096733"><ele>570.8571428571429</ele><time>2026-04-25T08:40:45.044Z</time></trkpt><trkpt lat="43.594895" lon="11.8096283"><ele>571.0</ele><time>2026-04-25T08:40:48.028Z</time></trkpt><trkpt lat="43.594984" lon="11.8096327"><ele>571.0</ele><time>2026-04-25T08:40:51.105Z</time></trkpt><trkpt lat="43.5950229" lon="11.8097297"><ele>571.0</ele><time>2026-04-25T08:40:53.076Z</time></trkpt><trkpt lat="43.5950433" lon="11.8098192"><ele>571.0</ele><time>2026-04-25T08:40:54.031Z</time></trkpt><trkpt lat="43.5950732" lon="11.8099253"><ele>571.0</ele><time>2026-04-25T08:40:55.031Z</time></trkpt><trkpt lat="43.595105" lon="11.8100267"><ele>571.0</ele><time>2026-04-25T08:40:56.034Z</time></trkpt><trkpt lat="43.5951533" lon="11.8100833"><ele>571.0</ele><time>2026-04-25T08:40:57.029Z</time></trkpt><trkpt lat="43.5952417" lon="11.8101467"><ele>571.5</ele><time>2026-04-25T08:40:59.03Z</time></trkpt><trkpt lat="43.5953017" lon="11.8101783"><ele>572.0</ele><time>2026-04-25T08:41:01.029Z</time></trkpt><trkpt lat="43.59537" lon="11.81025"><ele>572.5</ele><time>2026-04-25T08:41:04.029Z</time></trkpt><trkpt lat="43.5954333" lon="11.8102933"><ele>573.0</ele><time>2026-04-25T08:41:06.029Z</time></trkpt><trkpt lat="43.5955233" lon="11.8103317"><ele>573.5</ele><time>2026-04-25T08:41:08.029Z</time></trkpt><trkpt lat="43.5955983" lon="11.8102983"><ele>574.0</ele><time>2026-04-25T08:41:10.028Z</time></trkpt><trkpt lat="43.595655" lon="11.8103433"><ele>574.0</ele><time>2026-04-25T08:41:12.028Z</time></trkpt><trkpt lat="43.5957583" lon="11.8104983"><ele>574.0</ele><time>2026-04-25T08:41:14.025Z</time></trkpt><trkpt lat="43.5958217" lon="11.8105983"><ele>574.0</ele><time>2026-04-25T08:41:15.032Z</time></trkpt><trkpt lat="43.5958867" lon="11.8106933"><ele>574.0</ele><time>2026-04-25T08:41:16.033Z</time></trkpt><trkpt lat="43.5959533" lon="11.8107883"><ele>574.0</ele><time>2026-04-25T08:41:17.03Z</time></trkpt><trkpt lat="43.596015" lon="11.8108783"><ele>574.0</ele><time>2026-04-25T08:41:18.035Z</time></trkpt><trkpt lat="43.5960667" lon="11.81095"><ele>574.0</ele><time>2026-04-25T08:41:19.029Z</time></trkpt><trkpt lat="43.5961117" lon="11.8110133"><ele>574.0</ele><time>2026-04-25T08:41:21.026Z</time></trkpt><trkpt lat="43.5961083" lon="11.8108867"><ele>574.0</ele><time>2026-04-25T08:41:24.028Z</time></trkpt><trkpt lat="43.596105" lon="11.8107167"><ele>574.0</ele><time>2026-04-25T08:41:26.029Z</time></trkpt><trkpt lat="43.5961017" lon="11.81055"><ele>574.0</ele><time>2026-04-25T08:41:28.032Z</time></trkpt><trkpt lat="43.596065" lon="11.8104067"><ele>574.0</ele><time>2026-04-25T08:41:30.032Z</time></trkpt><trkpt lat="43.596045" lon="11.8102517"><ele>574.0</ele><time>2026-04-25T08:41:32.04Z</time></trkpt><trkpt lat="43.5960383" lon="11.8101617"><ele>574.0</ele><time>2026-04-25T08:41:33.033Z</time></trkpt><trkpt lat="43.5959967" lon="11.8100283"><ele>574.0</ele><time>2026-04-25T08:41:35.03Z</time></trkpt><trkpt lat="43.5959017" lon="11.8099333"><ele>575.6</ele><time>2026-04-25T08:41:37.032Z</time></trkpt><trkpt lat="43.595825" lon="11.80982"><ele>577.2</ele><time>2026-04-25T08:41:39.041Z</time></trkpt><trkpt lat="43.5957533" lon="11.8097"><ele>578.8000000000001</ele><time>2026-04-25T08:41:41.034Z</time></trkpt><trkpt lat="43.5957483" lon="11.8096133"><ele>580.4</ele><time>2026-04-25T08:41:43.034Z</time></trkpt><trkpt lat="43.59575" lon="11.8094517"><ele>582.0</ele><time>2026-04-25T08:41:45.031Z</time></trkpt><trkpt lat="43.5957433" lon="11.80936"><ele>583.2857142857142</ele><time>2026-04-25T08:41:46.029Z</time></trkpt><trkpt lat="43.5957367" lon="11.8092733"><ele>584.5714285714286</ele><time>2026-04-25T08:41:47.033Z</time></trkpt><trkpt lat="43.595725" lon="11.8091717"><ele>585.8571428571429</ele><time>2026-04-25T08:41:48.031Z</time></trkpt><trkpt lat="43.595715" lon="11.80908"><ele>587.1428571428571</ele><time>2026-04-25T08:41:49.03Z</time></trkpt><trkpt lat="43.5957017" lon="11.8089917"><ele>588.4285714285714</ele><time>2026-04-25T08:41:50.031Z</time></trkpt><trkpt lat="43.5956967" lon="11.80885"><ele>589.7142857142857</ele><time>2026-04-25T08:41:52.029Z</time></trkpt><trkpt lat="43.5957083" lon="11.8087533"><ele>591.0</ele><time>2026-04-25T08:41:53.024Z</time></trkpt><trkpt lat="43.5957183" lon="11.8086383"><ele>591.0</ele><time>2026-04-25T08:41:54.03Z</time></trkpt><trkpt lat="43.595735" lon="11.80852"><ele>591.0</ele><time>2026-04-25T08:41:55.028Z</time></trkpt><trkpt lat="43.5957533" lon="11.8084133"><ele>591.0</ele><time>2026-04-25T08:41:56.031Z</time></trkpt><trkpt lat="43.595775" lon="11.808315"><ele>591.0</ele><time>2026-04-25T08:41:57.028Z</time></trkpt><trkpt lat="43.5958033" lon="11.8082083"><ele>591.0</ele><time>2026-04-25T08:41:58.03Z</time></trkpt><trkpt lat="43.5958333" lon="11.8081083"><ele>591.0</ele><time>2026-04-25T08:41:59.027Z</time></trkpt><trkpt lat="43.5958533" lon="11.808025"><ele>592.4</ele><time>2026-04-25T08:42:00.031Z</time></trkpt><trkpt lat="43.5958817" lon="11.807855"><ele>593.8</ele><time>2026-04-25T08:42:02.033Z</time></trkpt><trkpt lat="43.59591" lon="11.8077633"><ele>595.1999999999999</ele><time>2026-04-25T08:42:03.032Z</time></trkpt><trkpt lat="43.5959433" lon="11.8076817"><ele>596.6</ele><time>2026-04-25T08:42:04.032Z</time></trkpt><trkpt lat="43.5959967" lon="11.8075483"><ele>598.0</ele><time>2026-04-25T08:42:06.032Z</time></trkpt><trkpt lat="43.5959933" lon="11.8074067"><ele>599.0</ele><time>2026-04-25T08:42:08.029Z</time></trkpt><trkpt lat="43.595985" lon="11.8073117"><ele>600.0</ele><time>2026-04-25T08:42:09.032Z</time></trkpt><trkpt lat="43.5959833" lon="11.8072117"><ele>601.0</ele><time>2026-04-25T08:42:10.029Z</time></trkpt><trkpt lat="43.5959917" lon="11.80711"><ele>602.0</ele><time>2026-04-25T08:42:11.028Z</time></trkpt><trkpt lat="43.5960033" lon="11.807"><ele>603.0</ele><time>2026-04-25T08:42:12.028Z</time></trkpt><trkpt lat="43.5960167" lon="11.80689"><ele>604.0</ele><time>2026-04-25T08:42:13.034Z</time></trkpt><trkpt lat="43.59603" lon="11.8067817"><ele>604.4285714285714</ele><time>2026-04-25T08:42:14.038Z</time></trkpt><trkpt lat="43.5960317" lon="11.80667"><ele>604.8571428571429</ele><time>2026-04-25T08:42:15.031Z</time></trkpt><trkpt lat="43.5960233" lon="11.80657"><ele>605.2857142857142</ele><time>2026-04-25T08:42:16.034Z</time></trkpt><trkpt lat="43.5959983" lon="11.8064733"><ele>605.7142857142858</ele><time>2026-04-25T08:42:17.036Z</time></trkpt><trkpt lat="43.5959683" lon="11.8063725"><ele>606.1428571428571</ele><time>2026-04-25T08:42:18.028Z</time></trkpt><trkpt lat="43.595944" lon="11.8062814"><ele>606.5714285714286</ele><time>2026-04-25T08:42:19.036Z</time></trkpt><trkpt lat="43.5959344" lon="11.8061914"><ele>607.0</ele><time>2026-04-25T08:42:20.029Z</time></trkpt><trkpt lat="43.595928" lon="11.806103"><ele>607.0</ele><time>2026-04-25T08:42:21.024Z</time></trkpt><trkpt lat="43.5959229" lon="11.8060117"><ele>607.0</ele><time>2026-04-25T08:42:22.03Z</time></trkpt><trkpt lat="43.5959253" lon="11.8058421"><ele>607.0</ele><time>2026-04-25T08:42:24.03Z</time></trkpt><trkpt lat="43.5959478" lon="11.8057445"><ele>607.0</ele><time>2026-04-25T08:42:25.024Z</time></trkpt><trkpt lat="43.595977" lon="11.8056423"><ele>607.0</ele><time>2026-04-25T08:42:26.029Z</time></trkpt><trkpt lat="43.5960065" lon="11.8055516"><ele>607.0</ele><time>2026-04-25T08:42:27.028Z</time></trkpt><trkpt lat="43.5960387" lon="11.8054689"><ele>606.8333333333334</ele><time>2026-04-25T08:42:28.03Z</time></trkpt><trkpt lat="43.5960815" lon="11.8053911"><ele>606.6666666666667</ele><time>2026-04-25T08:42:29.03Z</time></trkpt><trkpt lat="43.5961339" lon="11.8053233"><ele>606.5</ele><time>2026-04-25T08:42:30.032Z</time></trkpt><trkpt lat="43.5962026" lon="11.8052551"><ele>606.3333333333334</ele><time>2026-04-25T08:42:31.028Z</time></trkpt><trkpt lat="43.5962831" lon="11.8051783"><ele>606.1666666666666</ele><time>2026-04-25T08:42:32.03Z</time></trkpt><trkpt lat="43.5963692" lon="11.8051038"><ele>606.0</ele><time>2026-04-25T08:42:33.031Z</time></trkpt><trkpt lat="43.5964566" lon="11.805039"><ele>607.0</ele><time>2026-04-25T08:42:34.027Z</time></trkpt><trkpt lat="43.5965361" lon="11.8049857"><ele>608.0</ele><time>2026-04-25T08:42:35.037Z</time></trkpt><trkpt lat="43.5966089" lon="11.8049398"><ele>609.0</ele><time>2026-04-25T08:42:36.025Z</time></trkpt><trkpt lat="43.5966766" lon="11.8048944"><ele>610.0</ele><time>2026-04-25T08:42:37.027Z</time></trkpt><trkpt lat="43.5967452" lon="11.8048477"><ele>611.0</ele><time>2026-04-25T08:42:38.028Z</time></trkpt><trkpt lat="43.5968123" lon="11.8047934"><ele>612.0</ele><time>2026-04-25T08:42:39.032Z</time></trkpt><trkpt lat="43.5968762" lon="11.8047417"><ele>612.0</ele><time>2026-04-25T08:42:40.025Z</time></trkpt><trkpt lat="43.5969388" lon="11.8047004"><ele>612.0</ele><time>2026-04-25T08:42:41.024Z</time></trkpt><trkpt lat="43.5970031" lon="11.8046551"><ele>612.0</ele><time>2026-04-25T08:42:42.033Z</time></trkpt><trkpt lat="43.5970644" lon="11.8045904"><ele>612.0</ele><time>2026-04-25T08:42:43.027Z</time></trkpt><trkpt lat="43.5971221" lon="11.8045137"><ele>612.0</ele><time>2026-04-25T08:42:44.032Z</time></trkpt><trkpt lat="43.597177" lon="11.80443"><ele>612.0</ele><time>2026-04-25T08:42:45.044Z</time></trkpt><trkpt lat="43.5972342" lon="11.8043464"><ele>612.1666666666666</ele><time>2026-04-25T08:42:46.033Z</time></trkpt><trkpt lat="43.5972917" lon="11.8042612"><ele>612.3333333333334</ele><time>2026-04-25T08:42:47.027Z</time></trkpt><trkpt lat="43.5973419" lon="11.8041874"><ele>612.5</ele><time>2026-04-25T08:42:48.028Z</time></trkpt><trkpt lat="43.597386" lon="11.8041231"><ele>612.6666666666667</ele><time>2026-04-25T08:42:49.031Z</time></trkpt><trkpt lat="43.5974683" lon="11.8040267"><ele>612.8333333333334</ele><time>2026-04-25T08:42:51.027Z</time></trkpt><trkpt lat="43.5975083" lon="11.8039483"><ele>613.0</ele><time>2026-04-25T08:43:02.025Z</time></trkpt><trkpt lat="43.5975783" lon="11.8038867"><ele>613.0</ele><time>2026-04-25T08:43:04.035Z</time></trkpt><trkpt lat="43.5976717" lon="11.80384"><ele>613.0</ele><time>2026-04-25T08:43:06.028Z</time></trkpt><trkpt lat="43.59778" lon="11.8038083"><ele>613.0</ele><time>2026-04-25T08:43:08.028Z</time></trkpt><trkpt lat="43.5978433" lon="11.8037917"><ele>613.0</ele><time>2026-04-25T08:43:09.033Z</time></trkpt><trkpt lat="43.59795" lon="11.8038017"><ele>613.0</ele><time>2026-04-25T08:43:11.027Z</time></trkpt><trkpt lat="43.59804" lon="11.8038617"><ele>611.8</ele><time>2026-04-25T08:43:13.025Z</time></trkpt><trkpt lat="43.5981383" lon="11.8039083"><ele>610.5999999999999</ele><time>2026-04-25T08:43:15.029Z</time></trkpt><trkpt lat="43.5982333" lon="11.803955"><ele>609.4000000000001</ele><time>2026-04-25T08:43:17.027Z</time></trkpt><trkpt lat="43.5983067" lon="11.8040267"><ele>608.2</ele><time>2026-04-25T08:43:19.028Z</time></trkpt><trkpt lat="43.5983783" lon="11.8040833"><ele>607.0</ele><time>2026-04-25T08:43:21.025Z</time></trkpt><trkpt lat="43.5984383" lon="11.8041867"><ele>607.0</ele><time>2026-04-25T08:43:23.03Z</time></trkpt><trkpt lat="43.5985" lon="11.8042833"><ele>607.0</ele><time>2026-04-25T08:43:25.026Z</time></trkpt><trkpt lat="43.5985783" lon="11.8043433"><ele>607.0</ele><time>2026-04-25T08:43:27.031Z</time></trkpt><trkpt lat="43.598655" lon="11.80436"><ele>607.0</ele><time>2026-04-25T08:43:29.028Z</time></trkpt><trkpt lat="43.5987267" lon="11.8044133"><ele>607.0</ele><time>2026-04-25T08:45:28.028Z</time></trkpt><trkpt lat="43.5988217" lon="11.8044967"><ele>605.5</ele><time>2026-04-25T08:45:30.031Z</time></trkpt><trkpt lat="43.5988967" lon="11.8045367"><ele>604.0</ele><time>2026-04-25T08:45:31.029Z</time></trkpt><trkpt lat="43.5989833" lon="11.80457"><ele>602.5</ele><time>2026-04-25T08:45:32.026Z</time></trkpt><trkpt lat="43.5990617" lon="11.8046083"><ele>601.0</ele><time>2026-04-25T08:45:33.03Z</time></trkpt><trkpt lat="43.5991433" lon="11.80464"><ele>599.5</ele><time>2026-04-25T08:45:34.03Z</time></trkpt><trkpt lat="43.59922" lon="11.8046817"><ele>598.0</ele><time>2026-04-25T08:45:35.031Z</time></trkpt><trkpt lat="43.5993033" lon="11.8047333"><ele>598.0</ele><time>2026-04-25T08:45:36.027Z</time></trkpt><trkpt lat="43.5993783" lon="11.8047917"><ele>598.0</ele><time>2026-04-25T08:45:37.032Z</time></trkpt><trkpt lat="43.5994483" lon="11.80485"><ele>598.0</ele><time>2026-04-25T08:45:38.028Z</time></trkpt><trkpt lat="43.5995167" lon="11.80492"><ele>598.0</ele><time>2026-04-25T08:45:39.028Z</time></trkpt><trkpt lat="43.599595" lon="11.8050017"><ele>598.0</ele><time>2026-04-25T08:45:40.025Z</time></trkpt><trkpt lat="43.5996683" lon="11.8050833"><ele>598.0</ele><time>2026-04-25T08:45:41.027Z</time></trkpt><trkpt lat="43.5997267" lon="11.80517"><ele>595.1999999999999</ele><time>2026-04-25T08:45:42.029Z</time></trkpt><trkpt lat="43.5997983" lon="11.8052483"><ele>592.4</ele><time>2026-04-25T08:45:43.026Z</time></trkpt><trkpt lat="43.59987" lon="11.8053033"><ele>589.5999999999999</ele><time>2026-04-25T08:45:44.027Z</time></trkpt><trkpt lat="43.5999367" lon="11.8053567"><ele>586.8</ele><time>2026-04-25T08:45:45.032Z</time></trkpt><trkpt lat="43.600015" lon="11.805425"><ele>584.0</ele><time>2026-04-25T08:45:47.029Z</time></trkpt><trkpt lat="43.6001433" lon="11.8054033"><ele>584.0</ele><time>2026-04-25T08:45:49.028Z</time></trkpt><trkpt lat="43.6002117" lon="11.8053533"><ele>584.0</ele><time>2026-04-25T08:45:50.031Z</time></trkpt><trkpt lat="43.6003" lon="11.8053183"><ele>584.0</ele><time>2026-04-25T08:45:51.032Z</time></trkpt><trkpt lat="43.600395" lon="11.80533"><ele>584.0</ele><time>2026-04-25T08:45:52.033Z</time></trkpt><trkpt lat="43.6004967" lon="11.8053583"><ele>584.0</ele><time>2026-04-25T08:45:53.029Z</time></trkpt><trkpt lat="43.6006033" lon="11.8053717"><ele>582.5</ele><time>2026-04-25T08:45:54.03Z</time></trkpt><trkpt lat="43.600715" lon="11.8053717"><ele>581.0</ele><time>2026-04-25T08:45:55.029Z</time></trkpt><trkpt lat="43.60083" lon="11.8053867"><ele>579.5</ele><time>2026-04-25T08:45:56.028Z</time></trkpt><trkpt lat="43.600945" lon="11.8053917"><ele>578.0</ele><time>2026-04-25T08:45:57.029Z</time></trkpt><trkpt lat="43.6010533" lon="11.8053967"><ele>578.0</ele><time>2026-04-25T08:45:58.025Z</time></trkpt><trkpt lat="43.60116" lon="11.805395"><ele>578.0</ele><time>2026-04-25T08:45:59.029Z</time></trkpt><trkpt lat="43.60125" lon="11.8054217"><ele>578.0</ele><time>2026-04-25T08:46:00.026Z</time></trkpt><trkpt lat="43.6013333" lon="11.8054583"><ele>578.0</ele><time>2026-04-25T08:46:01.029Z</time></trkpt><trkpt lat="43.6014033" lon="11.8055267"><ele>578.0</ele><time>2026-04-25T08:46:02.027Z</time></trkpt><trkpt lat="43.6014717" lon="11.8056117"><ele>578.8</ele><time>2026-04-25T08:46:03.029Z</time></trkpt><trkpt lat="43.601545" lon="11.80571"><ele>579.5999999999999</ele><time>2026-04-25T08:46:04.026Z</time></trkpt><trkpt lat="43.6016183" lon="11.8058233"><ele>580.4000000000001</ele><time>2026-04-25T08:46:05.027Z</time></trkpt><trkpt lat="43.60171" lon="11.8058983"><ele>581.2</ele><time>2026-04-25T08:46:06.034Z</time></trkpt><trkpt lat="43.6017867" lon="11.80598"><ele>582.0</ele><time>2026-04-25T08:46:07.028Z</time></trkpt><trkpt lat="43.60185" lon="11.806075"><ele>582.6</ele><time>2026-04-25T08:46:08.03Z</time></trkpt><trkpt lat="43.6018967" lon="11.8061867"><ele>583.2</ele><time>2026-04-25T08:46:09.028Z</time></trkpt><trkpt lat="43.60196" lon="11.8062933"><ele>583.8</ele><time>2026-04-25T08:46:10.029Z</time></trkpt><trkpt lat="43.6020317" lon="11.806395"><ele>584.4</ele><time>2026-04-25T08:46:11.028Z</time></trkpt><trkpt lat="43.602085" lon="11.8064983"><ele>585.0</ele><time>2026-04-25T08:46:12.028Z</time></trkpt><trkpt lat="43.6021517" lon="11.8065833"><ele>585.0</ele><time>2026-04-25T08:46:13.027Z</time></trkpt><trkpt lat="43.6022267" lon="11.806645"><ele>585.0</ele><time>2026-04-25T08:46:14.028Z</time></trkpt><trkpt lat="43.6023117" lon="11.8067017"><ele>585.0</ele><time>2026-04-25T08:46:15.029Z</time></trkpt><trkpt lat="43.6023883" lon="11.8067817"><ele>585.0</ele><time>2026-04-25T08:46:16.025Z</time></trkpt><trkpt lat="43.6024683" lon="11.8068617"><ele>585.0</ele><time>2026-04-25T08:46:17.028Z</time></trkpt><trkpt lat="43.6025433" lon="11.8069267"><ele>582.0</ele><time>2026-04-25T08:46:18.031Z</time></trkpt><trkpt lat="43.602595" lon="11.8069983"><ele>579.0</ele><time>2026-04-25T08:46:19.027Z</time></trkpt><trkpt lat="43.602625" lon="11.80717"><ele>576.0</ele><time>2026-04-25T08:46:21.028Z</time></trkpt><trkpt lat="43.6026983" lon="11.8072983"><ele>573.0</ele><time>2026-04-25T08:46:23.028Z</time></trkpt><trkpt lat="43.6027533" lon="11.8073483"><ele>570.0</ele><time>2026-04-25T08:46:24.028Z</time></trkpt><trkpt lat="43.6028083" lon="11.8074133"><ele>571.3333333333334</ele><time>2026-04-25T08:46:25.025Z</time></trkpt><trkpt lat="43.6028767" lon="11.8074733"><ele>572.6666666666666</ele><time>2026-04-25T08:46:26.029Z</time></trkpt><trkpt lat="43.6029583" lon="11.8075233"><ele>574.0</ele><time>2026-04-25T08:46:27.032Z</time></trkpt><trkpt lat="43.6030367" lon="11.8075767"><ele>575.3333333333333</ele><time>2026-04-25T08:46:28.028Z</time></trkpt><trkpt lat="43.6031183" lon="11.8076133"><ele>576.6666666666666</ele><time>2026-04-25T08:46:29.032Z</time></trkpt><trkpt lat="43.6031917" lon="11.80765"><ele>578.0</ele><time>2026-04-25T08:46:30.03Z</time></trkpt><trkpt lat="43.603265" lon="11.8076917"><ele>578.0</ele><time>2026-04-25T08:46:31.028Z</time></trkpt><trkpt lat="43.6033317" lon="11.807705"><ele>578.0</ele><time>2026-04-25T08:46:32.03Z</time></trkpt><trkpt lat="43.60345" lon="11.807675"><ele>578.0</ele><time>2026-04-25T08:46:34.028Z</time></trkpt><trkpt lat="43.6034967" lon="11.807615"><ele>578.0</ele><time>2026-04-25T08:46:35.034Z</time></trkpt><trkpt lat="43.60354" lon="11.8075467"><ele>578.0</ele><time>2026-04-25T08:46:36.03Z</time></trkpt><trkpt lat="43.6036317" lon="11.8075033"><ele>578.0</ele><time>2026-04-25T08:46:38.031Z</time></trkpt><trkpt lat="43.6037133" lon="11.8074933"><ele>577.0</ele><time>2026-04-25T08:46:40.037Z</time></trkpt><trkpt lat="43.6037767" lon="11.80755"><ele>576.0</ele><time>2026-04-25T08:46:42.025Z</time></trkpt><trkpt lat="43.6039033" lon="11.8076333"><ele>575.0</ele><time>2026-04-25T08:46:44.025Z</time></trkpt><trkpt lat="43.60398" lon="11.8076667"><ele>574.0</ele><time>2026-04-25T08:46:45.029Z</time></trkpt><trkpt lat="43.6040633" lon="11.807675"><ele>573.0</ele><time>2026-04-25T08:46:46.031Z</time></trkpt><trkpt lat="43.6041433" lon="11.8076717"><ele>573.0</ele><time>2026-04-25T08:46:47.025Z</time></trkpt><trkpt lat="43.604225" lon="11.8076933"><ele>573.0</ele><time>2026-04-25T08:46:48.027Z</time></trkpt><trkpt lat="43.6042983" lon="11.807675"><ele>573.0</ele><time>2026-04-25T08:46:49.027Z</time></trkpt><trkpt lat="43.6043517" lon="11.8076167"><ele>573.0</ele><time>2026-04-25T08:46:50.034Z</time></trkpt><trkpt lat="43.604405" lon="11.8075417"><ele>573.0</ele><time>2026-04-25T08:46:51.028Z</time></trkpt><trkpt lat="43.604455" lon="11.80746"><ele>573.0</ele><time>2026-04-25T08:46:52.029Z</time></trkpt><trkpt lat="43.6044833" lon="11.8073717"><ele>573.0</ele><time>2026-04-25T08:46:53.025Z</time></trkpt><trkpt lat="43.604515" lon="11.8072583"><ele>568.6666666666666</ele><time>2026-04-25T08:46:54.027Z</time></trkpt><trkpt lat="43.6045433" lon="11.8071367"><ele>564.3333333333334</ele><time>2026-04-25T08:46:55.032Z</time></trkpt><trkpt lat="43.6045783" lon="11.80704"><ele>560.0</ele><time>2026-04-25T08:46:56.027Z</time></trkpt><trkpt lat="43.60461" lon="11.8069633"><ele>555.6666666666667</ele><time>2026-04-25T08:46:57.028Z</time></trkpt><trkpt lat="43.6045883" lon="11.8068067"><ele>551.3333333333334</ele><time>2026-04-25T08:46:59.031Z</time></trkpt><trkpt lat="43.6045583" lon="11.8067217"><ele>547.0</ele><time>2026-04-25T08:47:00.032Z</time></trkpt><trkpt lat="43.6045433" lon="11.80663"><ele>546.6</ele><time>2026-04-25T08:47:01.03Z</time></trkpt><trkpt lat="43.6045167" lon="11.806545"><ele>546.2</ele><time>2026-04-25T08:47:02.028Z</time></trkpt><trkpt lat="43.604505" lon="11.8064067"><ele>545.8</ele><time>2026-04-25T08:47:04.027Z</time></trkpt><trkpt lat="43.6045583" lon="11.8063517"><ele>545.4</ele><time>2026-04-25T08:47:05.03Z</time></trkpt><trkpt lat="43.604635" lon="11.8062333"><ele>545.0</ele><time>2026-04-25T08:47:07.025Z</time></trkpt><trkpt lat="43.6046867" lon="11.8060833"><ele>545.0</ele><time>2026-04-25T08:47:09.035Z</time></trkpt><trkpt lat="43.6047367" lon="11.8060033"><ele>545.0</ele><time>2026-04-25T08:47:10.028Z</time></trkpt><trkpt lat="43.60481" lon="11.8059317"><ele>545.0</ele><time>2026-04-25T08:47:11.027Z</time></trkpt><trkpt lat="43.6048733" lon="11.805875"><ele>545.0</ele><time>2026-04-25T08:47:12.026Z</time></trkpt><trkpt lat="43.6049317" lon="11.8058"><ele>545.0</ele><time>2026-04-25T08:47:13.028Z</time></trkpt><trkpt lat="43.6049883" lon="11.8057367"><ele>545.0</ele><time>2026-04-25T08:47:14.032Z</time></trkpt><trkpt lat="43.6050417" lon="11.805685"><ele>545.6</ele><time>2026-04-25T08:47:15.028Z</time></trkpt><trkpt lat="43.60508" lon="11.8055417"><ele>546.2</ele><time>2026-04-25T08:47:17.028Z</time></trkpt><trkpt lat="43.6051417" lon="11.8054133"><ele>546.8</ele><time>2026-04-25T08:47:19.026Z</time></trkpt><trkpt lat="43.6052583" lon="11.8053517"><ele>547.4</ele><time>2026-04-25T08:47:21.028Z</time></trkpt><trkpt lat="43.6053167" lon="11.8053133"><ele>548.0</ele><time>2026-04-25T08:47:22.029Z</time></trkpt><trkpt lat="43.605375" lon="11.8052533"><ele>547.0</ele><time>2026-04-25T08:47:23.03Z</time></trkpt><trkpt lat="43.6054367" lon="11.8051883"><ele>546.0</ele><time>2026-04-25T08:47:24.028Z</time></trkpt><trkpt lat="43.6054917" lon="11.8051133"><ele>545.0</ele><time>2026-04-25T08:47:25.028Z</time></trkpt><trkpt lat="43.605555" lon="11.8050483"><ele>544.0</ele><time>2026-04-25T08:47:26.029Z</time></trkpt><trkpt lat="43.60563" lon="11.80503"><ele>543.0</ele><time>2026-04-25T08:47:27.028Z</time></trkpt><trkpt lat="43.6057067" lon="11.8050467"><ele>542.0</ele><time>2026-04-25T08:47:28.029Z</time></trkpt><trkpt lat="43.605795" lon="11.8050717"><ele>542.0</ele><time>2026-04-25T08:47:29.027Z</time></trkpt><trkpt lat="43.6058833" lon="11.8051033"><ele>542.0</ele><time>2026-04-25T08:47:30.034Z</time></trkpt><trkpt lat="43.6059667" lon="11.80512"><ele>542.0</ele><time>2026-04-25T08:47:31.027Z</time></trkpt><trkpt lat="43.6060433" lon="11.8051133"><ele>542.0</ele><time>2026-04-25T08:47:32.029Z</time></trkpt><trkpt lat="43.6061167" lon="11.8051067"><ele>542.0</ele><time>2026-04-25T08:47:33.031Z</time></trkpt><trkpt lat="43.60616" lon="11.8050433"><ele>542.0</ele><time>2026-04-25T08:47:34.029Z</time></trkpt><trkpt lat="43.60621" lon="11.8049133"><ele>536.8333333333333</ele><time>2026-04-25T08:47:36.027Z</time></trkpt><trkpt lat="43.6062417" lon="11.8047833"><ele>531.6666666666666</ele><time>2026-04-25T08:47:38.033Z</time></trkpt><trkpt lat="43.606285" lon="11.8046933"><ele>526.5</ele><time>2026-04-25T08:47:40.028Z</time></trkpt><trkpt lat="43.60633" lon="11.8047617"><ele>521.3333333333334</ele><time>2026-04-25T08:47:42.027Z</time></trkpt><trkpt lat="43.6063033" lon="11.8049083"><ele>516.1666666666667</ele><time>2026-04-25T08:47:44.029Z</time></trkpt><trkpt lat="43.6062817" lon="11.805"><ele>511.0</ele><time>2026-04-25T08:47:45.028Z</time></trkpt><trkpt lat="43.6062483" lon="11.8050883"><ele>508.6</ele><time>2026-04-25T08:47:46.03Z</time></trkpt><trkpt lat="43.6062117" lon="11.8052433"><ele>506.20000000000005</ele><time>2026-04-25T08:47:48.03Z</time></trkpt><trkpt lat="43.6062167" lon="11.80541"><ele>503.79999999999995</ele><time>2026-04-25T08:47:50.036Z</time></trkpt><trkpt lat="43.6062233" lon="11.805505"><ele>501.4</ele><time>2026-04-25T08:47:51.031Z</time></trkpt><trkpt lat="43.6062183" lon="11.8055967"><ele>499.0</ele><time>2026-04-25T08:47:52.031Z</time></trkpt><trkpt lat="43.6061833" lon="11.8057267"><ele>503.0</ele><time>2026-04-25T08:47:54.029Z</time></trkpt><trkpt lat="43.606115" lon="11.80576"><ele>507.0</ele><time>2026-04-25T08:47:56.028Z</time></trkpt><trkpt lat="43.6059917" lon="11.8058"><ele>511.0</ele><time>2026-04-25T08:47:58.029Z</time></trkpt><trkpt lat="43.60589" lon="11.8058233"><ele>515.0</ele><time>2026-04-25T08:48:00.027Z</time></trkpt><trkpt lat="43.6058017" lon="11.805835"><ele>519.0</ele><time>2026-04-25T08:48:02.032Z</time></trkpt><trkpt lat="43.6056917" lon="11.8058933"><ele>519.0</ele><time>2026-04-25T08:48:04.028Z</time></trkpt><trkpt lat="43.6056033" lon="11.8059867"><ele>519.0</ele><time>2026-04-25T08:48:06.03Z</time></trkpt><trkpt lat="43.6055367" lon="11.806075"><ele>519.0</ele><time>2026-04-25T08:48:08.028Z</time></trkpt><trkpt lat="43.6055067" lon="11.8061933"><ele>519.0</ele><time>2026-04-25T08:48:10.032Z</time></trkpt><trkpt lat="43.605515" lon="11.8062817"><ele>519.0</ele><time>2026-04-25T08:48:12.032Z</time></trkpt><trkpt lat="43.6056067" lon="11.80623"><ele>516.0</ele><time>2026-04-25T08:48:14.029Z</time></trkpt><trkpt lat="43.6057017" lon="11.8061933"><ele>513.0</ele><time>2026-04-25T08:48:16.028Z</time></trkpt><trkpt lat="43.6058133" lon="11.8062083"><ele>510.0</ele><time>2026-04-25T08:48:18.04Z</time></trkpt><trkpt lat="43.60594" lon="11.8062833"><ele>507.0</ele><time>2026-04-25T08:48:20.031Z</time></trkpt><trkpt lat="43.6060167" lon="11.8063167"><ele>504.0</ele><time>2026-04-25T08:48:21.031Z</time></trkpt><trkpt lat="43.606075" lon="11.8063583"><ele>499.0</ele><time>2026-04-25T08:48:22.029Z</time></trkpt><trkpt lat="43.6061833" lon="11.8064117"><ele>494.0</ele><time>2026-04-25T08:48:24.032Z</time></trkpt><trkpt lat="43.60631" lon="11.806425"><ele>489.0</ele><time>2026-04-25T08:48:26.028Z</time></trkpt><trkpt lat="43.6063883" lon="11.80641"><ele>484.0</ele><time>2026-04-25T08:48:27.033Z</time></trkpt><trkpt lat="43.6064733" lon="11.8063967"><ele>479.0</ele><time>2026-04-25T08:48:28.034Z</time></trkpt><trkpt lat="43.60655" lon="11.8063833"><ele>479.0</ele><time>2026-04-25T08:48:29.039Z</time></trkpt><trkpt lat="43.6066183" lon="11.8063617"><ele>479.0</ele><time>2026-04-25T08:48:30.031Z</time></trkpt><trkpt lat="43.6066767" lon="11.8063167"><ele>479.0</ele><time>2026-04-25T08:48:31.025Z</time></trkpt><trkpt lat="43.6067267" lon="11.8062633"><ele>479.0</ele><time>2026-04-25T08:48:32.029Z</time></trkpt><trkpt lat="43.6067733" lon="11.8061933"><ele>479.0</ele><time>2026-04-25T08:48:33.028Z</time></trkpt><trkpt lat="43.60682" lon="11.8060967"><ele>479.0</ele><time>2026-04-25T08:48:34.026Z</time></trkpt><trkpt lat="43.60687" lon="11.8059833"><ele>479.0</ele><time>2026-04-25T08:48:35.026Z</time></trkpt><trkpt lat="43.6069133" lon="11.80588"><ele>476.3333333333333</ele><time>2026-04-25T08:48:36.031Z</time></trkpt><trkpt lat="43.6069567" lon="11.8057683"><ele>473.66666666666663</ele><time>2026-04-25T08:48:37.033Z</time></trkpt><trkpt lat="43.607005" lon="11.8056567"><ele>471.0</ele><time>2026-04-25T08:48:38.03Z</time></trkpt><trkpt lat="43.6070467" lon="11.8055517"><ele>468.33333333333337</ele><time>2026-04-25T08:48:39.027Z</time></trkpt><trkpt lat="43.607065" lon="11.80544"><ele>465.6666666666667</ele><time>2026-04-25T08:48:40.033Z</time></trkpt><trkpt lat="43.6071267" lon="11.8053533"><ele>463.0</ele><time>2026-04-25T08:48:41.027Z</time></trkpt><trkpt lat="43.60717" lon="11.8052633"><ele>463.0</ele><time>2026-04-25T08:48:42.036Z</time></trkpt><trkpt lat="43.60723" lon="11.8051783"><ele>462.99999999999994</ele><time>2026-04-25T08:48:43.027Z</time></trkpt><trkpt lat="43.6073133" lon="11.805095"><ele>462.99999999999994</ele><time>2026-04-25T08:48:44.028Z</time></trkpt><trkpt lat="43.60738" lon="11.804995"><ele>463.0</ele><time>2026-04-25T08:48:45.032Z</time></trkpt><trkpt lat="43.6074567" lon="11.8049117"><ele>463.0</ele><time>2026-04-25T08:48:46.029Z</time></trkpt><trkpt lat="43.6075383" lon="11.804865"><ele>461.59999999999997</ele><time>2026-04-25T08:48:47.029Z</time></trkpt><trkpt lat="43.60761" lon="11.8048483"><ele>460.19999999999993</ele><time>2026-04-25T08:48:48.027Z</time></trkpt><trkpt lat="43.6077017" lon="11.8048883"><ele>458.8</ele><time>2026-04-25T08:48:50.028Z</time></trkpt><trkpt lat="43.6077583" lon="11.8050517"><ele>457.4</ele><time>2026-04-25T08:48:52.028Z</time></trkpt><trkpt lat="43.6078067" lon="11.805135"><ele>456.0</ele><time>2026-04-25T08:48:53.027Z</time></trkpt><trkpt lat="43.6078583" lon="11.805215"><ele>456.0</ele><time>2026-04-25T08:48:54.027Z</time></trkpt><trkpt lat="43.6079183" lon="11.805295"><ele>456.0</ele><time>2026-04-25T08:48:55.032Z</time></trkpt><trkpt lat="43.6079817" lon="11.8053667"><ele>456.0</ele><time>2026-04-25T08:48:56.028Z</time></trkpt><trkpt lat="43.60804" lon="11.80544"><ele>456.0</ele><time>2026-04-25T08:48:57.033Z</time></trkpt><trkpt lat="43.6080767" lon="11.8055117"><ele>456.0</ele><time>2026-04-25T08:48:58.03Z</time></trkpt><trkpt lat="43.6080417" lon="11.8056083"><ele>456.0</ele><time>2026-04-25T08:49:00.025Z</time></trkpt><trkpt lat="43.6079833" lon="11.8056467"><ele>456.0</ele><time>2026-04-25T08:49:01.029Z</time></trkpt><trkpt lat="43.6079083" lon="11.805685"><ele>456.0</ele><time>2026-04-25T08:49:02.028Z</time></trkpt><trkpt lat="43.6078433" lon="11.8057067"><ele>456.0</ele><time>2026-04-25T08:49:03.028Z</time></trkpt><trkpt lat="43.6077233" lon="11.8056983"><ele>456.0</ele><time>2026-04-25T08:49:05.028Z</time></trkpt><trkpt lat="43.6076167" lon="11.8057083"><ele>456.0</ele><time>2026-04-25T08:49:07.026Z</time></trkpt><trkpt lat="43.6075833" lon="11.805815"><ele>457.4</ele><time>2026-04-25T08:49:09.032Z</time></trkpt><trkpt lat="43.6076533" lon="11.8059383"><ele>458.8</ele><time>2026-04-25T08:49:11.03Z</time></trkpt><trkpt lat="43.607755" lon="11.806035"><ele>460.19999999999993</ele><time>2026-04-25T08:49:13.028Z</time></trkpt><trkpt lat="43.6078233" lon="11.806055"><ele>461.59999999999997</ele><time>2026-04-25T08:49:14.027Z</time></trkpt><trkpt lat="43.6079417" lon="11.8061033"><ele>463.0</ele><time>2026-04-25T08:49:16.03Z</time></trkpt><trkpt lat="43.6080417" lon="11.806175"><ele>458.2</ele><time>2026-04-25T08:49:18.03Z</time></trkpt><trkpt lat="43.6081233" lon="11.8062983"><ele>453.4</ele><time>2026-04-25T08:49:20.032Z</time></trkpt><trkpt lat="43.6081583" lon="11.8063767"><ele>448.59999999999997</ele><time>2026-04-25T08:49:21.03Z</time></trkpt><trkpt lat="43.6081733" lon="11.8065483"><ele>443.79999999999995</ele><time>2026-04-25T08:49:23.04Z</time></trkpt><trkpt lat="43.6081767" lon="11.8066417"><ele>439.0</ele><time>2026-04-25T08:49:24.026Z</time></trkpt><trkpt lat="43.60819" lon="11.8067383"><ele>439.00000000000006</ele><time>2026-04-25T08:49:25.03Z</time></trkpt><trkpt lat="43.6081733" lon="11.806825"><ele>439.0</ele><time>2026-04-25T08:49:26.028Z</time></trkpt><trkpt lat="43.6080983" lon="11.8069517"><ele>439.0</ele><time>2026-04-25T08:49:28.027Z</time></trkpt><trkpt lat="43.60803" lon="11.807025"><ele>439.0</ele><time>2026-04-25T08:49:29.033Z</time></trkpt><trkpt lat="43.6079767" lon="11.807095"><ele>439.00000000000006</ele><time>2026-04-25T08:49:30.035Z</time></trkpt><trkpt lat="43.6079367" lon="11.8071633"><ele>439.0</ele><time>2026-04-25T08:49:31.028Z</time></trkpt><trkpt lat="43.6079267" lon="11.8073383"><ele>436.33333333333337</ele><time>2026-04-25T08:49:33.029Z</time></trkpt><trkpt lat="43.6079417" lon="11.8074367"><ele>433.6666666666667</ele><time>2026-04-25T08:49:34.026Z</time></trkpt><trkpt lat="43.6079733" lon="11.8075233"><ele>431.0</ele><time>2026-04-25T08:49:35.03Z</time></trkpt><trkpt lat="43.608025" lon="11.8076033"><ele>428.33333333333337</ele><time>2026-04-25T08:49:36.029Z</time></trkpt><trkpt lat="43.6080917" lon="11.80769"><ele>425.6666666666667</ele><time>2026-04-25T08:49:37.028Z</time></trkpt><trkpt lat="43.60815" lon="11.8077917"><ele>423.0</ele><time>2026-04-25T08:49:38.03Z</time></trkpt><trkpt lat="43.608215" lon="11.8078983"><ele>420.8333333333333</ele><time>2026-04-25T08:49:39.026Z</time></trkpt><trkpt lat="43.6082783" lon="11.807995"><ele>418.66666666666663</ele><time>2026-04-25T08:49:40.028Z</time></trkpt><trkpt lat="43.6083383" lon="11.8080967"><ele>416.5</ele><time>2026-04-25T08:49:41.029Z</time></trkpt><trkpt lat="43.6083867" lon="11.8082033"><ele>414.3333333333333</ele><time>2026-04-25T08:49:42.03Z</time></trkpt><trkpt lat="43.6084417" lon="11.808295"><ele>412.16666666666663</ele><time>2026-04-25T08:49:43.026Z</time></trkpt><trkpt lat="43.60849" lon="11.8083833"><ele>410.0</ele><time>2026-04-25T08:49:44.03Z</time></trkpt><trkpt lat="43.6085283" lon="11.808465"><ele>409.42857142857144</ele><time>2026-04-25T08:49:45.033Z</time></trkpt><trkpt lat="43.6085617" lon="11.80855"><ele>408.85714285714283</ele><time>2026-04-25T08:49:46.029Z</time></trkpt><trkpt lat="43.60859" lon="11.8086467"><ele>408.2857142857143</ele><time>2026-04-25T08:49:47.03Z</time></trkpt><trkpt lat="43.60862" lon="11.8087483"><ele>407.7142857142857</ele><time>2026-04-25T08:49:48.028Z</time></trkpt><trkpt lat="43.6086533" lon="11.8088417"><ele>407.1428571428571</ele><time>2026-04-25T08:49:49.032Z</time></trkpt><trkpt lat="43.608665" lon="11.808935"><ele>406.57142857142856</ele><time>2026-04-25T08:49:50.03Z</time></trkpt><trkpt lat="43.6086467" lon="11.8090233"><ele>406.0</ele><time>2026-04-25T08:49:51.03Z</time></trkpt><trkpt lat="43.6086567" lon="11.809145"><ele>404.8</ele><time>2026-04-25T08:49:53.032Z</time></trkpt><trkpt lat="43.60875" lon="11.8092817"><ele>403.6</ele><time>2026-04-25T08:49:55.028Z</time></trkpt><trkpt lat="43.6088283" lon="11.8093817"><ele>402.4</ele><time>2026-04-25T08:49:56.026Z</time></trkpt><trkpt lat="43.608895" lon="11.8094783"><ele>401.2</ele><time>2026-04-25T08:49:57.027Z</time></trkpt><trkpt lat="43.60895" lon="11.8095733"><ele>400.0</ele><time>2026-04-25T08:49:58.028Z</time></trkpt><trkpt lat="43.60899" lon="11.8096483"><ele>400.00000000000006</ele><time>2026-04-25T08:49:59.028Z</time></trkpt><trkpt lat="43.609035" lon="11.8097417"><ele>400.0</ele><time>2026-04-25T08:50:01.025Z</time></trkpt><trkpt lat="43.6090983" lon="11.8098633"><ele>400.0</ele><time>2026-04-25T08:50:04.032Z</time></trkpt><trkpt lat="43.6091367" lon="11.8099383"><ele>400.0</ele><time>2026-04-25T08:50:05.029Z</time></trkpt><trkpt lat="43.6091833" lon="11.8100233"><ele>400.00000000000006</ele><time>2026-04-25T08:50:06.029Z</time></trkpt><trkpt lat="43.6092333" lon="11.8101283"><ele>400.0</ele><time>2026-04-25T08:50:07.034Z</time></trkpt><trkpt lat="43.6092883" lon="11.8102317"><ele>399.4</ele><time>2026-04-25T08:50:08.029Z</time></trkpt><trkpt lat="43.6093417" lon="11.8103333"><ele>398.8</ele><time>2026-04-25T08:50:09.031Z</time></trkpt><trkpt lat="43.6093983" lon="11.8104417"><ele>398.20000000000005</ele><time>2026-04-25T08:50:10.026Z</time></trkpt><trkpt lat="43.6094567" lon="11.8105567"><ele>397.6</ele><time>2026-04-25T08:50:11.026Z</time></trkpt><trkpt lat="43.6095083" lon="11.810675"><ele>397.0</ele><time>2026-04-25T08:50:12.025Z</time></trkpt><trkpt lat="43.609565" lon="11.8107883"><ele>397.0</ele><time>2026-04-25T08:50:13.032Z</time></trkpt><trkpt lat="43.6096183" lon="11.8109"><ele>397.0</ele><time>2026-04-25T08:50:14.032Z</time></trkpt><trkpt lat="43.60968" lon="11.8110117"><ele>397.0</ele><time>2026-04-25T08:50:15.032Z</time></trkpt><trkpt lat="43.6097467" lon="11.8111283"><ele>397.0</ele><time>2026-04-25T08:50:16.026Z</time></trkpt><trkpt lat="43.60981" lon="11.8112467"><ele>397.0</ele><time>2026-04-25T08:50:17.028Z</time></trkpt><trkpt lat="43.6098667" lon="11.8113667"><ele>395.8</ele><time>2026-04-25T08:50:18.032Z</time></trkpt><trkpt lat="43.6099167" lon="11.8114833"><ele>394.6</ele><time>2026-04-25T08:50:19.028Z</time></trkpt><trkpt lat="43.60995" lon="11.8115917"><ele>393.40000000000003</ele><time>2026-04-25T08:50:20.03Z</time></trkpt><trkpt lat="43.60997" lon="11.8117"><ele>392.20000000000005</ele><time>2026-04-25T08:50:21.026Z</time></trkpt><trkpt lat="43.60997" lon="11.8118267"><ele>391.0</ele><time>2026-04-25T08:50:22.03Z</time></trkpt><trkpt lat="43.6099617" lon="11.8119717"><ele>390.0</ele><time>2026-04-25T08:50:23.027Z</time></trkpt><trkpt lat="43.6099467" lon="11.8121367"><ele>389.0</ele><time>2026-04-25T08:50:24.029Z</time></trkpt><trkpt lat="43.609935" lon="11.81229"><ele>388.0</ele><time>2026-04-25T08:50:25.033Z</time></trkpt><trkpt lat="43.609925" lon="11.8124333"><ele>387.0</ele><time>2026-04-25T08:50:26.029Z</time></trkpt><trkpt lat="43.6099117" lon="11.812565"><ele>386.0</ele><time>2026-04-25T08:50:27.032Z</time></trkpt><trkpt lat="43.6099083" lon="11.812685"><ele>384.99999999999994</ele><time>2026-04-25T08:50:28.031Z</time></trkpt><trkpt lat="43.609905" lon="11.8128017"><ele>384.0</ele><time>2026-04-25T08:50:29.03Z</time></trkpt><trkpt lat="43.60992" lon="11.8129"><ele>383.0</ele><time>2026-04-25T08:50:30.04Z</time></trkpt><trkpt lat="43.60996" lon="11.8129883"><ele>382.0</ele><time>2026-04-25T08:50:31.031Z</time></trkpt><trkpt lat="43.6100617" lon="11.8130367"><ele>381.0</ele><time>2026-04-25T08:50:32.026Z</time></trkpt><trkpt lat="43.6101567" lon="11.813105"><ele>380.0</ele><time>2026-04-25T08:50:33.027Z</time></trkpt><trkpt lat="43.6102567" lon="11.8131867"><ele>378.8</ele><time>2026-04-25T08:50:34.03Z</time></trkpt><trkpt lat="43.6103517" lon="11.8132617"><ele>377.6</ele><time>2026-04-25T08:50:35.025Z</time></trkpt><trkpt lat="43.61044" lon="11.813335"><ele>376.4</ele><time>2026-04-25T08:50:36.03Z</time></trkpt><trkpt lat="43.6105233" lon="11.8134017"><ele>375.2</ele><time>2026-04-25T08:50:37.026Z</time></trkpt><trkpt lat="43.61061" lon="11.8134467"><ele>374.0</ele><time>2026-04-25T08:50:38.032Z</time></trkpt><trkpt lat="43.610695" lon="11.813475"><ele>374.0</ele><time>2026-04-25T08:50:39.033Z</time></trkpt><trkpt lat="43.6107767" lon="11.8134683"><ele>374.0</ele><time>2026-04-25T08:50:40.029Z</time></trkpt><trkpt lat="43.6108583" lon="11.8133983"><ele>374.0</ele><time>2026-04-25T08:50:41.03Z</time></trkpt><trkpt lat="43.6109333" lon="11.81331"><ele>374.0</ele><time>2026-04-25T08:50:42.031Z</time></trkpt><trkpt lat="43.61099" lon="11.8132067"><ele>374.0</ele><time>2026-04-25T08:50:43.033Z</time></trkpt><trkpt lat="43.6110183" lon="11.81309"><ele>374.0</ele><time>2026-04-25T08:50:44.029Z</time></trkpt><trkpt lat="43.6110283" lon="11.8129533"><ele>374.0</ele><time>2026-04-25T08:50:45.032Z</time></trkpt><trkpt lat="43.6110283" lon="11.81282"><ele>374.0</ele><time>2026-04-25T08:50:46.03Z</time></trkpt><trkpt lat="43.6110283" lon="11.8126917"><ele>374.0</ele><time>2026-04-25T08:50:47.029Z</time></trkpt><trkpt lat="43.6110417" lon="11.8125783"><ele>374.0</ele><time>2026-04-25T08:50:48.04Z</time></trkpt><trkpt lat="43.61107" lon="11.8124783"><ele>374.5</ele><time>2026-04-25T08:50:49.038Z</time></trkpt><trkpt lat="43.611115" lon="11.8124"><ele>375.0</ele><time>2026-04-25T08:50:50.03Z</time></trkpt><trkpt lat="43.6111983" lon="11.8123967"><ele>375.5</ele><time>2026-04-25T08:50:51.028Z</time></trkpt><trkpt lat="43.6112867" lon="11.8124333"><ele>376.0</ele><time>2026-04-25T08:50:52.029Z</time></trkpt><trkpt lat="43.611365" lon="11.8124833"><ele>376.5</ele><time>2026-04-25T08:50:53.028Z</time></trkpt><trkpt lat="43.6114533" lon="11.8125567"><ele>377.0</ele><time>2026-04-25T08:50:54.026Z</time></trkpt><trkpt lat="43.6115467" lon="11.8126367"><ele>374.0</ele><time>2026-04-25T08:50:55.027Z</time></trkpt><trkpt lat="43.6116467" lon="11.812725"><ele>371.0</ele><time>2026-04-25T08:50:56.028Z</time></trkpt><trkpt lat="43.61174" lon="11.8128017"><ele>368.0</ele><time>2026-04-25T08:50:57.029Z</time></trkpt><trkpt lat="43.6118183" lon="11.8128833"><ele>365.0</ele><time>2026-04-25T08:50:58.029Z</time></trkpt><trkpt lat="43.6118833" lon="11.8129633"><ele>362.0</ele><time>2026-04-25T08:50:59.025Z</time></trkpt><trkpt lat="43.611935" lon="11.8130517"><ele>362.0</ele><time>2026-04-25T08:51:00.029Z</time></trkpt><trkpt lat="43.6119767" lon="11.8131467"><ele>362.0</ele><time>2026-04-25T08:51:01.029Z</time></trkpt><trkpt lat="43.612" lon="11.813265"><ele>362.0</ele><time>2026-04-25T08:51:02.027Z</time></trkpt><trkpt lat="43.61202" lon="11.8134"><ele>362.0</ele><time>2026-04-25T08:51:03.028Z</time></trkpt><trkpt lat="43.612025" lon="11.8135617"><ele>362.0</ele><time>2026-04-25T08:51:04.029Z</time></trkpt><trkpt lat="43.61204" lon="11.81372"><ele>359.0</ele><time>2026-04-25T08:51:05.031Z</time></trkpt><trkpt lat="43.6120483" lon="11.8138667"><ele>356.0</ele><time>2026-04-25T08:51:06.03Z</time></trkpt><trkpt lat="43.61206" lon="11.8140017"><ele>353.0</ele><time>2026-04-25T08:51:07.027Z</time></trkpt><trkpt lat="43.61207" lon="11.8141183"><ele>350.0</ele><time>2026-04-25T08:51:08.026Z</time></trkpt><trkpt lat="43.6120717" lon="11.81422"><ele>347.0</ele><time>2026-04-25T08:51:09.026Z</time></trkpt><trkpt lat="43.6120967" lon="11.8143"><ele>344.0</ele><time>2026-04-25T08:51:10.033Z</time></trkpt><trkpt lat="43.612145" lon="11.8143617"><ele>343.2</ele><time>2026-04-25T08:51:11.029Z</time></trkpt><trkpt lat="43.6122167" lon="11.8144083"><ele>342.4</ele><time>2026-04-25T08:51:12.029Z</time></trkpt><trkpt lat="43.6122983" lon="11.8144533"><ele>341.6</ele><time>2026-04-25T08:51:13.03Z</time></trkpt><trkpt lat="43.6124167" lon="11.814485"><ele>340.8</ele><time>2026-04-25T08:51:14.028Z</time></trkpt><trkpt lat="43.6125317" lon="11.8145317"><ele>340.0</ele><time>2026-04-25T08:51:15.031Z</time></trkpt><trkpt lat="43.6126333" lon="11.814575"><ele>340.0</ele><time>2026-04-25T08:51:16.028Z</time></trkpt><trkpt lat="43.6127217" lon="11.8146183"><ele>340.0</ele><time>2026-04-25T08:51:17.048Z</time></trkpt><trkpt lat="43.61281" lon="11.814655"><ele>340.0</ele><time>2026-04-25T08:51:18.031Z</time></trkpt><trkpt lat="43.6128883" lon="11.814695"><ele>340.0</ele><time>2026-04-25T08:51:19.027Z</time></trkpt><trkpt lat="43.61296" lon="11.81474"><ele>340.0</ele><time>2026-04-25T08:51:20.033Z</time></trkpt><trkpt lat="43.6130133" lon="11.8148083"><ele>340.0</ele><time>2026-04-25T08:51:21.03Z</time></trkpt><trkpt lat="43.6130033" lon="11.8149683"><ele>338.2</ele><time>2026-04-25T08:51:23.03Z</time></trkpt><trkpt lat="43.6129483" lon="11.815115"><ele>336.4</ele><time>2026-04-25T08:51:25.031Z</time></trkpt><trkpt lat="43.612915" lon="11.815285"><ele>334.6</ele><time>2026-04-25T08:51:27.028Z</time></trkpt><trkpt lat="43.6129817" lon="11.81541"><ele>332.8</ele><time>2026-04-25T08:51:29.027Z</time></trkpt><trkpt lat="43.6130483" lon="11.8154233"><ele>331.0</ele><time>2026-04-25T08:51:30.031Z</time></trkpt><trkpt lat="43.6131183" lon="11.8154183"><ele>328.8333333333333</ele><time>2026-04-25T08:51:31.029Z</time></trkpt><trkpt lat="43.6131917" lon="11.8154"><ele>326.66666666666663</ele><time>2026-04-25T08:51:32.033Z</time></trkpt><trkpt lat="43.613265" lon="11.81538"><ele>324.5</ele><time>2026-04-25T08:51:33.027Z</time></trkpt><trkpt lat="43.6133467" lon="11.8153483"><ele>322.3333333333333</ele><time>2026-04-25T08:51:34.029Z</time></trkpt><trkpt lat="43.6134267" lon="11.8153067"><ele>320.1666666666667</ele><time>2026-04-25T08:51:35.023Z</time></trkpt><trkpt lat="43.6134967" lon="11.8152583"><ele>318.0</ele><time>2026-04-25T08:51:36.028Z</time></trkpt><trkpt lat="43.61357" lon="11.815205"><ele>317.8333333333333</ele><time>2026-04-25T08:51:37.031Z</time></trkpt><trkpt lat="43.613625" lon="11.8151267"><ele>317.6666666666667</ele><time>2026-04-25T08:51:38.034Z</time></trkpt><trkpt lat="43.6136717" lon="11.8150317"><ele>317.5</ele><time>2026-04-25T08:51:39.026Z</time></trkpt><trkpt lat="43.6137033" lon="11.8149267"><ele>317.33333333333337</ele><time>2026-04-25T08:51:40.027Z</time></trkpt><trkpt lat="43.6137167" lon="11.814815"><ele>317.1666666666667</ele><time>2026-04-25T08:51:41.028Z</time></trkpt><trkpt lat="43.6137267" lon="11.8147067"><ele>317.0</ele><time>2026-04-25T08:51:42.028Z</time></trkpt><trkpt lat="43.6137583" lon="11.81461"><ele>317.0</ele><time>2026-04-25T08:51:43.031Z</time></trkpt><trkpt lat="43.6137817" lon="11.8145017"><ele>317.0</ele><time>2026-04-25T08:51:44.027Z</time></trkpt><trkpt lat="43.6138333" lon="11.8143983"><ele>317.0</ele><time>2026-04-25T08:51:45.031Z</time></trkpt><trkpt lat="43.61391" lon="11.8143167"><ele>317.0</ele><time>2026-04-25T08:51:46.033Z</time></trkpt><trkpt lat="43.61398" lon="11.8142483"><ele>317.0</ele><time>2026-04-25T08:51:47.03Z</time></trkpt><trkpt lat="43.6140567" lon="11.81419"><ele>317.0</ele><time>2026-04-25T08:51:48.03Z</time></trkpt><trkpt lat="43.6141433" lon="11.8141767"><ele>316.6</ele><time>2026-04-25T08:51:49.031Z</time></trkpt><trkpt lat="43.6142367" lon="11.814195"><ele>316.2</ele><time>2026-04-25T08:51:50.034Z</time></trkpt><trkpt lat="43.6143217" lon="11.8142283"><ele>315.8</ele><time>2026-04-25T08:51:51.031Z</time></trkpt><trkpt lat="43.6144283" lon="11.8143133"><ele>315.4</ele><time>2026-04-25T08:51:52.025Z</time></trkpt><trkpt lat="43.6145217" lon="11.8143967"><ele>315.0</ele><time>2026-04-25T08:51:53.032Z</time></trkpt><trkpt lat="43.6146183" lon="11.81448"><ele>315.0</ele><time>2026-04-25T08:51:54.029Z</time></trkpt><trkpt lat="43.6147" lon="11.8146033"><ele>315.0</ele><time>2026-04-25T08:51:55.034Z</time></trkpt><trkpt lat="43.6147883" lon="11.8147167"><ele>315.0</ele><time>2026-04-25T08:51:56.031Z</time></trkpt><trkpt lat="43.614875" lon="11.814805"><ele>315.0</ele><time>2026-04-25T08:51:57.026Z</time></trkpt><trkpt lat="43.61497" lon="11.814865"><ele>315.0</ele><time>2026-04-25T08:51:58.029Z</time></trkpt><trkpt lat="43.6150517" lon="11.8149267"><ele>315.0</ele><time>2026-04-25T08:51:59.032Z</time></trkpt><trkpt lat="43.61512" lon="11.81497"><ele>315.0</ele><time>2026-04-25T08:52:00.027Z</time></trkpt><trkpt lat="43.6152" lon="11.814985"><ele>315.0</ele><time>2026-04-25T08:52:01.029Z</time></trkpt><trkpt lat="43.615285" lon="11.8149617"><ele>315.0</ele><time>2026-04-25T08:52:02.029Z</time></trkpt><trkpt lat="43.6153733" lon="11.8149633"><ele>315.0</ele><time>2026-04-25T08:52:03.033Z</time></trkpt><trkpt lat="43.615485" lon="11.8149183"><ele>313.5</ele><time>2026-04-25T08:52:04.027Z</time></trkpt><trkpt lat="43.6156067" lon="11.81486"><ele>312.0</ele><time>2026-04-25T08:52:05.028Z</time></trkpt><trkpt lat="43.615715" lon="11.8148033"><ele>310.5</ele><time>2026-04-25T08:52:06.028Z</time></trkpt><trkpt lat="43.6158267" lon="11.8147683"><ele>309.0</ele><time>2026-04-25T08:52:07.026Z</time></trkpt><trkpt lat="43.615945" lon="11.8147383"><ele>309.0</ele><time>2026-04-25T08:52:08.028Z</time></trkpt><trkpt lat="43.6160633" lon="11.8146933"><ele>309.0</ele><time>2026-04-25T08:52:09.035Z</time></trkpt><trkpt lat="43.616175" lon="11.8146433"><ele>309.0</ele><time>2026-04-25T08:52:10.028Z</time></trkpt><trkpt lat="43.61628" lon="11.8145767"><ele>309.0</ele><time>2026-04-25T08:52:11.028Z</time></trkpt><trkpt lat="43.6163867" lon="11.8145067"><ele>309.0</ele><time>2026-04-25T08:52:12.031Z</time></trkpt><trkpt lat="43.6164983" lon="11.8144417"><ele>309.0</ele><time>2026-04-25T08:52:13.032Z</time></trkpt><trkpt lat="43.6166083" lon="11.8143667"><ele>309.0</ele><time>2026-04-25T08:52:14.03Z</time></trkpt><trkpt lat="43.6167183" lon="11.814285"><ele>309.0</ele><time>2026-04-25T08:52:15.027Z</time></trkpt><trkpt lat="43.6168233" lon="11.8141983"><ele>309.0</ele><time>2026-04-25T08:52:16.031Z</time></trkpt><trkpt lat="43.6169267" lon="11.8141183"><ele>309.0</ele><time>2026-04-25T08:52:17.03Z</time></trkpt><trkpt lat="43.6170383" lon="11.8140467"><ele>309.0</ele><time>2026-04-25T08:52:18.036Z</time></trkpt><trkpt lat="43.6171517" lon="11.8139733"><ele>309.0</ele><time>2026-04-25T08:52:19.029Z</time></trkpt><trkpt lat="43.6172617" lon="11.8139"><ele>309.2</ele><time>2026-04-25T08:52:20.033Z</time></trkpt><trkpt lat="43.617365" lon="11.8138283"><ele>309.4</ele><time>2026-04-25T08:52:21.03Z</time></trkpt><trkpt lat="43.6174617" lon="11.8137617"><ele>309.6</ele><time>2026-04-25T08:52:22.038Z</time></trkpt><trkpt lat="43.6175483" lon="11.8136983"><ele>309.8</ele><time>2026-04-25T08:52:23.034Z</time></trkpt><trkpt lat="43.6176283" lon="11.8136367"><ele>310.0</ele><time>2026-04-25T08:52:24.03Z</time></trkpt><trkpt lat="43.6177033" lon="11.8135817"><ele>310.0</ele><time>2026-04-25T08:52:25.03Z</time></trkpt><trkpt lat="43.6177833" lon="11.81352"><ele>310.0</ele><time>2026-04-25T08:52:26.029Z</time></trkpt><trkpt lat="43.6178633" lon="11.8134533"><ele>310.0</ele><time>2026-04-25T08:52:27.036Z</time></trkpt><trkpt lat="43.6179433" lon="11.8133917"><ele>310.0</ele><time>2026-04-25T08:52:28.03Z</time></trkpt><trkpt lat="43.618015" lon="11.8133367"><ele>310.0</ele><time>2026-04-25T08:52:29.032Z</time></trkpt><trkpt lat="43.6180783" lon="11.8132917"><ele>310.0</ele><time>2026-04-25T08:52:30.032Z</time></trkpt><trkpt lat="43.61818" lon="11.8132617"><ele>310.6</ele><time>2026-04-25T08:52:32.027Z</time></trkpt><trkpt lat="43.6182617" lon="11.813305"><ele>311.2</ele><time>2026-04-25T08:54:16.031Z</time></trkpt><trkpt lat="43.6183617" lon="11.8134283"><ele>311.8</ele><time>2026-04-25T08:54:18.03Z</time></trkpt><trkpt lat="43.6184183" lon="11.813505"><ele>312.4</ele><time>2026-04-25T08:54:19.037Z</time></trkpt><trkpt lat="43.6184733" lon="11.81358"><ele>313.0</ele><time>2026-04-25T08:54:20.034Z</time></trkpt><trkpt lat="43.6185333" lon="11.81365"><ele>313.0</ele><time>2026-04-25T08:54:21.025Z</time></trkpt><trkpt lat="43.6185883" lon="11.8137217"><ele>313.0</ele><time>2026-04-25T08:54:22.029Z</time></trkpt><trkpt lat="43.618645" lon="11.8137917"><ele>313.0</ele><time>2026-04-25T08:54:23.027Z</time></trkpt><trkpt lat="43.6187017" lon="11.8138567"><ele>313.0</ele><time>2026-04-25T08:54:24.031Z</time></trkpt><trkpt lat="43.6187583" lon="11.8139167"><ele>313.0</ele><time>2026-04-25T08:54:25.03Z</time></trkpt><trkpt lat="43.6188117" lon="11.813975"><ele>313.0</ele><time>2026-04-25T08:54:26.028Z</time></trkpt><trkpt lat="43.6189017" lon="11.81408"><ele>313.0</ele><time>2026-04-25T08:54:28.027Z</time></trkpt><trkpt lat="43.6189883" lon="11.8141883"><ele>313.0</ele><time>2026-04-25T08:54:30.028Z</time></trkpt><trkpt lat="43.619045" lon="11.8142717"><ele>313.0</ele><time>2026-04-25T08:54:32.028Z</time></trkpt><trkpt lat="43.6190217" lon="11.8143783"><ele>313.0</ele><time>2026-04-25T08:55:35.027Z</time></trkpt><trkpt lat="43.618955" lon="11.8143583"><ele>313.0</ele><time>2026-04-25T08:55:41.027Z</time></trkpt><trkpt lat="43.6189065" lon="11.8144149"><ele>313.0</ele><time>2026-04-25T08:56:32.078Z</time></trkpt><trkpt lat="43.6188722" lon="11.8144889"><ele>313.0</ele><time>2026-04-25T08:56:53.123Z</time></trkpt><trkpt lat="43.6189383" lon="11.8143783"><ele>313.0</ele><time>2026-04-25T08:57:56.027Z</time></trkpt><trkpt lat="43.6189717" lon="11.8142617"><ele>313.0</ele><time>2026-04-25T09:06:25.031Z</time></trkpt><trkpt lat="43.6189733" lon="11.8143633"><ele>313.0</ele><time>2026-04-25T09:13:09.029Z</time></trkpt><trkpt lat="43.6190317" lon="11.8143983"><ele>313.0</ele><time>2026-04-25T09:13:14.028Z</time></trkpt><trkpt lat="43.6190267" lon="11.81425"><ele>313.0</ele><time>2026-04-25T09:14:30.028Z</time></trkpt><trkpt lat="43.6189467" lon="11.81417"><ele>313.0</ele><time>2026-04-25T09:14:35.026Z</time></trkpt><trkpt lat="43.6188383" lon="11.8140217"><ele>313.0</ele><time>2026-04-25T09:14:37.033Z</time></trkpt><trkpt lat="43.618765" lon="11.8139233"><ele>313.0</ele><time>2026-04-25T09:14:38.026Z</time></trkpt><trkpt lat="43.618695" lon="11.81382"><ele>313.0</ele><time>2026-04-25T09:14:39.032Z</time></trkpt><trkpt lat="43.61862" lon="11.8137183"><ele>313.0</ele><time>2026-04-25T09:14:40.03Z</time></trkpt><trkpt lat="43.61854" lon="11.8136133"><ele>313.0</ele><time>2026-04-25T09:14:41.026Z</time></trkpt><trkpt lat="43.6184517" lon="11.8135083"><ele>313.0</ele><time>2026-04-25T09:14:42.029Z</time></trkpt><trkpt lat="43.6183667" lon="11.8134033"><ele>313.0</ele><time>2026-04-25T09:14:43.027Z</time></trkpt><trkpt lat="43.6182817" lon="11.8132967"><ele>314.0</ele><time>2026-04-25T09:14:44.028Z</time></trkpt><trkpt lat="43.6182017" lon="11.813195"><ele>315.0</ele><time>2026-04-25T09:14:45.027Z</time></trkpt><trkpt lat="43.618125" lon="11.8130883"><ele>316.0</ele><time>2026-04-25T09:14:46.032Z</time></trkpt><trkpt lat="43.6180583" lon="11.812965"><ele>317.0</ele><time>2026-04-25T09:14:47.026Z</time></trkpt><trkpt lat="43.618005" lon="11.8128217"><ele>318.0</ele><time>2026-04-25T09:14:48.03Z</time></trkpt><trkpt lat="43.61796" lon="11.8126683"><ele>317.2</ele><time>2026-04-25T09:14:49.031Z</time></trkpt><trkpt lat="43.6179233" lon="11.8125117"><ele>316.4</ele><time>2026-04-25T09:14:50.03Z</time></trkpt><trkpt lat="43.61789" lon="11.81236"><ele>315.59999999999997</ele><time>2026-04-25T09:14:51.029Z</time></trkpt><trkpt lat="43.6178567" lon="11.812215"><ele>314.8</ele><time>2026-04-25T09:14:52.029Z</time></trkpt><trkpt lat="43.617815" lon="11.8120817"><ele>314.0</ele><time>2026-04-25T09:14:53.03Z</time></trkpt><trkpt lat="43.617755" lon="11.8119533"><ele>314.0</ele><time>2026-04-25T09:14:54.031Z</time></trkpt><trkpt lat="43.6176833" lon="11.811835"><ele>314.0</ele><time>2026-04-25T09:14:55.029Z</time></trkpt><trkpt lat="43.6175983" lon="11.81172"><ele>314.0</ele><time>2026-04-25T09:14:56.027Z</time></trkpt><trkpt lat="43.6175167" lon="11.81161"><ele>314.0</ele><time>2026-04-25T09:14:57.033Z</time></trkpt><trkpt lat="43.6174283" lon="11.811505"><ele>313.8</ele><time>2026-04-25T09:14:58.024Z</time></trkpt><trkpt lat="43.61734" lon="11.8114117"><ele>313.59999999999997</ele><time>2026-04-25T09:14:59.03Z</time></trkpt><trkpt lat="43.6172517" lon="11.811325"><ele>313.4</ele><time>2026-04-25T09:15:00.025Z</time></trkpt><trkpt lat="43.6171683" lon="11.8112383"><ele>313.2</ele><time>2026-04-25T09:15:01.031Z</time></trkpt><trkpt lat="43.6170817" lon="11.8111667"><ele>313.0</ele><time>2026-04-25T09:15:02.028Z</time></trkpt><trkpt lat="43.61698" lon="11.8111117"><ele>313.0</ele><time>2026-04-25T09:15:03.027Z</time></trkpt><trkpt lat="43.6168667" lon="11.81108"><ele>313.0</ele><time>2026-04-25T09:15:04.033Z</time></trkpt><trkpt lat="43.616755" lon="11.8110433"><ele>313.0</ele><time>2026-04-25T09:15:05.026Z</time></trkpt><trkpt lat="43.6166383" lon="11.8110117"><ele>313.0</ele><time>2026-04-25T09:15:06.036Z</time></trkpt><trkpt lat="43.6165233" lon="11.8109767"><ele>313.25</ele><time>2026-04-25T09:15:07.028Z</time></trkpt><trkpt lat="43.61641" lon="11.8109333"><ele>313.5</ele><time>2026-04-25T09:15:08.044Z</time></trkpt><trkpt lat="43.6162933" lon="11.8108717"><ele>313.75</ele><time>2026-04-25T09:15:09.029Z</time></trkpt><trkpt lat="43.6161783" lon="11.8107883"><ele>314.0</ele><time>2026-04-25T09:15:10.031Z</time></trkpt><trkpt lat="43.616065" lon="11.8106883"><ele>314.0</ele><time>2026-04-25T09:15:11.027Z</time></trkpt><trkpt lat="43.61597" lon="11.8105667"><ele>314.0</ele><time>2026-04-25T09:15:12.029Z</time></trkpt><trkpt lat="43.6158833" lon="11.8104233"><ele>314.0</ele><time>2026-04-25T09:15:13.032Z</time></trkpt><trkpt lat="43.6158133" lon="11.810265"><ele>314.0</ele><time>2026-04-25T09:15:14.028Z</time></trkpt><trkpt lat="43.6157583" lon="11.8101017"><ele>315.25</ele><time>2026-04-25T09:15:15.032Z</time></trkpt><trkpt lat="43.6157117" lon="11.8099483"><ele>316.5</ele><time>2026-04-25T09:15:16.025Z</time></trkpt><trkpt lat="43.6156617" lon="11.809805"><ele>317.75</ele><time>2026-04-25T09:15:17.029Z</time></trkpt><trkpt lat="43.6156133" lon="11.80967"><ele>319.0</ele><time>2026-04-25T09:15:18.029Z</time></trkpt><trkpt lat="43.6155683" lon="11.8095367"><ele>319.0</ele><time>2026-04-25T09:15:19.035Z</time></trkpt><trkpt lat="43.6155233" lon="11.8093983"><ele>319.0</ele><time>2026-04-25T09:15:20.041Z</time></trkpt><trkpt lat="43.6154817" lon="11.8092567"><ele>319.0</ele><time>2026-04-25T09:15:21.029Z</time></trkpt><trkpt lat="43.6154433" lon="11.8091033"><ele>319.0</ele><time>2026-04-25T09:15:22.027Z</time></trkpt><trkpt lat="43.6154067" lon="11.80894"><ele>318.5</ele><time>2026-04-25T09:15:23.027Z</time></trkpt><trkpt lat="43.6153783" lon="11.8087633"><ele>318.0</ele><time>2026-04-25T09:15:24.031Z</time></trkpt><trkpt lat="43.6153567" lon="11.8085767"><ele>317.5</ele><time>2026-04-25T09:15:25.034Z</time></trkpt><trkpt lat="43.615335" lon="11.8083867"><ele>317.0</ele><time>2026-04-25T09:15:26.031Z</time></trkpt><trkpt lat="43.6153167" lon="11.8082033"><ele>317.0</ele><time>2026-04-25T09:15:27.032Z</time></trkpt><trkpt lat="43.6152933" lon="11.8080233"><ele>317.0</ele><time>2026-04-25T09:15:28.031Z</time></trkpt><trkpt lat="43.61527" lon="11.8078467"><ele>317.0</ele><time>2026-04-25T09:15:29.031Z</time></trkpt><trkpt lat="43.6152483" lon="11.80767"><ele>317.0</ele><time>2026-04-25T09:15:30.04Z</time></trkpt><trkpt lat="43.6152233" lon="11.8075"><ele>317.0</ele><time>2026-04-25T09:15:31.026Z</time></trkpt><trkpt lat="43.6151983" lon="11.807345"><ele>317.0</ele><time>2026-04-25T09:15:32.031Z</time></trkpt><trkpt lat="43.6151717" lon="11.807215"><ele>317.0</ele><time>2026-04-25T09:15:33.028Z</time></trkpt><trkpt lat="43.6151483" lon="11.8071"><ele>317.0</ele><time>2026-04-25T09:15:34.028Z</time></trkpt><trkpt lat="43.6151267" lon="11.8069967"><ele>317.0</ele><time>2026-04-25T09:15:35.03Z</time></trkpt><trkpt lat="43.615115" lon="11.80691"><ele>317.0</ele><time>2026-04-25T09:15:36.027Z</time></trkpt><trkpt lat="43.6151283" lon="11.8068117"><ele>317.33333333333337</ele><time>2026-04-25T09:15:39.027Z</time></trkpt><trkpt lat="43.6152117" lon="11.8067767"><ele>317.6666666666667</ele><time>2026-04-25T09:15:43.027Z</time></trkpt><trkpt lat="43.6153067" lon="11.8068033"><ele>318.0</ele><time>2026-04-25T09:15:45.029Z</time></trkpt><trkpt lat="43.61534" lon="11.806935"><ele>318.3333333333333</ele><time>2026-04-25T09:15:47.03Z</time></trkpt><trkpt lat="43.61534" lon="11.8070333"><ele>318.66666666666663</ele><time>2026-04-25T09:15:48.029Z</time></trkpt><trkpt lat="43.6153467" lon="11.8071383"><ele>319.0</ele><time>2026-04-25T09:15:49.033Z</time></trkpt><trkpt lat="43.6153567" lon="11.807245"><ele>321.3333333333333</ele><time>2026-04-25T09:15:50.032Z</time></trkpt><trkpt lat="43.61537" lon="11.8073483"><ele>323.66666666666663</ele><time>2026-04-25T09:15:51.033Z</time></trkpt><trkpt lat="43.615385" lon="11.8074533"><ele>326.0</ele><time>2026-04-25T09:15:52.031Z</time></trkpt><trkpt lat="43.6154033" lon="11.8075583"><ele>328.3333333333333</ele><time>2026-04-25T09:15:53.029Z</time></trkpt><trkpt lat="43.61542" lon="11.8076633"><ele>330.6666666666667</ele><time>2026-04-25T09:15:54.031Z</time></trkpt><trkpt lat="43.615445" lon="11.807765"><ele>333.0</ele><time>2026-04-25T09:15:55.03Z</time></trkpt><trkpt lat="43.615465" lon="11.8078667"><ele>333.0</ele><time>2026-04-25T09:15:56.037Z</time></trkpt><trkpt lat="43.6155" lon="11.8079683"><ele>333.0</ele><time>2026-04-25T09:15:57.035Z</time></trkpt><trkpt lat="43.6155567" lon="11.808065"><ele>333.0</ele><time>2026-04-25T09:15:58.029Z</time></trkpt><trkpt lat="43.6155967" lon="11.808175"><ele>333.0</ele><time>2026-04-25T09:15:59.041Z</time></trkpt><trkpt lat="43.6156417" lon="11.8082733"><ele>333.0</ele><time>2026-04-25T09:16:00.03Z</time></trkpt><trkpt lat="43.615685" lon="11.808365"><ele>333.0</ele><time>2026-04-25T09:16:01.029Z</time></trkpt><trkpt lat="43.6157433" lon="11.8084367"><ele>331.8333333333333</ele><time>2026-04-25T09:16:02.034Z</time></trkpt><trkpt lat="43.6158017" lon="11.8085"><ele>330.6666666666667</ele><time>2026-04-25T09:16:03.03Z</time></trkpt><trkpt lat="43.6158583" lon="11.8085517"><ele>329.5</ele><time>2026-04-25T09:16:04.028Z</time></trkpt><trkpt lat="43.6159567" lon="11.8085783"><ele>328.33333333333337</ele><time>2026-04-25T09:16:06.035Z</time></trkpt><trkpt lat="43.61602" lon="11.8085717"><ele>327.1666666666667</ele><time>2026-04-25T09:16:08.032Z</time></trkpt><trkpt lat="43.6161033" lon="11.80851"><ele>326.0</ele><time>2026-04-25T09:16:13.04Z</time></trkpt><trkpt lat="43.6161933" lon="11.80847"><ele>330.33333333333337</ele><time>2026-04-25T09:16:15.03Z</time></trkpt><trkpt lat="43.6162883" lon="11.8083867"><ele>334.6666666666667</ele><time>2026-04-25T09:16:17.029Z</time></trkpt><trkpt lat="43.6163433" lon="11.8083217"><ele>339.0</ele><time>2026-04-25T09:16:18.028Z</time></trkpt><trkpt lat="43.616405" lon="11.8082583"><ele>343.3333333333333</ele><time>2026-04-25T09:16:19.027Z</time></trkpt><trkpt lat="43.6164683" lon="11.80821"><ele>347.66666666666663</ele><time>2026-04-25T09:16:20.026Z</time></trkpt><trkpt lat="43.6165367" lon="11.80818"><ele>352.0</ele><time>2026-04-25T09:16:21.028Z</time></trkpt><trkpt lat="43.61661" lon="11.80819"><ele>352.0</ele><time>2026-04-25T09:16:22.03Z</time></trkpt><trkpt lat="43.61668" lon="11.80823"><ele>352.0</ele><time>2026-04-25T09:16:23.03Z</time></trkpt><trkpt lat="43.6167517" lon="11.80827"><ele>352.0</ele><time>2026-04-25T09:16:24.032Z</time></trkpt><trkpt lat="43.6168267" lon="11.8082967"><ele>352.0</ele><time>2026-04-25T09:16:25.03Z</time></trkpt><trkpt lat="43.6169417" lon="11.808285"><ele>352.0</ele><time>2026-04-25T09:16:27.033Z</time></trkpt><trkpt lat="43.6169533" lon="11.80814"><ele>352.0</ele><time>2026-04-25T09:16:29.032Z</time></trkpt><trkpt lat="43.6169317" lon="11.8080467"><ele>352.0</ele><time>2026-04-25T09:16:30.031Z</time></trkpt><trkpt lat="43.61691" lon="11.8079517"><ele>352.0</ele><time>2026-04-25T09:16:31.032Z</time></trkpt><trkpt lat="43.6169" lon="11.8077933"><ele>352.0</ele><time>2026-04-25T09:16:33.033Z</time></trkpt><trkpt lat="43.6169783" lon="11.80771"><ele>352.0</ele><time>2026-04-25T09:16:35.029Z</time></trkpt><trkpt lat="43.617045" lon="11.807705"><ele>352.0</ele><time>2026-04-25T09:16:36.032Z</time></trkpt><trkpt lat="43.6171533" lon="11.807685"><ele>354.40000000000003</ele><time>2026-04-25T09:16:38.03Z</time></trkpt><trkpt lat="43.6172617" lon="11.80777"><ele>356.8</ele><time>2026-04-25T09:16:40.034Z</time></trkpt><trkpt lat="43.6173183" lon="11.8078167"><ele>359.2</ele><time>2026-04-25T09:16:41.029Z</time></trkpt><trkpt lat="43.617435" lon="11.8078533"><ele>361.6</ele><time>2026-04-25T09:16:43.025Z</time></trkpt><trkpt lat="43.61756" lon="11.8077933"><ele>364.0</ele><time>2026-04-25T09:16:45.037Z</time></trkpt><trkpt lat="43.6176283" lon="11.8077283"><ele>364.0</ele><time>2026-04-25T09:16:46.027Z</time></trkpt><trkpt lat="43.6177017" lon="11.8076667"><ele>364.0</ele><time>2026-04-25T09:16:47.03Z</time></trkpt><trkpt lat="43.6177733" lon="11.8076017"><ele>364.0</ele><time>2026-04-25T09:16:48.027Z</time></trkpt><trkpt lat="43.6178533" lon="11.8075233"><ele>364.0</ele><time>2026-04-25T09:16:49.031Z</time></trkpt><trkpt lat="43.61793" lon="11.80745"><ele>364.0</ele><time>2026-04-25T09:16:50.035Z</time></trkpt><trkpt lat="43.6180033" lon="11.80739"><ele>364.0</ele><time>2026-04-25T09:16:51.036Z</time></trkpt><trkpt lat="43.61807" lon="11.8073283"><ele>366.66666666666663</ele><time>2026-04-25T09:16:52.03Z</time></trkpt><trkpt lat="43.6181333" lon="11.8072583"><ele>369.3333333333333</ele><time>2026-04-25T09:16:53.028Z</time></trkpt><trkpt lat="43.6181917" lon="11.8071817"><ele>372.0</ele><time>2026-04-25T09:16:54.03Z</time></trkpt><trkpt lat="43.6182567" lon="11.8071217"><ele>374.6666666666667</ele><time>2026-04-25T09:16:55.029Z</time></trkpt><trkpt lat="43.6183283" lon="11.8070633"><ele>377.33333333333337</ele><time>2026-04-25T09:16:56.031Z</time></trkpt><trkpt lat="43.6184083" lon="11.807005"><ele>380.0</ele><time>2026-04-25T09:16:57.025Z</time></trkpt><trkpt lat="43.6184883" lon="11.8069467"><ele>380.0</ele><time>2026-04-25T09:16:58.03Z</time></trkpt><trkpt lat="43.6185617" lon="11.8068867"><ele>380.0</ele><time>2026-04-25T09:16:59.024Z</time></trkpt><trkpt lat="43.618635" lon="11.8068733"><ele>380.0</ele><time>2026-04-25T09:17:00.031Z</time></trkpt><trkpt lat="43.6187017" lon="11.80689"><ele>380.0</ele><time>2026-04-25T09:17:01.026Z</time></trkpt><trkpt lat="43.61877" lon="11.8068983"><ele>380.0</ele><time>2026-04-25T09:17:02.027Z</time></trkpt><trkpt lat="43.6188333" lon="11.8068567"><ele>380.0</ele><time>2026-04-25T09:17:03.031Z</time></trkpt><trkpt lat="43.6188933" lon="11.806795"><ele>380.0</ele><time>2026-04-25T09:17:04.028Z</time></trkpt><trkpt lat="43.6189433" lon="11.8067317"><ele>382.6</ele><time>2026-04-25T09:17:05.03Z</time></trkpt><trkpt lat="43.61897" lon="11.8065783"><ele>385.2</ele><time>2026-04-25T09:17:07.03Z</time></trkpt><trkpt lat="43.618965" lon="11.8064817"><ele>387.79999999999995</ele><time>2026-04-25T09:17:08.026Z</time></trkpt><trkpt lat="43.6189267" lon="11.8063717"><ele>390.4</ele><time>2026-04-25T09:17:09.029Z</time></trkpt><trkpt lat="43.6188383" lon="11.8062283"><ele>393.0</ele><time>2026-04-25T09:17:10.029Z</time></trkpt><trkpt lat="43.6187583" lon="11.8060717"><ele>393.0</ele><time>2026-04-25T09:17:11.028Z</time></trkpt><trkpt lat="43.6186817" lon="11.805905"><ele>393.0</ele><time>2026-04-25T09:17:12.025Z</time></trkpt><trkpt lat="43.6186067" lon="11.8057483"><ele>393.0</ele><time>2026-04-25T09:17:13.033Z</time></trkpt><trkpt lat="43.6185417" lon="11.8056083"><ele>393.0</ele><time>2026-04-25T09:17:14.026Z</time></trkpt><trkpt lat="43.6184867" lon="11.8054867"><ele>393.0</ele><time>2026-04-25T09:17:15.027Z</time></trkpt><trkpt lat="43.6184483" lon="11.8053667"><ele>393.0</ele><time>2026-04-25T09:17:16.026Z</time></trkpt><trkpt lat="43.6184217" lon="11.8052567"><ele>393.0</ele><time>2026-04-25T09:17:17.034Z</time></trkpt><trkpt lat="43.6184217" lon="11.805165"><ele>393.0</ele><time>2026-04-25T09:17:18.032Z</time></trkpt><trkpt lat="43.618495" lon="11.805035"><ele>393.0</ele><time>2026-04-25T09:17:20.033Z</time></trkpt><trkpt lat="43.618565" lon="11.804995"><ele>393.0</ele><time>2026-04-25T09:17:21.03Z</time></trkpt><trkpt lat="43.6186667" lon="11.8049617"><ele>397.25</ele><time>2026-04-25T09:17:22.031Z</time></trkpt><trkpt lat="43.61879" lon="11.804925"><ele>401.5</ele><time>2026-04-25T09:17:23.028Z</time></trkpt><trkpt lat="43.618915" lon="11.804865"><ele>405.75</ele><time>2026-04-25T09:17:24.029Z</time></trkpt><trkpt lat="43.6190333" lon="11.8048133"><ele>410.0</ele><time>2026-04-25T09:17:25.026Z</time></trkpt><trkpt lat="43.6191317" lon="11.804775"><ele>409.99999999999994</ele><time>2026-04-25T09:17:26.032Z</time></trkpt><trkpt lat="43.619205" lon="11.8047383"><ele>410.0</ele><time>2026-04-25T09:17:27.027Z</time></trkpt><trkpt lat="43.61928" lon="11.8047033"><ele>410.0</ele><time>2026-04-25T09:17:29.035Z</time></trkpt><trkpt lat="43.6193567" lon="11.80467"><ele>410.0</ele><time>2026-04-25T09:17:31.032Z</time></trkpt><trkpt lat="43.6194267" lon="11.80464"><ele>409.99999999999994</ele><time>2026-04-25T09:17:32.027Z</time></trkpt><trkpt lat="43.6195133" lon="11.8045983"><ele>410.0</ele><time>2026-04-25T09:17:33.03Z</time></trkpt><trkpt lat="43.6196" lon="11.804545"><ele>412.0</ele><time>2026-04-25T09:17:34.027Z</time></trkpt><trkpt lat="43.61966" lon="11.804485"><ele>414.0</ele><time>2026-04-25T09:17:35.029Z</time></trkpt><trkpt lat="43.6197083" lon="11.804345"><ele>416.0</ele><time>2026-04-25T09:17:37.028Z</time></trkpt><trkpt lat="43.6196817" lon="11.80424"><ele>418.0</ele><time>2026-04-25T09:17:38.024Z</time></trkpt><trkpt lat="43.6196033" lon="11.8041017"><ele>420.0</ele><time>2026-04-25T09:17:39.029Z</time></trkpt><trkpt lat="43.6195283" lon="11.80396"><ele>419.6</ele><time>2026-04-25T09:17:40.031Z</time></trkpt><trkpt lat="43.6194633" lon="11.8038167"><ele>419.2</ele><time>2026-04-25T09:17:41.028Z</time></trkpt><trkpt lat="43.6194067" lon="11.8037133"><ele>418.79999999999995</ele><time>2026-04-25T09:17:42.032Z</time></trkpt><trkpt lat="43.6193417" lon="11.80362"><ele>418.4</ele><time>2026-04-25T09:17:43.029Z</time></trkpt><trkpt lat="43.6192483" lon="11.803535"><ele>418.0</ele><time>2026-04-25T09:17:44.029Z</time></trkpt><trkpt lat="43.619125" lon="11.80344"><ele>421.0</ele><time>2026-04-25T09:17:45.035Z</time></trkpt><trkpt lat="43.6189933" lon="11.80335"><ele>424.0</ele><time>2026-04-25T09:17:46.029Z</time></trkpt><trkpt lat="43.6188567" lon="11.8032583"><ele>427.0</ele><time>2026-04-25T09:17:47.028Z</time></trkpt><trkpt lat="43.618725" lon="11.8031733"><ele>430.0</ele><time>2026-04-25T09:17:48.033Z</time></trkpt><trkpt lat="43.6186017" lon="11.8031083"><ele>430.0</ele><time>2026-04-25T09:17:49.029Z</time></trkpt><trkpt lat="43.6185067" lon="11.8030467"><ele>430.0</ele><time>2026-04-25T09:17:50.03Z</time></trkpt><trkpt lat="43.6184517" lon="11.8029867"><ele>430.0</ele><time>2026-04-25T09:17:51.028Z</time></trkpt><trkpt lat="43.618425" lon="11.80281"><ele>430.0</ele><time>2026-04-25T09:17:53.03Z</time></trkpt><trkpt lat="43.618415" lon="11.8026917"><ele>430.0</ele><time>2026-04-25T09:17:54.032Z</time></trkpt><trkpt lat="43.6183933" lon="11.8025767"><ele>430.00000000000006</ele><time>2026-04-25T09:17:55.033Z</time></trkpt><trkpt lat="43.61837" lon="11.8024733"><ele>430.0</ele><time>2026-04-25T09:17:56.032Z</time></trkpt><trkpt lat="43.6183133" lon="11.802375"><ele>430.0</ele><time>2026-04-25T09:17:58.031Z</time></trkpt><trkpt lat="43.6183733" lon="11.8024517"><ele>430.0</ele><time>2026-04-25T09:18:18.026Z</time></trkpt><trkpt lat="43.6184267" lon="11.802595"><ele>430.00000000000006</ele><time>2026-04-25T09:18:20.038Z</time></trkpt><trkpt lat="43.6184433" lon="11.8026917"><ele>430.0</ele><time>2026-04-25T09:18:21.033Z</time></trkpt><trkpt lat="43.6184417" lon="11.8027833"><ele>430.0</ele><time>2026-04-25T09:18:22.032Z</time></trkpt><trkpt lat="43.6184533" lon="11.8029433"><ele>430.0</ele><time>2026-04-25T09:18:24.032Z</time></trkpt><trkpt lat="43.6185233" lon="11.8030883"><ele>430.0</ele><time>2026-04-25T09:18:26.033Z</time></trkpt><trkpt lat="43.6185917" lon="11.803155"><ele>430.0</ele><time>2026-04-25T09:18:27.03Z</time></trkpt><trkpt lat="43.6186883" lon="11.803205"><ele>430.0</ele><time>2026-04-25T09:18:28.034Z</time></trkpt><trkpt lat="43.6187883" lon="11.8032667"><ele>430.6</ele><time>2026-04-25T09:18:29.029Z</time></trkpt><trkpt lat="43.6188767" lon="11.8033267"><ele>431.2</ele><time>2026-04-25T09:18:30.033Z</time></trkpt><trkpt lat="43.6189767" lon="11.8033883"><ele>431.79999999999995</ele><time>2026-04-25T09:18:31.03Z</time></trkpt><trkpt lat="43.6190767" lon="11.8034483"><ele>432.4</ele><time>2026-04-25T09:18:32.033Z</time></trkpt><trkpt lat="43.6191717" lon="11.803505"><ele>433.0</ele><time>2026-04-25T09:18:33.031Z</time></trkpt><trkpt lat="43.6192517" lon="11.8035517"><ele>432.79999999999995</ele><time>2026-04-25T09:18:34.03Z</time></trkpt><trkpt lat="43.6193283" lon="11.8035983"><ele>432.59999999999997</ele><time>2026-04-25T09:18:35.034Z</time></trkpt><trkpt lat="43.6193867" lon="11.8036783"><ele>432.40000000000003</ele><time>2026-04-25T09:18:36.029Z</time></trkpt><trkpt lat="43.619445" lon="11.8037817"><ele>432.20000000000005</ele><time>2026-04-25T09:18:37.033Z</time></trkpt><trkpt lat="43.619495" lon="11.8039133"><ele>432.0</ele><time>2026-04-25T09:18:38.033Z</time></trkpt><trkpt lat="43.6195167" lon="11.80404"><ele>432.0</ele><time>2026-04-25T09:18:39.028Z</time></trkpt><trkpt lat="43.6195633" lon="11.8041517"><ele>432.00000000000006</ele><time>2026-04-25T09:18:40.029Z</time></trkpt><trkpt lat="43.6196067" lon="11.8042433"><ele>432.00000000000006</ele><time>2026-04-25T09:18:41.028Z</time></trkpt><trkpt lat="43.6196383" lon="11.80432"><ele>432.0</ele><time>2026-04-25T09:18:42.035Z</time></trkpt><trkpt lat="43.6196267" lon="11.80446"><ele>432.0</ele><time>2026-04-25T09:18:44.034Z</time></trkpt><trkpt lat="43.6195267" lon="11.8045633"><ele>428.3333333333333</ele><time>2026-04-25T09:18:46.04Z</time></trkpt><trkpt lat="43.6194633" lon="11.8046"><ele>424.66666666666663</ele><time>2026-04-25T09:18:47.033Z</time></trkpt><trkpt lat="43.6193983" lon="11.8046317"><ele>421.0</ele><time>2026-04-25T09:18:48.033Z</time></trkpt><trkpt lat="43.61931" lon="11.804665"><ele>417.3333333333333</ele><time>2026-04-25T09:18:50.032Z</time></trkpt><trkpt lat="43.6192683" lon="11.8047467"><ele>413.66666666666663</ele><time>2026-04-25T09:18:55.028Z</time></trkpt><trkpt lat="43.6193217" lon="11.8048183"><ele>410.0</ele><time>2026-04-25T09:18:58.037Z</time></trkpt><trkpt lat="43.6193817" lon="11.804945"><ele>409.99999999999994</ele><time>2026-04-25T09:19:18.034Z</time></trkpt><trkpt lat="43.619455" lon="11.805035"><ele>410.0</ele><time>2026-04-25T09:19:20.031Z</time></trkpt><trkpt lat="43.61951" lon="11.8051183"><ele>410.0</ele><time>2026-04-25T09:19:22.033Z</time></trkpt><trkpt lat="43.6195383" lon="11.8052067"><ele>410.0</ele><time>2026-04-25T09:19:24.03Z</time></trkpt><trkpt lat="43.61956" lon="11.8052917"><ele>409.99999999999994</ele><time>2026-04-25T09:19:26.026Z</time></trkpt><trkpt lat="43.6196167" lon="11.8053433"><ele>410.0</ele><time>2026-04-25T09:19:28.031Z</time></trkpt><trkpt lat="43.6197083" lon="11.8054117"><ele>410.42857142857144</ele><time>2026-04-25T09:19:42.033Z</time></trkpt><trkpt lat="43.6197783" lon="11.80542"><ele>410.85714285714283</ele><time>2026-04-25T09:19:47.042Z</time></trkpt><trkpt lat="43.6198133" lon="11.8054933"><ele>411.2857142857143</ele><time>2026-04-25T09:19:51.028Z</time></trkpt><trkpt lat="43.6198217" lon="11.8055867"><ele>411.7142857142857</ele><time>2026-04-25T09:19:55.032Z</time></trkpt><trkpt lat="43.619835" lon="11.8056917"><ele>412.1428571428571</ele><time>2026-04-25T09:20:00.028Z</time></trkpt><trkpt lat="43.6199083" lon="11.8057383"><ele>412.57142857142856</ele><time>2026-04-25T09:20:12.026Z</time></trkpt><trkpt lat="43.6199817" lon="11.8057183"><ele>413.0</ele><time>2026-04-25T09:20:16.032Z</time></trkpt><trkpt lat="43.6200667" lon="11.8056967"><ele>412.99999999999994</ele><time>2026-04-25T09:20:20.033Z</time></trkpt><trkpt lat="43.6201333" lon="11.8056217"><ele>413.0</ele><time>2026-04-25T09:20:23.024Z</time></trkpt><trkpt lat="43.6202033" lon="11.805595"><ele>413.0</ele><time>2026-04-25T09:20:26.028Z</time></trkpt><trkpt lat="43.6202867" lon="11.80556"><ele>413.0</ele><time>2026-04-25T09:20:29.035Z</time></trkpt><trkpt lat="43.6203433" lon="11.80551"><ele>412.99999999999994</ele><time>2026-04-25T09:20:33.032Z</time></trkpt><trkpt lat="43.6204" lon="11.8054433"><ele>413.0</ele><time>2026-04-25T09:20:39.027Z</time></trkpt><trkpt lat="43.6204783" lon="11.805375"><ele>416.66666666666663</ele><time>2026-04-25T09:20:42.033Z</time></trkpt><trkpt lat="43.6205467" lon="11.8053467"><ele>420.3333333333333</ele><time>2026-04-25T09:20:45.026Z</time></trkpt><trkpt lat="43.6206267" lon="11.8053783"><ele>424.0</ele><time>2026-04-25T09:20:49.035Z</time></trkpt><trkpt lat="43.620665" lon="11.8054517"><ele>427.66666666666663</ele><time>2026-04-25T09:20:51.026Z</time></trkpt><trkpt lat="43.6206983" lon="11.80555"><ele>431.3333333333333</ele><time>2026-04-25T09:20:53.028Z</time></trkpt><trkpt lat="43.6207233" lon="11.8056583"><ele>435.0</ele><time>2026-04-25T09:20:56.028Z</time></trkpt><trkpt lat="43.6208067" lon="11.8056683"><ele>435.0</ele><time>2026-04-25T09:20:59.034Z</time></trkpt><trkpt lat="43.6208867" lon="11.805645"><ele>435.0</ele><time>2026-04-25T09:21:01.035Z</time></trkpt><trkpt lat="43.6209667" lon="11.8056533"><ele>435.0</ele><time>2026-04-25T09:21:03.027Z</time></trkpt><trkpt lat="43.62104" lon="11.8056517"><ele>435.0</ele><time>2026-04-25T09:21:05.027Z</time></trkpt><trkpt lat="43.6211033" lon="11.8056233"><ele>435.0</ele><time>2026-04-25T09:21:07.029Z</time></trkpt><trkpt lat="43.621155" lon="11.8055433"><ele>435.0</ele><time>2026-04-25T09:21:09.027Z</time></trkpt><trkpt lat="43.6212083" lon="11.8054683"><ele>438.2</ele><time>2026-04-25T09:21:11.037Z</time></trkpt><trkpt lat="43.6212617" lon="11.8053483"><ele>441.4</ele><time>2026-04-25T09:21:14.029Z</time></trkpt><trkpt lat="43.6212917" lon="11.8052467"><ele>444.6</ele><time>2026-04-25T09:21:16.032Z</time></trkpt><trkpt lat="43.6213017" lon="11.8051267"><ele>447.8</ele><time>2026-04-25T09:21:18.03Z</time></trkpt><trkpt lat="43.62136" lon="11.8050033"><ele>451.0</ele><time>2026-04-25T09:21:20.041Z</time></trkpt><trkpt lat="43.6214417" lon="11.8049217"><ele>453.33333333333337</ele><time>2026-04-25T09:21:22.033Z</time></trkpt><trkpt lat="43.6215135" lon="11.8048547"><ele>455.6666666666667</ele><time>2026-04-25T09:21:24.027Z</time></trkpt><trkpt lat="43.6215216" lon="11.8047564"><ele>458.0</ele><time>2026-04-25T09:21:27.033Z</time></trkpt><trkpt lat="43.6214957" lon="11.8046522"><ele>460.33333333333337</ele><time>2026-04-25T09:21:30.029Z</time></trkpt><trkpt lat="43.6215351" lon="11.8045683"><ele>462.6666666666667</ele><time>2026-04-25T09:21:32.031Z</time></trkpt><trkpt lat="43.6215836" lon="11.8044805"><ele>465.0</ele><time>2026-04-25T09:21:34.032Z</time></trkpt><trkpt lat="43.6216199" lon="11.8043812"><ele>465.0</ele><time>2026-04-25T09:21:37.032Z</time></trkpt><trkpt lat="43.6216902" lon="11.8043391"><ele>465.0</ele><time>2026-04-25T09:21:40.03Z</time></trkpt><trkpt lat="43.6217674" lon="11.8043463"><ele>465.0</ele><time>2026-04-25T09:21:42.149Z</time></trkpt><trkpt lat="43.6218384" lon="11.8043815"><ele>465.0</ele><time>2026-04-25T09:21:46.055Z</time></trkpt><trkpt lat="43.6218836" lon="11.804311"><ele>465.0</ele><time>2026-04-25T09:22:29.03Z</time></trkpt><trkpt lat="43.6219673" lon="11.8043165"><ele>465.0</ele><time>2026-04-25T09:22:31.042Z</time></trkpt><trkpt lat="43.6220773" lon="11.8043205"><ele>467.4</ele><time>2026-04-25T09:22:33.027Z</time></trkpt><trkpt lat="43.622173" lon="11.8043392"><ele>469.8</ele><time>2026-04-25T09:22:35.029Z</time></trkpt><trkpt lat="43.6222619" lon="11.8043484"><ele>472.20000000000005</ele><time>2026-04-25T09:22:37.027Z</time></trkpt><trkpt lat="43.622366" lon="11.8043422"><ele>474.6</ele><time>2026-04-25T09:22:39.033Z</time></trkpt><trkpt lat="43.6224694" lon="11.8043254"><ele>477.0</ele><time>2026-04-25T09:22:41.03Z</time></trkpt><trkpt lat="43.6225523" lon="11.8042979"><ele>479.8333333333333</ele><time>2026-04-25T09:22:43.036Z</time></trkpt><trkpt lat="43.6226405" lon="11.8042462"><ele>482.66666666666663</ele><time>2026-04-25T09:22:45.033Z</time></trkpt><trkpt lat="43.6227055" lon="11.8041844"><ele>485.5</ele><time>2026-04-25T09:22:47.037Z</time></trkpt><trkpt lat="43.6227204" lon="11.8040838"><ele>488.3333333333333</ele><time>2026-04-25T09:22:49.03Z</time></trkpt><trkpt lat="43.6227209" lon="11.8039807"><ele>491.16666666666663</ele><time>2026-04-25T09:22:51.031Z</time></trkpt><trkpt lat="43.6227281" lon="11.8038742"><ele>494.0</ele><time>2026-04-25T09:22:53.063Z</time></trkpt><trkpt lat="43.6227353" lon="11.8037783"><ele>493.99999999999994</ele><time>2026-04-25T09:22:55.065Z</time></trkpt><trkpt lat="43.6227097" lon="11.8036906"><ele>494.0</ele><time>2026-04-25T09:22:57.07Z</time></trkpt><trkpt lat="43.6227065" lon="11.80359"><ele>494.0</ele><time>2026-04-25T09:22:59.072Z</time></trkpt><trkpt lat="43.6226887" lon="11.8034811"><ele>494.0</ele><time>2026-04-25T09:23:01.077Z</time></trkpt><trkpt lat="43.6226732" lon="11.8033591"><ele>493.99999999999994</ele><time>2026-04-25T09:23:03.079Z</time></trkpt><trkpt lat="43.6226522" lon="11.803268"><ele>494.0</ele><time>2026-04-25T09:23:05.084Z</time></trkpt><trkpt lat="43.6226035" lon="11.8031847"><ele>496.3333333333333</ele><time>2026-04-25T09:23:09.088Z</time></trkpt><trkpt lat="43.6225677" lon="11.8031003"><ele>498.66666666666663</ele><time>2026-04-25T09:23:13.098Z</time></trkpt><trkpt lat="43.6225978" lon="11.8029785"><ele>501.0</ele><time>2026-04-25T09:23:18.106Z</time></trkpt><trkpt lat="43.6226561" lon="11.802919"><ele>503.33333333333337</ele><time>2026-04-25T09:23:20.109Z</time></trkpt><trkpt lat="43.622716" lon="11.8028304"><ele>505.6666666666667</ele><time>2026-04-25T09:23:23.115Z</time></trkpt><trkpt lat="43.6227469" lon="11.802725"><ele>508.0</ele><time>2026-04-25T09:23:26.121Z</time></trkpt><trkpt lat="43.6227766" lon="11.8026162"><ele>510.0</ele><time>2026-04-25T09:23:28.06Z</time></trkpt><trkpt lat="43.6228234" lon="11.8025016"><ele>511.99999999999994</ele><time>2026-04-25T09:23:30.03Z</time></trkpt><trkpt lat="43.6228585" lon="11.8023827"><ele>514.0</ele><time>2026-04-25T09:23:32.031Z</time></trkpt><trkpt lat="43.6228717" lon="11.802242"><ele>516.0</ele><time>2026-04-25T09:23:34.034Z</time></trkpt><trkpt lat="43.6228791" lon="11.8021154"><ele>518.0</ele><time>2026-04-25T09:23:36.031Z</time></trkpt><trkpt lat="43.6228831" lon="11.8019749"><ele>520.8</ele><time>2026-04-25T09:23:38.031Z</time></trkpt><trkpt lat="43.6228864" lon="11.8018308"><ele>523.5999999999999</ele><time>2026-04-25T09:23:40.032Z</time></trkpt><trkpt lat="43.6229057" lon="11.8017087"><ele>526.4000000000001</ele><time>2026-04-25T09:23:42.03Z</time></trkpt><trkpt lat="43.6229357" lon="11.801554"><ele>529.2</ele><time>2026-04-25T09:23:44.03Z</time></trkpt><trkpt lat="43.6229281" lon="11.801422"><ele>532.0</ele><time>2026-04-25T09:23:46.033Z</time></trkpt><trkpt lat="43.6228867" lon="11.8013417"><ele>532.0</ele><time>2026-04-25T09:23:48.032Z</time></trkpt><trkpt lat="43.6228467" lon="11.8012583"><ele>532.0</ele><time>2026-04-25T09:23:50.033Z</time></trkpt><trkpt lat="43.622815" lon="11.8011717"><ele>532.0</ele><time>2026-04-25T09:23:52.03Z</time></trkpt><trkpt lat="43.6227967" lon="11.8010367"><ele>532.0</ele><time>2026-04-25T09:23:54.032Z</time></trkpt><trkpt lat="43.6228117" lon="11.800905"><ele>532.0</ele><time>2026-04-25T09:23:57.029Z</time></trkpt><trkpt lat="43.622835" lon="11.80074"><ele>534.1666666666667</ele><time>2026-04-25T09:23:59.027Z</time></trkpt><trkpt lat="43.6228633" lon="11.8006433"><ele>536.3333333333334</ele><time>2026-04-25T09:24:00.03Z</time></trkpt><trkpt lat="43.622895" lon="11.8005483"><ele>538.5</ele><time>2026-04-25T09:24:01.027Z</time></trkpt><trkpt lat="43.6229267" lon="11.8004667"><ele>540.6666666666666</ele><time>2026-04-25T09:24:02.027Z</time></trkpt><trkpt lat="43.62297" lon="11.8004033"><ele>542.8333333333333</ele><time>2026-04-25T09:24:03.031Z</time></trkpt><trkpt lat="43.6230567" lon="11.8003217"><ele>545.0</ele><time>2026-04-25T09:24:05.036Z</time></trkpt><trkpt lat="43.623155" lon="11.80025"><ele>545.0</ele><time>2026-04-25T09:24:07.03Z</time></trkpt><trkpt lat="43.623255" lon="11.8002033"><ele>545.0</ele><time>2026-04-25T09:24:09.03Z</time></trkpt><trkpt lat="43.6233367" lon="11.8001333"><ele>545.0</ele><time>2026-04-25T09:24:11.029Z</time></trkpt><trkpt lat="43.6234233" lon="11.8000867"><ele>545.0</ele><time>2026-04-25T09:24:13.029Z</time></trkpt><trkpt lat="43.6235383" lon="11.8000133"><ele>545.0</ele><time>2026-04-25T09:24:15.034Z</time></trkpt><trkpt lat="43.6236" lon="11.7999633"><ele>545.3333333333333</ele><time>2026-04-25T09:24:16.028Z</time></trkpt><trkpt lat="43.6236567" lon="11.7999083"><ele>545.6666666666666</ele><time>2026-04-25T09:24:17.026Z</time></trkpt><trkpt lat="43.6237017" lon="11.7998433"><ele>546.0</ele><time>2026-04-25T09:24:18.029Z</time></trkpt><trkpt lat="43.6237417" lon="11.79976"><ele>546.3333333333334</ele><time>2026-04-25T09:24:19.034Z</time></trkpt><trkpt lat="43.6237767" lon="11.7996533"><ele>546.6666666666667</ele><time>2026-04-25T09:24:20.029Z</time></trkpt><trkpt lat="43.6238033" lon="11.7995417"><ele>547.0</ele><time>2026-04-25T09:24:21.035Z</time></trkpt><trkpt lat="43.6238133" lon="11.7994317"><ele>549.8000000000001</ele><time>2026-04-25T09:24:22.029Z</time></trkpt><trkpt lat="43.6238283" lon="11.79932"><ele>552.6</ele><time>2026-04-25T09:24:23.03Z</time></trkpt><trkpt lat="43.6238383" lon="11.79923"><ele>555.4000000000001</ele><time>2026-04-25T09:24:24.03Z</time></trkpt><trkpt lat="43.62382" lon="11.79907"><ele>558.2</ele><time>2026-04-25T09:24:26.028Z</time></trkpt><trkpt lat="43.6237783" lon="11.7989183"><ele>561.0</ele><time>2026-04-25T09:24:28.029Z</time></trkpt><trkpt lat="43.6237583" lon="11.7988283"><ele>561.0</ele><time>2026-04-25T09:24:29.03Z</time></trkpt><trkpt lat="43.6237017" lon="11.79871"><ele>561.0</ele><time>2026-04-25T09:24:31.029Z</time></trkpt><trkpt lat="43.6236717" lon="11.798605"><ele>561.0</ele><time>2026-04-25T09:24:33.032Z</time></trkpt><trkpt lat="43.6236717" lon="11.79845"><ele>561.0</ele><time>2026-04-25T09:24:35.03Z</time></trkpt><trkpt lat="43.6236817" lon="11.798295"><ele>561.0</ele><time>2026-04-25T09:24:37.032Z</time></trkpt><trkpt lat="43.6236883" lon="11.798205"><ele>563.5</ele><time>2026-04-25T09:24:38.031Z</time></trkpt><trkpt lat="43.6236867" lon="11.798105"><ele>566.0</ele><time>2026-04-25T09:24:39.031Z</time></trkpt><trkpt lat="43.6236783" lon="11.7980017"><ele>568.5</ele><time>2026-04-25T09:24:40.029Z</time></trkpt><trkpt lat="43.623665" lon="11.797905"><ele>571.0</ele><time>2026-04-25T09:24:41.035Z</time></trkpt><trkpt lat="43.62365" lon="11.797815"><ele>573.5</ele><time>2026-04-25T09:24:42.039Z</time></trkpt><trkpt lat="43.62364" lon="11.7977283"><ele>576.0</ele><time>2026-04-25T09:24:43.029Z</time></trkpt><trkpt lat="43.62365" lon="11.7975433"><ele>577.8333333333334</ele><time>2026-04-25T09:24:45.035Z</time></trkpt><trkpt lat="43.6236733" lon="11.7974433"><ele>579.6666666666666</ele><time>2026-04-25T09:24:46.03Z</time></trkpt><trkpt lat="43.6237" lon="11.797325"><ele>581.5</ele><time>2026-04-25T09:24:47.031Z</time></trkpt><trkpt lat="43.6237217" lon="11.7972183"><ele>583.3333333333333</ele><time>2026-04-25T09:24:48.036Z</time></trkpt><trkpt lat="43.6237533" lon="11.7971167"><ele>585.1666666666666</ele><time>2026-04-25T09:24:49.029Z</time></trkpt><trkpt lat="43.6237883" lon="11.797015"><ele>587.0</ele><time>2026-04-25T09:24:50.026Z</time></trkpt><trkpt lat="43.6238233" lon="11.7969067"><ele>588.8333333333333</ele><time>2026-04-25T09:24:51.031Z</time></trkpt><trkpt lat="43.623845" lon="11.7967983"><ele>590.6666666666666</ele><time>2026-04-25T09:24:52.024Z</time></trkpt><trkpt lat="43.6238567" lon="11.7966833"><ele>592.5</ele><time>2026-04-25T09:24:53.032Z</time></trkpt><trkpt lat="43.6238483" lon="11.7965717"><ele>594.3333333333334</ele><time>2026-04-25T09:24:54.032Z</time></trkpt><trkpt lat="43.6238433" lon="11.7964683"><ele>596.1666666666667</ele><time>2026-04-25T09:24:55.038Z</time></trkpt><trkpt lat="43.6238483" lon="11.7963767"><ele>598.0</ele><time>2026-04-25T09:24:56.031Z</time></trkpt><trkpt lat="43.6238483" lon="11.7962717"><ele>598.0</ele><time>2026-04-25T09:24:57.047Z</time></trkpt><trkpt lat="43.62385" lon="11.7961733"><ele>598.0</ele><time>2026-04-25T09:24:58.028Z</time></trkpt><trkpt lat="43.6239" lon="11.7960083"><ele>598.0</ele><time>2026-04-25T09:25:00.028Z</time></trkpt><trkpt lat="43.6239383" lon="11.79591"><ele>598.0</ele><time>2026-04-25T09:25:01.038Z</time></trkpt><trkpt lat="43.6239783" lon="11.7958317"><ele>598.0</ele><time>2026-04-25T09:25:02.032Z</time></trkpt><trkpt lat="43.6240317" lon="11.7957733"><ele>598.0</ele><time>2026-04-25T09:25:03.029Z</time></trkpt><trkpt lat="43.6240983" lon="11.7957083"><ele>598.8333333333334</ele><time>2026-04-25T09:25:04.027Z</time></trkpt><trkpt lat="43.6241683" lon="11.7956317"><ele>599.6666666666667</ele><time>2026-04-25T09:25:05.026Z</time></trkpt><trkpt lat="43.624235" lon="11.79555"><ele>600.5</ele><time>2026-04-25T09:25:06.035Z</time></trkpt><trkpt lat="43.6242983" lon="11.7954683"><ele>601.3333333333334</ele><time>2026-04-25T09:25:07.028Z</time></trkpt><trkpt lat="43.624345" lon="11.795385"><ele>602.1666666666666</ele><time>2026-04-25T09:25:08.028Z</time></trkpt><trkpt lat="43.6243833" lon="11.7952917"><ele>603.0</ele><time>2026-04-25T09:25:09.031Z</time></trkpt><trkpt lat="43.6244283" lon="11.79521"><ele>602.6666666666666</ele><time>2026-04-25T09:25:10.028Z</time></trkpt><trkpt lat="43.6244817" lon="11.7951417"><ele>602.3333333333334</ele><time>2026-04-25T09:25:11.032Z</time></trkpt><trkpt lat="43.6245417" lon="11.7950717"><ele>602.0</ele><time>2026-04-25T09:25:12.032Z</time></trkpt><trkpt lat="43.6246017" lon="11.795"><ele>601.6666666666667</ele><time>2026-04-25T09:25:13.027Z</time></trkpt><trkpt lat="43.624655" lon="11.79494"><ele>601.3333333333334</ele><time>2026-04-25T09:25:14.027Z</time></trkpt><trkpt lat="43.6247617" lon="11.79485"><ele>601.0</ele><time>2026-04-25T09:25:16.026Z</time></trkpt><trkpt lat="43.6248333" lon="11.794805"><ele>601.0</ele><time>2026-04-25T09:25:17.026Z</time></trkpt><trkpt lat="43.6249133" lon="11.7947483"><ele>601.0</ele><time>2026-04-25T09:25:18.026Z</time></trkpt><trkpt lat="43.6249867" lon="11.7946733"><ele>601.0</ele><time>2026-04-25T09:25:19.029Z</time></trkpt><trkpt lat="43.6250683" lon="11.7945883"><ele>601.0</ele><time>2026-04-25T09:25:20.032Z</time></trkpt><trkpt lat="43.6251417" lon="11.7944983"><ele>601.0</ele><time>2026-04-25T09:25:21.029Z</time></trkpt><trkpt lat="43.6252" lon="11.79441"><ele>601.2</ele><time>2026-04-25T09:25:22.031Z</time></trkpt><trkpt lat="43.6252517" lon="11.7943267"><ele>601.4000000000001</ele><time>2026-04-25T09:25:23.032Z</time></trkpt><trkpt lat="43.6252983" lon="11.7942617"><ele>601.6</ele><time>2026-04-25T09:25:24.027Z</time></trkpt><trkpt lat="43.6253917" lon="11.794155"><ele>601.8000000000001</ele><time>2026-04-25T09:25:26.029Z</time></trkpt><trkpt lat="43.6254717" lon="11.7940633"><ele>602.0</ele><time>2026-04-25T09:25:28.036Z</time></trkpt><trkpt lat="43.6255583" lon="11.793965"><ele>603.1666666666666</ele><time>2026-04-25T09:25:30.032Z</time></trkpt><trkpt lat="43.6256167" lon="11.793905"><ele>604.3333333333333</ele><time>2026-04-25T09:25:31.03Z</time></trkpt><trkpt lat="43.6256683" lon="11.7938517"><ele>605.5</ele><time>2026-04-25T09:25:32.031Z</time></trkpt><trkpt lat="43.6257217" lon="11.793765"><ele>606.6666666666666</ele><time>2026-04-25T09:25:34.038Z</time></trkpt><trkpt lat="43.6257533" lon="11.7936567"><ele>607.8333333333334</ele><time>2026-04-25T09:27:00.026Z</time></trkpt><trkpt lat="43.6258433" lon="11.7935867"><ele>609.0</ele><time>2026-04-25T09:27:02.031Z</time></trkpt><trkpt lat="43.6259533" lon="11.7935283"><ele>609.1666666666666</ele><time>2026-04-25T09:27:04.028Z</time></trkpt><trkpt lat="43.6260617" lon="11.793485"><ele>609.3333333333334</ele><time>2026-04-25T09:27:06.027Z</time></trkpt><trkpt lat="43.6261283" lon="11.7934883"><ele>609.5</ele><time>2026-04-25T09:27:07.028Z</time></trkpt><trkpt lat="43.6262017" lon="11.7935067"><ele>609.6666666666667</ele><time>2026-04-25T09:27:08.03Z</time></trkpt><trkpt lat="43.6262667" lon="11.7935367"><ele>609.8333333333334</ele><time>2026-04-25T09:27:09.031Z</time></trkpt><trkpt lat="43.626345" lon="11.7935667"><ele>610.0</ele><time>2026-04-25T09:27:10.034Z</time></trkpt><trkpt lat="43.6264283" lon="11.7936033"><ele>610.5</ele><time>2026-04-25T09:27:11.027Z</time></trkpt><trkpt lat="43.6265283" lon="11.7936567"><ele>611.0</ele><time>2026-04-25T09:27:12.029Z</time></trkpt><trkpt lat="43.6266483" lon="11.7937333"><ele>611.5</ele><time>2026-04-25T09:27:13.031Z</time></trkpt><trkpt lat="43.6267567" lon="11.7937983"><ele>612.0</ele><time>2026-04-25T09:27:14.03Z</time></trkpt><trkpt lat="43.626865" lon="11.7938583"><ele>612.0</ele><time>2026-04-25T09:27:15.034Z</time></trkpt><trkpt lat="43.6269517" lon="11.7939217"><ele>612.0</ele><time>2026-04-25T09:27:16.032Z</time></trkpt><trkpt lat="43.62702" lon="11.7939733"><ele>612.0</ele><time>2026-04-25T09:27:17.033Z</time></trkpt><trkpt lat="43.6270783" lon="11.7940067"><ele>612.0</ele><time>2026-04-25T09:27:18.033Z</time></trkpt><trkpt lat="43.6271433" lon="11.7940167"><ele>612.0</ele><time>2026-04-25T09:27:19.027Z</time></trkpt><trkpt lat="43.6272133" lon="11.794"><ele>612.0</ele><time>2026-04-25T09:27:20.027Z</time></trkpt><trkpt lat="43.627285" lon="11.7939983"><ele>612.0</ele><time>2026-04-25T09:27:21.032Z</time></trkpt><trkpt lat="43.6273533" lon="11.7940233"><ele>612.5714285714286</ele><time>2026-04-25T09:27:22.032Z</time></trkpt><trkpt lat="43.6274183" lon="11.7940533"><ele>613.1428571428571</ele><time>2026-04-25T09:27:23.029Z</time></trkpt><trkpt lat="43.627485" lon="11.7940617"><ele>613.7142857142858</ele><time>2026-04-25T09:27:24.029Z</time></trkpt><trkpt lat="43.6275483" lon="11.7940567"><ele>614.2857142857142</ele><time>2026-04-25T09:27:25.029Z</time></trkpt><trkpt lat="43.6276183" lon="11.79404"><ele>614.8571428571429</ele><time>2026-04-25T09:27:26.033Z</time></trkpt><trkpt lat="43.6276933" lon="11.7940117"><ele>615.4285714285714</ele><time>2026-04-25T09:27:27.034Z</time></trkpt><trkpt lat="43.62777" lon="11.7939767"><ele>616.0</ele><time>2026-04-25T09:27:28.032Z</time></trkpt><trkpt lat="43.62785" lon="11.793945"><ele>616.0</ele><time>2026-04-25T09:27:29.034Z</time></trkpt><trkpt lat="43.62793" lon="11.7938983"><ele>616.0</ele><time>2026-04-25T09:27:30.038Z</time></trkpt><trkpt lat="43.6280283" lon="11.7938583"><ele>616.0</ele><time>2026-04-25T09:27:31.03Z</time></trkpt><trkpt lat="43.6281283" lon="11.7938367"><ele>616.0</ele><time>2026-04-25T09:27:32.029Z</time></trkpt><trkpt lat="43.6282167" lon="11.7938067"><ele>616.0</ele><time>2026-04-25T09:27:33.032Z</time></trkpt><trkpt lat="43.6283" lon="11.7937767"><ele>616.0</ele><time>2026-04-25T09:27:34.033Z</time></trkpt><trkpt lat="43.6283767" lon="11.7937217"><ele>616.0</ele><time>2026-04-25T09:27:35.029Z</time></trkpt><trkpt lat="43.6284533" lon="11.7936517"><ele>616.0</ele><time>2026-04-25T09:27:36.032Z</time></trkpt><trkpt lat="43.6285333" lon="11.793585"><ele>616.0</ele><time>2026-04-25T09:27:37.026Z</time></trkpt><trkpt lat="43.6286017" lon="11.79354"><ele>616.0</ele><time>2026-04-25T09:27:38.032Z</time></trkpt><trkpt lat="43.6287033" lon="11.7934983"><ele>616.6666666666667</ele><time>2026-04-25T09:27:40.028Z</time></trkpt><trkpt lat="43.6288183" lon="11.7935217"><ele>617.3333333333334</ele><time>2026-04-25T09:27:42.028Z</time></trkpt><trkpt lat="43.6288983" lon="11.793555"><ele>618.0</ele><time>2026-04-25T09:27:43.031Z</time></trkpt><trkpt lat="43.62898" lon="11.7935917"><ele>618.6666666666666</ele><time>2026-04-25T09:27:44.03Z</time></trkpt><trkpt lat="43.6290583" lon="11.7936233"><ele>619.3333333333333</ele><time>2026-04-25T09:27:45.029Z</time></trkpt><trkpt lat="43.6291383" lon="11.793645"><ele>620.0</ele><time>2026-04-25T09:27:46.033Z</time></trkpt><trkpt lat="43.6292333" lon="11.7936433"><ele>620.0</ele><time>2026-04-25T09:27:47.031Z</time></trkpt><trkpt lat="43.62935" lon="11.7936317"><ele>620.0</ele><time>2026-04-25T09:27:48.036Z</time></trkpt><trkpt lat="43.6294683" lon="11.7936117"><ele>620.0</ele><time>2026-04-25T09:27:49.029Z</time></trkpt><trkpt lat="43.6295767" lon="11.7936033"><ele>620.0</ele><time>2026-04-25T09:27:50.033Z</time></trkpt><trkpt lat="43.6296767" lon="11.7936017"><ele>620.0</ele><time>2026-04-25T09:27:51.034Z</time></trkpt><trkpt lat="43.6297583" lon="11.7936117"><ele>622.8333333333333</ele><time>2026-04-25T09:27:52.031Z</time></trkpt><trkpt lat="43.6298283" lon="11.7936483"><ele>625.6666666666666</ele><time>2026-04-25T09:27:53.029Z</time></trkpt><trkpt lat="43.6298783" lon="11.7937017"><ele>628.5</ele><time>2026-04-25T09:27:54.031Z</time></trkpt><trkpt lat="43.6299483" lon="11.793835"><ele>631.3333333333334</ele><time>2026-04-25T09:27:56.03Z</time></trkpt><trkpt lat="43.6300017" lon="11.7938983"><ele>634.1666666666667</ele><time>2026-04-25T09:27:57.031Z</time></trkpt><trkpt lat="43.63005" lon="11.7939817"><ele>637.0</ele><time>2026-04-25T09:27:58.03Z</time></trkpt><trkpt lat="43.6300983" lon="11.7940867"><ele>637.0</ele><time>2026-04-25T09:28:00.028Z</time></trkpt><trkpt lat="43.6300898" lon="11.7939847"><ele>637.0</ele><time>2026-04-25T09:28:07.028Z</time></trkpt><trkpt lat="43.6300726" lon="11.793895"><ele>637.0</ele><time>2026-04-25T09:28:10.104Z</time></trkpt><trkpt lat="43.6299991" lon="11.7938584"><ele>637.0</ele><time>2026-04-25T09:28:11.065Z</time></trkpt><trkpt lat="43.6300616" lon="11.7937939"><ele>637.0</ele><time>2026-04-25T09:28:12.14Z</time></trkpt><trkpt lat="43.6301901" lon="11.7936459"><ele>637.0</ele><time>2026-04-25T09:28:13.041Z</time></trkpt><trkpt lat="43.6302375" lon="11.7935608"><ele>637.0</ele><time>2026-04-25T09:28:14.05Z</time></trkpt><trkpt lat="43.6302617" lon="11.7934129"><ele>637.0</ele><time>2026-04-25T09:28:16.034Z</time></trkpt><trkpt lat="43.6303118" lon="11.793323"><ele>637.0</ele><time>2026-04-25T09:28:18.031Z</time></trkpt><trkpt lat="43.6304172" lon="11.7932413"><ele>637.0</ele><time>2026-04-25T09:28:20.029Z</time></trkpt><trkpt lat="43.6304709" lon="11.7931719"><ele>639.8</ele><time>2026-04-25T09:28:21.03Z</time></trkpt><trkpt lat="43.6305236" lon="11.7930996"><ele>642.6</ele><time>2026-04-25T09:28:22.03Z</time></trkpt><trkpt lat="43.6306044" lon="11.793015"><ele>645.4</ele><time>2026-04-25T09:28:24.032Z</time></trkpt><trkpt lat="43.6306873" lon="11.7929721"><ele>648.1999999999999</ele><time>2026-04-25T09:28:26.027Z</time></trkpt><trkpt lat="43.6307743" lon="11.7928804"><ele>651.0</ele><time>2026-04-25T09:28:28.032Z</time></trkpt><trkpt lat="43.6308267" lon="11.7927433"><ele>654.4</ele><time>2026-04-25T09:28:30.033Z</time></trkpt><trkpt lat="43.6309083" lon="11.79264"><ele>657.8</ele><time>2026-04-25T09:28:32.029Z</time></trkpt><trkpt lat="43.6310233" lon="11.7925683"><ele>661.1999999999999</ele><time>2026-04-25T09:28:34.032Z</time></trkpt><trkpt lat="43.63109" lon="11.7925317"><ele>664.5999999999999</ele><time>2026-04-25T09:28:35.03Z</time></trkpt><trkpt lat="43.6312" lon="11.7924283"><ele>668.0</ele><time>2026-04-25T09:28:37.026Z</time></trkpt><trkpt lat="43.6312517" lon="11.7923667"><ele>668.0</ele><time>2026-04-25T09:28:38.034Z</time></trkpt><trkpt lat="43.6313283" lon="11.7922583"><ele>668.0</ele><time>2026-04-25T09:28:40.039Z</time></trkpt><trkpt lat="43.63139" lon="11.79212"><ele>668.0</ele><time>2026-04-25T09:28:42.029Z</time></trkpt><trkpt lat="43.6314867" lon="11.792055"><ele>668.0</ele><time>2026-04-25T09:28:44.03Z</time></trkpt><trkpt lat="43.6315767" lon="11.7919567"><ele>668.0</ele><time>2026-04-25T09:28:46.033Z</time></trkpt><trkpt lat="43.6316633" lon="11.7917917"><ele>670.3333333333333</ele><time>2026-04-25T09:28:48.032Z</time></trkpt><trkpt lat="43.6317133" lon="11.791725"><ele>672.6666666666666</ele><time>2026-04-25T09:28:49.034Z</time></trkpt><trkpt lat="43.6318083" lon="11.79162"><ele>675.0</ele><time>2026-04-25T09:28:51.035Z</time></trkpt><trkpt lat="43.63185" lon="11.7915383"><ele>677.3333333333334</ele><time>2026-04-25T09:28:52.029Z</time></trkpt><trkpt lat="43.63189" lon="11.791435"><ele>679.6666666666667</ele><time>2026-04-25T09:28:53.034Z</time></trkpt><trkpt lat="43.63193" lon="11.7913483"><ele>682.0</ele><time>2026-04-25T09:28:54.026Z</time></trkpt><trkpt lat="43.6319666" lon="11.7912164"><ele>682.1666666666667</ele><time>2026-04-25T09:28:56.029Z</time></trkpt><trkpt lat="43.6320345" lon="11.7911704"><ele>682.3333333333334</ele><time>2026-04-25T09:29:00.028Z</time></trkpt><trkpt lat="43.632105" lon="11.7911817"><ele>682.5</ele><time>2026-04-25T09:29:02.029Z</time></trkpt><trkpt lat="43.6321667" lon="11.7912133"><ele>682.6666666666666</ele><time>2026-04-25T09:29:06.034Z</time></trkpt><trkpt lat="43.63226" lon="11.7912033"><ele>682.8333333333333</ele><time>2026-04-25T09:29:11.029Z</time></trkpt><trkpt lat="43.6323733" lon="11.79118"><ele>683.0</ele><time>2026-04-25T09:29:13.028Z</time></trkpt><trkpt lat="43.6324383" lon="11.791175"><ele>683.0</ele><time>2026-04-25T09:29:14.039Z</time></trkpt><trkpt lat="43.632505" lon="11.7911867"><ele>683.0</ele><time>2026-04-25T09:29:15.042Z</time></trkpt><trkpt lat="43.632575" lon="11.7912133"><ele>683.0</ele><time>2026-04-25T09:29:16.032Z</time></trkpt><trkpt lat="43.6326467" lon="11.7912517"><ele>683.0</ele><time>2026-04-25T09:29:17.026Z</time></trkpt><trkpt lat="43.63271" lon="11.7912767"><ele>683.0</ele><time>2026-04-25T09:29:18.028Z</time></trkpt><trkpt lat="43.632785" lon="11.7912433"><ele>683.0</ele><time>2026-04-25T09:29:20.035Z</time></trkpt><trkpt lat="43.6328417" lon="11.79107"><ele>683.5</ele><time>2026-04-25T09:29:22.033Z</time></trkpt><trkpt lat="43.6328867" lon="11.7909717"><ele>684.0</ele><time>2026-04-25T09:29:23.031Z</time></trkpt><trkpt lat="43.6329467" lon="11.790885"><ele>684.5</ele><time>2026-04-25T09:29:24.032Z</time></trkpt><trkpt lat="43.63301" lon="11.7908217"><ele>685.0</ele><time>2026-04-25T09:29:25.033Z</time></trkpt><trkpt lat="43.633115" lon="11.7908167"><ele>685.5</ele><time>2026-04-25T09:29:27.036Z</time></trkpt><trkpt lat="43.6331817" lon="11.7908583"><ele>686.0</ele><time>2026-04-25T09:29:28.029Z</time></trkpt><trkpt lat="43.633255" lon="11.790895"><ele>686.0</ele><time>2026-04-25T09:29:29.032Z</time></trkpt><trkpt lat="43.633325" lon="11.7909267"><ele>686.0</ele><time>2026-04-25T09:29:30.029Z</time></trkpt><trkpt lat="43.633395" lon="11.7909633"><ele>686.0</ele><time>2026-04-25T09:29:31.035Z</time></trkpt><trkpt lat="43.6334667" lon="11.7909883"><ele>686.0</ele><time>2026-04-25T09:29:32.027Z</time></trkpt><trkpt lat="43.6335683" lon="11.7910383"><ele>686.0</ele><time>2026-04-25T09:29:34.052Z</time></trkpt><trkpt lat="43.6336383" lon="11.79113"><ele>686.0</ele><time>2026-04-25T09:29:36.031Z</time></trkpt><trkpt lat="43.6337133" lon="11.79118"><ele>684.6666666666666</ele><time>2026-04-25T09:29:38.032Z</time></trkpt><trkpt lat="43.6337983" lon="11.7911967"><ele>683.3333333333333</ele><time>2026-04-25T09:29:40.031Z</time></trkpt><trkpt lat="43.6338917" lon="11.7912417"><ele>682.0</ele><time>2026-04-25T09:29:42.031Z</time></trkpt><trkpt lat="43.6339883" lon="11.7912617"><ele>680.6666666666666</ele><time>2026-04-25T09:29:44.03Z</time></trkpt><trkpt lat="43.6340617" lon="11.791235"><ele>679.3333333333334</ele><time>2026-04-25T09:29:45.04Z</time></trkpt><trkpt lat="43.6341383" lon="11.7911933"><ele>678.0</ele><time>2026-04-25T09:29:46.035Z</time></trkpt><trkpt lat="43.6342133" lon="11.7911567"><ele>678.0</ele><time>2026-04-25T09:29:47.03Z</time></trkpt><trkpt lat="43.6342833" lon="11.7911183"><ele>678.0</ele><time>2026-04-25T09:29:48.033Z</time></trkpt><trkpt lat="43.6343717" lon="11.7911183"><ele>678.0</ele><time>2026-04-25T09:29:50.033Z</time></trkpt><trkpt lat="43.63447" lon="11.7910983"><ele>678.0</ele><time>2026-04-25T09:29:52.031Z</time></trkpt><trkpt lat="43.6345917" lon="11.7910417"><ele>678.0</ele><time>2026-04-25T09:29:54.031Z</time></trkpt><trkpt lat="43.6346783" lon="11.7909917"><ele>679.1666666666666</ele><time>2026-04-25T09:29:55.032Z</time></trkpt><trkpt lat="43.6347517" lon="11.7909433"><ele>680.3333333333334</ele><time>2026-04-25T09:29:56.027Z</time></trkpt><trkpt lat="43.6348133" lon="11.7908733"><ele>681.5</ele><time>2026-04-25T09:29:57.026Z</time></trkpt><trkpt lat="43.6348467" lon="11.7907983"><ele>682.6666666666667</ele><time>2026-04-25T09:30:00.032Z</time></trkpt><trkpt lat="43.6349083" lon="11.7907217"><ele>683.8333333333334</ele><time>2026-04-25T09:30:03.028Z</time></trkpt><trkpt lat="43.6349617" lon="11.79065"><ele>685.0</ele><time>2026-04-25T09:30:05.032Z</time></trkpt><trkpt lat="43.6350317" lon="11.7905633"><ele>685.0</ele><time>2026-04-25T09:30:07.028Z</time></trkpt><trkpt lat="43.63512" lon="11.7904133"><ele>685.0</ele><time>2026-04-25T09:30:09.032Z</time></trkpt><trkpt lat="43.6351717" lon="11.7903083"><ele>685.0</ele><time>2026-04-25T09:30:10.041Z</time></trkpt><trkpt lat="43.6352333" lon="11.7902017"><ele>685.0</ele><time>2026-04-25T09:30:11.031Z</time></trkpt><trkpt lat="43.635295" lon="11.7900817"><ele>685.0</ele><time>2026-04-25T09:30:12.032Z</time></trkpt><trkpt lat="43.6353533" lon="11.78996"><ele>683.0</ele><time>2026-04-25T09:30:13.031Z</time></trkpt><trkpt lat="43.635405" lon="11.7898367"><ele>681.0</ele><time>2026-04-25T09:30:14.034Z</time></trkpt><trkpt lat="43.6354483" lon="11.789745"><ele>679.0</ele><time>2026-04-25T09:30:15.043Z</time></trkpt><trkpt lat="43.6354933" lon="11.7896733"><ele>677.0</ele><time>2026-04-25T09:30:16.032Z</time></trkpt><trkpt lat="43.6355383" lon="11.7895833"><ele>675.0</ele><time>2026-04-25T09:30:17.036Z</time></trkpt><trkpt lat="43.6355933" lon="11.7894867"><ele>673.0</ele><time>2026-04-25T09:30:18.035Z</time></trkpt><trkpt lat="43.63565" lon="11.78939"><ele>674.0</ele><time>2026-04-25T09:30:19.03Z</time></trkpt><trkpt lat="43.635705" lon="11.7892917"><ele>675.0</ele><time>2026-04-25T09:30:20.05Z</time></trkpt><trkpt lat="43.6357617" lon="11.78919"><ele>676.0</ele><time>2026-04-25T09:30:21.029Z</time></trkpt><trkpt lat="43.63582" lon="11.7890883"><ele>677.0</ele><time>2026-04-25T09:30:22.056Z</time></trkpt><trkpt lat="43.6358883" lon="11.7889783"><ele>678.0</ele><time>2026-04-25T09:30:23.027Z</time></trkpt><trkpt lat="43.6359567" lon="11.788865"><ele>678.0</ele><time>2026-04-25T09:30:24.041Z</time></trkpt><trkpt lat="43.636015" lon="11.7887533"><ele>678.0</ele><time>2026-04-25T09:30:25.031Z</time></trkpt><trkpt lat="43.6360683" lon="11.78864"><ele>678.0</ele><time>2026-04-25T09:30:26.032Z</time></trkpt><trkpt lat="43.6361167" lon="11.788525"><ele>678.0</ele><time>2026-04-25T09:30:27.032Z</time></trkpt><trkpt lat="43.63617" lon="11.7884017"><ele>678.0</ele><time>2026-04-25T09:30:28.03Z</time></trkpt><trkpt lat="43.63622" lon="11.7882683"><ele>677.0</ele><time>2026-04-25T09:30:29.029Z</time></trkpt><trkpt lat="43.6362667" lon="11.7881333"><ele>676.0</ele><time>2026-04-25T09:30:30.034Z</time></trkpt><trkpt lat="43.63631" lon="11.7879933"><ele>675.0</ele><time>2026-04-25T09:30:31.029Z</time></trkpt><trkpt lat="43.6363483" lon="11.7878633"><ele>674.0</ele><time>2026-04-25T09:30:32.028Z</time></trkpt><trkpt lat="43.6363817" lon="11.7877417"><ele>673.0</ele><time>2026-04-25T09:30:33.027Z</time></trkpt><trkpt lat="43.636425" lon="11.787635"><ele>672.5999999999999</ele><time>2026-04-25T09:30:34.031Z</time></trkpt><trkpt lat="43.6364783" lon="11.78754"><ele>672.1999999999999</ele><time>2026-04-25T09:30:35.027Z</time></trkpt><trkpt lat="43.6365233" lon="11.7874367"><ele>671.8</ele><time>2026-04-25T09:30:36.031Z</time></trkpt><trkpt lat="43.6365533" lon="11.7873067"><ele>671.4</ele><time>2026-04-25T09:30:37.031Z</time></trkpt><trkpt lat="43.636575" lon="11.7871433"><ele>671.0</ele><time>2026-04-25T09:30:38.026Z</time></trkpt><trkpt lat="43.6366033" lon="11.78697"><ele>670.5999999999999</ele><time>2026-04-25T09:30:39.029Z</time></trkpt><trkpt lat="43.6366333" lon="11.7868117"><ele>670.2</ele><time>2026-04-25T09:30:40.026Z</time></trkpt><trkpt lat="43.6366617" lon="11.7866533"><ele>669.8</ele><time>2026-04-25T09:30:41.031Z</time></trkpt><trkpt lat="43.63669" lon="11.7865117"><ele>669.4000000000001</ele><time>2026-04-25T09:30:42.031Z</time></trkpt><trkpt lat="43.63672" lon="11.786385"><ele>669.0</ele><time>2026-04-25T09:30:43.032Z</time></trkpt><trkpt lat="43.6367533" lon="11.78627"><ele>669.0</ele><time>2026-04-25T09:30:44.028Z</time></trkpt><trkpt lat="43.6367917" lon="11.78616"><ele>669.0</ele><time>2026-04-25T09:30:45.025Z</time></trkpt><trkpt lat="43.63683" lon="11.7860517"><ele>669.0</ele><time>2026-04-25T09:30:46.03Z</time></trkpt><trkpt lat="43.6368717" lon="11.7859333"><ele>669.0</ele><time>2026-04-25T09:30:47.034Z</time></trkpt><trkpt lat="43.6369233" lon="11.78583"><ele>669.0</ele><time>2026-04-25T09:30:48.029Z</time></trkpt><trkpt lat="43.6369817" lon="11.78575"><ele>669.0</ele><time>2026-04-25T09:30:49.031Z</time></trkpt><trkpt lat="43.6370417" lon="11.78567"><ele>668.0</ele><time>2026-04-25T09:30:50.029Z</time></trkpt><trkpt lat="43.6370983" lon="11.7855783"><ele>667.0</ele><time>2026-04-25T09:30:51.031Z</time></trkpt><trkpt lat="43.6371483" lon="11.7854917"><ele>666.0</ele><time>2026-04-25T09:30:52.029Z</time></trkpt><trkpt lat="43.6371883" lon="11.785405"><ele>665.0</ele><time>2026-04-25T09:30:53.035Z</time></trkpt><trkpt lat="43.637235" lon="11.7852867"><ele>664.0</ele><time>2026-04-25T09:30:55.029Z</time></trkpt><trkpt lat="43.63724" lon="11.7851817"><ele>663.0</ele><time>2026-04-25T09:30:58.027Z</time></trkpt><trkpt lat="43.6372683" lon="11.7850767"><ele>660.8333333333334</ele><time>2026-04-25T09:31:01.028Z</time></trkpt><trkpt lat="43.6372883" lon="11.78495"><ele>658.6666666666666</ele><time>2026-04-25T09:31:04.031Z</time></trkpt><trkpt lat="43.6373" lon="11.7848467"><ele>656.5</ele><time>2026-04-25T09:31:07.029Z</time></trkpt><trkpt lat="43.6373433" lon="11.7847467"><ele>654.3333333333333</ele><time>2026-04-25T09:31:10.038Z</time></trkpt><trkpt lat="43.63742" lon="11.7846583"><ele>652.1666666666666</ele><time>2026-04-25T09:31:13.03Z</time></trkpt><trkpt lat="43.637495" lon="11.7846083"><ele>650.0</ele><time>2026-04-25T09:31:15.029Z</time></trkpt><trkpt lat="43.637575" lon="11.7845683"><ele>650.0</ele><time>2026-04-25T09:31:17.034Z</time></trkpt><trkpt lat="43.6376583" lon="11.7845383"><ele>650.0</ele><time>2026-04-25T09:31:19.026Z</time></trkpt><trkpt lat="43.6377467" lon="11.784505"><ele>650.0</ele><time>2026-04-25T09:31:21.031Z</time></trkpt><trkpt lat="43.6378467" lon="11.7844267"><ele>650.0</ele><time>2026-04-25T09:31:23.03Z</time></trkpt><trkpt lat="43.6378917" lon="11.7843617"><ele>650.0</ele><time>2026-04-25T09:31:24.031Z</time></trkpt><trkpt lat="43.6379333" lon="11.7842733"><ele>650.0</ele><time>2026-04-25T09:31:25.028Z</time></trkpt><trkpt lat="43.637975" lon="11.7841733"><ele>647.8</ele><time>2026-04-25T09:31:26.029Z</time></trkpt><trkpt lat="43.63802" lon="11.784065"><ele>645.6</ele><time>2026-04-25T09:31:27.028Z</time></trkpt><trkpt lat="43.6380633" lon="11.7839433"><ele>643.4</ele><time>2026-04-25T09:31:28.026Z</time></trkpt><trkpt lat="43.638135" lon="11.7838333"><ele>641.2</ele><time>2026-04-25T09:31:29.03Z</time></trkpt><trkpt lat="43.6382133" lon="11.7837317"><ele>639.0</ele><time>2026-04-25T09:31:30.026Z</time></trkpt><trkpt lat="43.63828" lon="11.7836267"><ele>639.0</ele><time>2026-04-25T09:31:31.031Z</time></trkpt><trkpt lat="43.6383617" lon="11.7835567"><ele>639.0</ele><time>2026-04-25T09:31:32.032Z</time></trkpt><trkpt lat="43.638465" lon="11.783525"><ele>639.0</ele><time>2026-04-25T09:31:33.032Z</time></trkpt><trkpt lat="43.6385717" lon="11.7834867"><ele>639.0</ele><time>2026-04-25T09:31:34.03Z</time></trkpt><trkpt lat="43.63869" lon="11.783465"><ele>639.0</ele><time>2026-04-25T09:31:35.029Z</time></trkpt><trkpt lat="43.6388083" lon="11.78344"><ele>640.25</ele><time>2026-04-25T09:31:36.032Z</time></trkpt><trkpt lat="43.638935" lon="11.7833717"><ele>641.5</ele><time>2026-04-25T09:31:37.032Z</time></trkpt><trkpt lat="43.6390533" lon="11.7833"><ele>642.75</ele><time>2026-04-25T09:31:38.03Z</time></trkpt><trkpt lat="43.6391617" lon="11.7832483"><ele>644.0</ele><time>2026-04-25T09:31:39.032Z</time></trkpt><trkpt lat="43.6392633" lon="11.7832267"><ele>644.0</ele><time>2026-04-25T09:31:40.029Z</time></trkpt><trkpt lat="43.63936" lon="11.7832317"><ele>644.0</ele><time>2026-04-25T09:31:41.03Z</time></trkpt><trkpt lat="43.6394567" lon="11.7831967"><ele>644.0</ele><time>2026-04-25T09:31:42.026Z</time></trkpt><trkpt lat="43.6395633" lon="11.7831317"><ele>644.0</ele><time>2026-04-25T09:31:43.027Z</time></trkpt><trkpt lat="43.6396667" lon="11.7830433"><ele>644.0</ele><time>2026-04-25T09:31:44.029Z</time></trkpt><trkpt lat="43.639775" lon="11.7829733"><ele>643.6</ele><time>2026-04-25T09:31:45.029Z</time></trkpt><trkpt lat="43.6398767" lon="11.7829117"><ele>643.2</ele><time>2026-04-25T09:31:46.029Z</time></trkpt><trkpt lat="43.63997" lon="11.78287"><ele>642.8000000000001</ele><time>2026-04-25T09:31:47.029Z</time></trkpt><trkpt lat="43.6400317" lon="11.78278"><ele>642.4000000000001</ele><time>2026-04-25T09:31:48.032Z</time></trkpt><trkpt lat="43.6400867" lon="11.7826967"><ele>642.0</ele><time>2026-04-25T09:31:49.04Z</time></trkpt><trkpt lat="43.64012" lon="11.7825717"><ele>643.2</ele><time>2026-04-25T09:31:50.031Z</time></trkpt><trkpt lat="43.6401717" lon="11.7824967"><ele>644.4000000000001</ele><time>2026-04-25T09:31:51.031Z</time></trkpt><trkpt lat="43.6402433" lon="11.782405"><ele>645.5999999999999</ele><time>2026-04-25T09:31:52.028Z</time></trkpt><trkpt lat="43.6403283" lon="11.7823133"><ele>646.8</ele><time>2026-04-25T09:31:53.03Z</time></trkpt><trkpt lat="43.64041" lon="11.7822133"><ele>648.0</ele><time>2026-04-25T09:31:54.027Z</time></trkpt><trkpt lat="43.6404633" lon="11.7820517"><ele>649.5</ele><time>2026-04-25T09:31:55.032Z</time></trkpt><trkpt lat="43.6405167" lon="11.7818867"><ele>651.0</ele><time>2026-04-25T09:31:56.032Z</time></trkpt><trkpt lat="43.6405833" lon="11.7817367"><ele>652.5</ele><time>2026-04-25T09:31:57.028Z</time></trkpt><trkpt lat="43.6406483" lon="11.7815783"><ele>654.0</ele><time>2026-04-25T09:31:58.03Z</time></trkpt><trkpt lat="43.6407" lon="11.781415"><ele>654.75</ele><time>2026-04-25T09:31:59.03Z</time></trkpt><trkpt lat="43.6407483" lon="11.781265"><ele>655.5</ele><time>2026-04-25T09:32:00.034Z</time></trkpt><trkpt lat="43.6408017" lon="11.781125"><ele>656.25</ele><time>2026-04-25T09:32:01.03Z</time></trkpt><trkpt lat="43.64087" lon="11.7809933"><ele>657.0</ele><time>2026-04-25T09:32:02.031Z</time></trkpt><trkpt lat="43.640945" lon="11.7808617"><ele>657.0</ele><time>2026-04-25T09:32:03.033Z</time></trkpt><trkpt lat="43.6410183" lon="11.7807217"><ele>657.0</ele><time>2026-04-25T09:32:04.033Z</time></trkpt><trkpt lat="43.641065" lon="11.7805583"><ele>657.0</ele><time>2026-04-25T09:32:05.029Z</time></trkpt><trkpt lat="43.641135" lon="11.780425"><ele>657.0</ele><time>2026-04-25T09:32:06.031Z</time></trkpt><trkpt lat="43.6412033" lon="11.780285"><ele>659.8</ele><time>2026-04-25T09:32:07.03Z</time></trkpt><trkpt lat="43.641275" lon="11.7801517"><ele>662.6</ele><time>2026-04-25T09:32:08.028Z</time></trkpt><trkpt lat="43.64135" lon="11.7800467"><ele>665.4</ele><time>2026-04-25T09:32:09.028Z</time></trkpt><trkpt lat="43.64144" lon="11.7799717"><ele>668.1999999999999</ele><time>2026-04-25T09:32:10.031Z</time></trkpt><trkpt lat="43.64154" lon="11.779925"><ele>671.0</ele><time>2026-04-25T09:32:11.029Z</time></trkpt><trkpt lat="43.6416567" lon="11.7799133"><ele>671.0</ele><time>2026-04-25T09:32:12.033Z</time></trkpt><trkpt lat="43.641785" lon="11.7799033"><ele>671.0</ele><time>2026-04-25T09:32:13.026Z</time></trkpt><trkpt lat="43.64191" lon="11.7798817"><ele>671.0</ele><time>2026-04-25T09:32:14.033Z</time></trkpt><trkpt lat="43.6420367" lon="11.779875"><ele>671.0</ele><time>2026-04-25T09:32:15.028Z</time></trkpt><trkpt lat="43.64215" lon="11.7798817"><ele>670.6666666666666</ele><time>2026-04-25T09:32:16.028Z</time></trkpt><trkpt lat="43.642245" lon="11.7798783"><ele>670.3333333333333</ele><time>2026-04-25T09:32:17.026Z</time></trkpt><trkpt lat="43.6423233" lon="11.7798567"><ele>670.0</ele><time>2026-04-25T09:32:18.032Z</time></trkpt><trkpt lat="43.6423883" lon="11.7798083"><ele>669.6666666666666</ele><time>2026-04-25T09:32:19.023Z</time></trkpt><trkpt lat="43.6424467" lon="11.7797433"><ele>669.3333333333334</ele><time>2026-04-25T09:32:20.03Z</time></trkpt><trkpt lat="43.64247" lon="11.77963"><ele>669.0</ele><time>2026-04-25T09:32:21.03Z</time></trkpt><trkpt lat="43.642475" lon="11.77952"><ele>669.0</ele><time>2026-04-25T09:32:22.028Z</time></trkpt><trkpt lat="43.6424717" lon="11.77941"><ele>669.0</ele><time>2026-04-25T09:32:23.031Z</time></trkpt><trkpt lat="43.6424633" lon="11.7793"><ele>669.0</ele><time>2026-04-25T09:32:24.027Z</time></trkpt><trkpt lat="43.6425233" lon="11.7791883"><ele>669.0</ele><time>2026-04-25T09:32:26.027Z</time></trkpt><trkpt lat="43.6425733" lon="11.77913"><ele>669.0</ele><time>2026-04-25T09:32:27.048Z</time></trkpt><trkpt lat="43.64262" lon="11.77904"><ele>669.0</ele><time>2026-04-25T09:32:28.026Z</time></trkpt><trkpt lat="43.642655" lon="11.77894"><ele>668.6</ele><time>2026-04-25T09:32:29.027Z</time></trkpt><trkpt lat="43.6426833" lon="11.77885"><ele>668.2</ele><time>2026-04-25T09:32:30.025Z</time></trkpt><trkpt lat="43.6427783" lon="11.77881"><ele>667.8000000000001</ele><time>2026-04-25T09:32:32.033Z</time></trkpt><trkpt lat="43.6428733" lon="11.778825"><ele>667.4000000000001</ele><time>2026-04-25T09:32:34.047Z</time></trkpt><trkpt lat="43.642965" lon="11.7787967"><ele>667.0</ele><time>2026-04-25T09:32:37.028Z</time></trkpt><trkpt lat="43.64305" lon="11.7787033"><ele>667.0</ele><time>2026-04-25T09:32:39.031Z</time></trkpt><trkpt lat="43.643135" lon="11.77859"><ele>667.0</ele><time>2026-04-25T09:32:41.035Z</time></trkpt><trkpt lat="43.6431933" lon="11.7784567"><ele>667.0</ele><time>2026-04-25T09:32:43.044Z</time></trkpt><trkpt lat="43.643245" lon="11.7783283"><ele>667.0</ele><time>2026-04-25T09:32:45.029Z</time></trkpt><trkpt lat="43.6433067" lon="11.7782167"><ele>667.0</ele><time>2026-04-25T09:32:47.026Z</time></trkpt><trkpt lat="43.6433783" lon="11.7781283"><ele>668.0</ele><time>2026-04-25T09:32:49.03Z</time></trkpt><trkpt lat="43.6435" lon="11.7780533"><ele>669.0</ele><time>2026-04-25T09:32:51.032Z</time></trkpt><trkpt lat="43.6435783" lon="11.7779967"><ele>670.0</ele><time>2026-04-25T09:32:52.032Z</time></trkpt><trkpt lat="43.64366" lon="11.7779283"><ele>671.0</ele><time>2026-04-25T09:32:53.029Z</time></trkpt><trkpt lat="43.6437433" lon="11.777865"><ele>672.0</ele><time>2026-04-25T09:32:54.034Z</time></trkpt><trkpt lat="43.6438233" lon="11.7778067"><ele>672.3333333333334</ele><time>2026-04-25T09:32:55.03Z</time></trkpt><trkpt lat="43.6439" lon="11.7777417"><ele>672.6666666666666</ele><time>2026-04-25T09:32:56.026Z</time></trkpt><trkpt lat="43.6439683" lon="11.7776717"><ele>673.0</ele><time>2026-04-25T09:32:57.033Z</time></trkpt><trkpt lat="43.6440283" lon="11.7775983"><ele>673.3333333333333</ele><time>2026-04-25T09:32:58.028Z</time></trkpt><trkpt lat="43.6440833" lon="11.777515"><ele>673.6666666666666</ele><time>2026-04-25T09:32:59.036Z</time></trkpt><trkpt lat="43.64413" lon="11.777425"><ele>674.0</ele><time>2026-04-25T09:33:00.027Z</time></trkpt><trkpt lat="43.64418" lon="11.777335"><ele>676.5</ele><time>2026-04-25T09:33:01.026Z</time></trkpt><trkpt lat="43.64423" lon="11.7772533"><ele>679.0</ele><time>2026-04-25T09:33:02.031Z</time></trkpt><trkpt lat="43.6442617" lon="11.7771567"><ele>681.5</ele><time>2026-04-25T09:33:03.034Z</time></trkpt><trkpt lat="43.6442817" lon="11.7770567"><ele>684.0</ele><time>2026-04-25T09:33:04.034Z</time></trkpt><trkpt lat="43.6443017" lon="11.7769567"><ele>686.5</ele><time>2026-04-25T09:33:05.03Z</time></trkpt><trkpt lat="43.64432" lon="11.7768467"><ele>689.0</ele><time>2026-04-25T09:33:06.027Z</time></trkpt><trkpt lat="43.6443317" lon="11.77673"><ele>690.8000000000001</ele><time>2026-04-25T09:33:07.033Z</time></trkpt><trkpt lat="43.6443433" lon="11.7766033"><ele>692.6</ele><time>2026-04-25T09:33:08.04Z</time></trkpt><trkpt lat="43.6443681" lon="11.7764785"><ele>694.4</ele><time>2026-04-25T09:33:09.035Z</time></trkpt><trkpt lat="43.6444124" lon="11.7763558"><ele>696.2</ele><time>2026-04-25T09:33:10.029Z</time></trkpt><trkpt lat="43.6444701" lon="11.7762298"><ele>698.0</ele><time>2026-04-25T09:33:11.032Z</time></trkpt><trkpt lat="43.6445345" lon="11.7760996"><ele>703.25</ele><time>2026-04-25T09:33:12.034Z</time></trkpt><trkpt lat="43.64461" lon="11.7759738"><ele>708.5</ele><time>2026-04-25T09:33:13.028Z</time></trkpt><trkpt lat="43.6446974" lon="11.775862"><ele>713.75</ele><time>2026-04-25T09:33:14.025Z</time></trkpt><trkpt lat="43.6447872" lon="11.775768"><ele>719.0</ele><time>2026-04-25T09:33:15.034Z</time></trkpt><trkpt lat="43.6448841" lon="11.7756952"><ele>719.0</ele><time>2026-04-25T09:33:16.028Z</time></trkpt><trkpt lat="43.6449896" lon="11.7756413"><ele>719.0</ele><time>2026-04-25T09:33:17.03Z</time></trkpt><trkpt lat="43.6450903" lon="11.7755864"><ele>719.0</ele><time>2026-04-25T09:33:18.028Z</time></trkpt><trkpt lat="43.6451813" lon="11.7755319"><ele>719.0</ele><time>2026-04-25T09:33:19.033Z</time></trkpt><trkpt lat="43.6452466" lon="11.775462"><ele>719.0</ele><time>2026-04-25T09:33:20.033Z</time></trkpt><trkpt lat="43.645295" lon="11.7753629"><ele>720.0</ele><time>2026-04-25T09:33:21.025Z</time></trkpt><trkpt lat="43.6453383" lon="11.7752393"><ele>721.0</ele><time>2026-04-25T09:33:22.026Z</time></trkpt><trkpt lat="43.6453828" lon="11.7750942"><ele>722.0</ele><time>2026-04-25T09:33:23.024Z</time></trkpt><trkpt lat="43.645423" lon="11.7749313"><ele>723.0</ele><time>2026-04-25T09:33:24.031Z</time></trkpt><trkpt lat="43.6454521" lon="11.7747723"><ele>725.2</ele><time>2026-04-25T09:33:25.026Z</time></trkpt><trkpt lat="43.6454729" lon="11.7746315"><ele>727.4</ele><time>2026-04-25T09:33:26.029Z</time></trkpt><trkpt lat="43.6454879" lon="11.7745067"><ele>729.6</ele><time>2026-04-25T09:33:27.028Z</time></trkpt><trkpt lat="43.6454961" lon="11.7743846"><ele>731.8000000000001</ele><time>2026-04-25T09:33:28.044Z</time></trkpt><trkpt lat="43.6454993" lon="11.7742539"><ele>734.0</ele><time>2026-04-25T09:33:29.029Z</time></trkpt><trkpt lat="43.645503" lon="11.7741104"><ele>734.4000000000001</ele><time>2026-04-25T09:33:30.026Z</time></trkpt><trkpt lat="43.6455109" lon="11.7739708"><ele>734.8</ele><time>2026-04-25T09:33:31.03Z</time></trkpt><trkpt lat="43.6455237" lon="11.7738162"><ele>735.2</ele><time>2026-04-25T09:33:32.026Z</time></trkpt><trkpt lat="43.6455364" lon="11.7736757"><ele>735.5999999999999</ele><time>2026-04-25T09:33:33.03Z</time></trkpt><trkpt lat="43.6455523" lon="11.7735398"><ele>736.0</ele><time>2026-04-25T09:33:34.028Z</time></trkpt><trkpt lat="43.6455685" lon="11.7734085"><ele>736.0</ele><time>2026-04-25T09:33:35.03Z</time></trkpt><trkpt lat="43.645573" lon="11.7732774"><ele>736.0</ele><time>2026-04-25T09:33:36.029Z</time></trkpt><trkpt lat="43.6455738" lon="11.7731486"><ele>736.0</ele><time>2026-04-25T09:33:37.028Z</time></trkpt><trkpt lat="43.6455704" lon="11.7730258"><ele>736.0</ele><time>2026-04-25T09:33:38.028Z</time></trkpt><trkpt lat="43.6455579" lon="11.7729159"><ele>736.0</ele><time>2026-04-25T09:33:39.031Z</time></trkpt><trkpt lat="43.6455356" lon="11.7728151"><ele>736.0</ele><time>2026-04-25T09:33:40.028Z</time></trkpt><trkpt lat="43.6455062" lon="11.7727272"><ele>736.4</ele><time>2026-04-25T09:33:41.027Z</time></trkpt><trkpt lat="43.6454883" lon="11.7725417"><ele>736.8</ele><time>2026-04-25T09:33:43.032Z</time></trkpt><trkpt lat="43.6455017" lon="11.77243"><ele>737.1999999999999</ele><time>2026-04-25T09:33:44.028Z</time></trkpt><trkpt lat="43.6455367" lon="11.77232"><ele>737.5999999999999</ele><time>2026-04-25T09:33:45.029Z</time></trkpt><trkpt lat="43.64559" lon="11.7722017"><ele>738.0</ele><time>2026-04-25T09:33:46.029Z</time></trkpt><trkpt lat="43.645635" lon="11.7720917"><ele>738.0</ele><time>2026-04-25T09:33:47.03Z</time></trkpt><trkpt lat="43.64567" lon="11.7719667"><ele>738.0</ele><time>2026-04-25T09:33:48.027Z</time></trkpt><trkpt lat="43.6457" lon="11.77182"><ele>738.0</ele><time>2026-04-25T09:33:49.03Z</time></trkpt><trkpt lat="43.6457333" lon="11.7716717"><ele>738.0</ele><time>2026-04-25T09:33:50.028Z</time></trkpt><trkpt lat="43.6457733" lon="11.771525"><ele>738.0</ele><time>2026-04-25T09:33:51.032Z</time></trkpt><trkpt lat="43.64581" lon="11.7713867"><ele>739.3333333333334</ele><time>2026-04-25T09:33:52.024Z</time></trkpt><trkpt lat="43.645835" lon="11.7712733"><ele>740.6666666666666</ele><time>2026-04-25T09:33:53.029Z</time></trkpt><trkpt lat="43.6458567" lon="11.7711833"><ele>742.0</ele><time>2026-04-25T09:33:54.027Z</time></trkpt><trkpt lat="43.6458617" lon="11.7710917"><ele>743.3333333333333</ele><time>2026-04-25T09:33:55.033Z</time></trkpt><trkpt lat="43.64584" lon="11.77101"><ele>744.6666666666666</ele><time>2026-04-25T09:33:56.028Z</time></trkpt><trkpt lat="43.6458083" lon="11.770845"><ele>746.0</ele><time>2026-04-25T09:33:58.031Z</time></trkpt><trkpt lat="43.645805" lon="11.7706833"><ele>747.8333333333333</ele><time>2026-04-25T09:34:00.027Z</time></trkpt><trkpt lat="43.645815" lon="11.7705883"><ele>749.6666666666666</ele><time>2026-04-25T09:34:01.034Z</time></trkpt><trkpt lat="43.6458267" lon="11.7705"><ele>751.5</ele><time>2026-04-25T09:34:02.026Z</time></trkpt><trkpt lat="43.6458383" lon="11.7704067"><ele>753.3333333333334</ele><time>2026-04-25T09:34:03.032Z</time></trkpt><trkpt lat="43.6458933" lon="11.770265"><ele>755.1666666666667</ele><time>2026-04-25T09:34:05.03Z</time></trkpt><trkpt lat="43.6459367" lon="11.7701867"><ele>757.0</ele><time>2026-04-25T09:34:06.026Z</time></trkpt><trkpt lat="43.64599" lon="11.7701083"><ele>756.8333333333334</ele><time>2026-04-25T09:34:07.03Z</time></trkpt><trkpt lat="43.6460367" lon="11.770035"><ele>756.6666666666667</ele><time>2026-04-25T09:34:08.029Z</time></trkpt><trkpt lat="43.6460817" lon="11.7699683"><ele>756.5</ele><time>2026-04-25T09:34:09.044Z</time></trkpt><trkpt lat="43.6461667" lon="11.7698683"><ele>756.3333333333334</ele><time>2026-04-25T09:34:11.029Z</time></trkpt><trkpt lat="43.646205" lon="11.7697067"><ele>756.1666666666666</ele><time>2026-04-25T09:34:13.027Z</time></trkpt><trkpt lat="43.6462033" lon="11.769605"><ele>756.0</ele><time>2026-04-25T09:34:14.034Z</time></trkpt><trkpt lat="43.6461883" lon="11.7694933"><ele>756.0</ele><time>2026-04-25T09:34:15.034Z</time></trkpt><trkpt lat="43.6461633" lon="11.7693917"><ele>756.0</ele><time>2026-04-25T09:34:16.033Z</time></trkpt><trkpt lat="43.6461533" lon="11.7692867"><ele>756.0</ele><time>2026-04-25T09:34:17.029Z</time></trkpt><trkpt lat="43.6461583" lon="11.769195"><ele>756.0</ele><time>2026-04-25T09:34:18.03Z</time></trkpt><trkpt lat="43.646175" lon="11.7690617"><ele>756.0</ele><time>2026-04-25T09:34:20.026Z</time></trkpt><trkpt lat="43.64619" lon="11.7689417"><ele>756.0</ele><time>2026-04-25T09:34:22.028Z</time></trkpt><trkpt lat="43.6462167" lon="11.7688133"><ele>756.0</ele><time>2026-04-25T09:34:24.036Z</time></trkpt><trkpt lat="43.6462167" lon="11.7687083"><ele>756.0</ele><time>2026-04-25T09:34:25.031Z</time></trkpt><trkpt lat="43.6461967" lon="11.7685833"><ele>756.0</ele><time>2026-04-25T09:34:26.032Z</time></trkpt><trkpt lat="43.646175" lon="11.76847"><ele>756.0</ele><time>2026-04-25T09:34:27.029Z</time></trkpt><trkpt lat="43.646145" lon="11.7683633"><ele>756.0</ele><time>2026-04-25T09:34:28.031Z</time></trkpt><trkpt lat="43.6461283" lon="11.7682533"><ele>756.0</ele><time>2026-04-25T09:34:29.029Z</time></trkpt><trkpt lat="43.64613" lon="11.768145"><ele>756.7142857142857</ele><time>2026-04-25T09:34:30.033Z</time></trkpt><trkpt lat="43.6461317" lon="11.7680433"><ele>757.4285714285714</ele><time>2026-04-25T09:34:31.034Z</time></trkpt><trkpt lat="43.6461433" lon="11.7679567"><ele>758.1428571428571</ele><time>2026-04-25T09:34:32.027Z</time></trkpt><trkpt lat="43.6461567" lon="11.767865"><ele>758.8571428571429</ele><time>2026-04-25T09:34:33.03Z</time></trkpt><trkpt lat="43.6461733" lon="11.7677667"><ele>759.5714285714286</ele><time>2026-04-25T09:34:34.029Z</time></trkpt><trkpt lat="43.6462017" lon="11.7676667"><ele>760.2857142857142</ele><time>2026-04-25T09:34:35.03Z</time></trkpt><trkpt lat="43.6462383" lon="11.7675767"><ele>761.0</ele><time>2026-04-25T09:34:36.033Z</time></trkpt><trkpt lat="43.6463067" lon="11.767435"><ele>762.1999999999999</ele><time>2026-04-25T09:34:38.031Z</time></trkpt><trkpt lat="43.6463483" lon="11.7672983"><ele>763.4</ele><time>2026-04-25T09:34:40.029Z</time></trkpt><trkpt lat="43.6463867" lon="11.7671467"><ele>764.6</ele><time>2026-04-25T09:34:42.031Z</time></trkpt><trkpt lat="43.6464267" lon="11.7670617"><ele>765.8</ele><time>2026-04-25T09:34:43.033Z</time></trkpt><trkpt lat="43.6464683" lon="11.7669683"><ele>767.0</ele><time>2026-04-25T09:34:44.028Z</time></trkpt><trkpt lat="43.6465017" lon="11.7668733"><ele>768.25</ele><time>2026-04-25T09:34:45.03Z</time></trkpt><trkpt lat="43.646545" lon="11.7667367"><ele>769.5</ele><time>2026-04-25T09:34:47.035Z</time></trkpt><trkpt lat="43.6465867" lon="11.7666117"><ele>770.75</ele><time>2026-04-25T09:34:53.032Z</time></trkpt><trkpt lat="43.6466233" lon="11.766445"><ele>772.0</ele><time>2026-04-25T09:34:55.024Z</time></trkpt><trkpt lat="43.6466833" lon="11.76629"><ele>771.9999999999999</ele><time>2026-04-25T09:34:57.031Z</time></trkpt><trkpt lat="43.6467183" lon="11.766195"><ele>772.0</ele><time>2026-04-25T09:34:58.028Z</time></trkpt><trkpt lat="43.6467583" lon="11.7660817"><ele>772.0</ele><time>2026-04-25T09:34:59.031Z</time></trkpt><trkpt lat="43.6468017" lon="11.7659817"><ele>772.0</ele><time>2026-04-25T09:35:00.04Z</time></trkpt><trkpt lat="43.6468533" lon="11.7659183"><ele>771.9999999999999</ele><time>2026-04-25T09:35:01.029Z</time></trkpt><trkpt lat="43.6469667" lon="11.765875"><ele>772.0</ele><time>2026-04-25T09:35:03.034Z</time></trkpt><trkpt lat="43.64703" lon="11.765865"><ele>773.9999999999999</ele><time>2026-04-25T09:35:04.034Z</time></trkpt><trkpt lat="43.6471" lon="11.7658383"><ele>776.0</ele><time>2026-04-25T09:35:05.027Z</time></trkpt><trkpt lat="43.647175" lon="11.7657833"><ele>778.0</ele><time>2026-04-25T09:35:06.031Z</time></trkpt><trkpt lat="43.6472567" lon="11.7657183"><ele>780.0</ele><time>2026-04-25T09:35:07.03Z</time></trkpt><trkpt lat="43.6473467" lon="11.7656733"><ele>781.9999999999999</ele><time>2026-04-25T09:35:08.048Z</time></trkpt><trkpt lat="43.64744" lon="11.7656567"><ele>784.0</ele><time>2026-04-25T09:35:09.033Z</time></trkpt><trkpt lat="43.6475317" lon="11.7656483"><ele>784.0</ele><time>2026-04-25T09:35:10.03Z</time></trkpt><trkpt lat="43.6476267" lon="11.7656333"><ele>784.0</ele><time>2026-04-25T09:35:11.029Z</time></trkpt><trkpt lat="43.64772" lon="11.76562"><ele>784.0</ele><time>2026-04-25T09:35:12.031Z</time></trkpt><trkpt lat="43.647805" lon="11.7656117"><ele>784.0</ele><time>2026-04-25T09:35:13.026Z</time></trkpt><trkpt lat="43.6478767" lon="11.76561"><ele>784.0</ele><time>2026-04-25T09:35:14.025Z</time></trkpt><trkpt lat="43.6480183" lon="11.765565"><ele>785.5714285714286</ele><time>2026-04-25T09:35:16.032Z</time></trkpt><trkpt lat="43.6481017" lon="11.7655483"><ele>787.1428571428571</ele><time>2026-04-25T09:35:17.032Z</time></trkpt><trkpt lat="43.648185" lon="11.7655533"><ele>788.7142857142858</ele><time>2026-04-25T09:35:18.026Z</time></trkpt><trkpt lat="43.6482667" lon="11.7655567"><ele>790.2857142857142</ele><time>2026-04-25T09:35:19.029Z</time></trkpt><trkpt lat="43.6483383" lon="11.7655617"><ele>791.8571428571429</ele><time>2026-04-25T09:35:20.031Z</time></trkpt><trkpt lat="43.6484017" lon="11.765545"><ele>793.4285714285714</ele><time>2026-04-25T09:35:21.04Z</time></trkpt><trkpt lat="43.6484583" lon="11.765505"><ele>795.0</ele><time>2026-04-25T09:35:22.026Z</time></trkpt><trkpt lat="43.6484967" lon="11.7654267"><ele>795.0</ele><time>2026-04-25T09:35:23.03Z</time></trkpt><trkpt lat="43.6485083" lon="11.7653317"><ele>795.0</ele><time>2026-04-25T09:35:24.031Z</time></trkpt><trkpt lat="43.6485267" lon="11.7652483"><ele>795.0</ele><time>2026-04-25T09:35:25.025Z</time></trkpt><trkpt lat="43.64853" lon="11.76508"><ele>795.0</ele><time>2026-04-25T09:35:27.028Z</time></trkpt><trkpt lat="43.6485217" lon="11.764935"><ele>795.0</ele><time>2026-04-25T09:35:29.023Z</time></trkpt><trkpt lat="43.648545" lon="11.7647933"><ele>796.3333333333334</ele><time>2026-04-25T09:35:31.03Z</time></trkpt><trkpt lat="43.64857" lon="11.7647033"><ele>797.6666666666667</ele><time>2026-04-25T09:35:32.032Z</time></trkpt><trkpt lat="43.6485933" lon="11.7646033"><ele>799.0</ele><time>2026-04-25T09:35:33.032Z</time></trkpt><trkpt lat="43.64862" lon="11.7644983"><ele>800.3333333333334</ele><time>2026-04-25T09:35:34.026Z</time></trkpt><trkpt lat="43.64864" lon="11.76439"><ele>801.6666666666667</ele><time>2026-04-25T09:35:35.032Z</time></trkpt><trkpt lat="43.6486483" lon="11.764295"><ele>803.0</ele><time>2026-04-25T09:35:36.028Z</time></trkpt><trkpt lat="43.6486717" lon="11.76412"><ele>804.9999999999999</ele><time>2026-04-25T09:35:38.036Z</time></trkpt><trkpt lat="43.648705" lon="11.7640217"><ele>807.0</ele><time>2026-04-25T09:35:39.04Z</time></trkpt><trkpt lat="43.6487417" lon="11.7639217"><ele>809.0</ele><time>2026-04-25T09:35:40.029Z</time></trkpt><trkpt lat="43.6487733" lon="11.7638283"><ele>811.0</ele><time>2026-04-25T09:35:41.029Z</time></trkpt><trkpt lat="43.6488017" lon="11.7637433"><ele>813.0</ele><time>2026-04-25T09:35:42.026Z</time></trkpt><trkpt lat="43.6488267" lon="11.7636533"><ele>814.9999999999999</ele><time>2026-04-25T09:35:43.036Z</time></trkpt><trkpt lat="43.6488567" lon="11.7635567"><ele>817.0</ele><time>2026-04-25T09:35:44.03Z</time></trkpt><trkpt lat="43.6488933" lon="11.7634517"><ele>819.3333333333333</ele><time>2026-04-25T09:35:45.028Z</time></trkpt><trkpt lat="43.6489417" lon="11.7633483"><ele>821.6666666666666</ele><time>2026-04-25T09:35:46.029Z</time></trkpt><trkpt lat="43.6489867" lon="11.7632517"><ele>824.0</ele><time>2026-04-25T09:35:47.028Z</time></trkpt><trkpt lat="43.6490267" lon="11.7631483"><ele>826.3333333333333</ele><time>2026-04-25T09:35:48.031Z</time></trkpt><trkpt lat="43.6490704" lon="11.7630478"><ele>828.6666666666666</ele><time>2026-04-25T09:35:49.029Z</time></trkpt><trkpt lat="43.6491185" lon="11.762943"><ele>831.0</ele><time>2026-04-25T09:35:50.034Z</time></trkpt><trkpt lat="43.6491703" lon="11.7628353"><ele>831.0</ele><time>2026-04-25T09:35:51.03Z</time></trkpt><trkpt lat="43.6492211" lon="11.7627303"><ele>831.0</ele><time>2026-04-25T09:35:52.029Z</time></trkpt><trkpt lat="43.6492592" lon="11.7626312"><ele>831.0</ele><time>2026-04-25T09:35:53.027Z</time></trkpt><trkpt lat="43.6492909" lon="11.7625393"><ele>831.0</ele><time>2026-04-25T09:35:54.032Z</time></trkpt><trkpt lat="43.6493189" lon="11.7624541"><ele>831.0</ele><time>2026-04-25T09:35:55.025Z</time></trkpt><trkpt lat="43.6493598" lon="11.7623588"><ele>831.0</ele><time>2026-04-25T09:35:56.029Z</time></trkpt><trkpt lat="43.6494252" lon="11.7622429"><ele>831.0</ele><time>2026-04-25T09:35:57.032Z</time></trkpt><trkpt lat="43.6495036" lon="11.7621095"><ele>831.0</ele><time>2026-04-25T09:35:58.037Z</time></trkpt><trkpt lat="43.6495762" lon="11.76198"><ele>831.0</ele><time>2026-04-25T09:35:59.032Z</time></trkpt><trkpt lat="43.6496307" lon="11.7618683"><ele>831.0</ele><time>2026-04-25T09:36:00.033Z</time></trkpt><trkpt lat="43.6496684" lon="11.7617699"><ele>831.0</ele><time>2026-04-25T09:36:01.028Z</time></trkpt><trkpt lat="43.649705" lon="11.7616743"><ele>833.0</ele><time>2026-04-25T09:36:02.028Z</time></trkpt><trkpt lat="43.6497389" lon="11.7615735"><ele>835.0</ele><time>2026-04-25T09:36:03.029Z</time></trkpt><trkpt lat="43.6497684" lon="11.7614779"><ele>837.0</ele><time>2026-04-25T09:36:04.03Z</time></trkpt><trkpt lat="43.6497964" lon="11.7613789"><ele>839.0</ele><time>2026-04-25T09:36:05.025Z</time></trkpt><trkpt lat="43.6498388" lon="11.7612782"><ele>841.0</ele><time>2026-04-25T09:36:06.026Z</time></trkpt><trkpt lat="43.6498889" lon="11.7611808"><ele>843.0</ele><time>2026-04-25T09:36:07.027Z</time></trkpt><trkpt lat="43.6499411" lon="11.7610821"><ele>843.3333333333334</ele><time>2026-04-25T09:36:08.027Z</time></trkpt><trkpt lat="43.6499968" lon="11.7609891"><ele>843.6666666666667</ele><time>2026-04-25T09:36:09.029Z</time></trkpt><trkpt lat="43.6500482" lon="11.7609104"><ele>844.0</ele><time>2026-04-25T09:36:10.042Z</time></trkpt><trkpt lat="43.6500936" lon="11.7608374"><ele>844.3333333333334</ele><time>2026-04-25T09:36:11.03Z</time></trkpt><trkpt lat="43.6501295" lon="11.7607544"><ele>844.6666666666667</ele><time>2026-04-25T09:36:12.032Z</time></trkpt><trkpt lat="43.6501642" lon="11.760659"><ele>845.0</ele><time>2026-04-25T09:36:13.028Z</time></trkpt><trkpt lat="43.6501993" lon="11.7605565"><ele>845.0</ele><time>2026-04-25T09:36:14.029Z</time></trkpt><trkpt lat="43.650237" lon="11.7604585"><ele>845.0</ele><time>2026-04-25T09:36:15.029Z</time></trkpt><trkpt lat="43.6502697" lon="11.7603438"><ele>845.0</ele><time>2026-04-25T09:36:16.034Z</time></trkpt><trkpt lat="43.6503128" lon="11.7602122"><ele>845.0</ele><time>2026-04-25T09:36:17.032Z</time></trkpt><trkpt lat="43.6503559" lon="11.7600815"><ele>845.0</ele><time>2026-04-25T09:36:18.032Z</time></trkpt><trkpt lat="43.6503939" lon="11.7599571"><ele>848.2</ele><time>2026-04-25T09:36:19.027Z</time></trkpt><trkpt lat="43.6504323" lon="11.7598311"><ele>851.4</ele><time>2026-04-25T09:36:20.029Z</time></trkpt><trkpt lat="43.6504793" lon="11.7596999"><ele>854.5999999999999</ele><time>2026-04-25T09:36:21.031Z</time></trkpt><trkpt lat="43.6505333" lon="11.7595683"><ele>857.8</ele><time>2026-04-25T09:36:22.029Z</time></trkpt><trkpt lat="43.6505817" lon="11.7594617"><ele>861.0</ele><time>2026-04-25T09:36:23.031Z</time></trkpt><trkpt lat="43.6506317" lon="11.7593583"><ele>861.5714285714286</ele><time>2026-04-25T09:36:24.031Z</time></trkpt><trkpt lat="43.6506717" lon="11.7592717"><ele>862.1428571428571</ele><time>2026-04-25T09:36:25.026Z</time></trkpt><trkpt lat="43.6507067" lon="11.7591917"><ele>862.7142857142858</ele><time>2026-04-25T09:36:26.028Z</time></trkpt><trkpt lat="43.6507383" lon="11.75911"><ele>863.2857142857142</ele><time>2026-04-25T09:36:27.031Z</time></trkpt><trkpt lat="43.6507567" lon="11.7590267"><ele>863.8571428571429</ele><time>2026-04-25T09:36:28.034Z</time></trkpt><trkpt lat="43.65076" lon="11.7589333"><ele>864.4285714285714</ele><time>2026-04-25T09:36:29.026Z</time></trkpt><trkpt lat="43.65075" lon="11.758825"><ele>865.0</ele><time>2026-04-25T09:36:30.028Z</time></trkpt><trkpt lat="43.6507417" lon="11.7587167"><ele>865.0</ele><time>2026-04-25T09:36:31.033Z</time></trkpt><trkpt lat="43.6507417" lon="11.75861"><ele>865.0</ele><time>2026-04-25T09:36:32.03Z</time></trkpt><trkpt lat="43.650745" lon="11.7585033"><ele>865.0</ele><time>2026-04-25T09:36:33.033Z</time></trkpt><trkpt lat="43.6507533" lon="11.75836"><ele>865.0</ele><time>2026-04-25T09:36:34.03Z</time></trkpt><trkpt lat="43.65077" lon="11.758215"><ele>865.0</ele><time>2026-04-25T09:36:35.034Z</time></trkpt><trkpt lat="43.650785" lon="11.7580933"><ele>865.2</ele><time>2026-04-25T09:36:36.04Z</time></trkpt><trkpt lat="43.650815" lon="11.7579567"><ele>865.4</ele><time>2026-04-25T09:36:37.032Z</time></trkpt><trkpt lat="43.650845" lon="11.7578283"><ele>865.5999999999999</ele><time>2026-04-25T09:36:38.03Z</time></trkpt><trkpt lat="43.6508633" lon="11.7577183"><ele>865.8</ele><time>2026-04-25T09:36:39.029Z</time></trkpt><trkpt lat="43.650875" lon="11.757605"><ele>866.0</ele><time>2026-04-25T09:36:40.032Z</time></trkpt><trkpt lat="43.6508767" lon="11.7574783"><ele>866.1666666666667</ele><time>2026-04-25T09:36:41.028Z</time></trkpt><trkpt lat="43.65088" lon="11.7573833"><ele>866.3333333333334</ele><time>2026-04-25T09:36:42.027Z</time></trkpt><trkpt lat="43.6508617" lon="11.7572717"><ele>866.5</ele><time>2026-04-25T09:36:43.037Z</time></trkpt><trkpt lat="43.6508333" lon="11.7571617"><ele>866.6666666666667</ele><time>2026-04-25T09:36:44.03Z</time></trkpt><trkpt lat="43.6507817" lon="11.7570483"><ele>866.8333333333334</ele><time>2026-04-25T09:36:45.032Z</time></trkpt><trkpt lat="43.6507433" lon="11.7569383"><ele>867.0</ele><time>2026-04-25T09:36:46.03Z</time></trkpt><trkpt lat="43.650705" lon="11.75683"><ele>869.2</ele><time>2026-04-25T09:36:47.028Z</time></trkpt><trkpt lat="43.6506667" lon="11.7567317"><ele>871.4000000000001</ele><time>2026-04-25T09:36:48.032Z</time></trkpt><trkpt lat="43.6506133" lon="11.7565867"><ele>873.5999999999999</ele><time>2026-04-25T09:36:50.031Z</time></trkpt><trkpt lat="43.6505733" lon="11.7564617"><ele>875.8</ele><time>2026-04-25T09:36:52.034Z</time></trkpt><trkpt lat="43.6505617" lon="11.7563433"><ele>878.0</ele><time>2026-04-25T09:36:54.031Z</time></trkpt><trkpt lat="43.650555" lon="11.756185"><ele>878.0000000000001</ele><time>2026-04-25T09:36:56.03Z</time></trkpt><trkpt lat="43.6505133" lon="11.7560533"><ele>878.0</ele><time>2026-04-25T09:36:58.033Z</time></trkpt><trkpt lat="43.65049" lon="11.7559583"><ele>878.0</ele><time>2026-04-25T09:37:00.034Z</time></trkpt><trkpt lat="43.65048" lon="11.7558583"><ele>878.0</ele><time>2026-04-25T09:37:02.031Z</time></trkpt><trkpt lat="43.6504833" lon="11.755755"><ele>878.0000000000001</ele><time>2026-04-25T09:37:04.033Z</time></trkpt><trkpt lat="43.6504967" lon="11.7556577"><ele>878.0</ele><time>2026-04-25T09:37:06.14Z</time></trkpt><trkpt lat="43.6505571" lon="11.7555981"><ele>880.0000000000001</ele><time>2026-04-25T09:37:10.047Z</time></trkpt><trkpt lat="43.6505345" lon="11.7555087"><ele>882.0</ele><time>2026-04-25T09:37:14.036Z</time></trkpt><trkpt lat="43.6504794" lon="11.7554502"><ele>884.0</ele><time>2026-04-25T09:37:17.058Z</time></trkpt><trkpt lat="43.6504913" lon="11.7553639"><ele>886.0</ele><time>2026-04-25T09:37:19.063Z</time></trkpt><trkpt lat="43.6504933" lon="11.7552626"><ele>888.0000000000001</ele><time>2026-04-25T09:37:20.028Z</time></trkpt><trkpt lat="43.6505183" lon="11.755155"><ele>890.0</ele><time>2026-04-25T09:37:21.031Z</time></trkpt><trkpt lat="43.6505983" lon="11.755025"><ele>890.2</ele><time>2026-04-25T09:37:23.032Z</time></trkpt><trkpt lat="43.6507017" lon="11.75497"><ele>890.4</ele><time>2026-04-25T09:37:25.037Z</time></trkpt><trkpt lat="43.6507967" lon="11.754935"><ele>890.5999999999999</ele><time>2026-04-25T09:37:27.032Z</time></trkpt><trkpt lat="43.6509117" lon="11.7548633"><ele>890.8</ele><time>2026-04-25T09:37:29.029Z</time></trkpt><trkpt lat="43.650975" lon="11.7548367"><ele>891.0</ele><time>2026-04-25T09:37:30.031Z</time></trkpt><trkpt lat="43.6510667" lon="11.7548183"><ele>892.5999999999999</ele><time>2026-04-25T09:37:32.029Z</time></trkpt><trkpt lat="43.6511283" lon="11.7547817"><ele>894.1999999999999</ele><time>2026-04-25T09:37:52.03Z</time></trkpt><trkpt lat="43.6512333" lon="11.7546983"><ele>895.8000000000001</ele><time>2026-04-25T09:37:54.027Z</time></trkpt><trkpt lat="43.6512883" lon="11.75465"><ele>897.4000000000001</ele><time>2026-04-25T09:37:55.029Z</time></trkpt><trkpt lat="43.6513617" lon="11.7545833"><ele>899.0</ele><time>2026-04-25T09:37:57.029Z</time></trkpt><trkpt lat="43.6515083" lon="11.754535"><ele>899.0000000000001</ele><time>2026-04-25T09:38:13.028Z</time></trkpt><trkpt lat="43.65156" lon="11.7544133"><ele>899.0</ele><time>2026-04-25T09:38:57.029Z</time></trkpt><trkpt lat="43.6516233" lon="11.75433"><ele>899.0</ele><time>2026-04-25T09:38:59.031Z</time></trkpt><trkpt lat="43.6516583" lon="11.7542167"><ele>899.0</ele><time>2026-04-25T09:39:01.029Z</time></trkpt><trkpt lat="43.6516933" lon="11.7541433"><ele>899.0000000000001</ele><time>2026-04-25T09:39:03.038Z</time></trkpt><trkpt lat="43.65173" lon="11.754035"><ele>899.0</ele><time>2026-04-25T09:44:19.029Z</time></trkpt><trkpt lat="43.6517917" lon="11.7539267"><ele>896.0000000000001</ele><time>2026-04-25T09:44:21.033Z</time></trkpt><trkpt lat="43.6518133" lon="11.753795"><ele>893.0</ele><time>2026-04-25T09:44:23.029Z</time></trkpt><trkpt lat="43.651845" lon="11.7536767"><ele>890.0</ele><time>2026-04-25T09:44:25.028Z</time></trkpt><trkpt lat="43.651885" lon="11.7535717"><ele>887.0</ele><time>2026-04-25T09:44:27.037Z</time></trkpt><trkpt lat="43.65192" lon="11.7534783"><ele>884.0000000000001</ele><time>2026-04-25T09:44:29.033Z</time></trkpt><trkpt lat="43.6519633" lon="11.75339"><ele>881.0</ele><time>2026-04-25T09:44:31.035Z</time></trkpt><trkpt lat="43.6520283" lon="11.7532917"><ele>879.1999999999999</ele><time>2026-04-25T09:44:33.03Z</time></trkpt><trkpt lat="43.652085" lon="11.75317"><ele>877.3999999999999</ele><time>2026-04-25T09:44:35.031Z</time></trkpt><trkpt lat="43.6521433" lon="11.7530633"><ele>875.6</ele><time>2026-04-25T09:44:37.028Z</time></trkpt><trkpt lat="43.6521817" lon="11.752945"><ele>873.8</ele><time>2026-04-25T09:44:39.031Z</time></trkpt><trkpt lat="43.6522467" lon="11.7528117"><ele>872.0</ele><time>2026-04-25T09:44:41.029Z</time></trkpt><trkpt lat="43.6522917" lon="11.752745"><ele>870.8333333333334</ele><time>2026-04-25T09:44:42.033Z</time></trkpt><trkpt lat="43.652365" lon="11.7526417"><ele>869.6666666666667</ele><time>2026-04-25T09:44:44.032Z</time></trkpt><trkpt lat="43.652395" lon="11.7525533"><ele>868.5</ele><time>2026-04-25T09:44:46.031Z</time></trkpt><trkpt lat="43.6524383" lon="11.75249"><ele>867.3333333333333</ele><time>2026-04-25T09:44:48.03Z</time></trkpt><trkpt lat="43.652505" lon="11.7524267"><ele>866.1666666666666</ele><time>2026-04-25T09:44:50.028Z</time></trkpt><trkpt lat="43.6525717" lon="11.7523683"><ele>865.0</ele><time>2026-04-25T09:44:52.029Z</time></trkpt><trkpt lat="43.6526533" lon="11.752305"><ele>864.9999999999999</ele><time>2026-04-25T09:44:55.029Z</time></trkpt><trkpt lat="43.6527267" lon="11.752245"><ele>865.0</ele><time>2026-04-25T09:44:57.029Z</time></trkpt><trkpt lat="43.65279" lon="11.7523083"><ele>865.0</ele><time>2026-04-25T09:45:05.029Z</time></trkpt><trkpt lat="43.6527983" lon="11.7524217"><ele>865.0</ele><time>2026-04-25T09:45:06.027Z</time></trkpt><trkpt lat="43.6528017" lon="11.752525"><ele>864.9999999999999</ele><time>2026-04-25T09:45:07.026Z</time></trkpt><trkpt lat="43.6528067" lon="11.7526217"><ele>865.0</ele><time>2026-04-25T09:45:08.029Z</time></trkpt><trkpt lat="43.65281" lon="11.752725"><ele>866.1666666666666</ele><time>2026-04-25T09:45:09.03Z</time></trkpt><trkpt lat="43.6528183" lon="11.75283"><ele>867.3333333333333</ele><time>2026-04-25T09:45:10.03Z</time></trkpt><trkpt lat="43.652815" lon="11.7529333"><ele>868.5</ele><time>2026-04-25T09:45:11.033Z</time></trkpt><trkpt lat="43.652805" lon="11.7530383"><ele>869.6666666666667</ele><time>2026-04-25T09:45:12.032Z</time></trkpt><trkpt lat="43.6527933" lon="11.7531433"><ele>870.8333333333334</ele><time>2026-04-25T09:45:13.027Z</time></trkpt><trkpt lat="43.6527717" lon="11.75325"><ele>872.0</ele><time>2026-04-25T09:45:14.032Z</time></trkpt><trkpt lat="43.6527433" lon="11.75336"><ele>872.0000000000001</ele><time>2026-04-25T09:45:15.03Z</time></trkpt><trkpt lat="43.6527133" lon="11.7534817"><ele>872.0</ele><time>2026-04-25T09:45:16.032Z</time></trkpt><trkpt lat="43.6526917" lon="11.753595"><ele>872.0</ele><time>2026-04-25T09:45:17.035Z</time></trkpt><trkpt lat="43.6526783" lon="11.7536883"><ele>872.0</ele><time>2026-04-25T09:45:18.032Z</time></trkpt><trkpt lat="43.6526633" lon="11.7537983"><ele>872.0000000000001</ele><time>2026-04-25T09:45:19.035Z</time></trkpt><trkpt lat="43.6526617" lon="11.7539033"><ele>872.0</ele><time>2026-04-25T09:45:20.028Z</time></trkpt><trkpt lat="43.652655" lon="11.7540017"><ele>871.4000000000001</ele><time>2026-04-25T09:45:21.031Z</time></trkpt><trkpt lat="43.652675" lon="11.754165"><ele>870.8000000000001</ele><time>2026-04-25T09:45:23.033Z</time></trkpt><trkpt lat="43.6527467" lon="11.7542817"><ele>870.2</ele><time>2026-04-25T09:45:25.032Z</time></trkpt><trkpt lat="43.6528383" lon="11.7543933"><ele>869.6</ele><time>2026-04-25T09:45:27.03Z</time></trkpt><trkpt lat="43.6528717" lon="11.75448"><ele>869.0</ele><time>2026-04-25T09:45:28.033Z</time></trkpt><trkpt lat="43.6528933" lon="11.7545933"><ele>869.0000000000001</ele><time>2026-04-25T09:45:29.035Z</time></trkpt><trkpt lat="43.652925" lon="11.754705"><ele>869.0</ele><time>2026-04-25T09:45:30.027Z</time></trkpt><trkpt lat="43.6529633" lon="11.7547967"><ele>869.0</ele><time>2026-04-25T09:45:31.037Z</time></trkpt><trkpt lat="43.652985" lon="11.7548983"><ele>869.0</ele><time>2026-04-25T09:45:32.031Z</time></trkpt><trkpt lat="43.653015" lon="11.7549867"><ele>869.0000000000001</ele><time>2026-04-25T09:45:33.038Z</time></trkpt><trkpt lat="43.653045" lon="11.7550967"><ele>869.0</ele><time>2026-04-25T09:45:34.026Z</time></trkpt><trkpt lat="43.65308" lon="11.7551733"><ele>869.6666666666667</ele><time>2026-04-25T09:45:35.032Z</time></trkpt><trkpt lat="43.6531017" lon="11.7552583"><ele>870.3333333333334</ele><time>2026-04-25T09:45:36.028Z</time></trkpt><trkpt lat="43.65314" lon="11.75535"><ele>871.0</ele><time>2026-04-25T09:45:37.027Z</time></trkpt><trkpt lat="43.6531717" lon="11.7554367"><ele>871.6666666666667</ele><time>2026-04-25T09:45:38.03Z</time></trkpt><trkpt lat="43.653175" lon="11.7556067"><ele>872.3333333333334</ele><time>2026-04-25T09:45:40.033Z</time></trkpt><trkpt lat="43.653165" lon="11.7556933"><ele>873.0</ele><time>2026-04-25T09:45:41.028Z</time></trkpt><trkpt lat="43.6531583" lon="11.7557833"><ele>872.9999999999999</ele><time>2026-04-25T09:45:42.03Z</time></trkpt><trkpt lat="43.6531533" lon="11.7558733"><ele>873.0</ele><time>2026-04-25T09:45:43.027Z</time></trkpt><trkpt lat="43.6531383" lon="11.7559617"><ele>873.0</ele><time>2026-04-25T09:45:44.047Z</time></trkpt><trkpt lat="43.6531167" lon="11.7560483"><ele>873.0</ele><time>2026-04-25T09:45:45.031Z</time></trkpt><trkpt lat="43.6530833" lon="11.7561317"><ele>873.0</ele><time>2026-04-25T09:45:46.029Z</time></trkpt><trkpt lat="43.6530633" lon="11.756215"><ele>872.9999999999999</ele><time>2026-04-25T09:45:47.032Z</time></trkpt><trkpt lat="43.65305" lon="11.7563067"><ele>873.0</ele><time>2026-04-25T09:45:48.029Z</time></trkpt><trkpt lat="43.65305" lon="11.7564033"><ele>871.6666666666666</ele><time>2026-04-25T09:45:49.029Z</time></trkpt><trkpt lat="43.6531117" lon="11.7565567"><ele>870.3333333333333</ele><time>2026-04-25T09:45:51.031Z</time></trkpt><trkpt lat="43.65315" lon="11.756635"><ele>869.0</ele><time>2026-04-25T09:45:52.029Z</time></trkpt><trkpt lat="43.6531917" lon="11.7567067"><ele>867.6666666666666</ele><time>2026-04-25T09:45:53.028Z</time></trkpt><trkpt lat="43.6532183" lon="11.75679"><ele>866.3333333333333</ele><time>2026-04-25T09:45:54.037Z</time></trkpt><trkpt lat="43.6532483" lon="11.7568883"><ele>865.0</ele><time>2026-04-25T09:45:55.032Z</time></trkpt><trkpt lat="43.6532767" lon="11.7570117"><ele>864.2</ele><time>2026-04-25T09:45:56.03Z</time></trkpt><trkpt lat="43.6533167" lon="11.757135"><ele>863.4</ele><time>2026-04-25T09:45:57.029Z</time></trkpt><trkpt lat="43.6533717" lon="11.75724"><ele>862.5999999999999</ele><time>2026-04-25T09:45:58.031Z</time></trkpt><trkpt lat="43.6534233" lon="11.757325"><ele>861.8</ele><time>2026-04-25T09:45:59.034Z</time></trkpt><trkpt lat="43.653475" lon="11.7573967"><ele>861.0</ele><time>2026-04-25T09:46:00.025Z</time></trkpt><trkpt lat="43.653515" lon="11.7575567"><ele>861.0</ele><time>2026-04-25T09:46:02.031Z</time></trkpt><trkpt lat="43.653525" lon="11.75768"><ele>861.0</ele><time>2026-04-25T09:46:03.033Z</time></trkpt><trkpt lat="43.6535367" lon="11.7577883"><ele>861.0</ele><time>2026-04-25T09:46:04.026Z</time></trkpt><trkpt lat="43.6535433" lon="11.75789"><ele>861.0</ele><time>2026-04-25T09:46:05.028Z</time></trkpt><trkpt lat="43.6535683" lon="11.7579983"><ele>861.0</ele><time>2026-04-25T09:46:06.037Z</time></trkpt><trkpt lat="43.6536133" lon="11.7581067"><ele>861.0</ele><time>2026-04-25T09:46:07.03Z</time></trkpt><trkpt lat="43.65367" lon="11.7582167"><ele>856.6666666666666</ele><time>2026-04-25T09:46:08.026Z</time></trkpt><trkpt lat="43.653735" lon="11.7583183"><ele>852.3333333333333</ele><time>2026-04-25T09:46:09.029Z</time></trkpt><trkpt lat="43.6537783" lon="11.7584133"><ele>848.0</ele><time>2026-04-25T09:46:10.031Z</time></trkpt><trkpt lat="43.6538167" lon="11.7585017"><ele>843.6666666666666</ele><time>2026-04-25T09:46:11.031Z</time></trkpt><trkpt lat="43.6538067" lon="11.7585917"><ele>839.3333333333333</ele><time>2026-04-25T09:46:12.027Z</time></trkpt><trkpt lat="43.6538" lon="11.7586817"><ele>835.0</ele><time>2026-04-25T09:46:13.026Z</time></trkpt><trkpt lat="43.6537933" lon="11.7587833"><ele>834.6666666666666</ele><time>2026-04-25T09:46:14.034Z</time></trkpt><trkpt lat="43.653805" lon="11.7588783"><ele>834.3333333333333</ele><time>2026-04-25T09:46:15.038Z</time></trkpt><trkpt lat="43.6538317" lon="11.758975"><ele>834.0</ele><time>2026-04-25T09:46:16.032Z</time></trkpt><trkpt lat="43.6538433" lon="11.7590717"><ele>833.6666666666667</ele><time>2026-04-25T09:46:17.032Z</time></trkpt><trkpt lat="43.6538333" lon="11.7591617"><ele>833.3333333333334</ele><time>2026-04-25T09:46:18.028Z</time></trkpt><trkpt lat="43.6538133" lon="11.7592483"><ele>833.0</ele><time>2026-04-25T09:46:19.026Z</time></trkpt><trkpt lat="43.6538033" lon="11.7594167"><ele>830.8333333333334</ele><time>2026-04-25T09:46:21.028Z</time></trkpt><trkpt lat="43.6538167" lon="11.75952"><ele>828.6666666666667</ele><time>2026-04-25T09:46:22.028Z</time></trkpt><trkpt lat="43.653825" lon="11.7596217"><ele>826.5</ele><time>2026-04-25T09:46:23.026Z</time></trkpt><trkpt lat="43.6538367" lon="11.759715"><ele>824.3333333333333</ele><time>2026-04-25T09:46:24.029Z</time></trkpt><trkpt lat="43.65386" lon="11.7598083"><ele>822.1666666666666</ele><time>2026-04-25T09:46:25.038Z</time></trkpt><trkpt lat="43.6538867" lon="11.7599083"><ele>820.0</ele><time>2026-04-25T09:46:26.027Z</time></trkpt><trkpt lat="43.6539283" lon="11.7600167"><ele>819.9999999999999</ele><time>2026-04-25T09:46:27.032Z</time></trkpt><trkpt lat="43.653975" lon="11.7601367"><ele>820.0</ele><time>2026-04-25T09:46:28.032Z</time></trkpt><trkpt lat="43.654025" lon="11.760255"><ele>820.0</ele><time>2026-04-25T09:46:29.032Z</time></trkpt><trkpt lat="43.654075" lon="11.76036"><ele>820.0</ele><time>2026-04-25T09:46:30.031Z</time></trkpt><trkpt lat="43.65412" lon="11.7604417"><ele>819.9999999999999</ele><time>2026-04-25T09:46:31.032Z</time></trkpt><trkpt lat="43.6541633" lon="11.7605083"><ele>820.0</ele><time>2026-04-25T09:46:32.03Z</time></trkpt><trkpt lat="43.654235" lon="11.760605"><ele>818.4999999999999</ele><time>2026-04-25T09:46:34.03Z</time></trkpt><trkpt lat="43.6542767" lon="11.760715"><ele>817.0</ele><time>2026-04-25T09:46:36.029Z</time></trkpt><trkpt lat="43.6543217" lon="11.7608383"><ele>815.5</ele><time>2026-04-25T09:46:38.029Z</time></trkpt><trkpt lat="43.654375" lon="11.7609233"><ele>814.0</ele><time>2026-04-25T09:46:40.029Z</time></trkpt><trkpt lat="43.6544183" lon="11.7610117"><ele>812.4999999999999</ele><time>2026-04-25T09:46:43.031Z</time></trkpt><trkpt lat="43.6544617" lon="11.7611233"><ele>811.0</ele><time>2026-04-25T09:46:46.028Z</time></trkpt><trkpt lat="43.6544933" lon="11.76124"><ele>806.3333333333333</ele><time>2026-04-25T09:46:48.03Z</time></trkpt><trkpt lat="43.654535" lon="11.7613517"><ele>801.6666666666666</ele><time>2026-04-25T09:46:50.037Z</time></trkpt><trkpt lat="43.6545583" lon="11.7614667"><ele>797.0</ele><time>2026-04-25T09:46:52.036Z</time></trkpt><trkpt lat="43.6545783" lon="11.7615567"><ele>792.3333333333333</ele><time>2026-04-25T09:46:54.032Z</time></trkpt><trkpt lat="43.6546117" lon="11.7616617"><ele>787.6666666666666</ele><time>2026-04-25T09:46:56.031Z</time></trkpt><trkpt lat="43.654635" lon="11.7617867"><ele>783.0</ele><time>2026-04-25T09:46:58.025Z</time></trkpt><trkpt lat="43.6546383" lon="11.7618867"><ele>781.5</ele><time>2026-04-25T09:47:00.026Z</time></trkpt><trkpt lat="43.6546867" lon="11.7619767"><ele>780.0</ele><time>2026-04-25T09:47:02.023Z</time></trkpt><trkpt lat="43.654735" lon="11.7620517"><ele>778.5</ele><time>2026-04-25T09:47:04.024Z</time></trkpt><trkpt lat="43.6547983" lon="11.7620967"><ele>777.0</ele><time>2026-04-25T09:47:06.024Z</time></trkpt><trkpt lat="43.6548833" lon="11.7621983"><ele>775.5</ele><time>2026-04-25T09:47:08.031Z</time></trkpt><trkpt lat="43.6549233" lon="11.762335"><ele>774.0</ele><time>2026-04-25T09:47:10.026Z</time></trkpt><trkpt lat="43.6549683" lon="11.76246"><ele>774.0</ele><time>2026-04-25T09:47:12.031Z</time></trkpt><trkpt lat="43.655025" lon="11.7625283"><ele>774.0</ele><time>2026-04-25T09:47:13.03Z</time></trkpt><trkpt lat="43.6550767" lon="11.762615"><ele>774.0</ele><time>2026-04-25T09:47:14.028Z</time></trkpt><trkpt lat="43.65514" lon="11.7627183"><ele>774.0</ele><time>2026-04-25T09:47:15.029Z</time></trkpt><trkpt lat="43.6552233" lon="11.762835"><ele>774.0</ele><time>2026-04-25T09:47:16.039Z</time></trkpt><trkpt lat="43.6553067" lon="11.7629583"><ele>770.8000000000001</ele><time>2026-04-25T09:47:17.031Z</time></trkpt><trkpt lat="43.655375" lon="11.7630883"><ele>767.6</ele><time>2026-04-25T09:47:18.031Z</time></trkpt><trkpt lat="43.65544" lon="11.7631933"><ele>764.4</ele><time>2026-04-25T09:47:19.024Z</time></trkpt><trkpt lat="43.655505" lon="11.76329"><ele>761.2</ele><time>2026-04-25T09:47:20.03Z</time></trkpt><trkpt lat="43.65557" lon="11.7633733"><ele>758.0</ele><time>2026-04-25T09:47:21.031Z</time></trkpt><trkpt lat="43.65563" lon="11.7634617"><ele>757.5</ele><time>2026-04-25T09:47:22.027Z</time></trkpt><trkpt lat="43.6556883" lon="11.7635483"><ele>757.0</ele><time>2026-04-25T09:47:23.027Z</time></trkpt><trkpt lat="43.65575" lon="11.7636217"><ele>756.5</ele><time>2026-04-25T09:47:24.035Z</time></trkpt><trkpt lat="43.655865" lon="11.7636933"><ele>756.0</ele><time>2026-04-25T09:47:26.032Z</time></trkpt><trkpt lat="43.6559283" lon="11.7637333"><ele>755.5</ele><time>2026-04-25T09:47:27.028Z</time></trkpt><trkpt lat="43.655995" lon="11.7637783"><ele>755.0</ele><time>2026-04-25T09:47:28.026Z</time></trkpt><trkpt lat="43.6560533" lon="11.7638333"><ele>755.0</ele><time>2026-04-25T09:47:29.026Z</time></trkpt><trkpt lat="43.6561" lon="11.763895"><ele>755.0</ele><time>2026-04-25T09:47:30.024Z</time></trkpt><trkpt lat="43.656145" lon="11.7639633"><ele>755.0</ele><time>2026-04-25T09:47:31.03Z</time></trkpt><trkpt lat="43.6561933" lon="11.7640317"><ele>755.0</ele><time>2026-04-25T09:47:32.028Z</time></trkpt><trkpt lat="43.6562117" lon="11.7641217"><ele>755.0</ele><time>2026-04-25T09:47:33.031Z</time></trkpt><trkpt lat="43.6562283" lon="11.7642317"><ele>755.0</ele><time>2026-04-25T09:47:34.026Z</time></trkpt><trkpt lat="43.65624" lon="11.7643533"><ele>755.0</ele><time>2026-04-25T09:47:35.03Z</time></trkpt><trkpt lat="43.65624" lon="11.7644733"><ele>753.8333333333333</ele><time>2026-04-25T09:47:36.031Z</time></trkpt><trkpt lat="43.6562317" lon="11.7645867"><ele>752.6666666666666</ele><time>2026-04-25T09:47:37.029Z</time></trkpt><trkpt lat="43.656225" lon="11.7647133"><ele>751.5</ele><time>2026-04-25T09:47:38.03Z</time></trkpt><trkpt lat="43.6562083" lon="11.764835"><ele>750.3333333333334</ele><time>2026-04-25T09:47:39.042Z</time></trkpt><trkpt lat="43.656175" lon="11.7649517"><ele>749.1666666666667</ele><time>2026-04-25T09:47:40.025Z</time></trkpt><trkpt lat="43.656145" lon="11.765065"><ele>748.0</ele><time>2026-04-25T09:47:41.025Z</time></trkpt><trkpt lat="43.6561" lon="11.7651717"><ele>745.8333333333334</ele><time>2026-04-25T09:47:42.031Z</time></trkpt><trkpt lat="43.6560517" lon="11.7652683"><ele>743.6666666666667</ele><time>2026-04-25T09:47:43.037Z</time></trkpt><trkpt lat="43.65601" lon="11.7653483"><ele>741.5</ele><time>2026-04-25T09:47:44.033Z</time></trkpt><trkpt lat="43.6559733" lon="11.765445"><ele>739.3333333333334</ele><time>2026-04-25T09:47:45.026Z</time></trkpt><trkpt lat="43.655935" lon="11.7655383"><ele>737.1666666666666</ele><time>2026-04-25T09:47:46.03Z</time></trkpt><trkpt lat="43.6559" lon="11.7656283"><ele>735.0</ele><time>2026-04-25T09:47:47.027Z</time></trkpt><trkpt lat="43.6558683" lon="11.765725"><ele>735.0</ele><time>2026-04-25T09:47:48.031Z</time></trkpt><trkpt lat="43.6558467" lon="11.7658167"><ele>735.0</ele><time>2026-04-25T09:47:49.024Z</time></trkpt><trkpt lat="43.6558583" lon="11.7659733"><ele>735.0</ele><time>2026-04-25T09:47:51.024Z</time></trkpt><trkpt lat="43.6558883" lon="11.766155"><ele>735.0</ele><time>2026-04-25T09:47:53.031Z</time></trkpt><trkpt lat="43.6559217" lon="11.7662633"><ele>735.0</ele><time>2026-04-25T09:47:54.029Z</time></trkpt><trkpt lat="43.6559483" lon="11.7663583"><ele>732.4285714285714</ele><time>2026-04-25T09:47:55.029Z</time></trkpt><trkpt lat="43.6559617" lon="11.7664467"><ele>729.8571428571429</ele><time>2026-04-25T09:47:56.026Z</time></trkpt><trkpt lat="43.6559733" lon="11.7665367"><ele>727.2857142857142</ele><time>2026-04-25T09:47:57.026Z</time></trkpt><trkpt lat="43.6559883" lon="11.7666283"><ele>724.7142857142858</ele><time>2026-04-25T09:47:58.027Z</time></trkpt><trkpt lat="43.6559983" lon="11.766725"><ele>722.1428571428571</ele><time>2026-04-25T09:47:59.027Z</time></trkpt><trkpt lat="43.6560133" lon="11.76686"><ele>719.5714285714286</ele><time>2026-04-25T09:48:01.036Z</time></trkpt><trkpt lat="43.656085" lon="11.7668667"><ele>717.0</ele><time>2026-04-25T09:48:03.028Z</time></trkpt><trkpt lat="43.6562067" lon="11.7667667"><ele>714.6666666666666</ele><time>2026-04-25T09:48:05.03Z</time></trkpt><trkpt lat="43.656275" lon="11.7667067"><ele>712.3333333333334</ele><time>2026-04-25T09:48:06.032Z</time></trkpt><trkpt lat="43.656345" lon="11.76663"><ele>710.0</ele><time>2026-04-25T09:48:07.03Z</time></trkpt><trkpt lat="43.6564117" lon="11.76656"><ele>707.6666666666667</ele><time>2026-04-25T09:48:08.031Z</time></trkpt><trkpt lat="43.6564717" lon="11.766475"><ele>705.3333333333334</ele><time>2026-04-25T09:48:09.031Z</time></trkpt><trkpt lat="43.6565267" lon="11.7663867"><ele>703.0</ele><time>2026-04-25T09:48:10.027Z</time></trkpt><trkpt lat="43.65658" lon="11.7663"><ele>703.0</ele><time>2026-04-25T09:48:11.027Z</time></trkpt><trkpt lat="43.6566367" lon="11.76624"><ele>703.0</ele><time>2026-04-25T09:48:12.028Z</time></trkpt><trkpt lat="43.656695" lon="11.7661933"><ele>703.0</ele><time>2026-04-25T09:48:13.029Z</time></trkpt><trkpt lat="43.6567617" lon="11.7661617"><ele>703.0</ele><time>2026-04-25T09:48:14.031Z</time></trkpt><trkpt lat="43.656835" lon="11.76613"><ele>703.0</ele><time>2026-04-25T09:48:15.03Z</time></trkpt><trkpt lat="43.6569017" lon="11.7660983"><ele>703.0</ele><time>2026-04-25T09:48:16.026Z</time></trkpt><trkpt lat="43.656975" lon="11.7660283"><ele>703.0</ele><time>2026-04-25T09:48:17.027Z</time></trkpt><trkpt lat="43.65705" lon="11.76596"><ele>702.0</ele><time>2026-04-25T09:48:18.03Z</time></trkpt><trkpt lat="43.6571317" lon="11.7659083"><ele>701.0</ele><time>2026-04-25T09:48:19.03Z</time></trkpt><trkpt lat="43.6572183" lon="11.7658683"><ele>700.0</ele><time>2026-04-25T09:48:20.028Z</time></trkpt><trkpt lat="43.657305" lon="11.7658267"><ele>699.0</ele><time>2026-04-25T09:48:21.025Z</time></trkpt><trkpt lat="43.6573867" lon="11.7657783"><ele>698.0</ele><time>2026-04-25T09:48:22.027Z</time></trkpt><trkpt lat="43.65746" lon="11.7657317"><ele>697.0</ele><time>2026-04-25T09:48:23.029Z</time></trkpt><trkpt lat="43.6575317" lon="11.76569"><ele>697.0</ele><time>2026-04-25T09:48:24.032Z</time></trkpt><trkpt lat="43.6576" lon="11.7656583"><ele>697.0</ele><time>2026-04-25T09:48:25.027Z</time></trkpt><trkpt lat="43.65766" lon="11.7656283"><ele>697.0</ele><time>2026-04-25T09:48:26.03Z</time></trkpt><trkpt lat="43.6577617" lon="11.7655933"><ele>697.0</ele><time>2026-04-25T09:48:28.026Z</time></trkpt><trkpt lat="43.6578383" lon="11.7655883"><ele>697.0</ele><time>2026-04-25T09:48:30.029Z</time></trkpt><trkpt lat="43.657925" lon="11.7656767"><ele>697.0</ele><time>2026-04-25T09:48:32.032Z</time></trkpt><trkpt lat="43.6579783" lon="11.7657833"><ele>695.8333333333334</ele><time>2026-04-25T09:48:33.033Z</time></trkpt><trkpt lat="43.65803" lon="11.7658917"><ele>694.6666666666667</ele><time>2026-04-25T09:48:34.035Z</time></trkpt><trkpt lat="43.65808" lon="11.7659817"><ele>693.5</ele><time>2026-04-25T09:48:35.027Z</time></trkpt><trkpt lat="43.6581083" lon="11.7660633"><ele>692.3333333333334</ele><time>2026-04-25T09:48:36.027Z</time></trkpt><trkpt lat="43.658145" lon="11.76616"><ele>691.1666666666666</ele><time>2026-04-25T09:48:38.026Z</time></trkpt><trkpt lat="43.6581733" lon="11.766255"><ele>690.0</ele><time>2026-04-25T09:48:40.027Z</time></trkpt><trkpt lat="43.65822" lon="11.7663267"><ele>690.0</ele><time>2026-04-25T09:48:41.026Z</time></trkpt><trkpt lat="43.658275" lon="11.7664067"><ele>690.0</ele><time>2026-04-25T09:48:42.032Z</time></trkpt><trkpt lat="43.6583483" lon="11.7664733"><ele>690.0</ele><time>2026-04-25T09:48:43.033Z</time></trkpt><trkpt lat="43.65843" lon="11.76653"><ele>690.0</ele><time>2026-04-25T09:48:44.033Z</time></trkpt><trkpt lat="43.6585217" lon="11.7665883"><ele>690.0</ele><time>2026-04-25T09:48:45.03Z</time></trkpt><trkpt lat="43.6586267" lon="11.7666367"><ele>690.6666666666666</ele><time>2026-04-25T09:48:46.029Z</time></trkpt><trkpt lat="43.6587267" lon="11.766675"><ele>691.3333333333334</ele><time>2026-04-25T09:48:47.03Z</time></trkpt><trkpt lat="43.658825" lon="11.7667083"><ele>692.0</ele><time>2026-04-25T09:48:48.025Z</time></trkpt><trkpt lat="43.65891" lon="11.7667333"><ele>692.6666666666667</ele><time>2026-04-25T09:48:49.028Z</time></trkpt><trkpt lat="43.6589867" lon="11.7667567"><ele>693.3333333333334</ele><time>2026-04-25T09:48:50.03Z</time></trkpt><trkpt lat="43.6590617" lon="11.7667833"><ele>694.0</ele><time>2026-04-25T09:48:51.027Z</time></trkpt><trkpt lat="43.65914" lon="11.7667883"><ele>694.0</ele><time>2026-04-25T09:48:52.031Z</time></trkpt><trkpt lat="43.6592133" lon="11.7668117"><ele>694.0</ele><time>2026-04-25T09:48:53.03Z</time></trkpt><trkpt lat="43.6592883" lon="11.7668333"><ele>694.0</ele><time>2026-04-25T09:48:54.033Z</time></trkpt><trkpt lat="43.6593667" lon="11.7668683"><ele>694.0</ele><time>2026-04-25T09:48:55.029Z</time></trkpt><trkpt lat="43.6594467" lon="11.76693"><ele>694.0</ele><time>2026-04-25T09:48:56.028Z</time></trkpt><trkpt lat="43.6595283" lon="11.7669867"><ele>694.0</ele><time>2026-04-25T09:48:57.03Z</time></trkpt><trkpt lat="43.6596033" lon="11.7670617"><ele>695.3333333333334</ele><time>2026-04-25T09:48:58.028Z</time></trkpt><trkpt lat="43.659665" lon="11.7671267"><ele>696.6666666666667</ele><time>2026-04-25T09:48:59.026Z</time></trkpt><trkpt lat="43.6597567" lon="11.76714"><ele>698.0</ele><time>2026-04-25T09:49:01.026Z</time></trkpt><trkpt lat="43.6598333" lon="11.7671417"><ele>699.3333333333334</ele><time>2026-04-25T09:49:07.03Z</time></trkpt><trkpt lat="43.6597467" lon="11.767155"><ele>700.6666666666666</ele><time>2026-04-25T09:49:16.025Z</time></trkpt><trkpt lat="43.6597533" lon="11.767245"><ele>702.0</ele><time>2026-04-25T09:49:20.029Z</time></trkpt><trkpt lat="43.6597817" lon="11.767335"><ele>702.0</ele><time>2026-04-25T09:49:22.03Z</time></trkpt><trkpt lat="43.659775" lon="11.7674583"><ele>702.0</ele><time>2026-04-25T09:49:25.034Z</time></trkpt><trkpt lat="43.6597283" lon="11.767535"><ele>702.0</ele><time>2026-04-25T09:49:27.029Z</time></trkpt><trkpt lat="43.6597" lon="11.76764"><ele>702.0</ele><time>2026-04-25T09:49:36.032Z</time></trkpt><trkpt lat="43.6597767" lon="11.767725"><ele>702.0</ele><time>2026-04-25T09:49:38.029Z</time></trkpt><trkpt lat="43.659875" lon="11.7678317"><ele>701.3333333333334</ele><time>2026-04-25T09:49:40.027Z</time></trkpt><trkpt lat="43.6599467" lon="11.767935"><ele>700.6666666666666</ele><time>2026-04-25T09:49:42.03Z</time></trkpt><trkpt lat="43.6600283" lon="11.7680533"><ele>700.0</ele><time>2026-04-25T09:49:44.03Z</time></trkpt><trkpt lat="43.66008" lon="11.7681383"><ele>699.3333333333333</ele><time>2026-04-25T09:49:45.027Z</time></trkpt><trkpt lat="43.6601283" lon="11.76822"><ele>698.6666666666666</ele><time>2026-04-25T09:49:46.026Z</time></trkpt><trkpt lat="43.6601717" lon="11.7682883"><ele>698.0</ele><time>2026-04-25T09:49:47.026Z</time></trkpt><trkpt lat="43.6602867" lon="11.7683883"><ele>699.1666666666666</ele><time>2026-04-25T09:49:49.03Z</time></trkpt><trkpt lat="43.6603533" lon="11.7684433"><ele>700.3333333333333</ele><time>2026-04-25T09:49:50.024Z</time></trkpt><trkpt lat="43.6604133" lon="11.7684967"><ele>701.5</ele><time>2026-04-25T09:49:51.032Z</time></trkpt><trkpt lat="43.660465" lon="11.768555"><ele>702.6666666666666</ele><time>2026-04-25T09:49:52.024Z</time></trkpt><trkpt lat="43.66052" lon="11.7686083"><ele>703.8333333333334</ele><time>2026-04-25T09:49:53.032Z</time></trkpt><trkpt lat="43.66063" lon="11.7686983"><ele>705.0</ele><time>2026-04-25T09:49:55.028Z</time></trkpt><trkpt lat="43.6607133" lon="11.7687317"><ele>705.0</ele><time>2026-04-25T09:49:56.023Z</time></trkpt><trkpt lat="43.660795" lon="11.768765"><ele>705.0</ele><time>2026-04-25T09:49:57.027Z</time></trkpt><trkpt lat="43.6608533" lon="11.7688083"><ele>705.0</ele><time>2026-04-25T09:49:58.028Z</time></trkpt><trkpt lat="43.6609233" lon="11.7688367"><ele>705.0</ele><time>2026-04-25T09:49:59.032Z</time></trkpt><trkpt lat="43.6610017" lon="11.76886"><ele>705.0</ele><time>2026-04-25T09:50:00.029Z</time></trkpt><trkpt lat="43.6610917" lon="11.7688567"><ele>705.0</ele><time>2026-04-25T09:50:01.03Z</time></trkpt><trkpt lat="43.661175" lon="11.76883"><ele>705.2</ele><time>2026-04-25T09:50:02.034Z</time></trkpt><trkpt lat="43.6612733" lon="11.768805"><ele>705.4</ele><time>2026-04-25T09:50:03.032Z</time></trkpt><trkpt lat="43.661375" lon="11.7688083"><ele>705.5999999999999</ele><time>2026-04-25T09:50:04.033Z</time></trkpt><trkpt lat="43.6614733" lon="11.768845"><ele>705.8</ele><time>2026-04-25T09:50:05.032Z</time></trkpt><trkpt lat="43.661585" lon="11.7688917"><ele>706.0</ele><time>2026-04-25T09:50:06.03Z</time></trkpt><trkpt lat="43.6617083" lon="11.7689433"><ele>706.0</ele><time>2026-04-25T09:50:07.029Z</time></trkpt><trkpt lat="43.66182" lon="11.7690017"><ele>706.0</ele><time>2026-04-25T09:50:08.029Z</time></trkpt><trkpt lat="43.6619" lon="11.76908"><ele>706.0</ele><time>2026-04-25T09:50:09.03Z</time></trkpt><trkpt lat="43.6619517" lon="11.76917"><ele>706.0</ele><time>2026-04-25T09:50:10.029Z</time></trkpt><trkpt lat="43.6619833" lon="11.76925"><ele>706.0</ele><time>2026-04-25T09:50:11.028Z</time></trkpt><trkpt lat="43.6619867" lon="11.769425"><ele>707.8333333333334</ele><time>2026-04-25T09:50:13.03Z</time></trkpt><trkpt lat="43.6619883" lon="11.769515"><ele>709.6666666666667</ele><time>2026-04-25T09:50:14.03Z</time></trkpt><trkpt lat="43.6620083" lon="11.7696067"><ele>711.5</ele><time>2026-04-25T09:50:15.028Z</time></trkpt><trkpt lat="43.662055" lon="11.769705"><ele>713.3333333333334</ele><time>2026-04-25T09:50:16.028Z</time></trkpt><trkpt lat="43.6621" lon="11.769795"><ele>715.1666666666666</ele><time>2026-04-25T09:50:17.028Z</time></trkpt><trkpt lat="43.6621512" lon="11.7699003"><ele>717.0</ele><time>2026-04-25T09:50:18.027Z</time></trkpt><trkpt lat="43.6622207" lon="11.7700091"><ele>717.0</ele><time>2026-04-25T09:50:19.028Z</time></trkpt><trkpt lat="43.6622946" lon="11.7701137"><ele>717.0</ele><time>2026-04-25T09:50:20.028Z</time></trkpt><trkpt lat="43.662378" lon="11.7701953"><ele>717.0</ele><time>2026-04-25T09:50:21.036Z</time></trkpt><trkpt lat="43.6624588" lon="11.7702592"><ele>717.0</ele><time>2026-04-25T09:50:22.053Z</time></trkpt><trkpt lat="43.6625336" lon="11.7703128"><ele>717.0</ele><time>2026-04-25T09:50:23.035Z</time></trkpt><trkpt lat="43.6626068" lon="11.7704295"><ele>715.4000000000001</ele><time>2026-04-25T09:50:25.037Z</time></trkpt><trkpt lat="43.6625877" lon="11.7705967"><ele>713.8000000000001</ele><time>2026-04-25T09:50:27.028Z</time></trkpt><trkpt lat="43.6625824" lon="11.7707086"><ele>712.2</ele><time>2026-04-25T09:50:28.032Z</time></trkpt><trkpt lat="43.6625949" lon="11.7708292"><ele>710.6</ele><time>2026-04-25T09:50:29.03Z</time></trkpt><trkpt lat="43.6626184" lon="11.7709538"><ele>709.0</ele><time>2026-04-25T09:50:30.031Z</time></trkpt><trkpt lat="43.6626551" lon="11.7710913"><ele>708.4000000000001</ele><time>2026-04-25T09:50:31.032Z</time></trkpt><trkpt lat="43.662688" lon="11.7712261"><ele>707.8</ele><time>2026-04-25T09:50:32.028Z</time></trkpt><trkpt lat="43.662725" lon="11.7713603"><ele>707.2</ele><time>2026-04-25T09:50:33.033Z</time></trkpt><trkpt lat="43.6627451" lon="11.7714978"><ele>706.5999999999999</ele><time>2026-04-25T09:50:34.034Z</time></trkpt><trkpt lat="43.6627566" lon="11.7716391"><ele>706.0</ele><time>2026-04-25T09:50:35.03Z</time></trkpt><trkpt lat="43.6627776" lon="11.7717856"><ele>711.5999999999999</ele><time>2026-04-25T09:50:36.028Z</time></trkpt><trkpt lat="43.6627997" lon="11.7719386"><ele>717.2</ele><time>2026-04-25T09:50:37.023Z</time></trkpt><trkpt lat="43.6628274" lon="11.7720881"><ele>722.8</ele><time>2026-04-25T09:50:38.028Z</time></trkpt><trkpt lat="43.6628484" lon="11.7722441"><ele>728.4000000000001</ele><time>2026-04-25T09:50:39.028Z</time></trkpt><trkpt lat="43.6628684" lon="11.7723882"><ele>734.0</ele><time>2026-04-25T09:50:40.03Z</time></trkpt><trkpt lat="43.6628877" lon="11.7725228"><ele>734.0</ele><time>2026-04-25T09:50:41.026Z</time></trkpt><trkpt lat="43.6629138" lon="11.7726542"><ele>734.0</ele><time>2026-04-25T09:50:42.033Z</time></trkpt><trkpt lat="43.6629486" lon="11.7727743"><ele>734.0</ele><time>2026-04-25T09:50:43.029Z</time></trkpt><trkpt lat="43.6629912" lon="11.7728839"><ele>734.0</ele><time>2026-04-25T09:50:44.03Z</time></trkpt><trkpt lat="43.6630437" lon="11.7729897"><ele>734.0</ele><time>2026-04-25T09:50:45.033Z</time></trkpt><trkpt lat="43.6630983" lon="11.7731017"><ele>732.8000000000001</ele><time>2026-04-25T09:50:46.028Z</time></trkpt><trkpt lat="43.6631458" lon="11.773216"><ele>731.6</ele><time>2026-04-25T09:50:47.032Z</time></trkpt><trkpt lat="43.6631878" lon="11.7733231"><ele>730.4</ele><time>2026-04-25T09:50:48.027Z</time></trkpt><trkpt lat="43.6632271" lon="11.7734354"><ele>729.2</ele><time>2026-04-25T09:50:49.028Z</time></trkpt><trkpt lat="43.6632692" lon="11.773568"><ele>728.0</ele><time>2026-04-25T09:50:50.032Z</time></trkpt><trkpt lat="43.6633183" lon="11.7737167"><ele>726.3333333333333</ele><time>2026-04-25T09:50:51.029Z</time></trkpt><trkpt lat="43.6633617" lon="11.7738517"><ele>724.6666666666666</ele><time>2026-04-25T09:50:52.026Z</time></trkpt><trkpt lat="43.6633983" lon="11.7739617"><ele>723.0</ele><time>2026-04-25T09:50:53.032Z</time></trkpt><trkpt lat="43.6634233" lon="11.7740717"><ele>721.3333333333334</ele><time>2026-04-25T09:50:54.029Z</time></trkpt><trkpt lat="43.6634533" lon="11.7741667"><ele>719.6666666666667</ele><time>2026-04-25T09:50:55.032Z</time></trkpt><trkpt lat="43.6634767" lon="11.7742533"><ele>718.0</ele><time>2026-04-25T09:50:56.035Z</time></trkpt><trkpt lat="43.6635117" lon="11.774335"><ele>719.2</ele><time>2026-04-25T09:50:58.03Z</time></trkpt><trkpt lat="43.6635733" lon="11.7744167"><ele>720.4</ele><time>2026-04-25T09:51:00.033Z</time></trkpt><trkpt lat="43.6636383" lon="11.7744833"><ele>721.6</ele><time>2026-04-25T09:51:01.036Z</time></trkpt><trkpt lat="43.663725" lon="11.7745667"><ele>722.8000000000001</ele><time>2026-04-25T09:51:02.03Z</time></trkpt><trkpt lat="43.663825" lon="11.7746517"><ele>724.0</ele><time>2026-04-25T09:51:03.031Z</time></trkpt><trkpt lat="43.66393" lon="11.7747383"><ele>724.0</ele><time>2026-04-25T09:51:04.034Z</time></trkpt><trkpt lat="43.6640383" lon="11.7748267"><ele>724.0</ele><time>2026-04-25T09:51:05.031Z</time></trkpt><trkpt lat="43.664135" lon="11.77491"><ele>724.0</ele><time>2026-04-25T09:51:06.037Z</time></trkpt><trkpt lat="43.6642133" lon="11.775"><ele>724.0</ele><time>2026-04-25T09:51:07.032Z</time></trkpt><trkpt lat="43.6642617" lon="11.775085"><ele>724.0</ele><time>2026-04-25T09:51:08.029Z</time></trkpt><trkpt lat="43.6642883" lon="11.7751767"><ele>723.1666666666667</ele><time>2026-04-25T09:51:09.029Z</time></trkpt><trkpt lat="43.6643033" lon="11.7752783"><ele>722.3333333333334</ele><time>2026-04-25T09:51:10.028Z</time></trkpt><trkpt lat="43.664315" lon="11.7753833"><ele>721.5</ele><time>2026-04-25T09:51:11.032Z</time></trkpt><trkpt lat="43.6643367" lon="11.7754767"><ele>720.6666666666666</ele><time>2026-04-25T09:51:12.031Z</time></trkpt><trkpt lat="43.6643767" lon="11.7755483"><ele>719.8333333333333</ele><time>2026-04-25T09:51:13.037Z</time></trkpt><trkpt lat="43.66448" lon="11.7755783"><ele>719.0</ele><time>2026-04-25T09:51:15.037Z</time></trkpt><trkpt lat="43.66455" lon="11.7755633"><ele>718.5</ele><time>2026-04-25T09:51:16.029Z</time></trkpt><trkpt lat="43.6646217" lon="11.7755617"><ele>718.0</ele><time>2026-04-25T09:51:17.028Z</time></trkpt><trkpt lat="43.6646983" lon="11.775565"><ele>717.5</ele><time>2026-04-25T09:51:18.026Z</time></trkpt><trkpt lat="43.66478" lon="11.775565"><ele>717.0</ele><time>2026-04-25T09:51:19.028Z</time></trkpt><trkpt lat="43.6648567" lon="11.775575"><ele>716.5</ele><time>2026-04-25T09:51:20.033Z</time></trkpt><trkpt lat="43.6649367" lon="11.7756033"><ele>716.0</ele><time>2026-04-25T09:51:21.033Z</time></trkpt><trkpt lat="43.6650133" lon="11.77565"><ele>716.0</ele><time>2026-04-25T09:51:22.032Z</time></trkpt><trkpt lat="43.6650933" lon="11.7757017"><ele>716.0</ele><time>2026-04-25T09:51:23.03Z</time></trkpt><trkpt lat="43.665175" lon="11.7757433"><ele>716.0</ele><time>2026-04-25T09:51:24.029Z</time></trkpt><trkpt lat="43.665245" lon="11.7757767"><ele>716.0</ele><time>2026-04-25T09:51:25.034Z</time></trkpt><trkpt lat="43.66531" lon="11.7758017"><ele>716.0</ele><time>2026-04-25T09:51:26.031Z</time></trkpt><trkpt lat="43.6653733" lon="11.77583"><ele>716.0</ele><time>2026-04-25T09:51:27.034Z</time></trkpt><trkpt lat="43.6654433" lon="11.7758567"><ele>716.0</ele><time>2026-04-25T09:51:28.03Z</time></trkpt><trkpt lat="43.6655017" lon="11.7758967"><ele>716.0</ele><time>2026-04-25T09:51:29.027Z</time></trkpt><trkpt lat="43.6655567" lon="11.7759483"><ele>716.0</ele><time>2026-04-25T09:51:30.032Z</time></trkpt><trkpt lat="43.6656233" lon="11.776065"><ele>716.0</ele><time>2026-04-25T09:51:32.031Z</time></trkpt><trkpt lat="43.66566" lon="11.7762233"><ele>716.0</ele><time>2026-04-25T09:51:34.033Z</time></trkpt><trkpt lat="43.66568" lon="11.77632"><ele>716.0</ele><time>2026-04-25T09:51:35.03Z</time></trkpt><trkpt lat="43.6657117" lon="11.7764117"><ele>714.0</ele><time>2026-04-25T09:51:36.031Z</time></trkpt><trkpt lat="43.665745" lon="11.776515"><ele>712.0</ele><time>2026-04-25T09:51:37.037Z</time></trkpt><trkpt lat="43.66579" lon="11.77662"><ele>710.0</ele><time>2026-04-25T09:51:38.034Z</time></trkpt><trkpt lat="43.6658467" lon="11.7767233"><ele>708.0</ele><time>2026-04-25T09:51:39.038Z</time></trkpt><trkpt lat="43.66591" lon="11.7768167"><ele>706.0</ele><time>2026-04-25T09:51:40.032Z</time></trkpt><trkpt lat="43.6659783" lon="11.7769133"><ele>705.5</ele><time>2026-04-25T09:51:41.037Z</time></trkpt><trkpt lat="43.6660233" lon="11.7770083"><ele>705.0</ele><time>2026-04-25T09:51:42.031Z</time></trkpt><trkpt lat="43.6660717" lon="11.7770933"><ele>704.5</ele><time>2026-04-25T09:51:43.036Z</time></trkpt><trkpt lat="43.66612" lon="11.7771833"><ele>704.0</ele><time>2026-04-25T09:51:44.039Z</time></trkpt><trkpt lat="43.6661733" lon="11.7772767"><ele>703.5</ele><time>2026-04-25T09:51:45.028Z</time></trkpt><trkpt lat="43.66624" lon="11.777365"><ele>703.0</ele><time>2026-04-25T09:51:46.032Z</time></trkpt><trkpt lat="43.6663017" lon="11.7774283"><ele>703.0</ele><time>2026-04-25T09:51:47.025Z</time></trkpt><trkpt lat="43.6663567" lon="11.777495"><ele>703.0</ele><time>2026-04-25T09:51:48.029Z</time></trkpt><trkpt lat="43.6664133" lon="11.777565"><ele>703.0</ele><time>2026-04-25T09:51:49.031Z</time></trkpt><trkpt lat="43.6664733" lon="11.7776333"><ele>703.0</ele><time>2026-04-25T09:51:50.029Z</time></trkpt><trkpt lat="43.6665267" lon="11.7777017"><ele>703.0</ele><time>2026-04-25T09:51:51.037Z</time></trkpt><trkpt lat="43.66661" lon="11.7778167"><ele>703.0</ele><time>2026-04-25T09:51:53.03Z</time></trkpt><trkpt lat="43.666665" lon="11.77786"><ele>699.5999999999999</ele><time>2026-04-25T09:51:54.028Z</time></trkpt><trkpt lat="43.6667783" lon="11.7779167"><ele>696.1999999999999</ele><time>2026-04-25T09:51:56.03Z</time></trkpt><trkpt lat="43.666845" lon="11.777945"><ele>692.8</ele><time>2026-04-25T09:51:57.029Z</time></trkpt><trkpt lat="43.6669083" lon="11.7779767"><ele>689.4</ele><time>2026-04-25T09:51:58.028Z</time></trkpt><trkpt lat="43.6669733" lon="11.7780117"><ele>686.0</ele><time>2026-04-25T09:51:59.028Z</time></trkpt><trkpt lat="43.6670833" lon="11.7780967"><ele>686.0</ele><time>2026-04-25T09:52:01.033Z</time></trkpt><trkpt lat="43.66714" lon="11.7781383"><ele>686.0</ele><time>2026-04-25T09:52:02.026Z</time></trkpt><trkpt lat="43.667205" lon="11.7781633"><ele>686.0</ele><time>2026-04-25T09:52:03.029Z</time></trkpt><trkpt lat="43.6672833" lon="11.7781817"><ele>686.0</ele><time>2026-04-25T09:52:04.031Z</time></trkpt><trkpt lat="43.6673683" lon="11.7782117"><ele>686.0</ele><time>2026-04-25T09:52:05.04Z</time></trkpt><trkpt lat="43.6674367" lon="11.7782433"><ele>686.0</ele><time>2026-04-25T09:52:06.052Z</time></trkpt><trkpt lat="43.6675333" lon="11.7783517"><ele>686.0</ele><time>2026-04-25T09:52:08.028Z</time></trkpt><trkpt lat="43.667575" lon="11.7784433"><ele>686.0</ele><time>2026-04-25T09:52:09.035Z</time></trkpt><trkpt lat="43.6676183" lon="11.7785583"><ele>686.0</ele><time>2026-04-25T09:52:10.029Z</time></trkpt><trkpt lat="43.6676467" lon="11.7786783"><ele>686.0</ele><time>2026-04-25T09:52:11.027Z</time></trkpt><trkpt lat="43.6676883" lon="11.778785"><ele>686.0</ele><time>2026-04-25T09:52:12.025Z</time></trkpt><trkpt lat="43.6677233" lon="11.7788833"><ele>686.0</ele><time>2026-04-25T09:52:13.024Z</time></trkpt><trkpt lat="43.6677683" lon="11.779015"><ele>684.0</ele><time>2026-04-25T09:52:15.028Z</time></trkpt><trkpt lat="43.6678533" lon="11.7790933"><ele>682.0</ele><time>2026-04-25T09:52:17.028Z</time></trkpt><trkpt lat="43.6677883" lon="11.7789967"><ele>680.0</ele><time>2026-04-25T09:55:30.034Z</time></trkpt><trkpt lat="43.667765" lon="11.7790867"><ele>678.0</ele><time>2026-04-25T09:55:34.031Z</time></trkpt><trkpt lat="43.667785" lon="11.7792333"><ele>676.0</ele><time>2026-04-25T09:55:36.032Z</time></trkpt><trkpt lat="43.6678" lon="11.77935"><ele>676.5999999999999</ele><time>2026-04-25T09:55:38.03Z</time></trkpt><trkpt lat="43.6678467" lon="11.7794517"><ele>677.2</ele><time>2026-04-25T09:55:40.032Z</time></trkpt><trkpt lat="43.66792" lon="11.7795817"><ele>677.8</ele><time>2026-04-25T09:55:42.028Z</time></trkpt><trkpt lat="43.6679767" lon="11.779695"><ele>678.4000000000001</ele><time>2026-04-25T09:55:44.031Z</time></trkpt><trkpt lat="43.6679983" lon="11.77982"><ele>679.0</ele><time>2026-04-25T09:55:46.034Z</time></trkpt><trkpt lat="43.668035" lon="11.7799517"><ele>679.0</ele><time>2026-04-25T09:55:48.029Z</time></trkpt><trkpt lat="43.6680583" lon="11.7800333"><ele>679.0</ele><time>2026-04-25T09:55:49.029Z</time></trkpt><trkpt lat="43.6680917" lon="11.7801617"><ele>679.0</ele><time>2026-04-25T09:55:51.032Z</time></trkpt><trkpt lat="43.6681033" lon="11.7802783"><ele>679.0</ele><time>2026-04-25T09:55:55.027Z</time></trkpt><trkpt lat="43.66811" lon="11.780405"><ele>679.0</ele><time>2026-04-25T09:55:59.038Z</time></trkpt><trkpt lat="43.668125" lon="11.7805033"><ele>679.0</ele><time>2026-04-25T09:56:02.033Z</time></trkpt><trkpt lat="43.66813" lon="11.7805933"><ele>679.5</ele><time>2026-04-25T09:56:04.026Z</time></trkpt><trkpt lat="43.66813" lon="11.7807317"><ele>680.0</ele><time>2026-04-25T09:56:06.031Z</time></trkpt><trkpt lat="43.66813" lon="11.7808233"><ele>680.5</ele><time>2026-04-25T09:56:07.033Z</time></trkpt><trkpt lat="43.66814" lon="11.7809583"><ele>681.0</ele><time>2026-04-25T09:56:09.031Z</time></trkpt><trkpt lat="43.6681567" lon="11.7810617"><ele>681.5</ele><time>2026-04-25T09:56:11.026Z</time></trkpt><trkpt lat="43.668135" lon="11.7811483"><ele>682.0</ele><time>2026-04-25T09:56:13.034Z</time></trkpt><trkpt lat="43.6681217" lon="11.7812483"><ele>681.0</ele><time>2026-04-25T09:56:15.029Z</time></trkpt><trkpt lat="43.6681167" lon="11.7814117"><ele>680.0</ele><time>2026-04-25T09:56:17.033Z</time></trkpt><trkpt lat="43.6681133" lon="11.7815083"><ele>679.0</ele><time>2026-04-25T09:56:18.027Z</time></trkpt><trkpt lat="43.6681083" lon="11.7816083"><ele>678.0</ele><time>2026-04-25T09:56:19.029Z</time></trkpt><trkpt lat="43.6681117" lon="11.7817133"><ele>677.0</ele><time>2026-04-25T09:56:20.035Z</time></trkpt><trkpt lat="43.6681267" lon="11.7818133"><ele>676.0</ele><time>2026-04-25T09:56:21.027Z</time></trkpt><trkpt lat="43.6681483" lon="11.781905"><ele>674.6666666666667</ele><time>2026-04-25T09:56:22.027Z</time></trkpt><trkpt lat="43.6681483" lon="11.7820633"><ele>673.3333333333334</ele><time>2026-04-25T09:56:24.041Z</time></trkpt><trkpt lat="43.6681417" lon="11.78215"><ele>672.0</ele><time>2026-04-25T09:56:25.033Z</time></trkpt><trkpt lat="43.668145" lon="11.782245"><ele>670.6666666666666</ele><time>2026-04-25T09:56:26.037Z</time></trkpt><trkpt lat="43.6681467" lon="11.78235"><ele>669.3333333333333</ele><time>2026-04-25T09:56:27.03Z</time></trkpt><trkpt lat="43.6681367" lon="11.7824433"><ele>668.0</ele><time>2026-04-25T09:56:28.031Z</time></trkpt><trkpt lat="43.66812" lon="11.7825283"><ele>668.0</ele><time>2026-04-25T09:56:29.037Z</time></trkpt><trkpt lat="43.668105" lon="11.78262"><ele>668.0</ele><time>2026-04-25T09:56:30.024Z</time></trkpt><trkpt lat="43.66808" lon="11.78276"><ele>668.0</ele><time>2026-04-25T09:56:32.026Z</time></trkpt><trkpt lat="43.6680883" lon="11.7829167"><ele>668.0</ele><time>2026-04-25T09:56:34.034Z</time></trkpt><trkpt lat="43.6680833" lon="11.783075"><ele>668.0</ele><time>2026-04-25T09:56:36.035Z</time></trkpt><trkpt lat="43.6681217" lon="11.7831633"><ele>667.0</ele><time>2026-04-25T09:56:38.03Z</time></trkpt><trkpt lat="43.6681583" lon="11.78329"><ele>666.0</ele><time>2026-04-25T09:56:40.032Z</time></trkpt><trkpt lat="43.66819" lon="11.7834617"><ele>665.0</ele><time>2026-04-25T09:56:42.029Z</time></trkpt><trkpt lat="43.6681933" lon="11.7835567"><ele>664.0</ele><time>2026-04-25T09:56:43.029Z</time></trkpt><trkpt lat="43.6681933" lon="11.7836467"><ele>663.0</ele><time>2026-04-25T09:56:44.029Z</time></trkpt><trkpt lat="43.668175" lon="11.7837967"><ele>662.6666666666666</ele><time>2026-04-25T09:56:46.029Z</time></trkpt><trkpt lat="43.66815" lon="11.7838767"><ele>662.3333333333334</ele><time>2026-04-25T09:56:48.032Z</time></trkpt><trkpt lat="43.6681267" lon="11.7839583"><ele>662.0</ele><time>2026-04-25T09:56:57.028Z</time></trkpt><trkpt lat="43.6680517" lon="11.7840367"><ele>661.6666666666667</ele><time>2026-04-25T09:56:59.028Z</time></trkpt><trkpt lat="43.66798" lon="11.78419"><ele>661.3333333333334</ele><time>2026-04-25T09:57:01.035Z</time></trkpt><trkpt lat="43.6679433" lon="11.784295"><ele>661.0</ele><time>2026-04-25T09:57:02.037Z</time></trkpt><trkpt lat="43.6679033" lon="11.7844067"><ele>661.6666666666667</ele><time>2026-04-25T09:57:03.033Z</time></trkpt><trkpt lat="43.66786" lon="11.7845133"><ele>662.3333333333334</ele><time>2026-04-25T09:57:04.035Z</time></trkpt><trkpt lat="43.6678183" lon="11.7846167"><ele>663.0</ele><time>2026-04-25T09:57:05.031Z</time></trkpt><trkpt lat="43.6677817" lon="11.7847117"><ele>663.6666666666666</ele><time>2026-04-25T09:57:06.033Z</time></trkpt><trkpt lat="43.6677467" lon="11.7848117"><ele>664.3333333333333</ele><time>2026-04-25T09:57:07.03Z</time></trkpt><trkpt lat="43.66773" lon="11.7849183"><ele>665.0</ele><time>2026-04-25T09:57:08.032Z</time></trkpt><trkpt lat="43.6677267" lon="11.785025"><ele>665.3333333333333</ele><time>2026-04-25T09:57:09.045Z</time></trkpt><trkpt lat="43.6677367" lon="11.7851367"><ele>665.6666666666666</ele><time>2026-04-25T09:57:10.039Z</time></trkpt><trkpt lat="43.6677517" lon="11.7852717"><ele>666.0</ele><time>2026-04-25T09:57:11.039Z</time></trkpt><trkpt lat="43.6677683" lon="11.7853933"><ele>666.3333333333334</ele><time>2026-04-25T09:57:12.033Z</time></trkpt><trkpt lat="43.667785" lon="11.7855083"><ele>666.6666666666667</ele><time>2026-04-25T09:57:13.03Z</time></trkpt><trkpt lat="43.667795" lon="11.785605"><ele>667.0</ele><time>2026-04-25T09:57:14.033Z</time></trkpt><trkpt lat="43.667765" lon="11.7857767"><ele>661.2</ele><time>2026-04-25T09:57:16.033Z</time></trkpt><trkpt lat="43.6677267" lon="11.785885"><ele>655.4000000000001</ele><time>2026-04-25T09:57:17.037Z</time></trkpt><trkpt lat="43.667685" lon="11.786005"><ele>649.5999999999999</ele><time>2026-04-25T09:57:18.034Z</time></trkpt><trkpt lat="43.6676567" lon="11.7861283"><ele>643.8</ele><time>2026-04-25T09:57:19.032Z</time></trkpt><trkpt lat="43.6676367" lon="11.7862583"><ele>638.0</ele><time>2026-04-25T09:57:20.031Z</time></trkpt><trkpt lat="43.66762" lon="11.7863883"><ele>637.8333333333333</ele><time>2026-04-25T09:57:21.031Z</time></trkpt><trkpt lat="43.6676017" lon="11.7865217"><ele>637.6666666666666</ele><time>2026-04-25T09:57:22.026Z</time></trkpt><trkpt lat="43.66759" lon="11.7866483"><ele>637.5</ele><time>2026-04-25T09:57:23.032Z</time></trkpt><trkpt lat="43.66758" lon="11.7867683"><ele>637.3333333333334</ele><time>2026-04-25T09:57:24.031Z</time></trkpt><trkpt lat="43.6675583" lon="11.7868733"><ele>637.1666666666667</ele><time>2026-04-25T09:57:25.034Z</time></trkpt><trkpt lat="43.6675333" lon="11.7869533"><ele>637.0</ele><time>2026-04-25T09:57:26.032Z</time></trkpt><trkpt lat="43.66749" lon="11.78703"><ele>637.8333333333334</ele><time>2026-04-25T09:57:27.034Z</time></trkpt><trkpt lat="43.6674417" lon="11.7870983"><ele>638.6666666666667</ele><time>2026-04-25T09:57:28.031Z</time></trkpt><trkpt lat="43.6673783" lon="11.7871833"><ele>639.5</ele><time>2026-04-25T09:57:29.027Z</time></trkpt><trkpt lat="43.6673183" lon="11.78725"><ele>640.3333333333334</ele><time>2026-04-25T09:57:30.032Z</time></trkpt><trkpt lat="43.6672467" lon="11.7873183"><ele>641.1666666666666</ele><time>2026-04-25T09:57:31.028Z</time></trkpt><trkpt lat="43.667175" lon="11.7873917"><ele>642.0</ele><time>2026-04-25T09:57:32.031Z</time></trkpt><trkpt lat="43.6671083" lon="11.7874717"><ele>642.0</ele><time>2026-04-25T09:57:33.032Z</time></trkpt><trkpt lat="43.667045" lon="11.787565"><ele>642.0</ele><time>2026-04-25T09:57:34.033Z</time></trkpt><trkpt lat="43.66699" lon="11.787655"><ele>642.0</ele><time>2026-04-25T09:57:35.028Z</time></trkpt><trkpt lat="43.666935" lon="11.7877417"><ele>642.0</ele><time>2026-04-25T09:57:36.036Z</time></trkpt><trkpt lat="43.6668667" lon="11.7878217"><ele>642.0</ele><time>2026-04-25T09:57:37.033Z</time></trkpt><trkpt lat="43.6667867" lon="11.7878817"><ele>642.0</ele><time>2026-04-25T09:57:38.026Z</time></trkpt><trkpt lat="43.66671" lon="11.787935"><ele>638.7142857142857</ele><time>2026-04-25T09:57:39.033Z</time></trkpt><trkpt lat="43.6666467" lon="11.78797"><ele>635.4285714285714</ele><time>2026-04-25T09:57:40.027Z</time></trkpt><trkpt lat="43.6665833" lon="11.7880033"><ele>632.1428571428571</ele><time>2026-04-25T09:57:41.031Z</time></trkpt><trkpt lat="43.66652" lon="11.78801"><ele>628.8571428571429</ele><time>2026-04-25T09:57:42.03Z</time></trkpt><trkpt lat="43.6664683" lon="11.7879517"><ele>625.5714285714286</ele><time>2026-04-25T09:57:43.027Z</time></trkpt><trkpt lat="43.6664133" lon="11.787865"><ele>622.2857142857142</ele><time>2026-04-25T09:57:44.031Z</time></trkpt><trkpt lat="43.666355" lon="11.7877567"><ele>619.0</ele><time>2026-04-25T09:57:45.036Z</time></trkpt><trkpt lat="43.6663083" lon="11.7876517"><ele>617.3333333333334</ele><time>2026-04-25T09:57:46.025Z</time></trkpt><trkpt lat="43.666275" lon="11.7875483"><ele>615.6666666666667</ele><time>2026-04-25T09:57:47.039Z</time></trkpt><trkpt lat="43.66624" lon="11.7874417"><ele>614.0</ele><time>2026-04-25T09:57:48.029Z</time></trkpt><trkpt lat="43.6661983" lon="11.787335"><ele>612.3333333333334</ele><time>2026-04-25T09:57:49.028Z</time></trkpt><trkpt lat="43.6661517" lon="11.787225"><ele>610.6666666666666</ele><time>2026-04-25T09:57:50.032Z</time></trkpt><trkpt lat="43.6661083" lon="11.7871317"><ele>609.0</ele><time>2026-04-25T09:57:51.028Z</time></trkpt><trkpt lat="43.6660583" lon="11.78705"><ele>607.5</ele><time>2026-04-25T09:57:52.031Z</time></trkpt><trkpt lat="43.6659883" lon="11.787"><ele>606.0</ele><time>2026-04-25T09:57:53.026Z</time></trkpt><trkpt lat="43.665905" lon="11.7869617"><ele>604.5</ele><time>2026-04-25T09:57:54.034Z</time></trkpt><trkpt lat="43.6658267" lon="11.7869183"><ele>603.0</ele><time>2026-04-25T09:57:55.029Z</time></trkpt><trkpt lat="43.66575" lon="11.78685"><ele>601.5</ele><time>2026-04-25T09:57:56.031Z</time></trkpt><trkpt lat="43.6656733" lon="11.7867767"><ele>600.0</ele><time>2026-04-25T09:57:57.029Z</time></trkpt><trkpt lat="43.6655983" lon="11.786685"><ele>600.0</ele><time>2026-04-25T09:57:58.03Z</time></trkpt><trkpt lat="43.6655283" lon="11.7865733"><ele>600.0</ele><time>2026-04-25T09:57:59.036Z</time></trkpt><trkpt lat="43.66547" lon="11.7864567"><ele>600.0</ele><time>2026-04-25T09:58:00.028Z</time></trkpt><trkpt lat="43.66542" lon="11.7863333"><ele>600.0</ele><time>2026-04-25T09:58:01.033Z</time></trkpt><trkpt lat="43.6653633" lon="11.78622"><ele>600.0</ele><time>2026-04-25T09:58:02.031Z</time></trkpt><trkpt lat="43.665295" lon="11.7861167"><ele>598.1666666666666</ele><time>2026-04-25T09:58:03.032Z</time></trkpt><trkpt lat="43.6652233" lon="11.7860283"><ele>596.3333333333334</ele><time>2026-04-25T09:58:04.032Z</time></trkpt><trkpt lat="43.6651533" lon="11.7859483"><ele>594.5</ele><time>2026-04-25T09:58:05.031Z</time></trkpt><trkpt lat="43.6650917" lon="11.7858917"><ele>592.6666666666667</ele><time>2026-04-25T09:58:06.028Z</time></trkpt><trkpt lat="43.6650267" lon="11.7858617"><ele>590.8333333333334</ele><time>2026-04-25T09:58:07.033Z</time></trkpt><trkpt lat="43.6649617" lon="11.7858733"><ele>589.0</ele><time>2026-04-25T09:58:08.031Z</time></trkpt><trkpt lat="43.6649" lon="11.78592"><ele>587.2</ele><time>2026-04-25T09:58:09.031Z</time></trkpt><trkpt lat="43.6648333" lon="11.7860233"><ele>585.4</ele><time>2026-04-25T09:58:10.038Z</time></trkpt><trkpt lat="43.664765" lon="11.7861433"><ele>583.6</ele><time>2026-04-25T09:58:11.041Z</time></trkpt><trkpt lat="43.664705" lon="11.7862617"><ele>581.8</ele><time>2026-04-25T09:58:12.029Z</time></trkpt><trkpt lat="43.664665" lon="11.786375"><ele>580.0</ele><time>2026-04-25T09:58:13.032Z</time></trkpt><trkpt lat="43.6646517" lon="11.7864867"><ele>580.0</ele><time>2026-04-25T09:58:14.027Z</time></trkpt><trkpt lat="43.664665" lon="11.7866033"><ele>580.0</ele><time>2026-04-25T09:58:15.027Z</time></trkpt><trkpt lat="43.6646983" lon="11.78674"><ele>580.0</ele><time>2026-04-25T09:58:16.026Z</time></trkpt><trkpt lat="43.6647483" lon="11.7868967"><ele>580.0</ele><time>2026-04-25T09:58:17.031Z</time></trkpt><trkpt lat="43.6648" lon="11.7870583"><ele>580.0</ele><time>2026-04-25T09:58:18.034Z</time></trkpt><trkpt lat="43.6648467" lon="11.7872117"><ele>578.4</ele><time>2026-04-25T09:58:19.037Z</time></trkpt><trkpt lat="43.6648783" lon="11.78735"><ele>576.8</ele><time>2026-04-25T09:58:20.033Z</time></trkpt><trkpt lat="43.66489" lon="11.7874717"><ele>575.2</ele><time>2026-04-25T09:58:21.03Z</time></trkpt><trkpt lat="43.6648783" lon="11.7875783"><ele>573.6</ele><time>2026-04-25T09:58:22.029Z</time></trkpt><trkpt lat="43.664845" lon="11.7876883"><ele>572.0</ele><time>2026-04-25T09:58:23.035Z</time></trkpt><trkpt lat="43.66479" lon="11.7877967"><ele>571.8333333333333</ele><time>2026-04-25T09:58:24.027Z</time></trkpt><trkpt lat="43.6647283" lon="11.7878817"><ele>571.6666666666666</ele><time>2026-04-25T09:58:25.026Z</time></trkpt><trkpt lat="43.6646583" lon="11.7879517"><ele>571.5</ele><time>2026-04-25T09:58:26.033Z</time></trkpt><trkpt lat="43.664585" lon="11.7880017"><ele>571.3333333333334</ele><time>2026-04-25T09:58:27.03Z</time></trkpt><trkpt lat="43.66451" lon="11.7880167"><ele>571.1666666666667</ele><time>2026-04-25T09:58:28.032Z</time></trkpt><trkpt lat="43.6644167" lon="11.7879967"><ele>571.0</ele><time>2026-04-25T09:58:29.031Z</time></trkpt><trkpt lat="43.6643167" lon="11.7879717"><ele>569.2</ele><time>2026-04-25T09:58:30.032Z</time></trkpt><trkpt lat="43.6642183" lon="11.7879583"><ele>567.4000000000001</ele><time>2026-04-25T09:58:31.034Z</time></trkpt><trkpt lat="43.66413" lon="11.787975"><ele>565.6</ele><time>2026-04-25T09:58:32.03Z</time></trkpt><trkpt lat="43.664045" lon="11.78803"><ele>563.8000000000001</ele><time>2026-04-25T09:58:33.03Z</time></trkpt><trkpt lat="43.6639483" lon="11.7881167"><ele>562.0</ele><time>2026-04-25T09:58:34.038Z</time></trkpt><trkpt lat="43.663845" lon="11.7881967"><ele>562.0</ele><time>2026-04-25T09:58:35.032Z</time></trkpt><trkpt lat="43.66375" lon="11.7882333"><ele>562.0</ele><time>2026-04-25T09:58:36.031Z</time></trkpt><trkpt lat="43.6636633" lon="11.788235"><ele>562.0</ele><time>2026-04-25T09:58:37.031Z</time></trkpt><trkpt lat="43.6635667" lon="11.7882233"><ele>562.0</ele><time>2026-04-25T09:58:38.035Z</time></trkpt><trkpt lat="43.6634567" lon="11.7882217"><ele>562.0</ele><time>2026-04-25T09:58:39.033Z</time></trkpt><trkpt lat="43.6633367" lon="11.7882383"><ele>559.5</ele><time>2026-04-25T09:58:40.028Z</time></trkpt><trkpt lat="43.6632117" lon="11.788265"><ele>557.0</ele><time>2026-04-25T09:58:41.031Z</time></trkpt><trkpt lat="43.66308" lon="11.7882833"><ele>554.5</ele><time>2026-04-25T09:58:42.029Z</time></trkpt><trkpt lat="43.6629517" lon="11.7882833"><ele>552.0</ele><time>2026-04-25T09:58:43.03Z</time></trkpt><trkpt lat="43.6628333" lon="11.7882767"><ele>550.6666666666666</ele><time>2026-04-25T09:58:44.028Z</time></trkpt><trkpt lat="43.6627233" lon="11.7882733"><ele>549.3333333333334</ele><time>2026-04-25T09:58:45.033Z</time></trkpt><trkpt lat="43.66263" lon="11.78826"><ele>548.0</ele><time>2026-04-25T09:58:46.027Z</time></trkpt><trkpt lat="43.6625417" lon="11.7882583"><ele>546.6666666666667</ele><time>2026-04-25T09:58:47.032Z</time></trkpt><trkpt lat="43.66246" lon="11.7882633"><ele>545.3333333333334</ele><time>2026-04-25T09:58:48.032Z</time></trkpt><trkpt lat="43.6623883" lon="11.788265"><ele>544.0</ele><time>2026-04-25T09:58:49.033Z</time></trkpt><trkpt lat="43.662305" lon="11.7882183"><ele>544.0</ele><time>2026-04-25T09:58:51.029Z</time></trkpt><trkpt lat="43.6623267" lon="11.7880767"><ele>544.0</ele><time>2026-04-25T09:58:53.032Z</time></trkpt><trkpt lat="43.6623533" lon="11.787995"><ele>544.0</ele><time>2026-04-25T09:58:54.031Z</time></trkpt><trkpt lat="43.662385" lon="11.7878733"><ele>544.0</ele><time>2026-04-25T09:58:56.032Z</time></trkpt><trkpt lat="43.662405" lon="11.78774"><ele>544.0</ele><time>2026-04-25T09:59:06.036Z</time></trkpt><trkpt lat="43.66242" lon="11.7876067"><ele>542.8333333333334</ele><time>2026-04-25T09:59:08.032Z</time></trkpt><trkpt lat="43.6624283" lon="11.7875133"><ele>541.6666666666667</ele><time>2026-04-25T09:59:09.032Z</time></trkpt><trkpt lat="43.6624433" lon="11.7874117"><ele>540.5</ele><time>2026-04-25T09:59:10.029Z</time></trkpt><trkpt lat="43.6624533" lon="11.78731"><ele>539.3333333333334</ele><time>2026-04-25T09:59:11.032Z</time></trkpt><trkpt lat="43.6624717" lon="11.787215"><ele>538.1666666666666</ele><time>2026-04-25T09:59:12.028Z</time></trkpt><trkpt lat="43.6624617" lon="11.7871267"><ele>537.0</ele><time>2026-04-25T09:59:13.028Z</time></trkpt><trkpt lat="43.6623867" lon="11.7870133"><ele>537.0</ele><time>2026-04-25T09:59:15.029Z</time></trkpt><trkpt lat="43.6623067" lon="11.787"><ele>537.0</ele><time>2026-04-25T09:59:16.028Z</time></trkpt><trkpt lat="43.662225" lon="11.7869883"><ele>537.0</ele><time>2026-04-25T09:59:17.029Z</time></trkpt><trkpt lat="43.662135" lon="11.7869817"><ele>537.0</ele><time>2026-04-25T09:59:18.031Z</time></trkpt><trkpt lat="43.6620133" lon="11.787015"><ele>537.0</ele><time>2026-04-25T09:59:19.034Z</time></trkpt><trkpt lat="43.6618917" lon="11.7870433"><ele>533.5</ele><time>2026-04-25T09:59:20.042Z</time></trkpt><trkpt lat="43.6617683" lon="11.7870633"><ele>530.0</ele><time>2026-04-25T09:59:21.039Z</time></trkpt><trkpt lat="43.6616583" lon="11.7871117"><ele>526.5</ele><time>2026-04-25T09:59:22.036Z</time></trkpt><trkpt lat="43.6615483" lon="11.7871583"><ele>523.0</ele><time>2026-04-25T09:59:23.031Z</time></trkpt><trkpt lat="43.6614383" lon="11.7871967"><ele>523.0</ele><time>2026-04-25T09:59:24.035Z</time></trkpt><trkpt lat="43.66134" lon="11.7872467"><ele>523.0</ele><time>2026-04-25T09:59:25.028Z</time></trkpt><trkpt lat="43.6612417" lon="11.7872717"><ele>523.0</ele><time>2026-04-25T09:59:26.028Z</time></trkpt><trkpt lat="43.66115" lon="11.7872983"><ele>523.0</ele><time>2026-04-25T09:59:27.028Z</time></trkpt><trkpt lat="43.6610667" lon="11.7873117"><ele>523.0</ele><time>2026-04-25T09:59:28.025Z</time></trkpt><trkpt lat="43.6609967" lon="11.787345"><ele>520.1999999999999</ele><time>2026-04-25T09:59:29.03Z</time></trkpt><trkpt lat="43.6609417" lon="11.78742"><ele>517.4</ele><time>2026-04-25T09:59:30.027Z</time></trkpt><trkpt lat="43.6609017" lon="11.7875217"><ele>514.5999999999999</ele><time>2026-04-25T09:59:31.036Z</time></trkpt><trkpt lat="43.66089" lon="11.7876783"><ele>511.79999999999995</ele><time>2026-04-25T09:59:32.032Z</time></trkpt><trkpt lat="43.6608833" lon="11.78786"><ele>509.0</ele><time>2026-04-25T09:59:33.035Z</time></trkpt><trkpt lat="43.660845" lon="11.78801"><ele>509.0</ele><time>2026-04-25T09:59:34.029Z</time></trkpt><trkpt lat="43.6608017" lon="11.7881367"><ele>509.0</ele><time>2026-04-25T09:59:35.035Z</time></trkpt><trkpt lat="43.6607517" lon="11.788235"><ele>509.0</ele><time>2026-04-25T09:59:36.031Z</time></trkpt><trkpt lat="43.660685" lon="11.7882983"><ele>509.0</ele><time>2026-04-25T09:59:37.037Z</time></trkpt><trkpt lat="43.6606133" lon="11.7883367"><ele>509.0</ele><time>2026-04-25T09:59:38.027Z</time></trkpt><trkpt lat="43.6604967" lon="11.7882933"><ele>509.0</ele><time>2026-04-25T09:59:40.03Z</time></trkpt><trkpt lat="43.66044" lon="11.7882117"><ele>509.0</ele><time>2026-04-25T09:59:41.029Z</time></trkpt><trkpt lat="43.66038" lon="11.7880817"><ele>509.0</ele><time>2026-04-25T09:59:42.029Z</time></trkpt><trkpt lat="43.6603167" lon="11.78795"><ele>509.0</ele><time>2026-04-25T09:59:43.029Z</time></trkpt><trkpt lat="43.6602617" lon="11.78783"><ele>509.0</ele><time>2026-04-25T09:59:44.038Z</time></trkpt><trkpt lat="43.660205" lon="11.7877333"><ele>505.49999999999994</ele><time>2026-04-25T09:59:45.032Z</time></trkpt><trkpt lat="43.6601517" lon="11.7876667"><ele>502.0</ele><time>2026-04-25T09:59:46.031Z</time></trkpt><trkpt lat="43.66009" lon="11.7876367"><ele>498.5</ele><time>2026-04-25T09:59:47.024Z</time></trkpt><trkpt lat="43.6599883" lon="11.7877"><ele>495.0</ele><time>2026-04-25T09:59:49.029Z</time></trkpt><trkpt lat="43.6599633" lon="11.7878167"><ele>491.49999999999994</ele><time>2026-04-25T09:59:50.039Z</time></trkpt><trkpt lat="43.6599567" lon="11.787955"><ele>488.0</ele><time>2026-04-25T09:59:51.03Z</time></trkpt><trkpt lat="43.659975" lon="11.7880983"><ele>487.59999999999997</ele><time>2026-04-25T09:59:52.031Z</time></trkpt><trkpt lat="43.6599917" lon="11.7882333"><ele>487.19999999999993</ele><time>2026-04-25T09:59:53.032Z</time></trkpt><trkpt lat="43.659985" lon="11.7883517"><ele>486.8</ele><time>2026-04-25T09:59:54.027Z</time></trkpt><trkpt lat="43.65995" lon="11.7884683"><ele>486.4</ele><time>2026-04-25T09:59:55.031Z</time></trkpt><trkpt lat="43.6598767" lon="11.78859"><ele>486.0</ele><time>2026-04-25T09:59:56.027Z</time></trkpt><trkpt lat="43.659795" lon="11.7887017"><ele>487.4</ele><time>2026-04-25T09:59:57.028Z</time></trkpt><trkpt lat="43.6597233" lon="11.7888017"><ele>488.8</ele><time>2026-04-25T09:59:58.027Z</time></trkpt><trkpt lat="43.6596533" lon="11.7888917"><ele>490.19999999999993</ele><time>2026-04-25T09:59:59.038Z</time></trkpt><trkpt lat="43.6595767" lon="11.788955"><ele>491.59999999999997</ele><time>2026-04-25T10:00:00.033Z</time></trkpt><trkpt lat="43.659495" lon="11.7889833"><ele>493.0</ele><time>2026-04-25T10:00:01.029Z</time></trkpt><trkpt lat="43.659405" lon="11.788985"><ele>489.0</ele><time>2026-04-25T10:00:02.028Z</time></trkpt><trkpt lat="43.659305" lon="11.78897"><ele>484.99999999999994</ele><time>2026-04-25T10:00:03.032Z</time></trkpt><trkpt lat="43.6592067" lon="11.7889517"><ele>480.99999999999994</ele><time>2026-04-25T10:00:04.027Z</time></trkpt><trkpt lat="43.6591117" lon="11.78893"><ele>477.0</ele><time>2026-04-25T10:00:05.029Z</time></trkpt><trkpt lat="43.659025" lon="11.7889117"><ele>473.0</ele><time>2026-04-25T10:00:06.029Z</time></trkpt><trkpt lat="43.65894" lon="11.7888933"><ele>472.99999999999994</ele><time>2026-04-25T10:00:07.028Z</time></trkpt><trkpt lat="43.6588583" lon="11.788875"><ele>473.0</ele><time>2026-04-25T10:00:08.027Z</time></trkpt><trkpt lat="43.65878" lon="11.788855"><ele>473.0</ele><time>2026-04-25T10:00:09.029Z</time></trkpt><trkpt lat="43.6587" lon="11.788835"><ele>473.0</ele><time>2026-04-25T10:00:10.028Z</time></trkpt><trkpt lat="43.6586167" lon="11.788815"><ele>472.99999999999994</ele><time>2026-04-25T10:00:11.035Z</time></trkpt><trkpt lat="43.6585283" lon="11.7887933"><ele>473.0</ele><time>2026-04-25T10:00:12.031Z</time></trkpt><trkpt lat="43.6584383" lon="11.78877"><ele>470.8333333333333</ele><time>2026-04-25T10:00:13.028Z</time></trkpt><trkpt lat="43.658355" lon="11.7887467"><ele>468.66666666666663</ele><time>2026-04-25T10:00:14.028Z</time></trkpt><trkpt lat="43.6582817" lon="11.7887267"><ele>466.5</ele><time>2026-04-25T10:00:15.027Z</time></trkpt><trkpt lat="43.6582183" lon="11.78871"><ele>464.33333333333337</ele><time>2026-04-25T10:00:16.027Z</time></trkpt><trkpt lat="43.6581167" lon="11.7887433"><ele>462.1666666666667</ele><time>2026-04-25T10:00:18.033Z</time></trkpt><trkpt lat="43.6580717" lon="11.7888967"><ele>460.0</ele><time>2026-04-25T10:00:20.027Z</time></trkpt><trkpt lat="43.65806" lon="11.7889983"><ele>460.00000000000006</ele><time>2026-04-25T10:00:21.03Z</time></trkpt><trkpt lat="43.65805" lon="11.7891017"><ele>460.0</ele><time>2026-04-25T10:00:22.036Z</time></trkpt><trkpt lat="43.6580433" lon="11.7892083"><ele>460.0</ele><time>2026-04-25T10:00:23.032Z</time></trkpt><trkpt lat="43.6580317" lon="11.7893233"><ele>460.0</ele><time>2026-04-25T10:00:24.026Z</time></trkpt><trkpt lat="43.6580183" lon="11.7894417"><ele>460.00000000000006</ele><time>2026-04-25T10:00:25.027Z</time></trkpt><trkpt lat="43.658005" lon="11.7895717"><ele>460.0</ele><time>2026-04-25T10:00:26.026Z</time></trkpt><trkpt lat="43.6579883" lon="11.789715"><ele>461.8</ele><time>2026-04-25T10:00:27.032Z</time></trkpt><trkpt lat="43.6579683" lon="11.7898583"><ele>463.6</ele><time>2026-04-25T10:00:28.025Z</time></trkpt><trkpt lat="43.6579433" lon="11.789995"><ele>465.4</ele><time>2026-04-25T10:00:29.029Z</time></trkpt><trkpt lat="43.6579133" lon="11.790125"><ele>467.2</ele><time>2026-04-25T10:00:30.026Z</time></trkpt><trkpt lat="43.65788" lon="11.7902467"><ele>469.0</ele><time>2026-04-25T10:00:31.046Z</time></trkpt><trkpt lat="43.6578367" lon="11.7903517"><ele>467.57142857142856</ele><time>2026-04-25T10:00:32.029Z</time></trkpt><trkpt lat="43.657785" lon="11.79042"><ele>466.1428571428571</ele><time>2026-04-25T10:00:33.037Z</time></trkpt><trkpt lat="43.657725" lon="11.790455"><ele>464.7142857142857</ele><time>2026-04-25T10:00:34.031Z</time></trkpt><trkpt lat="43.6576567" lon="11.79046"><ele>463.2857142857143</ele><time>2026-04-25T10:00:35.029Z</time></trkpt><trkpt lat="43.65758" lon="11.790445"><ele>461.85714285714283</ele><time>2026-04-25T10:00:36.031Z</time></trkpt><trkpt lat="43.657505" lon="11.79042"><ele>460.42857142857144</ele><time>2026-04-25T10:00:37.031Z</time></trkpt><trkpt lat="43.65743" lon="11.7903833"><ele>459.0</ele><time>2026-04-25T10:00:38.031Z</time></trkpt><trkpt lat="43.6573633" lon="11.7903267"><ele>459.0</ele><time>2026-04-25T10:00:39.038Z</time></trkpt><trkpt lat="43.6573067" lon="11.7902583"><ele>459.0</ele><time>2026-04-25T10:00:40.03Z</time></trkpt><trkpt lat="43.6572617" lon="11.790165"><ele>459.0</ele><time>2026-04-25T10:00:41.031Z</time></trkpt><trkpt lat="43.6572183" lon="11.7900667"><ele>459.0</ele><time>2026-04-25T10:00:42.027Z</time></trkpt><trkpt lat="43.6571717" lon="11.7899817"><ele>459.0</ele><time>2026-04-25T10:00:43.029Z</time></trkpt><trkpt lat="43.6571217" lon="11.7899083"><ele>459.0</ele><time>2026-04-25T10:00:44.026Z</time></trkpt><trkpt lat="43.657065" lon="11.7898433"><ele>457.42857142857144</ele><time>2026-04-25T10:00:45.039Z</time></trkpt><trkpt lat="43.6570083" lon="11.7897917"><ele>455.85714285714283</ele><time>2026-04-25T10:00:46.03Z</time></trkpt><trkpt lat="43.6569467" lon="11.7897583"><ele>454.2857142857143</ele><time>2026-04-25T10:00:47.034Z</time></trkpt><trkpt lat="43.6568833" lon="11.789755"><ele>452.7142857142857</ele><time>2026-04-25T10:00:48.035Z</time></trkpt><trkpt lat="43.6568267" lon="11.7897967"><ele>451.1428571428571</ele><time>2026-04-25T10:00:49.025Z</time></trkpt><trkpt lat="43.6567733" lon="11.7898667"><ele>449.57142857142856</ele><time>2026-04-25T10:00:50.026Z</time></trkpt><trkpt lat="43.6567183" lon="11.7899533"><ele>448.0</ele><time>2026-04-25T10:00:51.033Z</time></trkpt><trkpt lat="43.6566583" lon="11.790045"><ele>446.1666666666667</ele><time>2026-04-25T10:00:52.035Z</time></trkpt><trkpt lat="43.6565967" lon="11.7901333"><ele>444.33333333333337</ele><time>2026-04-25T10:00:53.034Z</time></trkpt><trkpt lat="43.6565333" lon="11.7902233"><ele>442.5</ele><time>2026-04-25T10:00:54.026Z</time></trkpt><trkpt lat="43.65647" lon="11.790305"><ele>440.66666666666663</ele><time>2026-04-25T10:00:55.03Z</time></trkpt><trkpt lat="43.65641" lon="11.790385"><ele>438.8333333333333</ele><time>2026-04-25T10:00:56.027Z</time></trkpt><trkpt lat="43.6563483" lon="11.7904667"><ele>437.0</ele><time>2026-04-25T10:00:57.028Z</time></trkpt><trkpt lat="43.6562883" lon="11.7905583"><ele>437.0</ele><time>2026-04-25T10:00:58.028Z</time></trkpt><trkpt lat="43.6562167" lon="11.7906433"><ele>437.00000000000006</ele><time>2026-04-25T10:00:59.027Z</time></trkpt><trkpt lat="43.6561533" lon="11.7907367"><ele>437.00000000000006</ele><time>2026-04-25T10:01:00.033Z</time></trkpt><trkpt lat="43.6560917" lon="11.7908317"><ele>437.0</ele><time>2026-04-25T10:01:01.03Z</time></trkpt><trkpt lat="43.6560283" lon="11.790925"><ele>437.0</ele><time>2026-04-25T10:01:02.03Z</time></trkpt><trkpt lat="43.6559583" lon="11.7910083"><ele>432.49999999999994</ele><time>2026-04-25T10:01:03.032Z</time></trkpt><trkpt lat="43.655895" lon="11.7910833"><ele>428.0</ele><time>2026-04-25T10:01:04.037Z</time></trkpt><trkpt lat="43.6558383" lon="11.79114"><ele>423.5</ele><time>2026-04-25T10:01:05.033Z</time></trkpt><trkpt lat="43.655775" lon="11.79117"><ele>419.0</ele><time>2026-04-25T10:01:06.033Z</time></trkpt><trkpt lat="43.6557" lon="11.7911817"><ele>414.49999999999994</ele><time>2026-04-25T10:01:07.027Z</time></trkpt><trkpt lat="43.6556233" lon="11.79116"><ele>410.0</ele><time>2026-04-25T10:01:08.028Z</time></trkpt><trkpt lat="43.6555517" lon="11.79112"><ele>410.0</ele><time>2026-04-25T10:01:09.034Z</time></trkpt><trkpt lat="43.655495" lon="11.7910383"><ele>410.0</ele><time>2026-04-25T10:01:10.027Z</time></trkpt><trkpt lat="43.655445" lon="11.7909417"><ele>410.0</ele><time>2026-04-25T10:01:11.032Z</time></trkpt><trkpt lat="43.6554033" lon="11.7908067"><ele>410.0</ele><time>2026-04-25T10:01:12.029Z</time></trkpt><trkpt lat="43.655355" lon="11.7906817"><ele>410.0</ele><time>2026-04-25T10:01:13.032Z</time></trkpt><trkpt lat="43.6553117" lon="11.790565"><ele>409.49999999999994</ele><time>2026-04-25T10:01:14.026Z</time></trkpt><trkpt lat="43.65527" lon="11.79046"><ele>409.0</ele><time>2026-04-25T10:01:15.033Z</time></trkpt><trkpt lat="43.65521" lon="11.7903733"><ele>408.5</ele><time>2026-04-25T10:01:16.027Z</time></trkpt><trkpt lat="43.6551417" lon="11.7902933"><ele>408.0</ele><time>2026-04-25T10:01:17.037Z</time></trkpt><trkpt lat="43.655085" lon="11.7902167"><ele>407.49999999999994</ele><time>2026-04-25T10:01:18.035Z</time></trkpt><trkpt lat="43.6550417" lon="11.7901467"><ele>407.0</ele><time>2026-04-25T10:01:19.032Z</time></trkpt><trkpt lat="43.6549333" lon="11.7901333"><ele>406.99999999999994</ele><time>2026-04-25T10:01:21.038Z</time></trkpt><trkpt lat="43.65486" lon="11.79016"><ele>407.0</ele><time>2026-04-25T10:01:22.028Z</time></trkpt><trkpt lat="43.654775" lon="11.7901933"><ele>407.0</ele><time>2026-04-25T10:01:23.031Z</time></trkpt><trkpt lat="43.65469" lon="11.79022"><ele>407.0</ele><time>2026-04-25T10:01:24.028Z</time></trkpt><trkpt lat="43.65461" lon="11.790275"><ele>406.99999999999994</ele><time>2026-04-25T10:01:25.035Z</time></trkpt><trkpt lat="43.654535" lon="11.7903433"><ele>407.0</ele><time>2026-04-25T10:01:26.025Z</time></trkpt><trkpt lat="43.65447" lon="11.7904217"><ele>408.0</ele><time>2026-04-25T10:01:27.026Z</time></trkpt><trkpt lat="43.654415" lon="11.790515"><ele>409.0</ele><time>2026-04-25T10:01:28.027Z</time></trkpt><trkpt lat="43.6543567" lon="11.7906133"><ele>410.0</ele><time>2026-04-25T10:01:29.029Z</time></trkpt><trkpt lat="43.6542917" lon="11.790705"><ele>411.0</ele><time>2026-04-25T10:01:30.03Z</time></trkpt><trkpt lat="43.6542217" lon="11.79081"><ele>412.0</ele><time>2026-04-25T10:01:31.029Z</time></trkpt><trkpt lat="43.6541583" lon="11.7909233"><ele>412.0</ele><time>2026-04-25T10:01:32.03Z</time></trkpt><trkpt lat="43.6540967" lon="11.79104"><ele>412.0</ele><time>2026-04-25T10:01:33.026Z</time></trkpt><trkpt lat="43.6540283" lon="11.791155"><ele>412.0</ele><time>2026-04-25T10:01:34.032Z</time></trkpt><trkpt lat="43.653955" lon="11.7912667"><ele>412.0</ele><time>2026-04-25T10:01:35.03Z</time></trkpt><trkpt lat="43.6538783" lon="11.7913767"><ele>412.0</ele><time>2026-04-25T10:01:36.028Z</time></trkpt><trkpt lat="43.65381" lon="11.7915033"><ele>412.0</ele><time>2026-04-25T10:01:37.028Z</time></trkpt><trkpt lat="43.65374" lon="11.7916217"><ele>412.0</ele><time>2026-04-25T10:01:38.027Z</time></trkpt><trkpt lat="43.6536683" lon="11.7917333"><ele>412.0</ele><time>2026-04-25T10:01:39.034Z</time></trkpt><trkpt lat="43.6536033" lon="11.791855"><ele>412.0</ele><time>2026-04-25T10:01:40.029Z</time></trkpt><trkpt lat="43.653545" lon="11.7919817"><ele>412.0</ele><time>2026-04-25T10:01:41.031Z</time></trkpt><trkpt lat="43.653485" lon="11.7920933"><ele>413.83333333333337</ele><time>2026-04-25T10:01:42.031Z</time></trkpt><trkpt lat="43.6534333" lon="11.7921967"><ele>415.6666666666667</ele><time>2026-04-25T10:01:43.031Z</time></trkpt><trkpt lat="43.6533817" lon="11.7922933"><ele>417.5</ele><time>2026-04-25T10:01:44.029Z</time></trkpt><trkpt lat="43.653345" lon="11.792375"><ele>419.33333333333337</ele><time>2026-04-25T10:01:45.03Z</time></trkpt><trkpt lat="43.65328" lon="11.79248"><ele>421.1666666666667</ele><time>2026-04-25T10:01:47.025Z</time></trkpt><trkpt lat="43.6531817" lon="11.7924433"><ele>423.0</ele><time>2026-04-25T10:01:49.03Z</time></trkpt><trkpt lat="43.653125" lon="11.7923917"><ele>423.0</ele><time>2026-04-25T10:01:50.035Z</time></trkpt><trkpt lat="43.6530683" lon="11.7923133"><ele>423.0</ele><time>2026-04-25T10:01:51.043Z</time></trkpt><trkpt lat="43.65302" lon="11.7922033"><ele>423.0</ele><time>2026-04-25T10:01:52.029Z</time></trkpt><trkpt lat="43.6529833" lon="11.7920617"><ele>423.0</ele><time>2026-04-25T10:01:53.032Z</time></trkpt><trkpt lat="43.65293" lon="11.7919317"><ele>423.0</ele><time>2026-04-25T10:01:54.031Z</time></trkpt><trkpt lat="43.6528767" lon="11.791805"><ele>423.3333333333333</ele><time>2026-04-25T10:01:55.028Z</time></trkpt><trkpt lat="43.6528367" lon="11.7916817"><ele>423.66666666666663</ele><time>2026-04-25T10:01:56.028Z</time></trkpt><trkpt lat="43.6527983" lon="11.7915783"><ele>424.0</ele><time>2026-04-25T10:01:57.03Z</time></trkpt><trkpt lat="43.652795" lon="11.7914617"><ele>424.3333333333333</ele><time>2026-04-25T10:01:58.025Z</time></trkpt><trkpt lat="43.6528017" lon="11.7913467"><ele>424.66666666666663</ele><time>2026-04-25T10:01:59.029Z</time></trkpt><trkpt lat="43.65283" lon="11.79124"><ele>425.0</ele><time>2026-04-25T10:02:00.028Z</time></trkpt><trkpt lat="43.6528567" lon="11.7911317"><ele>425.0</ele><time>2026-04-25T10:02:01.025Z</time></trkpt><trkpt lat="43.6528817" lon="11.79105"><ele>425.0</ele><time>2026-04-25T10:02:02.032Z</time></trkpt><trkpt lat="43.652895" lon="11.790955"><ele>425.0</ele><time>2026-04-25T10:02:04.032Z</time></trkpt><trkpt lat="43.6528183" lon="11.79107"><ele>425.0</ele><time>2026-04-25T10:02:08.029Z</time></trkpt><trkpt lat="43.6527767" lon="11.791195"><ele>425.0</ele><time>2026-04-25T10:02:09.027Z</time></trkpt><trkpt lat="43.652745" lon="11.791355"><ele>426.5</ele><time>2026-04-25T10:02:10.032Z</time></trkpt><trkpt lat="43.65269" lon="11.7915083"><ele>428.0</ele><time>2026-04-25T10:02:11.037Z</time></trkpt><trkpt lat="43.6526383" lon="11.7916683"><ele>429.5</ele><time>2026-04-25T10:02:12.029Z</time></trkpt><trkpt lat="43.65257" lon="11.7918267"><ele>431.0</ele><time>2026-04-25T10:02:13.027Z</time></trkpt><trkpt lat="43.652495" lon="11.7919933"><ele>431.0</ele><time>2026-04-25T10:02:14.032Z</time></trkpt><trkpt lat="43.6524233" lon="11.7921633"><ele>431.0</ele><time>2026-04-25T10:02:15.031Z</time></trkpt><trkpt lat="43.6523517" lon="11.79234"><ele>431.0</ele><time>2026-04-25T10:02:16.039Z</time></trkpt><trkpt lat="43.6522867" lon="11.79252"><ele>431.0</ele><time>2026-04-25T10:02:17.033Z</time></trkpt><trkpt lat="43.6522233" lon="11.7926983"><ele>430.5</ele><time>2026-04-25T10:02:18.031Z</time></trkpt><trkpt lat="43.652165" lon="11.792885"><ele>430.0</ele><time>2026-04-25T10:02:19.026Z</time></trkpt><trkpt lat="43.6521233" lon="11.7930817"><ele>429.5</ele><time>2026-04-25T10:02:20.036Z</time></trkpt><trkpt lat="43.6520883" lon="11.79327"><ele>429.0</ele><time>2026-04-25T10:02:21.031Z</time></trkpt><trkpt lat="43.652055" lon="11.7934517"><ele>427.75</ele><time>2026-04-25T10:02:22.031Z</time></trkpt><trkpt lat="43.6520483" lon="11.7936383"><ele>426.5</ele><time>2026-04-25T10:02:23.032Z</time></trkpt><trkpt lat="43.6520767" lon="11.7938267"><ele>425.25</ele><time>2026-04-25T10:02:24.03Z</time></trkpt><trkpt lat="43.6521133" lon="11.79401"><ele>424.0</ele><time>2026-04-25T10:02:25.029Z</time></trkpt><trkpt lat="43.6521267" lon="11.7941983"><ele>422.75</ele><time>2026-04-25T10:02:26.039Z</time></trkpt><trkpt lat="43.6521683" lon="11.79439"><ele>421.5</ele><time>2026-04-25T10:02:27.038Z</time></trkpt><trkpt lat="43.6522217" lon="11.7945767"><ele>420.25</ele><time>2026-04-25T10:02:28.025Z</time></trkpt><trkpt lat="43.652285" lon="11.7947533"><ele>419.0</ele><time>2026-04-25T10:02:29.033Z</time></trkpt><trkpt lat="43.6523383" lon="11.7949167"><ele>419.0</ele><time>2026-04-25T10:02:30.027Z</time></trkpt><trkpt lat="43.6523783" lon="11.79508"><ele>419.0</ele><time>2026-04-25T10:02:31.034Z</time></trkpt><trkpt lat="43.6523933" lon="11.79525"><ele>419.0</ele><time>2026-04-25T10:02:32.028Z</time></trkpt><trkpt lat="43.6523717" lon="11.7954133"><ele>419.0</ele><time>2026-04-25T10:02:33.031Z</time></trkpt><trkpt lat="43.652315" lon="11.7955583"><ele>417.25</ele><time>2026-04-25T10:02:34.03Z</time></trkpt><trkpt lat="43.65223" lon="11.79569"><ele>415.5</ele><time>2026-04-25T10:02:35.032Z</time></trkpt><trkpt lat="43.65213" lon="11.7958117"><ele>413.75</ele><time>2026-04-25T10:02:36.027Z</time></trkpt><trkpt lat="43.65201" lon="11.7959283"><ele>412.0</ele><time>2026-04-25T10:02:37.028Z</time></trkpt><trkpt lat="43.6518983" lon="11.7960567"><ele>411.5</ele><time>2026-04-25T10:02:38.032Z</time></trkpt><trkpt lat="43.6517983" lon="11.7962083"><ele>411.0</ele><time>2026-04-25T10:02:39.034Z</time></trkpt><trkpt lat="43.65171" lon="11.7963617"><ele>410.5</ele><time>2026-04-25T10:02:40.027Z</time></trkpt><trkpt lat="43.65164" lon="11.7965183"><ele>410.0</ele><time>2026-04-25T10:02:41.03Z</time></trkpt><trkpt lat="43.651595" lon="11.7967"><ele>406.75</ele><time>2026-04-25T10:02:42.029Z</time></trkpt><trkpt lat="43.6515783" lon="11.796895"><ele>403.5</ele><time>2026-04-25T10:02:43.035Z</time></trkpt><trkpt lat="43.65157" lon="11.79709"><ele>400.25</ele><time>2026-04-25T10:02:44.033Z</time></trkpt><trkpt lat="43.6515617" lon="11.7972683"><ele>397.0</ele><time>2026-04-25T10:02:45.04Z</time></trkpt><trkpt lat="43.6515333" lon="11.79742"><ele>397.0</ele><time>2026-04-25T10:02:46.03Z</time></trkpt><trkpt lat="43.6514733" lon="11.7975367"><ele>397.0</ele><time>2026-04-25T10:02:47.025Z</time></trkpt><trkpt lat="43.6513833" lon="11.7976317"><ele>397.0</ele><time>2026-04-25T10:02:48.034Z</time></trkpt><trkpt lat="43.651265" lon="11.79773"><ele>397.0</ele><time>2026-04-25T10:02:49.026Z</time></trkpt><trkpt lat="43.651125" lon="11.7978417"><ele>395.6666666666667</ele><time>2026-04-25T10:02:50.029Z</time></trkpt><trkpt lat="43.6509833" lon="11.7979533"><ele>394.33333333333337</ele><time>2026-04-25T10:02:51.03Z</time></trkpt><trkpt lat="43.6508317" lon="11.7980633"><ele>393.0</ele><time>2026-04-25T10:02:52.029Z</time></trkpt><trkpt lat="43.6506883" lon="11.7981717"><ele>393.0</ele><time>2026-04-25T10:02:53.029Z</time></trkpt><trkpt lat="43.6505533" lon="11.798275"><ele>393.0</ele><time>2026-04-25T10:02:54.032Z</time></trkpt><trkpt lat="43.650425" lon="11.7983717"><ele>393.0</ele><time>2026-04-25T10:02:55.028Z</time></trkpt><trkpt lat="43.6503" lon="11.798455"><ele>393.0</ele><time>2026-04-25T10:02:56.027Z</time></trkpt><trkpt lat="43.6501833" lon="11.7985283"><ele>391.5</ele><time>2026-04-25T10:02:57.029Z</time></trkpt><trkpt lat="43.6500717" lon="11.7985933"><ele>390.0</ele><time>2026-04-25T10:02:58.027Z</time></trkpt><trkpt lat="43.6499467" lon="11.7986417"><ele>388.5</ele><time>2026-04-25T10:02:59.034Z</time></trkpt><trkpt lat="43.6498083" lon="11.7986283"><ele>387.0</ele><time>2026-04-25T10:03:00.031Z</time></trkpt><trkpt lat="43.64966" lon="11.798605"><ele>387.0</ele><time>2026-04-25T10:03:01.032Z</time></trkpt><trkpt lat="43.6495117" lon="11.7986467"><ele>387.0</ele><time>2026-04-25T10:03:02.028Z</time></trkpt><trkpt lat="43.6493867" lon="11.7987383"><ele>387.0</ele><time>2026-04-25T10:03:03.034Z</time></trkpt><trkpt lat="43.64929" lon="11.7988433"><ele>387.0</ele><time>2026-04-25T10:03:04.026Z</time></trkpt><trkpt lat="43.6492267" lon="11.7989633"><ele>387.5</ele><time>2026-04-25T10:03:05.029Z</time></trkpt><trkpt lat="43.6492033" lon="11.799125"><ele>388.0</ele><time>2026-04-25T10:03:06.029Z</time></trkpt><trkpt lat="43.649215" lon="11.7993083"><ele>388.5</ele><time>2026-04-25T10:03:07.026Z</time></trkpt><trkpt lat="43.6492083" lon="11.7994933"><ele>389.0</ele><time>2026-04-25T10:03:08.029Z</time></trkpt><trkpt lat="43.64918" lon="11.7996833"><ele>386.66666666666663</ele><time>2026-04-25T10:03:09.026Z</time></trkpt><trkpt lat="43.6491283" lon="11.7998767"><ele>384.3333333333333</ele><time>2026-04-25T10:03:10.025Z</time></trkpt><trkpt lat="43.6490517" lon="11.800065"><ele>382.0</ele><time>2026-04-25T10:03:11.032Z</time></trkpt><trkpt lat="43.6489633" lon="11.80025"><ele>380.0</ele><time>2026-04-25T10:03:12.027Z</time></trkpt><trkpt lat="43.64888" lon="11.8004333"><ele>378.0</ele><time>2026-04-25T10:03:13.028Z</time></trkpt><trkpt lat="43.6488167" lon="11.8006183"><ele>376.0</ele><time>2026-04-25T10:03:14.036Z</time></trkpt><trkpt lat="43.6487667" lon="11.800805"><ele>374.0</ele><time>2026-04-25T10:03:15.031Z</time></trkpt><trkpt lat="43.6487183" lon="11.800985"><ele>374.0</ele><time>2026-04-25T10:03:16.028Z</time></trkpt><trkpt lat="43.6486683" lon="11.8011683"><ele>374.0</ele><time>2026-04-25T10:03:17.033Z</time></trkpt><trkpt lat="43.6486117" lon="11.80136"><ele>374.0</ele><time>2026-04-25T10:03:18.031Z</time></trkpt><trkpt lat="43.6485383" lon="11.80154"><ele>374.0</ele><time>2026-04-25T10:03:19.027Z</time></trkpt><trkpt lat="43.6484483" lon="11.8016967"><ele>374.0</ele><time>2026-04-25T10:03:20.035Z</time></trkpt><trkpt lat="43.6483383" lon="11.80183"><ele>374.0</ele><time>2026-04-25T10:03:21.032Z</time></trkpt><trkpt lat="43.648215" lon="11.8019567"><ele>374.0</ele><time>2026-04-25T10:03:22.03Z</time></trkpt><trkpt lat="43.6480883" lon="11.8020733"><ele>372.0</ele><time>2026-04-25T10:03:23.024Z</time></trkpt><trkpt lat="43.647965" lon="11.8021733"><ele>370.0</ele><time>2026-04-25T10:03:24.03Z</time></trkpt><trkpt lat="43.6478567" lon="11.80228"><ele>368.0</ele><time>2026-04-25T10:03:25.029Z</time></trkpt><trkpt lat="43.6477817" lon="11.8024067"><ele>366.0</ele><time>2026-04-25T10:03:26.029Z</time></trkpt><trkpt lat="43.6477217" lon="11.802545"><ele>366.0</ele><time>2026-04-25T10:03:27.029Z</time></trkpt><trkpt lat="43.6476617" lon="11.8026617"><ele>366.0</ele><time>2026-04-25T10:03:28.031Z</time></trkpt><trkpt lat="43.6475817" lon="11.8027467"><ele>366.0</ele><time>2026-04-25T10:03:29.026Z</time></trkpt><trkpt lat="43.64748" lon="11.8027883"><ele>366.0</ele><time>2026-04-25T10:03:30.03Z</time></trkpt><trkpt lat="43.6473683" lon="11.8027917"><ele>366.0</ele><time>2026-04-25T10:03:31.031Z</time></trkpt><trkpt lat="43.6472733" lon="11.8028067"><ele>364.5</ele><time>2026-04-25T10:03:32.029Z</time></trkpt><trkpt lat="43.6471983" lon="11.8028617"><ele>363.0</ele><time>2026-04-25T10:03:33.034Z</time></trkpt><trkpt lat="43.6471733" lon="11.802945"><ele>361.5</ele><time>2026-04-25T10:03:34.028Z</time></trkpt><trkpt lat="43.6472017" lon="11.8030617"><ele>360.0</ele><time>2026-04-25T10:03:35.031Z</time></trkpt><trkpt lat="43.6472533" lon="11.803165"><ele>358.5</ele><time>2026-04-25T10:03:36.024Z</time></trkpt><trkpt lat="43.6473483" lon="11.8032183"><ele>357.0</ele><time>2026-04-25T10:03:37.027Z</time></trkpt><trkpt lat="43.6474667" lon="11.803235"><ele>357.0</ele><time>2026-04-25T10:03:38.035Z</time></trkpt><trkpt lat="43.64757" lon="11.8032717"><ele>357.0</ele><time>2026-04-25T10:03:39.027Z</time></trkpt><trkpt lat="43.6476633" lon="11.80334"><ele>357.0</ele><time>2026-04-25T10:03:40.035Z</time></trkpt><trkpt lat="43.64772" lon="11.803435"><ele>357.0</ele><time>2026-04-25T10:03:41.027Z</time></trkpt><trkpt lat="43.6477383" lon="11.8035417"><ele>357.0</ele><time>2026-04-25T10:03:42.029Z</time></trkpt><trkpt lat="43.6477" lon="11.8036417"><ele>355.20000000000005</ele><time>2026-04-25T10:03:43.028Z</time></trkpt><trkpt lat="43.6476217" lon="11.8037167"><ele>353.4</ele><time>2026-04-25T10:03:44.025Z</time></trkpt><trkpt lat="43.6475017" lon="11.8037417"><ele>351.6</ele><time>2026-04-25T10:03:45.035Z</time></trkpt><trkpt lat="43.6474183" lon="11.8037983"><ele>349.79999999999995</ele><time>2026-04-25T10:03:46.029Z</time></trkpt><trkpt lat="43.647365" lon="11.803925"><ele>348.0</ele><time>2026-04-25T10:03:47.028Z</time></trkpt><trkpt lat="43.6473383" lon="11.8040933"><ele>348.0</ele><time>2026-04-25T10:03:48.029Z</time></trkpt><trkpt lat="43.64733" lon="11.8042833"><ele>348.0</ele><time>2026-04-25T10:03:49.025Z</time></trkpt><trkpt lat="43.647315" lon="11.8044733"><ele>348.0</ele><time>2026-04-25T10:03:50.032Z</time></trkpt><trkpt lat="43.6473133" lon="11.804665"><ele>348.0</ele><time>2026-04-25T10:03:51.026Z</time></trkpt><trkpt lat="43.6473267" lon="11.8048517"><ele>347.5</ele><time>2026-04-25T10:03:52.029Z</time></trkpt><trkpt lat="43.647365" lon="11.8050383"><ele>347.0</ele><time>2026-04-25T10:03:53.028Z</time></trkpt><trkpt lat="43.647415" lon="11.80521"><ele>346.5</ele><time>2026-04-25T10:03:54.034Z</time></trkpt><trkpt lat="43.6474733" lon="11.8053733"><ele>346.0</ele><time>2026-04-25T10:03:55.028Z</time></trkpt><trkpt lat="43.647525" lon="11.8055417"><ele>345.75</ele><time>2026-04-25T10:03:56.034Z</time></trkpt><trkpt lat="43.6475367" lon="11.8057317"><ele>345.5</ele><time>2026-04-25T10:03:57.032Z</time></trkpt><trkpt lat="43.64754" lon="11.8059283"><ele>345.25</ele><time>2026-04-25T10:03:58.033Z</time></trkpt><trkpt lat="43.6475383" lon="11.8061267"><ele>345.0</ele><time>2026-04-25T10:03:59.031Z</time></trkpt><trkpt lat="43.64753" lon="11.8063233"><ele>343.5</ele><time>2026-04-25T10:04:00.028Z</time></trkpt><trkpt lat="43.6475283" lon="11.80652"><ele>342.0</ele><time>2026-04-25T10:04:01.031Z</time></trkpt><trkpt lat="43.6475233" lon="11.80672"><ele>340.5</ele><time>2026-04-25T10:04:02.029Z</time></trkpt><trkpt lat="43.6475017" lon="11.8069217"><ele>339.0</ele><time>2026-04-25T10:04:03.03Z</time></trkpt><trkpt lat="43.6474717" lon="11.8071233"><ele>338.3333333333333</ele><time>2026-04-25T10:04:04.027Z</time></trkpt><trkpt lat="43.6474367" lon="11.80733"><ele>337.66666666666663</ele><time>2026-04-25T10:04:05.031Z</time></trkpt><trkpt lat="43.64741" lon="11.80754"><ele>337.0</ele><time>2026-04-25T10:04:06.023Z</time></trkpt><trkpt lat="43.647385" lon="11.8077533"><ele>335.66666666666663</ele><time>2026-04-25T10:04:07.029Z</time></trkpt><trkpt lat="43.64737" lon="11.8079683"><ele>334.3333333333333</ele><time>2026-04-25T10:04:08.029Z</time></trkpt><trkpt lat="43.647365" lon="11.8081833"><ele>333.0</ele><time>2026-04-25T10:04:09.032Z</time></trkpt><trkpt lat="43.6473533" lon="11.808395"><ele>333.3333333333333</ele><time>2026-04-25T10:04:10.029Z</time></trkpt><trkpt lat="43.647345" lon="11.8086033"><ele>333.66666666666663</ele><time>2026-04-25T10:04:11.027Z</time></trkpt><trkpt lat="43.647335" lon="11.8088117"><ele>334.0</ele><time>2026-04-25T10:04:12.03Z</time></trkpt><trkpt lat="43.6473233" lon="11.8090217"><ele>334.0</ele><time>2026-04-25T10:04:13.028Z</time></trkpt><trkpt lat="43.647315" lon="11.80923"><ele>334.0</ele><time>2026-04-25T10:04:14.028Z</time></trkpt><trkpt lat="43.6473033" lon="11.8094417"><ele>334.0</ele><time>2026-04-25T10:04:15.033Z</time></trkpt><trkpt lat="43.6472933" lon="11.80965"><ele>335.75</ele><time>2026-04-25T10:04:16.03Z</time></trkpt><trkpt lat="43.6472817" lon="11.8098583"><ele>337.5</ele><time>2026-04-25T10:04:17.029Z</time></trkpt><trkpt lat="43.647265" lon="11.81006"><ele>339.25</ele><time>2026-04-25T10:04:18.029Z</time></trkpt><trkpt lat="43.6472383" lon="11.810265"><ele>341.0</ele><time>2026-04-25T10:04:19.026Z</time></trkpt><trkpt lat="43.6472033" lon="11.8104767"><ele>341.33333333333337</ele><time>2026-04-25T10:04:20.032Z</time></trkpt><trkpt lat="43.6471617" lon="11.810685"><ele>341.6666666666667</ele><time>2026-04-25T10:04:21.027Z</time></trkpt><trkpt lat="43.6471017" lon="11.8108883"><ele>342.0</ele><time>2026-04-25T10:04:22.031Z</time></trkpt><trkpt lat="43.6470267" lon="11.8110867"><ele>337.6666666666667</ele><time>2026-04-25T10:04:23.035Z</time></trkpt><trkpt lat="43.6469383" lon="11.81128"><ele>333.33333333333337</ele><time>2026-04-25T10:04:24.029Z</time></trkpt><trkpt lat="43.6468483" lon="11.8114583"><ele>329.0</ele><time>2026-04-25T10:04:25.029Z</time></trkpt><trkpt lat="43.646765" lon="11.811625"><ele>329.0</ele><time>2026-04-25T10:04:26.027Z</time></trkpt><trkpt lat="43.64669" lon="11.8117833"><ele>329.0</ele><time>2026-04-25T10:04:27.029Z</time></trkpt><trkpt lat="43.6466167" lon="11.81193"><ele>329.0</ele><time>2026-04-25T10:04:28.029Z</time></trkpt><trkpt lat="43.64656" lon="11.8120833"><ele>329.0</ele><time>2026-04-25T10:04:29.03Z</time></trkpt><trkpt lat="43.6465217" lon="11.8122567"><ele>328.5</ele><time>2026-04-25T10:04:30.03Z</time></trkpt><trkpt lat="43.6465083" lon="11.812445"><ele>328.0</ele><time>2026-04-25T10:04:31.03Z</time></trkpt><trkpt lat="43.6465167" lon="11.8126433"><ele>327.5</ele><time>2026-04-25T10:04:32.033Z</time></trkpt><trkpt lat="43.646555" lon="11.8128417"><ele>327.0</ele><time>2026-04-25T10:04:33.026Z</time></trkpt><trkpt lat="43.6466133" lon="11.81303"><ele>326.25</ele><time>2026-04-25T10:04:34.029Z</time></trkpt><trkpt lat="43.6466783" lon="11.8132033"><ele>325.5</ele><time>2026-04-25T10:04:35.031Z</time></trkpt><trkpt lat="43.6467483" lon="11.813375"><ele>324.75</ele><time>2026-04-25T10:04:36.031Z</time></trkpt><trkpt lat="43.6468183" lon="11.813555"><ele>324.0</ele><time>2026-04-25T10:04:37.044Z</time></trkpt><trkpt lat="43.646885" lon="11.8137417"><ele>322.6666666666667</ele><time>2026-04-25T10:04:38.028Z</time></trkpt><trkpt lat="43.6469417" lon="11.8139367"><ele>321.33333333333337</ele><time>2026-04-25T10:04:39.029Z</time></trkpt><trkpt lat="43.6469683" lon="11.8141467"><ele>320.0</ele><time>2026-04-25T10:04:40.026Z</time></trkpt><trkpt lat="43.6469633" lon="11.81436"><ele>320.0</ele><time>2026-04-25T10:04:41.032Z</time></trkpt><trkpt lat="43.64694" lon="11.8145683"><ele>320.0</ele><time>2026-04-25T10:04:42.029Z</time></trkpt><trkpt lat="43.6469083" lon="11.8147717"><ele>320.0</ele><time>2026-04-25T10:04:43.025Z</time></trkpt><trkpt lat="43.6468717" lon="11.814975"><ele>320.33333333333337</ele><time>2026-04-25T10:04:44.027Z</time></trkpt><trkpt lat="43.64684" lon="11.8151767"><ele>320.6666666666667</ele><time>2026-04-25T10:04:45.029Z</time></trkpt><trkpt lat="43.646805" lon="11.8153817"><ele>321.0</ele><time>2026-04-25T10:04:46.026Z</time></trkpt><trkpt lat="43.64677" lon="11.8155883"><ele>321.0</ele><time>2026-04-25T10:04:47.027Z</time></trkpt><trkpt lat="43.6467367" lon="11.815795"><ele>321.0</ele><time>2026-04-25T10:04:48.03Z</time></trkpt><trkpt lat="43.6466967" lon="11.8159983"><ele>321.0</ele><time>2026-04-25T10:04:49.025Z</time></trkpt><trkpt lat="43.6466433" lon="11.8161983"><ele>320.6666666666667</ele><time>2026-04-25T10:04:50.027Z</time></trkpt><trkpt lat="43.6465817" lon="11.8163983"><ele>320.33333333333337</ele><time>2026-04-25T10:04:51.026Z</time></trkpt><trkpt lat="43.6465133" lon="11.8165883"><ele>320.0</ele><time>2026-04-25T10:04:52.032Z</time></trkpt><trkpt lat="43.64645" lon="11.8167667"><ele>319.75</ele><time>2026-04-25T10:04:53.026Z</time></trkpt><trkpt lat="43.6463933" lon="11.816935"><ele>319.5</ele><time>2026-04-25T10:04:54.031Z</time></trkpt><trkpt lat="43.646335" lon="11.8170933"><ele>319.25</ele><time>2026-04-25T10:04:55.027Z</time></trkpt><trkpt lat="43.6462733" lon="11.81725"><ele>319.0</ele><time>2026-04-25T10:04:56.029Z</time></trkpt><trkpt lat="43.6462117" lon="11.8174083"><ele>319.0</ele><time>2026-04-25T10:04:57.03Z</time></trkpt><trkpt lat="43.6461533" lon="11.8175567"><ele>319.0</ele><time>2026-04-25T10:04:58.029Z</time></trkpt><trkpt lat="43.6460967" lon="11.8177017"><ele>319.0</ele><time>2026-04-25T10:04:59.031Z</time></trkpt><trkpt lat="43.6460383" lon="11.8178583"><ele>319.0</ele><time>2026-04-25T10:05:00.028Z</time></trkpt><trkpt lat="43.6459783" lon="11.8180283"><ele>317.5</ele><time>2026-04-25T10:05:01.028Z</time></trkpt><trkpt lat="43.6459167" lon="11.8182033"><ele>316.0</ele><time>2026-04-25T10:05:02.031Z</time></trkpt><trkpt lat="43.6458533" lon="11.818375"><ele>314.5</ele><time>2026-04-25T10:05:03.026Z</time></trkpt><trkpt lat="43.645785" lon="11.8185367"><ele>313.0</ele><time>2026-04-25T10:05:04.028Z</time></trkpt><trkpt lat="43.6457217" lon="11.81869"><ele>312.8</ele><time>2026-04-25T10:05:05.029Z</time></trkpt><trkpt lat="43.64567" lon="11.8188083"><ele>312.6</ele><time>2026-04-25T10:05:06.025Z</time></trkpt><trkpt lat="43.6456233" lon="11.8189267"><ele>312.4</ele><time>2026-04-25T10:05:07.034Z</time></trkpt><trkpt lat="43.6455767" lon="11.8190667"><ele>312.2</ele><time>2026-04-25T10:05:08.033Z</time></trkpt><trkpt lat="43.6455217" lon="11.8192367"><ele>312.0</ele><time>2026-04-25T10:05:09.036Z</time></trkpt><trkpt lat="43.6454517" lon="11.8194233"><ele>312.0</ele><time>2026-04-25T10:05:10.026Z</time></trkpt><trkpt lat="43.6453817" lon="11.81963"><ele>312.0</ele><time>2026-04-25T10:05:11.03Z</time></trkpt><trkpt lat="43.645325" lon="11.8198617"><ele>312.0</ele><time>2026-04-25T10:05:12.023Z</time></trkpt><trkpt lat="43.6452833" lon="11.8201083"><ele>311.6666666666667</ele><time>2026-04-25T10:05:13.036Z</time></trkpt><trkpt lat="43.645235" lon="11.8203583"><ele>311.33333333333337</ele><time>2026-04-25T10:05:14.028Z</time></trkpt><trkpt lat="43.645185" lon="11.82061"><ele>311.0</ele><time>2026-04-25T10:05:15.032Z</time></trkpt><trkpt lat="43.6451383" lon="11.820875"><ele>311.33333333333337</ele><time>2026-04-25T10:05:16.024Z</time></trkpt><trkpt lat="43.6450967" lon="11.8211333"><ele>311.6666666666667</ele><time>2026-04-25T10:05:17.029Z</time></trkpt><trkpt lat="43.6450583" lon="11.8213767"><ele>312.0</ele><time>2026-04-25T10:05:18.034Z</time></trkpt><trkpt lat="43.64502" lon="11.8216117"><ele>311.6666666666667</ele><time>2026-04-25T10:05:19.035Z</time></trkpt><trkpt lat="43.6449833" lon="11.82184"><ele>311.33333333333337</ele><time>2026-04-25T10:05:20.03Z</time></trkpt><trkpt lat="43.64495" lon="11.8220517"><ele>311.0</ele><time>2026-04-25T10:05:21.037Z</time></trkpt><trkpt lat="43.644915" lon="11.8222517"><ele>311.0</ele><time>2026-04-25T10:05:22.029Z</time></trkpt><trkpt lat="43.644885" lon="11.82245"><ele>311.0</ele><time>2026-04-25T10:05:23.025Z</time></trkpt><trkpt lat="43.6448633" lon="11.8226283"><ele>311.0</ele><time>2026-04-25T10:05:24.033Z</time></trkpt><trkpt lat="43.644835" lon="11.8227817"><ele>311.0</ele><time>2026-04-25T10:05:25.027Z</time></trkpt><trkpt lat="43.6448067" lon="11.82292"><ele>310.6666666666667</ele><time>2026-04-25T10:05:26.029Z</time></trkpt><trkpt lat="43.6447817" lon="11.823035"><ele>310.33333333333337</ele><time>2026-04-25T10:05:27.026Z</time></trkpt><trkpt lat="43.64477" lon="11.823125"><ele>310.0</ele><time>2026-04-25T10:05:28.029Z</time></trkpt><trkpt lat="43.6447583" lon="11.8232617"><ele>309.6666666666667</ele><time>2026-04-25T10:05:30.029Z</time></trkpt><trkpt lat="43.6448033" lon="11.82334"><ele>309.3333333333333</ele><time>2026-04-25T10:05:32.032Z</time></trkpt><trkpt lat="43.6449167" lon="11.8233583"><ele>309.0</ele><time>2026-04-25T10:08:11.025Z</time></trkpt><trkpt lat="43.6449867" lon="11.823385"><ele>309.0</ele><time>2026-04-25T10:08:12.033Z</time></trkpt><trkpt lat="43.645075" lon="11.8234167"><ele>309.0</ele><time>2026-04-25T10:08:13.029Z</time></trkpt><trkpt lat="43.645165" lon="11.8234483"><ele>309.0</ele><time>2026-04-25T10:08:14.029Z</time></trkpt><trkpt lat="43.6452483" lon="11.823475"><ele>309.0</ele><time>2026-04-25T10:08:15.029Z</time></trkpt><trkpt lat="43.6453317" lon="11.8235017"><ele>309.0</ele><time>2026-04-25T10:08:16.03Z</time></trkpt><trkpt lat="43.6454217" lon="11.823525"><ele>309.0</ele><time>2026-04-25T10:08:17.027Z</time></trkpt><trkpt lat="43.645515" lon="11.8235483"><ele>308.2</ele><time>2026-04-25T10:08:18.032Z</time></trkpt><trkpt lat="43.6456117" lon="11.8235633"><ele>307.4</ele><time>2026-04-25T10:08:19.033Z</time></trkpt><trkpt lat="43.645715" lon="11.8235733"><ele>306.6</ele><time>2026-04-25T10:08:20.024Z</time></trkpt><trkpt lat="43.6458233" lon="11.8235683"><ele>305.8</ele><time>2026-04-25T10:08:21.034Z</time></trkpt><trkpt lat="43.6459283" lon="11.82356"><ele>305.0</ele><time>2026-04-25T10:08:22.029Z</time></trkpt><trkpt lat="43.6460267" lon="11.8235433"><ele>305.0</ele><time>2026-04-25T10:08:23.026Z</time></trkpt><trkpt lat="43.6461183" lon="11.82352"><ele>305.0</ele><time>2026-04-25T10:08:24.03Z</time></trkpt><trkpt lat="43.646215" lon="11.8234883"><ele>305.0</ele><time>2026-04-25T10:08:25.028Z</time></trkpt><trkpt lat="43.64631" lon="11.823465"><ele>305.0</ele><time>2026-04-25T10:08:26.028Z</time></trkpt><trkpt lat="43.6463967" lon="11.823455"><ele>305.0</ele><time>2026-04-25T10:08:27.026Z</time></trkpt><trkpt lat="43.6464767" lon="11.82347"><ele>305.6666666666667</ele><time>2026-04-25T10:08:28.029Z</time></trkpt><trkpt lat="43.6465467" lon="11.8235"><ele>306.33333333333337</ele><time>2026-04-25T10:08:29.032Z</time></trkpt><trkpt lat="43.6466017" lon="11.8235517"><ele>307.0</ele><time>2026-04-25T10:08:30.032Z</time></trkpt><trkpt lat="43.646665" lon="11.82371"><ele>307.6666666666667</ele><time>2026-04-25T10:08:32.032Z</time></trkpt><trkpt lat="43.6466917" lon="11.82382"><ele>308.3333333333333</ele><time>2026-04-25T10:08:33.032Z</time></trkpt><trkpt lat="43.6467167" lon="11.8239433"><ele>309.0</ele><time>2026-04-25T10:08:34.032Z</time></trkpt><trkpt lat="43.6467383" lon="11.8240683"><ele>309.0</ele><time>2026-04-25T10:08:35.035Z</time></trkpt><trkpt lat="43.646755" lon="11.8242017"><ele>309.0</ele><time>2026-04-25T10:08:36.028Z</time></trkpt><trkpt lat="43.646775" lon="11.824345"><ele>309.0</ele><time>2026-04-25T10:08:37.048Z</time></trkpt><trkpt lat="43.6467983" lon="11.8244883"><ele>309.0</ele><time>2026-04-25T10:08:38.026Z</time></trkpt><trkpt lat="43.64682" lon="11.824635"><ele>309.0</ele><time>2026-04-25T10:08:39.03Z</time></trkpt><trkpt lat="43.6468333" lon="11.8247833"><ele>308.8</ele><time>2026-04-25T10:08:40.027Z</time></trkpt><trkpt lat="43.64684" lon="11.8249367"><ele>308.59999999999997</ele><time>2026-04-25T10:08:41.033Z</time></trkpt><trkpt lat="43.646845" lon="11.8250817"><ele>308.4</ele><time>2026-04-25T10:08:42.029Z</time></trkpt><trkpt lat="43.6468517" lon="11.8252267"><ele>308.2</ele><time>2026-04-25T10:08:43.037Z</time></trkpt><trkpt lat="43.6468517" lon="11.82537"><ele>308.0</ele><time>2026-04-25T10:08:44.029Z</time></trkpt><trkpt lat="43.64684" lon="11.8255133"><ele>308.0</ele><time>2026-04-25T10:08:45.038Z</time></trkpt><trkpt lat="43.646815" lon="11.8256517"><ele>308.0</ele><time>2026-04-25T10:08:46.032Z</time></trkpt><trkpt lat="43.64679" lon="11.82578"><ele>308.0</ele><time>2026-04-25T10:08:47.027Z</time></trkpt><trkpt lat="43.6467567" lon="11.8258967"><ele>308.0</ele><time>2026-04-25T10:08:48.028Z</time></trkpt><trkpt lat="43.64674" lon="11.8260083"><ele>308.0</ele><time>2026-04-25T10:08:49.027Z</time></trkpt><trkpt lat="43.6467233" lon="11.8261283"><ele>307.8</ele><time>2026-04-25T10:08:50.037Z</time></trkpt><trkpt lat="43.646715" lon="11.826255"><ele>307.6</ele><time>2026-04-25T10:08:51.029Z</time></trkpt><trkpt lat="43.6467133" lon="11.8263767"><ele>307.4</ele><time>2026-04-25T10:08:52.028Z</time></trkpt><trkpt lat="43.6467267" lon="11.8265017"><ele>307.2</ele><time>2026-04-25T10:08:53.03Z</time></trkpt><trkpt lat="43.6467183" lon="11.826635"><ele>307.0</ele><time>2026-04-25T10:08:54.028Z</time></trkpt><trkpt lat="43.646725" lon="11.8267667"><ele>306.0</ele><time>2026-04-25T10:08:55.03Z</time></trkpt><trkpt lat="43.6467267" lon="11.8269017"><ele>305.0</ele><time>2026-04-25T10:08:56.03Z</time></trkpt><trkpt lat="43.646735" lon="11.827045"><ele>304.0</ele><time>2026-04-25T10:08:57.029Z</time></trkpt><trkpt lat="43.6467317" lon="11.8271917"><ele>303.0</ele><time>2026-04-25T10:08:58.028Z</time></trkpt><trkpt lat="43.64673" lon="11.8273467"><ele>302.0</ele><time>2026-04-25T10:08:59.024Z</time></trkpt><trkpt lat="43.6467383" lon="11.8275083"><ele>302.0</ele><time>2026-04-25T10:09:00.027Z</time></trkpt><trkpt lat="43.6467433" lon="11.8276617"><ele>302.0</ele><time>2026-04-25T10:09:01.026Z</time></trkpt><trkpt lat="43.6467417" lon="11.8278133"><ele>302.0</ele><time>2026-04-25T10:09:02.028Z</time></trkpt><trkpt lat="43.646745" lon="11.8279717"><ele>302.0</ele><time>2026-04-25T10:09:03.028Z</time></trkpt><trkpt lat="43.64675" lon="11.8281317"><ele>302.0</ele><time>2026-04-25T10:09:04.027Z</time></trkpt><trkpt lat="43.6467583" lon="11.8282883"><ele>302.0</ele><time>2026-04-25T10:09:05.028Z</time></trkpt><trkpt lat="43.6467717" lon="11.82844"><ele>302.0</ele><time>2026-04-25T10:09:06.029Z</time></trkpt><trkpt lat="43.64679" lon="11.8285967"><ele>302.0</ele><time>2026-04-25T10:09:07.031Z</time></trkpt><trkpt lat="43.6468133" lon="11.8287583"><ele>301.25</ele><time>2026-04-25T10:09:08.03Z</time></trkpt><trkpt lat="43.6468383" lon="11.8289217"><ele>300.5</ele><time>2026-04-25T10:09:09.028Z</time></trkpt><trkpt lat="43.646865" lon="11.8290933"><ele>299.75</ele><time>2026-04-25T10:09:10.028Z</time></trkpt><trkpt lat="43.6468933" lon="11.8292683"><ele>299.0</ele><time>2026-04-25T10:09:11.035Z</time></trkpt><trkpt lat="43.6469233" lon="11.8294483"><ele>299.0</ele><time>2026-04-25T10:09:12.028Z</time></trkpt><trkpt lat="43.6469517" lon="11.8296167"><ele>299.0</ele><time>2026-04-25T10:09:13.029Z</time></trkpt><trkpt lat="43.6469683" lon="11.82978"><ele>299.0</ele><time>2026-04-25T10:09:14.033Z</time></trkpt><trkpt lat="43.6469767" lon="11.829945"><ele>299.0</ele><time>2026-04-25T10:09:15.028Z</time></trkpt><trkpt lat="43.6469733" lon="11.830105"><ele>298.83333333333337</ele><time>2026-04-25T10:09:16.029Z</time></trkpt><trkpt lat="43.646965" lon="11.8302517"><ele>298.6666666666667</ele><time>2026-04-25T10:09:17.026Z</time></trkpt><trkpt lat="43.6469683" lon="11.830385"><ele>298.5</ele><time>2026-04-25T10:09:18.027Z</time></trkpt><trkpt lat="43.646965" lon="11.8304983"><ele>298.3333333333333</ele><time>2026-04-25T10:09:19.03Z</time></trkpt><trkpt lat="43.646965" lon="11.83059"><ele>298.16666666666663</ele><time>2026-04-25T10:09:20.032Z</time></trkpt><trkpt lat="43.6469467" lon="11.8307"><ele>298.0</ele><time>2026-04-25T10:09:22.028Z</time></trkpt><trkpt lat="43.6469817" lon="11.8308067"><ele>298.75</ele><time>2026-04-25T10:09:27.026Z</time></trkpt><trkpt lat="43.6470433" lon="11.8308517"><ele>299.5</ele><time>2026-04-25T10:09:28.029Z</time></trkpt><trkpt lat="43.6471467" lon="11.83088"><ele>300.25</ele><time>2026-04-25T10:09:29.03Z</time></trkpt><trkpt lat="43.647285" lon="11.8308933"><ele>301.0</ele><time>2026-04-25T10:09:30.029Z</time></trkpt><trkpt lat="43.6474333" lon="11.830915"><ele>301.0</ele><time>2026-04-25T10:09:31.027Z</time></trkpt><trkpt lat="43.64759" lon="11.8309417"><ele>301.0</ele><time>2026-04-25T10:09:32.026Z</time></trkpt><trkpt lat="43.64774" lon="11.8309683"><ele>301.0</ele><time>2026-04-25T10:09:33.033Z</time></trkpt><trkpt lat="43.6478783" lon="11.8309933"><ele>301.0</ele><time>2026-04-25T10:09:34.029Z</time></trkpt><trkpt lat="43.648005" lon="11.8310183"><ele>300.75</ele><time>2026-04-25T10:09:35.028Z</time></trkpt><trkpt lat="43.6481267" lon="11.8310433"><ele>300.5</ele><time>2026-04-25T10:09:36.031Z</time></trkpt><trkpt lat="43.6482467" lon="11.83107"><ele>300.25</ele><time>2026-04-25T10:09:37.032Z</time></trkpt><trkpt lat="43.6483683" lon="11.8310983"><ele>300.0</ele><time>2026-04-25T10:09:38.028Z</time></trkpt><trkpt lat="43.648485" lon="11.831135"><ele>300.0</ele><time>2026-04-25T10:09:39.027Z</time></trkpt><trkpt lat="43.6486017" lon="11.83119"><ele>300.0</ele><time>2026-04-25T10:09:40.029Z</time></trkpt><trkpt lat="43.6487167" lon="11.8312617"><ele>300.0</ele><time>2026-04-25T10:09:41.027Z</time></trkpt><trkpt lat="43.6488317" lon="11.831335"><ele>300.0</ele><time>2026-04-25T10:09:42.029Z</time></trkpt><trkpt lat="43.6489467" lon="11.8314067"><ele>300.75</ele><time>2026-04-25T10:09:43.029Z</time></trkpt><trkpt lat="43.6490633" lon="11.8314733"><ele>301.5</ele><time>2026-04-25T10:09:44.029Z</time></trkpt><trkpt lat="43.6491733" lon="11.8315383"><ele>302.25</ele><time>2026-04-25T10:09:45.03Z</time></trkpt><trkpt lat="43.649285" lon="11.8316067"><ele>303.0</ele><time>2026-04-25T10:09:46.034Z</time></trkpt><trkpt lat="43.6494" lon="11.8316717"><ele>304.25</ele><time>2026-04-25T10:09:47.032Z</time></trkpt><trkpt lat="43.6495233" lon="11.831725"><ele>305.5</ele><time>2026-04-25T10:09:48.028Z</time></trkpt><trkpt lat="43.6496617" lon="11.8317583"><ele>306.75</ele><time>2026-04-25T10:09:49.025Z</time></trkpt><trkpt lat="43.649805" lon="11.8317767"><ele>308.0</ele><time>2026-04-25T10:09:50.027Z</time></trkpt><trkpt lat="43.64995" lon="11.8317917"><ele>308.0</ele><time>2026-04-25T10:09:51.03Z</time></trkpt><trkpt lat="43.6500983" lon="11.831805"><ele>308.0</ele><time>2026-04-25T10:09:52.025Z</time></trkpt><trkpt lat="43.650245" lon="11.8318267"><ele>308.0</ele><time>2026-04-25T10:09:53.029Z</time></trkpt><trkpt lat="43.65039" lon="11.8318583"><ele>308.0</ele><time>2026-04-25T10:09:54.027Z</time></trkpt><trkpt lat="43.6505317" lon="11.8318967"><ele>306.25</ele><time>2026-04-25T10:09:55.028Z</time></trkpt><trkpt lat="43.65067" lon="11.8319283"><ele>304.5</ele><time>2026-04-25T10:09:56.029Z</time></trkpt><trkpt lat="43.6508" lon="11.831955"><ele>302.75</ele><time>2026-04-25T10:09:57.032Z</time></trkpt><trkpt lat="43.6509233" lon="11.8319817"><ele>301.0</ele><time>2026-04-25T10:09:58.03Z</time></trkpt><trkpt lat="43.6510333" lon="11.8320017"><ele>301.8</ele><time>2026-04-25T10:09:59.028Z</time></trkpt><trkpt lat="43.6511367" lon="11.8320267"><ele>302.6</ele><time>2026-04-25T10:10:00.03Z</time></trkpt><trkpt lat="43.6512233" lon="11.8320583"><ele>303.4</ele><time>2026-04-25T10:10:01.028Z</time></trkpt><trkpt lat="43.65128" lon="11.8321433"><ele>304.2</ele><time>2026-04-25T10:10:02.026Z</time></trkpt><trkpt lat="43.65131" lon="11.83225"><ele>305.0</ele><time>2026-04-25T10:10:03.028Z</time></trkpt><trkpt lat="43.6513117" lon="11.8323833"><ele>305.0</ele><time>2026-04-25T10:10:04.031Z</time></trkpt><trkpt lat="43.651285" lon="11.832545"><ele>305.0</ele><time>2026-04-25T10:10:05.029Z</time></trkpt><trkpt lat="43.6512483" lon="11.8327033"><ele>305.0</ele><time>2026-04-25T10:10:06.031Z</time></trkpt><trkpt lat="43.651225" lon="11.8328517"><ele>305.0</ele><time>2026-04-25T10:10:07.026Z</time></trkpt><trkpt lat="43.6512067" lon="11.8329883"><ele>304.6</ele><time>2026-04-25T10:10:08.028Z</time></trkpt><trkpt lat="43.6511867" lon="11.833125"><ele>304.2</ele><time>2026-04-25T10:10:09.03Z</time></trkpt><trkpt lat="43.6511583" lon="11.8332567"><ele>303.8</ele><time>2026-04-25T10:10:10.032Z</time></trkpt><trkpt lat="43.6511367" lon="11.8333883"><ele>303.4</ele><time>2026-04-25T10:10:11.034Z</time></trkpt><trkpt lat="43.651115" lon="11.8335217"><ele>303.0</ele><time>2026-04-25T10:10:12.032Z</time></trkpt><trkpt lat="43.6510967" lon="11.833655"><ele>303.0</ele><time>2026-04-25T10:10:13.026Z</time></trkpt><trkpt lat="43.651075" lon="11.8337917"><ele>303.0</ele><time>2026-04-25T10:10:14.028Z</time></trkpt><trkpt lat="43.65106" lon="11.833935"><ele>303.0</ele><time>2026-04-25T10:10:15.028Z</time></trkpt><trkpt lat="43.6510433" lon="11.834085"><ele>303.0</ele><time>2026-04-25T10:10:16.028Z</time></trkpt><trkpt lat="43.65103" lon="11.8342367"><ele>303.0</ele><time>2026-04-25T10:10:17.026Z</time></trkpt><trkpt lat="43.6510117" lon="11.83439"><ele>303.0</ele><time>2026-04-25T10:10:18.029Z</time></trkpt><trkpt lat="43.6509933" lon="11.83454"><ele>303.0</ele><time>2026-04-25T10:10:19.027Z</time></trkpt><trkpt lat="43.65098" lon="11.8346717"><ele>303.0</ele><time>2026-04-25T10:10:20.032Z</time></trkpt><trkpt lat="43.650965" lon="11.83478"><ele>303.0</ele><time>2026-04-25T10:10:21.028Z</time></trkpt><trkpt lat="43.6509417" lon="11.8349133"><ele>303.0</ele><time>2026-04-25T10:10:23.028Z</time></trkpt><trkpt lat="43.650865" lon="11.8349867"><ele>303.0</ele><time>2026-04-25T10:10:27.028Z</time></trkpt><trkpt lat="43.65079" lon="11.834955"><ele>303.0</ele><time>2026-04-25T10:10:28.037Z</time></trkpt><trkpt lat="43.6507017" lon="11.8348983"><ele>303.0</ele><time>2026-04-25T10:10:29.028Z</time></trkpt><trkpt lat="43.6505983" lon="11.83485"><ele>303.0</ele><time>2026-04-25T10:10:30.03Z</time></trkpt><trkpt lat="43.650485" lon="11.8348133"><ele>303.0</ele><time>2026-04-25T10:10:31.026Z</time></trkpt><trkpt lat="43.6503683" lon="11.8347717"><ele>303.25</ele><time>2026-04-25T10:10:32.035Z</time></trkpt><trkpt lat="43.6502483" lon="11.8347283"><ele>303.5</ele><time>2026-04-25T10:10:33.035Z</time></trkpt><trkpt lat="43.6501233" lon="11.8346967"><ele>303.75</ele><time>2026-04-25T10:10:34.028Z</time></trkpt><trkpt lat="43.6499967" lon="11.834675"><ele>304.0</ele><time>2026-04-25T10:10:35.031Z</time></trkpt><trkpt lat="43.649865" lon="11.8346733"><ele>304.0</ele><time>2026-04-25T10:10:36.026Z</time></trkpt><trkpt lat="43.649735" lon="11.8346733"><ele>304.0</ele><time>2026-04-25T10:10:37.034Z</time></trkpt><trkpt lat="43.6496017" lon="11.834675"><ele>304.0</ele><time>2026-04-25T10:10:38.025Z</time></trkpt><trkpt lat="43.64947" lon="11.8346867"><ele>304.0</ele><time>2026-04-25T10:10:39.034Z</time></trkpt><trkpt lat="43.6493383" lon="11.8346967"><ele>304.0</ele><time>2026-04-25T10:10:40.026Z</time></trkpt><trkpt lat="43.649205" lon="11.834705"><ele>304.0</ele><time>2026-04-25T10:10:41.032Z</time></trkpt><trkpt lat="43.6490717" lon="11.8347217"><ele>304.0</ele><time>2026-04-25T10:10:42.035Z</time></trkpt><trkpt lat="43.64894" lon="11.834735"><ele>304.0</ele><time>2026-04-25T10:10:43.031Z</time></trkpt><trkpt lat="43.6488033" lon="11.834745"><ele>304.0</ele><time>2026-04-25T10:10:44.03Z</time></trkpt><trkpt lat="43.6486667" lon="11.8347583"><ele>304.0</ele><time>2026-04-25T10:10:45.031Z</time></trkpt><trkpt lat="43.6485283" lon="11.8347683"><ele>304.0</ele><time>2026-04-25T10:10:46.027Z</time></trkpt><trkpt lat="43.648385" lon="11.8347783"><ele>304.0</ele><time>2026-04-25T10:10:47.03Z</time></trkpt><trkpt lat="43.648235" lon="11.83479"><ele>304.0</ele><time>2026-04-25T10:10:48.027Z</time></trkpt><trkpt lat="43.64808" lon="11.8348083"><ele>304.0</ele><time>2026-04-25T10:10:49.032Z</time></trkpt><trkpt lat="43.6479217" lon="11.8348267"><ele>304.0</ele><time>2026-04-25T10:10:50.03Z</time></trkpt><trkpt lat="43.6477617" lon="11.834845"><ele>303.3333333333333</ele><time>2026-04-25T10:10:51.029Z</time></trkpt><trkpt lat="43.6476033" lon="11.834865"><ele>302.6666666666667</ele><time>2026-04-25T10:10:52.029Z</time></trkpt><trkpt lat="43.6474467" lon="11.8348833"><ele>302.0</ele><time>2026-04-25T10:10:53.028Z</time></trkpt><trkpt lat="43.6472933" lon="11.8348983"><ele>302.0</ele><time>2026-04-25T10:10:54.035Z</time></trkpt><trkpt lat="43.6471467" lon="11.8349117"><ele>302.0</ele><time>2026-04-25T10:10:55.03Z</time></trkpt><trkpt lat="43.647005" lon="11.8349183"><ele>302.0</ele><time>2026-04-25T10:10:56.03Z</time></trkpt><trkpt lat="43.64686" lon="11.8349333"><ele>302.0</ele><time>2026-04-25T10:10:57.034Z</time></trkpt><trkpt lat="43.64671" lon="11.8349533"><ele>301.33333333333337</ele><time>2026-04-25T10:10:58.032Z</time></trkpt><trkpt lat="43.6465533" lon="11.834965"><ele>300.6666666666667</ele><time>2026-04-25T10:10:59.031Z</time></trkpt><trkpt lat="43.646395" lon="11.8349733"><ele>300.0</ele><time>2026-04-25T10:11:00.035Z</time></trkpt><trkpt lat="43.6462417" lon="11.834985"><ele>301.0</ele><time>2026-04-25T10:11:01.032Z</time></trkpt><trkpt lat="43.6461017" lon="11.8349933"><ele>302.0</ele><time>2026-04-25T10:11:02.03Z</time></trkpt><trkpt lat="43.645975" lon="11.8350067"><ele>303.0</ele><time>2026-04-25T10:11:03.03Z</time></trkpt><trkpt lat="43.6458583" lon="11.8350167"><ele>304.0</ele><time>2026-04-25T10:11:04.029Z</time></trkpt><trkpt lat="43.645765" lon="11.8350533"><ele>304.0</ele><time>2026-04-25T10:11:05.029Z</time></trkpt><trkpt lat="43.6456883" lon="11.83509"><ele>304.0</ele><time>2026-04-25T10:11:06.031Z</time></trkpt><trkpt lat="43.64564" lon="11.8351917"><ele>304.0</ele><time>2026-04-25T10:11:08.029Z</time></trkpt><trkpt lat="43.6457533" lon="11.8352383"><ele>304.0</ele><time>2026-04-25T10:11:10.029Z</time></trkpt><trkpt lat="43.6458333" lon="11.835245"><ele>304.0</ele><time>2026-04-25T10:11:11.032Z</time></trkpt><trkpt lat="43.645915" lon="11.8352617"><ele>304.8</ele><time>2026-04-25T10:11:12.025Z</time></trkpt><trkpt lat="43.64599" lon="11.835305"><ele>305.59999999999997</ele><time>2026-04-25T10:11:13.031Z</time></trkpt><trkpt lat="43.646045" lon="11.8353883"><ele>306.4</ele><time>2026-04-25T10:11:14.029Z</time></trkpt><trkpt lat="43.6460683" lon="11.8355233"><ele>307.2</ele><time>2026-04-25T10:11:15.04Z</time></trkpt><trkpt lat="43.646085" lon="11.8356833"><ele>308.0</ele><time>2026-04-25T10:11:16.026Z</time></trkpt><trkpt lat="43.646095" lon="11.835845"><ele>308.8</ele><time>2026-04-25T10:11:17.03Z</time></trkpt><trkpt lat="43.646105" lon="11.8359967"><ele>309.6</ele><time>2026-04-25T10:11:18.032Z</time></trkpt><trkpt lat="43.6461183" lon="11.8361367"><ele>310.4</ele><time>2026-04-25T10:11:19.032Z</time></trkpt><trkpt lat="43.6461283" lon="11.8362583"><ele>311.2</ele><time>2026-04-25T10:11:20.026Z</time></trkpt><trkpt lat="43.6461433" lon="11.8363717"><ele>312.0</ele><time>2026-04-25T10:11:21.029Z</time></trkpt><trkpt lat="43.64618" lon="11.8364667"><ele>312.0</ele><time>2026-04-25T10:11:22.026Z</time></trkpt><trkpt lat="43.6462517" lon="11.8365317"><ele>312.0</ele><time>2026-04-25T10:11:23.029Z</time></trkpt><trkpt lat="43.6463533" lon="11.836575"><ele>312.0</ele><time>2026-04-25T10:11:24.024Z</time></trkpt><trkpt lat="43.6464733" lon="11.836595"><ele>312.0</ele><time>2026-04-25T10:11:25.028Z</time></trkpt><trkpt lat="43.646605" lon="11.836615"><ele>312.0</ele><time>2026-04-25T10:11:26.028Z</time></trkpt><trkpt lat="43.6467467" lon="11.8366383"><ele>312.0</ele><time>2026-04-25T10:11:27.032Z</time></trkpt><trkpt lat="43.646885" lon="11.8366717"><ele>312.0</ele><time>2026-04-25T10:11:28.032Z</time></trkpt><trkpt lat="43.6470183" lon="11.8367133"><ele>312.0</ele><time>2026-04-25T10:11:29.033Z</time></trkpt><trkpt lat="43.6471533" lon="11.8367633"><ele>312.0</ele><time>2026-04-25T10:11:30.033Z</time></trkpt><trkpt lat="43.6472917" lon="11.836825"><ele>316.75</ele><time>2026-04-25T10:11:31.03Z</time></trkpt><trkpt lat="43.647425" lon="11.8368867"><ele>321.5</ele><time>2026-04-25T10:11:32.028Z</time></trkpt><trkpt lat="43.6475517" lon="11.8369467"><ele>326.25</ele><time>2026-04-25T10:11:33.029Z</time></trkpt><trkpt lat="43.647675" lon="11.8370017"><ele>331.0</ele><time>2026-04-25T10:11:34.028Z</time></trkpt><trkpt lat="43.6477833" lon="11.837085"><ele>329.25</ele><time>2026-04-25T10:11:35.027Z</time></trkpt><trkpt lat="43.6478933" lon="11.8371983"><ele>327.5</ele><time>2026-04-25T10:11:36.029Z</time></trkpt><trkpt lat="43.6479983" lon="11.837315"><ele>325.75</ele><time>2026-04-25T10:11:37.027Z</time></trkpt><trkpt lat="43.6481" lon="11.8374167"><ele>324.0</ele><time>2026-04-25T10:11:38.027Z</time></trkpt><trkpt lat="43.6482033" lon="11.8374967"><ele>324.0</ele><time>2026-04-25T10:11:39.028Z</time></trkpt><trkpt lat="43.64832" lon="11.8375417"><ele>324.0</ele><time>2026-04-25T10:11:40.029Z</time></trkpt><trkpt lat="43.6484533" lon="11.8375583"><ele>324.0</ele><time>2026-04-25T10:11:41.031Z</time></trkpt><trkpt lat="43.6485917" lon="11.8375617"><ele>324.0</ele><time>2026-04-25T10:11:42.031Z</time></trkpt><trkpt lat="43.648735" lon="11.8375567"><ele>324.5</ele><time>2026-04-25T10:11:43.03Z</time></trkpt><trkpt lat="43.6488783" lon="11.8375517"><ele>325.0</ele><time>2026-04-25T10:11:44.03Z</time></trkpt><trkpt lat="43.64902" lon="11.83754"><ele>325.5</ele><time>2026-04-25T10:11:45.028Z</time></trkpt><trkpt lat="43.6491633" lon="11.8375317"><ele>326.0</ele><time>2026-04-25T10:11:46.031Z</time></trkpt><trkpt lat="43.6493067" lon="11.8375283"><ele>326.0</ele><time>2026-04-25T10:11:47.03Z</time></trkpt><trkpt lat="43.6494467" lon="11.8375267"><ele>326.0</ele><time>2026-04-25T10:11:48.028Z</time></trkpt><trkpt lat="43.64958" lon="11.837525"><ele>326.0</ele><time>2026-04-25T10:11:49.031Z</time></trkpt><trkpt lat="43.6497" lon="11.837535"><ele>326.0</ele><time>2026-04-25T10:11:50.028Z</time></trkpt><trkpt lat="43.64981" lon="11.83754"><ele>326.5</ele><time>2026-04-25T10:11:51.036Z</time></trkpt><trkpt lat="43.649915" lon="11.837575"><ele>327.0</ele><time>2026-04-25T10:11:52.029Z</time></trkpt><trkpt lat="43.6500267" lon="11.8376333"><ele>327.5</ele><time>2026-04-25T10:11:53.031Z</time></trkpt><trkpt lat="43.650145" lon="11.8376917"><ele>328.0</ele><time>2026-04-25T10:11:54.035Z</time></trkpt><trkpt lat="43.650245" lon="11.8377533"><ele>329.4</ele><time>2026-04-25T10:11:55.027Z</time></trkpt><trkpt lat="43.6503233" lon="11.837835"><ele>330.79999999999995</ele><time>2026-04-25T10:11:56.03Z</time></trkpt><trkpt lat="43.6503783" lon="11.8379433"><ele>332.2</ele><time>2026-04-25T10:11:57.029Z</time></trkpt><trkpt lat="43.6504083" lon="11.83809"><ele>333.6</ele><time>2026-04-25T10:11:58.023Z</time></trkpt><trkpt lat="43.65042" lon="11.838265"><ele>335.0</ele><time>2026-04-25T10:11:59.032Z</time></trkpt><trkpt lat="43.6504267" lon="11.8384633"><ele>337.0</ele><time>2026-04-25T10:12:00.025Z</time></trkpt><trkpt lat="43.6504383" lon="11.8386617"><ele>339.0</ele><time>2026-04-25T10:12:01.032Z</time></trkpt><trkpt lat="43.6504483" lon="11.8388433"><ele>341.0</ele><time>2026-04-25T10:12:02.03Z</time></trkpt><trkpt lat="43.6504683" lon="11.838995"><ele>343.0</ele><time>2026-04-25T10:12:03.034Z</time></trkpt><trkpt lat="43.650515" lon="11.83912"><ele>343.0</ele><time>2026-04-25T10:12:04.029Z</time></trkpt><trkpt lat="43.650595" lon="11.83922"><ele>343.0</ele><time>2026-04-25T10:12:05.028Z</time></trkpt><trkpt lat="43.6507067" lon="11.8392883"><ele>343.0</ele><time>2026-04-25T10:12:06.026Z</time></trkpt><trkpt lat="43.6508333" lon="11.8393333"><ele>343.0</ele><time>2026-04-25T10:12:07.029Z</time></trkpt><trkpt lat="43.6509617" lon="11.83937"><ele>341.59999999999997</ele><time>2026-04-25T10:12:08.031Z</time></trkpt><trkpt lat="43.6510717" lon="11.8394117"><ele>340.2</ele><time>2026-04-25T10:12:09.03Z</time></trkpt><trkpt lat="43.6511567" lon="11.83947"><ele>338.8</ele><time>2026-04-25T10:12:10.026Z</time></trkpt><trkpt lat="43.6512133" lon="11.8395483"><ele>337.4</ele><time>2026-04-25T10:12:11.029Z</time></trkpt><trkpt lat="43.6512383" lon="11.83965"><ele>336.0</ele><time>2026-04-25T10:12:12.032Z</time></trkpt><trkpt lat="43.6512217" lon="11.839765"><ele>336.0</ele><time>2026-04-25T10:12:13.028Z</time></trkpt><trkpt lat="43.65117" lon="11.8398633"><ele>336.0</ele><time>2026-04-25T10:12:14.032Z</time></trkpt><trkpt lat="43.6511067" lon="11.8399217"><ele>336.0</ele><time>2026-04-25T10:12:15.025Z</time></trkpt><trkpt lat="43.6510167" lon="11.8399317"><ele>336.0</ele><time>2026-04-25T10:12:16.03Z</time></trkpt><trkpt lat="43.6508883" lon="11.8398917"><ele>336.0</ele><time>2026-04-25T10:12:17.025Z</time></trkpt><trkpt lat="43.65078" lon="11.8398333"><ele>340.75</ele><time>2026-04-25T10:12:18.027Z</time></trkpt><trkpt lat="43.6506767" lon="11.8398267"><ele>345.5</ele><time>2026-04-25T10:12:19.026Z</time></trkpt><trkpt lat="43.65058" lon="11.8398667"><ele>350.25</ele><time>2026-04-25T10:12:20.03Z</time></trkpt><trkpt lat="43.650475" lon="11.8399567"><ele>355.0</ele><time>2026-04-25T10:12:21.035Z</time></trkpt><trkpt lat="43.65037" lon="11.840065"><ele>359.0</ele><time>2026-04-25T10:12:22.029Z</time></trkpt><trkpt lat="43.6502517" lon="11.8401433"><ele>363.0</ele><time>2026-04-25T10:12:23.026Z</time></trkpt><trkpt lat="43.6501317" lon="11.8402283"><ele>367.0</ele><time>2026-04-25T10:12:24.031Z</time></trkpt><trkpt lat="43.6500133" lon="11.84031"><ele>371.0</ele><time>2026-04-25T10:12:25.029Z</time></trkpt><trkpt lat="43.649895" lon="11.8403833"><ele>371.0</ele><time>2026-04-25T10:12:26.035Z</time></trkpt><trkpt lat="43.649775" lon="11.84046"><ele>371.0</ele><time>2026-04-25T10:12:27.028Z</time></trkpt><trkpt lat="43.6496517" lon="11.840535"><ele>371.0</ele><time>2026-04-25T10:12:28.03Z</time></trkpt><trkpt lat="43.6495267" lon="11.8406133"><ele>371.0</ele><time>2026-04-25T10:12:29.028Z</time></trkpt><trkpt lat="43.6494033" lon="11.8406917"><ele>371.0</ele><time>2026-04-25T10:12:30.026Z</time></trkpt><trkpt lat="43.6492817" lon="11.8407733"><ele>371.0</ele><time>2026-04-25T10:12:31.026Z</time></trkpt><trkpt lat="43.6491667" lon="11.84085"><ele>371.0</ele><time>2026-04-25T10:12:32.027Z</time></trkpt><trkpt lat="43.64905" lon="11.8409183"><ele>371.0</ele><time>2026-04-25T10:12:33.03Z</time></trkpt><trkpt lat="43.648925" lon="11.8409817"><ele>373.0</ele><time>2026-04-25T10:12:34.032Z</time></trkpt><trkpt lat="43.64879" lon="11.841045"><ele>375.0</ele><time>2026-04-25T10:12:35.028Z</time></trkpt><trkpt lat="43.648655" lon="11.84111"><ele>377.0</ele><time>2026-04-25T10:12:36.03Z</time></trkpt><trkpt lat="43.64852" lon="11.8411767"><ele>379.0</ele><time>2026-04-25T10:12:37.034Z</time></trkpt><trkpt lat="43.6483833" lon="11.84125"><ele>380.75</ele><time>2026-04-25T10:12:38.025Z</time></trkpt><trkpt lat="43.648245" lon="11.8413217"><ele>382.5</ele><time>2026-04-25T10:12:39.035Z</time></trkpt><trkpt lat="43.6481083" lon="11.8413933"><ele>384.25</ele><time>2026-04-25T10:12:40.025Z</time></trkpt><trkpt lat="43.6479733" lon="11.84146"><ele>386.0</ele><time>2026-04-25T10:12:41.031Z</time></trkpt><trkpt lat="43.6478467" lon="11.8415183"><ele>387.0</ele><time>2026-04-25T10:12:42.03Z</time></trkpt><trkpt lat="43.647735" lon="11.841565"><ele>388.0</ele><time>2026-04-25T10:12:43.027Z</time></trkpt><trkpt lat="43.6476283" lon="11.8415867"><ele>389.0</ele><time>2026-04-25T10:12:44.028Z</time></trkpt><trkpt lat="43.64752" lon="11.8415633"><ele>390.0</ele><time>2026-04-25T10:12:45.028Z</time></trkpt><trkpt lat="43.6474083" lon="11.8415"><ele>390.0</ele><time>2026-04-25T10:12:46.033Z</time></trkpt><trkpt lat="43.6472983" lon="11.8413983"><ele>390.0</ele><time>2026-04-25T10:12:47.034Z</time></trkpt><trkpt lat="43.6471933" lon="11.8413033"><ele>390.0</ele><time>2026-04-25T10:12:48.027Z</time></trkpt><trkpt lat="43.6471017" lon="11.84124"><ele>390.0</ele><time>2026-04-25T10:12:49.025Z</time></trkpt><trkpt lat="43.6470133" lon="11.8412133"><ele>391.0</ele><time>2026-04-25T10:12:50.028Z</time></trkpt><trkpt lat="43.646925" lon="11.8412433"><ele>392.0</ele><time>2026-04-25T10:12:51.035Z</time></trkpt><trkpt lat="43.646845" lon="11.841315"><ele>393.0</ele><time>2026-04-25T10:12:52.028Z</time></trkpt><trkpt lat="43.6467733" lon="11.841435"><ele>394.0</ele><time>2026-04-25T10:12:53.027Z</time></trkpt><trkpt lat="43.64671" lon="11.8415817"><ele>395.0</ele><time>2026-04-25T10:12:54.028Z</time></trkpt><trkpt lat="43.64663" lon="11.8417233"><ele>397.25</ele><time>2026-04-25T10:12:55.028Z</time></trkpt><trkpt lat="43.6465433" lon="11.8418633"><ele>399.5</ele><time>2026-04-25T10:12:56.032Z</time></trkpt><trkpt lat="43.6464583" lon="11.8420033"><ele>401.75</ele><time>2026-04-25T10:12:57.034Z</time></trkpt><trkpt lat="43.64638" lon="11.8421333"><ele>404.0</ele><time>2026-04-25T10:12:58.028Z</time></trkpt><trkpt lat="43.64631" lon="11.842245"><ele>404.0</ele><time>2026-04-25T10:12:59.031Z</time></trkpt><trkpt lat="43.64625" lon="11.84235"><ele>404.0</ele><time>2026-04-25T10:13:00.026Z</time></trkpt><trkpt lat="43.64622" lon="11.842465"><ele>404.0</ele><time>2026-04-25T10:13:01.027Z</time></trkpt><trkpt lat="43.646225" lon="11.8425833"><ele>404.0</ele><time>2026-04-25T10:13:02.027Z</time></trkpt><trkpt lat="43.6462617" lon="11.8426967"><ele>404.0</ele><time>2026-04-25T10:13:03.025Z</time></trkpt><trkpt lat="43.6463433" lon="11.8427917"><ele>407.25</ele><time>2026-04-25T10:13:04.026Z</time></trkpt><trkpt lat="43.6464533" lon="11.842875"><ele>410.5</ele><time>2026-04-25T10:13:05.031Z</time></trkpt><trkpt lat="43.6465667" lon="11.8429833"><ele>413.75</ele><time>2026-04-25T10:13:06.031Z</time></trkpt><trkpt lat="43.6466767" lon="11.8431033"><ele>417.0</ele><time>2026-04-25T10:13:07.029Z</time></trkpt><trkpt lat="43.6467883" lon="11.8432133"><ele>417.0</ele><time>2026-04-25T10:13:08.027Z</time></trkpt><trkpt lat="43.6468867" lon="11.8433133"><ele>417.0</ele><time>2026-04-25T10:13:09.029Z</time></trkpt><trkpt lat="43.646965" lon="11.8433967"><ele>417.0</ele><time>2026-04-25T10:13:10.027Z</time></trkpt><trkpt lat="43.6470283" lon="11.8434567"><ele>417.0</ele><time>2026-04-25T10:13:11.03Z</time></trkpt><trkpt lat="43.6470567" lon="11.8435783"><ele>417.0</ele><time>2026-04-25T10:13:13.026Z</time></trkpt><trkpt lat="43.6469733" lon="11.8436233"><ele>419.1666666666667</ele><time>2026-04-25T10:13:15.03Z</time></trkpt><trkpt lat="43.6468667" lon="11.8436817"><ele>421.33333333333337</ele><time>2026-04-25T10:13:17.029Z</time></trkpt><trkpt lat="43.6467483" lon="11.843745"><ele>423.5</ele><time>2026-04-25T10:13:19.025Z</time></trkpt><trkpt lat="43.6466883" lon="11.8437883"><ele>425.6666666666667</ele><time>2026-04-25T10:13:20.034Z</time></trkpt><trkpt lat="43.6466267" lon="11.8438283"><ele>427.83333333333337</ele><time>2026-04-25T10:13:21.035Z</time></trkpt><trkpt lat="43.6465667" lon="11.8438733"><ele>430.0</ele><time>2026-04-25T10:13:22.032Z</time></trkpt><trkpt lat="43.6465133" lon="11.8439333"><ele>430.00000000000006</ele><time>2026-04-25T10:13:23.028Z</time></trkpt><trkpt lat="43.6464567" lon="11.8439833"><ele>430.0</ele><time>2026-04-25T10:13:24.03Z</time></trkpt><trkpt lat="43.6463967" lon="11.8440267"><ele>430.0</ele><time>2026-04-25T10:13:25.026Z</time></trkpt><trkpt lat="43.6462883" lon="11.8441117"><ele>430.0</ele><time>2026-04-25T10:13:27.026Z</time></trkpt><trkpt lat="43.64623" lon="11.8441517"><ele>430.00000000000006</ele><time>2026-04-25T10:13:28.031Z</time></trkpt><trkpt lat="43.6461733" lon="11.8441967"><ele>430.0</ele><time>2026-04-25T10:13:29.025Z</time></trkpt><trkpt lat="43.6461183" lon="11.8442433"><ele>431.4</ele><time>2026-04-25T10:13:30.028Z</time></trkpt><trkpt lat="43.6460283" lon="11.8443483"><ele>432.8</ele><time>2026-04-25T10:13:32.029Z</time></trkpt><trkpt lat="43.645935" lon="11.8444267"><ele>434.20000000000005</ele><time>2026-04-25T10:13:34.027Z</time></trkpt><trkpt lat="43.64584" lon="11.844485"><ele>435.6</ele><time>2026-04-25T10:13:36.028Z</time></trkpt><trkpt lat="43.6458083" lon="11.8446117"><ele>437.0</ele><time>2026-04-25T10:13:38.032Z</time></trkpt><trkpt lat="43.6458317" lon="11.8446967"><ele>437.0</ele><time>2026-04-25T10:13:39.035Z</time></trkpt><trkpt lat="43.6458467" lon="11.8447833"><ele>437.0</ele><time>2026-04-25T10:13:40.028Z</time></trkpt><trkpt lat="43.6458483" lon="11.8448717"><ele>437.0</ele><time>2026-04-25T10:13:41.029Z</time></trkpt><trkpt lat="43.6458633" lon="11.84496"><ele>437.0</ele><time>2026-04-25T10:13:42.026Z</time></trkpt><trkpt lat="43.6458767" lon="11.84505"><ele>437.0</ele><time>2026-04-25T10:13:43.028Z</time></trkpt><trkpt lat="43.6458833" lon="11.845145"><ele>437.0</ele><time>2026-04-25T10:13:44.032Z</time></trkpt><trkpt lat="43.6459" lon="11.845245"><ele>437.0</ele><time>2026-04-25T10:13:45.031Z</time></trkpt><trkpt lat="43.6459117" lon="11.8453533"><ele>438.40000000000003</ele><time>2026-04-25T10:13:46.03Z</time></trkpt><trkpt lat="43.645925" lon="11.8454633"><ele>439.80000000000007</ele><time>2026-04-25T10:13:47.029Z</time></trkpt><trkpt lat="43.645945" lon="11.8455817"><ele>441.2</ele><time>2026-04-25T10:13:48.037Z</time></trkpt><trkpt lat="43.6459633" lon="11.84571"><ele>442.6</ele><time>2026-04-25T10:13:49.033Z</time></trkpt><trkpt lat="43.6459733" lon="11.84584"><ele>444.0</ele><time>2026-04-25T10:13:50.023Z</time></trkpt><trkpt lat="43.64599" lon="11.8459733"><ele>445.0</ele><time>2026-04-25T10:13:51.028Z</time></trkpt><trkpt lat="43.6460033" lon="11.8460967"><ele>446.0</ele><time>2026-04-25T10:13:52.023Z</time></trkpt><trkpt lat="43.6460233" lon="11.8462"><ele>447.0</ele><time>2026-04-25T10:13:53.025Z</time></trkpt><trkpt lat="43.64604" lon="11.84634"><ele>448.0</ele><time>2026-04-25T10:13:55.028Z</time></trkpt><trkpt lat="43.6459967" lon="11.846475"><ele>449.0</ele><time>2026-04-25T10:14:19.035Z</time></trkpt><trkpt lat="43.6458833" lon="11.8465883"><ele>449.0</ele><time>2026-04-25T10:14:21.03Z</time></trkpt><trkpt lat="43.6458067" lon="11.8466517"><ele>449.0</ele><time>2026-04-25T10:14:22.028Z</time></trkpt><trkpt lat="43.6457217" lon="11.8467383"><ele>449.0</ele><time>2026-04-25T10:14:23.025Z</time></trkpt><trkpt lat="43.6456467" lon="11.84683"><ele>449.0</ele><time>2026-04-25T10:14:24.023Z</time></trkpt><trkpt lat="43.64559" lon="11.846935"><ele>449.0</ele><time>2026-04-25T10:14:25.026Z</time></trkpt><trkpt lat="43.64553" lon="11.8470367"><ele>448.79999999999995</ele><time>2026-04-25T10:14:26.029Z</time></trkpt><trkpt lat="43.6454767" lon="11.84714"><ele>448.59999999999997</ele><time>2026-04-25T10:14:27.026Z</time></trkpt><trkpt lat="43.6454333" lon="11.8472317"><ele>448.4</ele><time>2026-04-25T10:14:28.03Z</time></trkpt><trkpt lat="43.6453817" lon="11.8473467"><ele>448.2</ele><time>2026-04-25T10:14:30.028Z</time></trkpt><trkpt lat="43.64533" lon="11.8474217"><ele>448.0</ele><time>2026-04-25T10:14:32.028Z</time></trkpt><trkpt lat="43.6452383" lon="11.847515"><ele>449.33333333333337</ele><time>2026-04-25T10:14:34.026Z</time></trkpt><trkpt lat="43.6451817" lon="11.8475817"><ele>450.6666666666667</ele><time>2026-04-25T10:14:35.024Z</time></trkpt><trkpt lat="43.6451233" lon="11.8476517"><ele>452.0</ele><time>2026-04-25T10:14:36.026Z</time></trkpt><trkpt lat="43.645065" lon="11.8477217"><ele>453.33333333333337</ele><time>2026-04-25T10:14:37.027Z</time></trkpt><trkpt lat="43.6450033" lon="11.8477883"><ele>454.6666666666667</ele><time>2026-04-25T10:14:38.025Z</time></trkpt><trkpt lat="43.64494" lon="11.8478567"><ele>456.0</ele><time>2026-04-25T10:14:39.036Z</time></trkpt><trkpt lat="43.64488" lon="11.8479267"><ele>456.0</ele><time>2026-04-25T10:14:40.027Z</time></trkpt><trkpt lat="43.6448183" lon="11.8480017"><ele>456.0</ele><time>2026-04-25T10:14:41.03Z</time></trkpt><trkpt lat="43.6447467" lon="11.8480633"><ele>456.0</ele><time>2026-04-25T10:14:42.029Z</time></trkpt><trkpt lat="43.6446733" lon="11.8481183"><ele>456.0</ele><time>2026-04-25T10:14:43.034Z</time></trkpt><trkpt lat="43.6446033" lon="11.84818"><ele>456.0</ele><time>2026-04-25T10:14:44.025Z</time></trkpt><trkpt lat="43.6445317" lon="11.8482517"><ele>456.0</ele><time>2026-04-25T10:14:45.032Z</time></trkpt><trkpt lat="43.6444667" lon="11.8483183"><ele>457.5</ele><time>2026-04-25T10:14:46.029Z</time></trkpt><trkpt lat="43.644395" lon="11.8483817"><ele>459.0</ele><time>2026-04-25T10:14:47.029Z</time></trkpt><trkpt lat="43.644315" lon="11.8484467"><ele>460.5</ele><time>2026-04-25T10:14:48.028Z</time></trkpt><trkpt lat="43.644235" lon="11.8485017"><ele>462.0</ele><time>2026-04-25T10:14:49.026Z</time></trkpt><trkpt lat="43.6441583" lon="11.8485483"><ele>463.5</ele><time>2026-04-25T10:14:50.032Z</time></trkpt><trkpt lat="43.6440967" lon="11.848595"><ele>465.0</ele><time>2026-04-25T10:14:51.03Z</time></trkpt><trkpt lat="43.6440467" lon="11.84867"><ele>465.0</ele><time>2026-04-25T10:14:52.031Z</time></trkpt><trkpt lat="43.6439909" lon="11.8487435"><ele>465.0</ele><time>2026-04-25T10:14:53.029Z</time></trkpt><trkpt lat="43.6439309" lon="11.8488147"><ele>465.0</ele><time>2026-04-25T10:14:54.033Z</time></trkpt><trkpt lat="43.643869" lon="11.8488772"><ele>465.0</ele><time>2026-04-25T10:14:55.027Z</time></trkpt><trkpt lat="43.6437978" lon="11.8489323"><ele>465.0</ele><time>2026-04-25T10:14:56.027Z</time></trkpt><trkpt lat="43.6437122" lon="11.8489757"><ele>465.0</ele><time>2026-04-25T10:14:57.029Z</time></trkpt><trkpt lat="43.6436216" lon="11.8490017"><ele>465.6666666666667</ele><time>2026-04-25T10:14:58.028Z</time></trkpt><trkpt lat="43.6435354" lon="11.8490261"><ele>466.33333333333337</ele><time>2026-04-25T10:14:59.031Z</time></trkpt><trkpt lat="43.6434629" lon="11.8490572"><ele>467.0</ele><time>2026-04-25T10:15:00.031Z</time></trkpt><trkpt lat="43.6433951" lon="11.8491042"><ele>467.6666666666667</ele><time>2026-04-25T10:15:01.031Z</time></trkpt><trkpt lat="43.6433318" lon="11.8491698"><ele>468.33333333333337</ele><time>2026-04-25T10:15:02.029Z</time></trkpt><trkpt lat="43.6432731" lon="11.849255"><ele>469.0</ele><time>2026-04-25T10:15:03.029Z</time></trkpt><trkpt lat="43.6432078" lon="11.849342"><ele>469.00000000000006</ele><time>2026-04-25T10:15:04.028Z</time></trkpt><trkpt lat="43.64314" lon="11.8494245"><ele>469.0</ele><time>2026-04-25T10:15:05.029Z</time></trkpt><trkpt lat="43.6430703" lon="11.8494979"><ele>469.0</ele><time>2026-04-25T10:15:06.033Z</time></trkpt><trkpt lat="43.6430052" lon="11.849547"><ele>469.0</ele><time>2026-04-25T10:15:07.03Z</time></trkpt><trkpt lat="43.6429495" lon="11.8496"><ele>469.00000000000006</ele><time>2026-04-25T10:15:08.026Z</time></trkpt><trkpt lat="43.6428594" lon="11.8496521"><ele>469.0</ele><time>2026-04-25T10:15:10.027Z</time></trkpt><trkpt lat="43.642786" lon="11.8496866"><ele>470.83333333333337</ele><time>2026-04-25T10:15:12.024Z</time></trkpt><trkpt lat="43.6427344" lon="11.8497408"><ele>472.6666666666667</ele><time>2026-04-25T10:15:13.031Z</time></trkpt><trkpt lat="43.6426821" lon="11.8497993"><ele>474.5</ele><time>2026-04-25T10:15:14.032Z</time></trkpt><trkpt lat="43.642599" lon="11.8498863"><ele>476.33333333333337</ele><time>2026-04-25T10:15:16.037Z</time></trkpt><trkpt lat="43.6425444" lon="11.8499557"><ele>478.1666666666667</ele><time>2026-04-25T10:15:18.024Z</time></trkpt><trkpt lat="43.6425033" lon="11.8500518"><ele>480.0</ele><time>2026-04-25T10:15:20.034Z</time></trkpt><trkpt lat="43.6424708" lon="11.8501538"><ele>480.4</ele><time>2026-04-25T10:15:22.032Z</time></trkpt><trkpt lat="43.6423872" lon="11.8502534"><ele>480.8</ele><time>2026-04-25T10:15:24.034Z</time></trkpt><trkpt lat="43.6422732" lon="11.8503251"><ele>481.20000000000005</ele><time>2026-04-25T10:15:26.028Z</time></trkpt><trkpt lat="43.6421598" lon="11.8503998"><ele>481.6</ele><time>2026-04-25T10:15:28.029Z</time></trkpt><trkpt lat="43.6421172" lon="11.8504675"><ele>482.0</ele><time>2026-04-25T10:15:29.029Z</time></trkpt><trkpt lat="43.642083" lon="11.8505573"><ele>481.99999999999994</ele><time>2026-04-25T10:15:30.031Z</time></trkpt><trkpt lat="43.6420615" lon="11.8506501"><ele>482.0</ele><time>2026-04-25T10:15:31.031Z</time></trkpt><trkpt lat="43.6420494" lon="11.8507517"><ele>482.0</ele><time>2026-04-25T10:15:32.026Z</time></trkpt><trkpt lat="43.6420476" lon="11.8508416"><ele>482.0</ele><time>2026-04-25T10:15:33.03Z</time></trkpt><trkpt lat="43.6420494" lon="11.8509303"><ele>481.99999999999994</ele><time>2026-04-25T10:15:34.029Z</time></trkpt><trkpt lat="43.6420515" lon="11.8510856"><ele>482.0</ele><time>2026-04-25T10:15:36.028Z</time></trkpt><trkpt lat="43.6420512" lon="11.8511802"><ele>482.49999999999994</ele><time>2026-04-25T10:15:38.027Z</time></trkpt><trkpt lat="43.6420507" lon="11.8512714"><ele>483.0</ele><time>2026-04-25T10:15:40.03Z</time></trkpt><trkpt lat="43.64205" lon="11.85137"><ele>483.5</ele><time>2026-04-25T10:15:43.032Z</time></trkpt><trkpt lat="43.6420867" lon="11.85147"><ele>484.0</ele><time>2026-04-25T10:15:49.027Z</time></trkpt><trkpt lat="43.6421333" lon="11.8515483"><ele>484.49999999999994</ele><time>2026-04-25T10:15:53.03Z</time></trkpt><trkpt lat="43.6421683" lon="11.8516417"><ele>485.0</ele><time>2026-04-25T10:15:56.03Z</time></trkpt><trkpt lat="43.64222" lon="11.8517317"><ele>486.2</ele><time>2026-04-25T10:15:58.028Z</time></trkpt><trkpt lat="43.64225" lon="11.8518967"><ele>487.4</ele><time>2026-04-25T10:16:00.037Z</time></trkpt><trkpt lat="43.64225" lon="11.8519967"><ele>488.6</ele><time>2026-04-25T10:16:01.027Z</time></trkpt><trkpt lat="43.642245" lon="11.8520867"><ele>489.8</ele><time>2026-04-25T10:16:02.028Z</time></trkpt><trkpt lat="43.6422617" lon="11.8522333"><ele>491.0</ele><time>2026-04-25T10:16:04.031Z</time></trkpt><trkpt lat="43.6422967" lon="11.8523467"><ele>490.99999999999994</ele><time>2026-04-25T10:16:06.027Z</time></trkpt><trkpt lat="43.6423183" lon="11.8524417"><ele>491.0</ele><time>2026-04-25T10:16:08.035Z</time></trkpt><trkpt lat="43.6423167" lon="11.85255"><ele>491.0</ele><time>2026-04-25T10:16:10.033Z</time></trkpt><trkpt lat="43.6423317" lon="11.85269"><ele>491.0</ele><time>2026-04-25T10:16:12.026Z</time></trkpt><trkpt lat="43.6423367" lon="11.8527833"><ele>490.99999999999994</ele><time>2026-04-25T10:16:13.024Z</time></trkpt><trkpt lat="43.6423333" lon="11.852885"><ele>491.0</ele><time>2026-04-25T10:16:14.028Z</time></trkpt><trkpt lat="43.642325" lon="11.8529817"><ele>490.8</ele><time>2026-04-25T10:16:15.051Z</time></trkpt><trkpt lat="43.6423067" lon="11.853085"><ele>490.6</ele><time>2026-04-25T10:16:16.024Z</time></trkpt><trkpt lat="43.64228" lon="11.8532067"><ele>490.4</ele><time>2026-04-25T10:16:17.033Z</time></trkpt><trkpt lat="43.6422433" lon="11.85333"><ele>490.2</ele><time>2026-04-25T10:16:18.034Z</time></trkpt><trkpt lat="43.642205" lon="11.8534567"><ele>490.0</ele><time>2026-04-25T10:16:19.029Z</time></trkpt><trkpt lat="43.6421717" lon="11.8535667"><ele>490.0</ele><time>2026-04-25T10:16:20.032Z</time></trkpt><trkpt lat="43.6421367" lon="11.8536867"><ele>490.0</ele><time>2026-04-25T10:16:21.031Z</time></trkpt><trkpt lat="43.642105" lon="11.8537983"><ele>490.0</ele><time>2026-04-25T10:16:22.034Z</time></trkpt><trkpt lat="43.642085" lon="11.8538917"><ele>490.0</ele><time>2026-04-25T10:16:23.032Z</time></trkpt><trkpt lat="43.6420633" lon="11.8540333"><ele>490.0</ele><time>2026-04-25T10:16:25.029Z</time></trkpt><trkpt lat="43.6420417" lon="11.85416"><ele>490.00000000000006</ele><time>2026-04-25T10:16:27.03Z</time></trkpt><trkpt lat="43.64205" lon="11.8542667"><ele>490.0</ele><time>2026-04-25T10:16:35.025Z</time></trkpt><trkpt lat="43.6420267" lon="11.8543983"><ele>490.0</ele><time>2026-04-25T10:16:38.029Z</time></trkpt><trkpt lat="43.6420083" lon="11.8545367"><ele>490.0</ele><time>2026-04-25T10:16:40.027Z</time></trkpt><trkpt lat="43.6419967" lon="11.8546267"><ele>490.00000000000006</ele><time>2026-04-25T10:16:41.032Z</time></trkpt><trkpt lat="43.641975" lon="11.8547367"><ele>490.0</ele><time>2026-04-25T10:16:42.031Z</time></trkpt><trkpt lat="43.64195" lon="11.8548517"><ele>489.83333333333337</ele><time>2026-04-25T10:16:43.029Z</time></trkpt><trkpt lat="43.64192" lon="11.8549767"><ele>489.6666666666667</ele><time>2026-04-25T10:16:44.027Z</time></trkpt><trkpt lat="43.6418967" lon="11.8550867"><ele>489.5</ele><time>2026-04-25T10:16:45.028Z</time></trkpt><trkpt lat="43.6418817" lon="11.8552"><ele>489.33333333333337</ele><time>2026-04-25T10:16:46.024Z</time></trkpt><trkpt lat="43.64188" lon="11.855305"><ele>489.1666666666667</ele><time>2026-04-25T10:16:47.028Z</time></trkpt><trkpt lat="43.64188" lon="11.8554033"><ele>489.0</ele><time>2026-04-25T10:16:48.027Z</time></trkpt><trkpt lat="43.6418617" lon="11.8555033"><ele>487.4</ele><time>2026-04-25T10:16:49.03Z</time></trkpt><trkpt lat="43.6418567" lon="11.85562"><ele>485.79999999999995</ele><time>2026-04-25T10:16:50.03Z</time></trkpt><trkpt lat="43.6418517" lon="11.8557483"><ele>484.20000000000005</ele><time>2026-04-25T10:16:51.041Z</time></trkpt><trkpt lat="43.641845" lon="11.855885"><ele>482.6</ele><time>2026-04-25T10:16:52.029Z</time></trkpt><trkpt lat="43.641835" lon="11.856005"><ele>481.0</ele><time>2026-04-25T10:16:53.034Z</time></trkpt><trkpt lat="43.64182" lon="11.8561217"><ele>480.1666666666667</ele><time>2026-04-25T10:16:54.03Z</time></trkpt><trkpt lat="43.6418067" lon="11.8562533"><ele>479.33333333333337</ele><time>2026-04-25T10:16:55.026Z</time></trkpt><trkpt lat="43.6418033" lon="11.8563633"><ele>478.5</ele><time>2026-04-25T10:16:56.032Z</time></trkpt><trkpt lat="43.6417917" lon="11.8564683"><ele>477.66666666666663</ele><time>2026-04-25T10:16:57.026Z</time></trkpt><trkpt lat="43.6417667" lon="11.8565733"><ele>476.8333333333333</ele><time>2026-04-25T10:16:58.031Z</time></trkpt><trkpt lat="43.6417383" lon="11.85667"><ele>476.0</ele><time>2026-04-25T10:16:59.026Z</time></trkpt><trkpt lat="43.6417083" lon="11.8567667"><ele>475.49999999999994</ele><time>2026-04-25T10:17:00.029Z</time></trkpt><trkpt lat="43.64168" lon="11.85687"><ele>475.0</ele><time>2026-04-25T10:17:01.031Z</time></trkpt><trkpt lat="43.641655" lon="11.856975"><ele>474.5</ele><time>2026-04-25T10:17:02.029Z</time></trkpt><trkpt lat="43.641635" lon="11.857095"><ele>474.0</ele><time>2026-04-25T10:17:03.03Z</time></trkpt><trkpt lat="43.6416183" lon="11.85722"><ele>473.49999999999994</ele><time>2026-04-25T10:17:04.034Z</time></trkpt><trkpt lat="43.641615" lon="11.8573483"><ele>473.0</ele><time>2026-04-25T10:17:05.028Z</time></trkpt><trkpt lat="43.6416233" lon="11.8574683"><ele>473.0</ele><time>2026-04-25T10:17:06.028Z</time></trkpt><trkpt lat="43.641635" lon="11.85759"><ele>473.0</ele><time>2026-04-25T10:17:07.037Z</time></trkpt><trkpt lat="43.6416383" lon="11.8576817"><ele>473.0</ele><time>2026-04-25T10:17:08.028Z</time></trkpt><trkpt lat="43.6416317" lon="11.8577783"><ele>473.0</ele><time>2026-04-25T10:17:10.032Z</time></trkpt><trkpt lat="43.641565" lon="11.8578"><ele>473.0</ele><time>2026-04-25T10:17:24.036Z</time></trkpt><trkpt lat="43.6415017" lon="11.8578433"><ele>473.0</ele><time>2026-04-25T10:17:27.028Z</time></trkpt><trkpt lat="43.6415183" lon="11.857945"><ele>473.0</ele><time>2026-04-25T10:17:30.027Z</time></trkpt><trkpt lat="43.6415133" lon="11.85807"><ele>472.59999999999997</ele><time>2026-04-25T10:17:33.029Z</time></trkpt><trkpt lat="43.6414633" lon="11.8581983"><ele>472.19999999999993</ele><time>2026-04-25T10:17:35.036Z</time></trkpt><trkpt lat="43.641445" lon="11.8583133"><ele>471.8</ele><time>2026-04-25T10:17:37.031Z</time></trkpt><trkpt lat="43.6414533" lon="11.858445"><ele>471.4</ele><time>2026-04-25T10:17:39.03Z</time></trkpt><trkpt lat="43.641465" lon="11.8585617"><ele>471.0</ele><time>2026-04-25T10:17:41.027Z</time></trkpt><trkpt lat="43.6415417" lon="11.8585917"><ele>472.0</ele><time>2026-04-25T10:17:43.025Z</time></trkpt><trkpt lat="43.6416067" lon="11.8586117"><ele>473.0</ele><time>2026-04-25T10:17:45.027Z</time></trkpt><trkpt lat="43.6416417" lon="11.8587083"><ele>474.0</ele><time>2026-04-25T10:17:49.025Z</time></trkpt><trkpt lat="43.6416567" lon="11.8588817"><ele>475.0</ele><time>2026-04-25T10:17:51.033Z</time></trkpt><trkpt lat="43.6416567" lon="11.85898"><ele>476.0</ele><time>2026-04-25T10:17:52.026Z</time></trkpt><trkpt lat="43.6416633" lon="11.85907"><ele>477.0</ele><time>2026-04-25T10:17:53.028Z</time></trkpt><trkpt lat="43.64168" lon="11.8592017"><ele>478.1666666666667</ele><time>2026-04-25T10:17:55.033Z</time></trkpt><trkpt lat="43.6417" lon="11.8593467"><ele>479.33333333333337</ele><time>2026-04-25T10:17:57.037Z</time></trkpt><trkpt lat="43.6417017" lon="11.8594383"><ele>480.5</ele><time>2026-04-25T10:17:58.026Z</time></trkpt><trkpt lat="43.6416983" lon="11.8595267"><ele>481.6666666666667</ele><time>2026-04-25T10:17:59.027Z</time></trkpt><trkpt lat="43.64172" lon="11.8596867"><ele>482.83333333333337</ele><time>2026-04-25T10:18:01.031Z</time></trkpt><trkpt lat="43.641735" lon="11.85978"><ele>484.0</ele><time>2026-04-25T10:18:02.025Z</time></trkpt><trkpt lat="43.6417417" lon="11.8598783"><ele>484.0</ele><time>2026-04-25T10:18:03.027Z</time></trkpt><trkpt lat="43.6417333" lon="11.8600317"><ele>484.0</ele><time>2026-04-25T10:18:05.028Z</time></trkpt><trkpt lat="43.6416817" lon="11.8601633"><ele>484.0</ele><time>2026-04-25T10:18:07.031Z</time></trkpt><trkpt lat="43.6416433" lon="11.8603267"><ele>484.0</ele><time>2026-04-25T10:18:09.029Z</time></trkpt><trkpt lat="43.6416233" lon="11.860455"><ele>484.0</ele><time>2026-04-25T10:18:11.026Z</time></trkpt><trkpt lat="43.64165" lon="11.8605667"><ele>484.2</ele><time>2026-04-25T10:18:21.026Z</time></trkpt><trkpt lat="43.641685" lon="11.86068"><ele>484.4</ele><time>2026-04-25T10:18:22.029Z</time></trkpt><trkpt lat="43.6417333" lon="11.8608467"><ele>484.6</ele><time>2026-04-25T10:18:23.026Z</time></trkpt><trkpt lat="43.641765" lon="11.86098"><ele>484.8</ele><time>2026-04-25T10:18:24.034Z</time></trkpt><trkpt lat="43.641785" lon="11.86112"><ele>485.0</ele><time>2026-04-25T10:18:25.029Z</time></trkpt><trkpt lat="43.6418017" lon="11.861245"><ele>485.2</ele><time>2026-04-25T10:18:26.025Z</time></trkpt><trkpt lat="43.6418167" lon="11.8613817"><ele>485.4</ele><time>2026-04-25T10:18:27.032Z</time></trkpt><trkpt lat="43.6418433" lon="11.8614967"><ele>485.6</ele><time>2026-04-25T10:18:28.032Z</time></trkpt><trkpt lat="43.6418767" lon="11.8616083"><ele>485.8</ele><time>2026-04-25T10:18:29.027Z</time></trkpt><trkpt lat="43.6419017" lon="11.8617233"><ele>486.0</ele><time>2026-04-25T10:18:30.039Z</time></trkpt><trkpt lat="43.6419133" lon="11.8618567"><ele>486.4</ele><time>2026-04-25T10:18:31.029Z</time></trkpt><trkpt lat="43.6419333" lon="11.86199"><ele>486.8</ele><time>2026-04-25T10:18:32.025Z</time></trkpt><trkpt lat="43.6419517" lon="11.8621317"><ele>487.19999999999993</ele><time>2026-04-25T10:18:33.04Z</time></trkpt><trkpt lat="43.6419617" lon="11.8622683"><ele>487.59999999999997</ele><time>2026-04-25T10:18:34.029Z</time></trkpt><trkpt lat="43.6419683" lon="11.86239"><ele>488.0</ele><time>2026-04-25T10:18:35.029Z</time></trkpt><trkpt lat="43.6419767" lon="11.8625233"><ele>489.66666666666663</ele><time>2026-04-25T10:18:36.03Z</time></trkpt><trkpt lat="43.6419667" lon="11.86265"><ele>491.3333333333333</ele><time>2026-04-25T10:18:37.03Z</time></trkpt><trkpt lat="43.64196" lon="11.8627717"><ele>493.0</ele><time>2026-04-25T10:18:38.029Z</time></trkpt><trkpt lat="43.6419517" lon="11.8628883"><ele>494.66666666666663</ele><time>2026-04-25T10:18:39.029Z</time></trkpt><trkpt lat="43.6419267" lon="11.8629917"><ele>496.3333333333333</ele><time>2026-04-25T10:18:40.042Z</time></trkpt><trkpt lat="43.641895" lon="11.8630917"><ele>498.0</ele><time>2026-04-25T10:18:41.03Z</time></trkpt><trkpt lat="43.6418633" lon="11.86317"><ele>498.0</ele><time>2026-04-25T10:18:42.029Z</time></trkpt><trkpt lat="43.641835" lon="11.8632567"><ele>498.0</ele><time>2026-04-25T10:18:43.04Z</time></trkpt><trkpt lat="43.6418067" lon="11.863365"><ele>498.0</ele><time>2026-04-25T10:18:44.03Z</time></trkpt><trkpt lat="43.641765" lon="11.863485"><ele>498.0</ele><time>2026-04-25T10:18:45.03Z</time></trkpt><trkpt lat="43.6417183" lon="11.86361"><ele>498.0</ele><time>2026-04-25T10:18:46.032Z</time></trkpt><trkpt lat="43.64168" lon="11.863715"><ele>498.0</ele><time>2026-04-25T10:18:47.026Z</time></trkpt><trkpt lat="43.6416533" lon="11.863795"><ele>499.1666666666667</ele><time>2026-04-25T10:18:48.031Z</time></trkpt><trkpt lat="43.6416117" lon="11.863875"><ele>500.33333333333337</ele><time>2026-04-25T10:18:50.029Z</time></trkpt><trkpt lat="43.64155" lon="11.86397"><ele>501.5</ele><time>2026-04-25T10:18:53.027Z</time></trkpt><trkpt lat="43.6415133" lon="11.8640433"><ele>502.6666666666667</ele><time>2026-04-25T10:18:56.033Z</time></trkpt><trkpt lat="43.6414667" lon="11.8641983"><ele>503.83333333333337</ele><time>2026-04-25T10:18:58.028Z</time></trkpt><trkpt lat="43.6414317" lon="11.86428"><ele>505.0</ele><time>2026-04-25T10:18:59.027Z</time></trkpt><trkpt lat="43.6413833" lon="11.8643917"><ele>506.6</ele><time>2026-04-25T10:19:01.029Z</time></trkpt><trkpt lat="43.6413067" lon="11.8645417"><ele>508.2</ele><time>2026-04-25T10:20:47.03Z</time></trkpt><trkpt lat="43.6412517" lon="11.86466"><ele>509.79999999999995</ele><time>2026-04-25T10:20:49.029Z</time></trkpt><trkpt lat="43.6412217" lon="11.8647383"><ele>511.4</ele><time>2026-04-25T10:20:50.026Z</time></trkpt><trkpt lat="43.64119" lon="11.8648517"><ele>513.0</ele><time>2026-04-25T10:20:51.029Z</time></trkpt><trkpt lat="43.6411483" lon="11.8649433"><ele>511.0</ele><time>2026-04-25T10:20:52.025Z</time></trkpt><trkpt lat="43.6411017" lon="11.8650267"><ele>509.0</ele><time>2026-04-25T10:20:53.026Z</time></trkpt><trkpt lat="43.641065" lon="11.86512"><ele>507.0</ele><time>2026-04-25T10:20:54.031Z</time></trkpt><trkpt lat="43.6410317" lon="11.8652367"><ele>505.0</ele><time>2026-04-25T10:20:55.027Z</time></trkpt><trkpt lat="43.641005" lon="11.8653667"><ele>503.0</ele><time>2026-04-25T10:20:56.029Z</time></trkpt><trkpt lat="43.6409667" lon="11.8654833"><ele>501.0</ele><time>2026-04-25T10:20:57.024Z</time></trkpt><trkpt lat="43.640935" lon="11.865585"><ele>501.0</ele><time>2026-04-25T10:20:58.029Z</time></trkpt><trkpt lat="43.6409017" lon="11.8656867"><ele>501.0</ele><time>2026-04-25T10:20:59.025Z</time></trkpt><trkpt lat="43.6408683" lon="11.8658117"><ele>501.0</ele><time>2026-04-25T10:21:00.028Z</time></trkpt><trkpt lat="43.6408317" lon="11.8659333"><ele>501.0</ele><time>2026-04-25T10:21:01.029Z</time></trkpt><trkpt lat="43.6407983" lon="11.8660383"><ele>501.0</ele><time>2026-04-25T10:21:02.029Z</time></trkpt><trkpt lat="43.6407767" lon="11.86614"><ele>501.0</ele><time>2026-04-25T10:21:03.051Z</time></trkpt><trkpt lat="43.6407667" lon="11.8662333"><ele>501.20000000000005</ele><time>2026-04-25T10:21:04.03Z</time></trkpt><trkpt lat="43.6407167" lon="11.8663567"><ele>501.40000000000003</ele><time>2026-04-25T10:21:06.027Z</time></trkpt><trkpt lat="43.6406483" lon="11.8664317"><ele>501.6</ele><time>2026-04-25T10:21:08.028Z</time></trkpt><trkpt lat="43.640635" lon="11.8665383"><ele>501.8</ele><time>2026-04-25T10:21:10.028Z</time></trkpt><trkpt lat="43.6406383" lon="11.8666867"><ele>502.0</ele><time>2026-04-25T10:21:12.024Z</time></trkpt><trkpt lat="43.64064" lon="11.8668133"><ele>502.00000000000006</ele><time>2026-04-25T10:21:14.032Z</time></trkpt><trkpt lat="43.640645" lon="11.8669333"><ele>502.0</ele><time>2026-04-25T10:21:16.027Z</time></trkpt><trkpt lat="43.6406717" lon="11.8670267"><ele>502.0</ele><time>2026-04-25T10:21:18.026Z</time></trkpt><trkpt lat="43.6407133" lon="11.8671483"><ele>502.0</ele><time>2026-04-25T10:21:26.034Z</time></trkpt><trkpt lat="43.6407283" lon="11.867235"><ele>502.00000000000006</ele><time>2026-04-25T10:21:27.025Z</time></trkpt><trkpt lat="43.6407467" lon="11.8673267"><ele>502.0</ele><time>2026-04-25T10:21:28.03Z</time></trkpt><trkpt lat="43.6407583" lon="11.8674233"><ele>502.00000000000006</ele><time>2026-04-25T10:21:29.025Z</time></trkpt><trkpt lat="43.6407783" lon="11.8675217"><ele>502.0</ele><time>2026-04-25T10:21:30.032Z</time></trkpt><trkpt lat="43.6407917" lon="11.8676217"><ele>502.0</ele><time>2026-04-25T10:21:31.033Z</time></trkpt><trkpt lat="43.640805" lon="11.86771"><ele>502.0</ele><time>2026-04-25T10:21:32.028Z</time></trkpt><trkpt lat="43.6407933" lon="11.8678433"><ele>502.00000000000006</ele><time>2026-04-25T10:21:34.028Z</time></trkpt><trkpt lat="43.640765" lon="11.867935"><ele>502.0</ele><time>2026-04-25T10:21:36.03Z</time></trkpt><trkpt lat="43.6407367" lon="11.868045"><ele>501.50000000000006</ele><time>2026-04-25T10:21:38.027Z</time></trkpt><trkpt lat="43.6407017" lon="11.8681667"><ele>501.0</ele><time>2026-04-25T10:21:40.029Z</time></trkpt><trkpt lat="43.64066" lon="11.8682767"><ele>500.5</ele><time>2026-04-25T10:21:42.028Z</time></trkpt><trkpt lat="43.64062" lon="11.8683933"><ele>500.0</ele><time>2026-04-25T10:21:44.026Z</time></trkpt><trkpt lat="43.64058" lon="11.86852"><ele>499.50000000000006</ele><time>2026-04-25T10:21:46.027Z</time></trkpt><trkpt lat="43.6405467" lon="11.8685983"><ele>499.0</ele><time>2026-04-25T10:21:48.026Z</time></trkpt><trkpt lat="43.640515" lon="11.8687133"><ele>499.00000000000006</ele><time>2026-04-25T10:21:51.026Z</time></trkpt><trkpt lat="43.6404883" lon="11.8687933"><ele>499.0</ele><time>2026-04-25T10:21:53.026Z</time></trkpt><trkpt lat="43.6404617" lon="11.868885"><ele>499.00000000000006</ele><time>2026-04-25T10:21:55.028Z</time></trkpt><trkpt lat="43.6404283" lon="11.86897"><ele>499.00000000000006</ele><time>2026-04-25T10:21:57.027Z</time></trkpt><trkpt lat="43.6404017" lon="11.86907"><ele>499.0</ele><time>2026-04-25T10:21:59.025Z</time></trkpt><trkpt lat="43.6403833" lon="11.8691683"><ele>499.00000000000006</ele><time>2026-04-25T10:22:01.028Z</time></trkpt><trkpt lat="43.6403652" lon="11.8692526"><ele>499.00000000000006</ele><time>2026-04-25T10:22:03.083Z</time></trkpt><trkpt lat="43.6403531" lon="11.8693438"><ele>499.1666666666667</ele><time>2026-04-25T10:22:06.09Z</time></trkpt><trkpt lat="43.6403297" lon="11.8694287"><ele>499.33333333333337</ele><time>2026-04-25T10:22:09.095Z</time></trkpt><trkpt lat="43.6402841" lon="11.869505"><ele>499.5</ele><time>2026-04-25T10:22:13.103Z</time></trkpt><trkpt lat="43.6402491" lon="11.8696383"><ele>499.66666666666663</ele><time>2026-04-25T10:22:16.029Z</time></trkpt><trkpt lat="43.6402153" lon="11.8697819"><ele>499.8333333333333</ele><time>2026-04-25T10:22:18.032Z</time></trkpt><trkpt lat="43.6401697" lon="11.8698897"><ele>500.0</ele><time>2026-04-25T10:22:20.025Z</time></trkpt><trkpt lat="43.640119" lon="11.8700327"><ele>500.4</ele><time>2026-04-25T10:22:22.028Z</time></trkpt><trkpt lat="43.6400929" lon="11.8701191"><ele>500.8</ele><time>2026-04-25T10:22:23.031Z</time></trkpt><trkpt lat="43.6400567" lon="11.8702591"><ele>501.20000000000005</ele><time>2026-04-25T10:22:25.029Z</time></trkpt><trkpt lat="43.6401004" lon="11.8703565"><ele>501.6</ele><time>2026-04-25T10:22:28.803Z</time></trkpt><trkpt lat="43.6402449" lon="11.8704699"><ele>502.0</ele><time>2026-04-25T10:22:30.031Z</time></trkpt><trkpt lat="43.6403109" lon="11.8705317"><ele>503.1666666666667</ele><time>2026-04-25T10:22:31.029Z</time></trkpt><trkpt lat="43.6403718" lon="11.8705978"><ele>504.33333333333337</ele><time>2026-04-25T10:22:32.045Z</time></trkpt><trkpt lat="43.6404172" lon="11.8706684"><ele>505.5</ele><time>2026-04-25T10:22:33.033Z</time></trkpt><trkpt lat="43.640463" lon="11.8708019"><ele>506.66666666666663</ele><time>2026-04-25T10:22:35.027Z</time></trkpt><trkpt lat="43.6404669" lon="11.8709079"><ele>507.8333333333333</ele><time>2026-04-25T10:22:38.026Z</time></trkpt><trkpt lat="43.6405154" lon="11.8709742"><ele>509.0</ele><time>2026-04-25T10:22:41.03Z</time></trkpt><trkpt lat="43.6405907" lon="11.8710508"><ele>509.0</ele><time>2026-04-25T10:22:44.046Z</time></trkpt><trkpt lat="43.6406751" lon="11.8711743"><ele>509.0</ele><time>2026-04-25T10:22:46.026Z</time></trkpt><trkpt lat="43.6407198" lon="11.8712568"><ele>509.0</ele><time>2026-04-25T10:22:47.026Z</time></trkpt><trkpt lat="43.6407698" lon="11.8713243"><ele>509.0</ele><time>2026-04-25T10:22:48.033Z</time></trkpt><trkpt lat="43.6408717" lon="11.8714224"><ele>509.0</ele><time>2026-04-25T10:22:50.027Z</time></trkpt><trkpt lat="43.6409233" lon="11.8714762"><ele>508.99999999999994</ele><time>2026-04-25T10:22:51.029Z</time></trkpt><trkpt lat="43.6409798" lon="11.8715651"><ele>509.0</ele><time>2026-04-25T10:22:53.033Z</time></trkpt><trkpt lat="43.6410122" lon="11.8716435"><ele>509.0</ele><time>2026-04-25T10:22:56.027Z</time></trkpt><trkpt lat="43.641064" lon="11.8717276"><ele>509.0</ele><time>2026-04-25T10:23:03.931Z</time></trkpt><trkpt lat="43.6411244" lon="11.871771"><ele>508.99999999999994</ele><time>2026-04-25T10:23:06.156Z</time></trkpt><trkpt lat="43.6411902" lon="11.8718181"><ele>509.0</ele><time>2026-04-25T10:23:08.096Z</time></trkpt><trkpt lat="43.6411969" lon="11.8719358"><ele>510.49999999999994</ele><time>2026-04-25T10:23:09.061Z</time></trkpt><trkpt lat="43.6412342" lon="11.8720383"><ele>512.0</ele><time>2026-04-25T10:23:10.032Z</time></trkpt><trkpt lat="43.6412863" lon="11.872094"><ele>513.5</ele><time>2026-04-25T10:23:11.03Z</time></trkpt><trkpt lat="43.6413387" lon="11.8721561"><ele>515.0</ele><time>2026-04-25T10:23:12.03Z</time></trkpt><trkpt lat="43.6413988" lon="11.8722581"><ele>516.5</ele><time>2026-04-25T10:23:14.028Z</time></trkpt><trkpt lat="43.6414433" lon="11.8723407"><ele>518.0</ele><time>2026-04-25T10:23:17.026Z</time></trkpt><trkpt lat="43.6415037" lon="11.8724272"><ele>518.0</ele><time>2026-04-25T10:23:20.028Z</time></trkpt><trkpt lat="43.6415808" lon="11.8725287"><ele>518.0</ele><time>2026-04-25T10:23:22.027Z</time></trkpt><trkpt lat="43.6416299" lon="11.8725939"><ele>518.0</ele><time>2026-04-25T10:23:23.032Z</time></trkpt><trkpt lat="43.6416942" lon="11.8726826"><ele>518.0</ele><time>2026-04-25T10:23:25.029Z</time></trkpt><trkpt lat="43.64175" lon="11.8727352"><ele>518.0</ele><time>2026-04-25T10:23:27.029Z</time></trkpt><trkpt lat="43.6418224" lon="11.8728274"><ele>518.0</ele><time>2026-04-25T10:23:29.031Z</time></trkpt><trkpt lat="43.6418777" lon="11.8728833"><ele>518.3333333333333</ele><time>2026-04-25T10:23:31.032Z</time></trkpt><trkpt lat="43.641925" lon="11.8729667"><ele>518.6666666666666</ele><time>2026-04-25T10:23:48.03Z</time></trkpt><trkpt lat="43.6419717" lon="11.8730383"><ele>519.0</ele><time>2026-04-25T10:23:50.03Z</time></trkpt><trkpt lat="43.642075" lon="11.873165"><ele>519.3333333333334</ele><time>2026-04-25T10:23:52.033Z</time></trkpt><trkpt lat="43.6421317" lon="11.87324"><ele>519.6666666666667</ele><time>2026-04-25T10:23:53.028Z</time></trkpt><trkpt lat="43.6421767" lon="11.8733033"><ele>520.0</ele><time>2026-04-25T10:23:54.031Z</time></trkpt><trkpt lat="43.6422767" lon="11.8733583"><ele>520.0</ele><time>2026-04-25T10:23:56.032Z</time></trkpt><trkpt lat="43.6423417" lon="11.8734067"><ele>520.0</ele><time>2026-04-25T10:23:58.033Z</time></trkpt><trkpt lat="43.6423167" lon="11.87352"><ele>520.0</ele><time>2026-04-25T10:24:00.031Z</time></trkpt><trkpt lat="43.64226" lon="11.87367"><ele>520.0</ele><time>2026-04-25T10:24:02.025Z</time></trkpt><trkpt lat="43.6421883" lon="11.873755"><ele>520.0</ele><time>2026-04-25T10:24:03.036Z</time></trkpt><trkpt lat="43.6420983" lon="11.8738267"><ele>519.4</ele><time>2026-04-25T10:24:04.029Z</time></trkpt><trkpt lat="43.642005" lon="11.8738767"><ele>518.8</ele><time>2026-04-25T10:24:05.029Z</time></trkpt><trkpt lat="43.641905" lon="11.87392"><ele>518.2</ele><time>2026-04-25T10:24:06.028Z</time></trkpt><trkpt lat="43.6418083" lon="11.87399"><ele>517.6</ele><time>2026-04-25T10:24:07.027Z</time></trkpt><trkpt lat="43.6417033" lon="11.87405"><ele>517.0</ele><time>2026-04-25T10:24:08.031Z</time></trkpt><trkpt lat="43.641605" lon="11.874115"><ele>518.4</ele><time>2026-04-25T10:24:09.029Z</time></trkpt><trkpt lat="43.64151" lon="11.87416"><ele>519.8000000000001</ele><time>2026-04-25T10:24:10.029Z</time></trkpt><trkpt lat="43.6414267" lon="11.874215"><ele>521.2</ele><time>2026-04-25T10:24:11.03Z</time></trkpt><trkpt lat="43.6413667" lon="11.8742833"><ele>522.6</ele><time>2026-04-25T10:24:12.028Z</time></trkpt><trkpt lat="43.641315" lon="11.8743717"><ele>524.0</ele><time>2026-04-25T10:24:13.031Z</time></trkpt><trkpt lat="43.6412567" lon="11.87449"><ele>524.0</ele><time>2026-04-25T10:24:14.035Z</time></trkpt><trkpt lat="43.6411917" lon="11.8746333"><ele>524.0</ele><time>2026-04-25T10:24:15.034Z</time></trkpt><trkpt lat="43.641115" lon="11.8747733"><ele>524.0</ele><time>2026-04-25T10:24:16.028Z</time></trkpt><trkpt lat="43.6410333" lon="11.874915"><ele>524.0</ele><time>2026-04-25T10:24:17.028Z</time></trkpt><trkpt lat="43.6409583" lon="11.87505"><ele>525.8</ele><time>2026-04-25T10:24:18.024Z</time></trkpt><trkpt lat="43.6408867" lon="11.8751633"><ele>527.5999999999999</ele><time>2026-04-25T10:24:19.055Z</time></trkpt><trkpt lat="43.6408167" lon="11.8752533"><ele>529.4</ele><time>2026-04-25T10:24:20.029Z</time></trkpt><trkpt lat="43.640715" lon="11.8753133"><ele>531.1999999999999</ele><time>2026-04-25T10:24:21.031Z</time></trkpt><trkpt lat="43.6406033" lon="11.8753733"><ele>533.0</ele><time>2026-04-25T10:24:22.029Z</time></trkpt><trkpt lat="43.6404917" lon="11.8754333"><ele>533.0</ele><time>2026-04-25T10:24:23.027Z</time></trkpt><trkpt lat="43.6403833" lon="11.8755"><ele>533.0</ele><time>2026-04-25T10:24:24.03Z</time></trkpt><trkpt lat="43.6402783" lon="11.8755617"><ele>533.0</ele><time>2026-04-25T10:24:25.028Z</time></trkpt><trkpt lat="43.6401733" lon="11.8756167"><ele>533.0</ele><time>2026-04-25T10:24:26.035Z</time></trkpt><trkpt lat="43.640065" lon="11.8756383"><ele>533.6</ele><time>2026-04-25T10:24:27.032Z</time></trkpt><trkpt lat="43.6399567" lon="11.87562"><ele>534.1999999999999</ele><time>2026-04-25T10:24:28.033Z</time></trkpt><trkpt lat="43.6398483" lon="11.8755983"><ele>534.8</ele><time>2026-04-25T10:24:29.027Z</time></trkpt><trkpt lat="43.6397383" lon="11.8756167"><ele>535.4</ele><time>2026-04-25T10:24:30.029Z</time></trkpt><trkpt lat="43.6396317" lon="11.8756483"><ele>536.0</ele><time>2026-04-25T10:24:31.031Z</time></trkpt><trkpt lat="43.6395367" lon="11.8756883"><ele>535.4</ele><time>2026-04-25T10:24:32.031Z</time></trkpt><trkpt lat="43.6394417" lon="11.8757283"><ele>534.8</ele><time>2026-04-25T10:24:33.039Z</time></trkpt><trkpt lat="43.6393533" lon="11.8757467"><ele>534.1999999999999</ele><time>2026-04-25T10:24:34.034Z</time></trkpt><trkpt lat="43.63928" lon="11.8757967"><ele>533.6</ele><time>2026-04-25T10:24:35.029Z</time></trkpt><trkpt lat="43.639215" lon="11.8758883"><ele>533.0</ele><time>2026-04-25T10:24:36.028Z</time></trkpt><trkpt lat="43.63915" lon="11.8759767"><ele>534.4</ele><time>2026-04-25T10:24:37.034Z</time></trkpt><trkpt lat="43.6390983" lon="11.87607"><ele>535.8</ele><time>2026-04-25T10:24:38.03Z</time></trkpt><trkpt lat="43.6390183" lon="11.8761167"><ele>537.2</ele><time>2026-04-25T10:24:39.033Z</time></trkpt><trkpt lat="43.6389083" lon="11.8761167"><ele>538.6</ele><time>2026-04-25T10:24:40.029Z</time></trkpt><trkpt lat="43.6387817" lon="11.87611"><ele>540.0</ele><time>2026-04-25T10:24:41.034Z</time></trkpt><trkpt lat="43.638655" lon="11.876075"><ele>538.0</ele><time>2026-04-25T10:24:42.037Z</time></trkpt><trkpt lat="43.6385367" lon="11.87603"><ele>536.0</ele><time>2026-04-25T10:24:43.052Z</time></trkpt><trkpt lat="43.638435" lon="11.876"><ele>534.0</ele><time>2026-04-25T10:24:44.029Z</time></trkpt><trkpt lat="43.6383417" lon="11.8759933"><ele>532.0</ele><time>2026-04-25T10:24:45.031Z</time></trkpt><trkpt lat="43.6382483" lon="11.8760233"><ele>530.0</ele><time>2026-04-25T10:24:46.029Z</time></trkpt><trkpt lat="43.6381517" lon="11.876085"><ele>530.0</ele><time>2026-04-25T10:24:47.031Z</time></trkpt><trkpt lat="43.6380517" lon="11.8761483"><ele>530.0</ele><time>2026-04-25T10:24:48.034Z</time></trkpt><trkpt lat="43.6379533" lon="11.8762067"><ele>530.0</ele><time>2026-04-25T10:24:49.029Z</time></trkpt><trkpt lat="43.6378617" lon="11.876255"><ele>530.0</ele><time>2026-04-25T10:24:50.031Z</time></trkpt><trkpt lat="43.6377717" lon="11.8762983"><ele>530.0</ele><time>2026-04-25T10:24:51.029Z</time></trkpt><trkpt lat="43.6376833" lon="11.8763283"><ele>529.8</ele><time>2026-04-25T10:24:52.03Z</time></trkpt><trkpt lat="43.6375983" lon="11.87634"><ele>529.6</ele><time>2026-04-25T10:24:53.031Z</time></trkpt><trkpt lat="43.6375033" lon="11.876355"><ele>529.4</ele><time>2026-04-25T10:24:54.032Z</time></trkpt><trkpt lat="43.63739" lon="11.8763333"><ele>529.2</ele><time>2026-04-25T10:24:55.04Z</time></trkpt><trkpt lat="43.6372633" lon="11.876305"><ele>529.0</ele><time>2026-04-25T10:24:56.025Z</time></trkpt><trkpt lat="43.637115" lon="11.8762983"><ele>528.25</ele><time>2026-04-25T10:24:57.037Z</time></trkpt><trkpt lat="43.6369633" lon="11.8762917"><ele>527.5</ele><time>2026-04-25T10:24:58.033Z</time></trkpt><trkpt lat="43.63682" lon="11.8762717"><ele>526.75</ele><time>2026-04-25T10:24:59.027Z</time></trkpt><trkpt lat="43.6366867" lon="11.8762417"><ele>526.0</ele><time>2026-04-25T10:25:00.026Z</time></trkpt><trkpt lat="43.63656" lon="11.876215"><ele>526.0</ele><time>2026-04-25T10:25:01.028Z</time></trkpt><trkpt lat="43.636445" lon="11.87619"><ele>526.0</ele><time>2026-04-25T10:25:02.03Z</time></trkpt><trkpt lat="43.6363333" lon="11.8761717"><ele>526.0</ele><time>2026-04-25T10:25:03.031Z</time></trkpt><trkpt lat="43.6362133" lon="11.876165"><ele>526.0</ele><time>2026-04-25T10:25:04.03Z</time></trkpt><trkpt lat="43.6360883" lon="11.8761767"><ele>524.0</ele><time>2026-04-25T10:25:05.028Z</time></trkpt><trkpt lat="43.6359683" lon="11.8761917"><ele>522.0</ele><time>2026-04-25T10:25:06.032Z</time></trkpt><trkpt lat="43.63585" lon="11.8761983"><ele>520.0</ele><time>2026-04-25T10:25:07.029Z</time></trkpt><trkpt lat="43.6357367" lon="11.8761933"><ele>518.0</ele><time>2026-04-25T10:25:08.033Z</time></trkpt><trkpt lat="43.6356283" lon="11.8762117"><ele>518.0</ele><time>2026-04-25T10:25:09.031Z</time></trkpt><trkpt lat="43.6355233" lon="11.8762167"><ele>518.0</ele><time>2026-04-25T10:25:10.032Z</time></trkpt><trkpt lat="43.6354283" lon="11.8762"><ele>518.0</ele><time>2026-04-25T10:25:11.048Z</time></trkpt><trkpt lat="43.6353433" lon="11.87616"><ele>518.0</ele><time>2026-04-25T10:25:12.029Z</time></trkpt><trkpt lat="43.6352667" lon="11.87612"><ele>518.0</ele><time>2026-04-25T10:25:13.03Z</time></trkpt><trkpt lat="43.635195" lon="11.87607"><ele>516.1666666666666</ele><time>2026-04-25T10:25:14.031Z</time></trkpt><trkpt lat="43.6351283" lon="11.8760083"><ele>514.3333333333333</ele><time>2026-04-25T10:25:15.04Z</time></trkpt><trkpt lat="43.635055" lon="11.875975"><ele>512.5</ele><time>2026-04-25T10:25:16.036Z</time></trkpt><trkpt lat="43.6349767" lon="11.875985"><ele>510.66666666666663</ele><time>2026-04-25T10:25:17.026Z</time></trkpt><trkpt lat="43.6349017" lon="11.876025"><ele>508.8333333333333</ele><time>2026-04-25T10:25:18.032Z</time></trkpt><trkpt lat="43.634835" lon="11.8760967"><ele>507.0</ele><time>2026-04-25T10:25:19.03Z</time></trkpt><trkpt lat="43.634765" lon="11.8762067"><ele>507.0</ele><time>2026-04-25T10:25:20.032Z</time></trkpt><trkpt lat="43.634695" lon="11.8763283"><ele>507.0</ele><time>2026-04-25T10:25:21.031Z</time></trkpt><trkpt lat="43.6346233" lon="11.8764633"><ele>507.0</ele><time>2026-04-25T10:25:22.029Z</time></trkpt><trkpt lat="43.6345433" lon="11.8765933"><ele>507.0</ele><time>2026-04-25T10:25:23.03Z</time></trkpt><trkpt lat="43.6344583" lon="11.87672"><ele>505.0</ele><time>2026-04-25T10:25:24.03Z</time></trkpt><trkpt lat="43.6343683" lon="11.87685"><ele>503.0</ele><time>2026-04-25T10:25:25.033Z</time></trkpt><trkpt lat="43.6342833" lon="11.876985"><ele>501.0</ele><time>2026-04-25T10:25:26.043Z</time></trkpt><trkpt lat="43.63419" lon="11.877115"><ele>499.0</ele><time>2026-04-25T10:25:27.033Z</time></trkpt><trkpt lat="43.63408" lon="11.8772267"><ele>499.0</ele><time>2026-04-25T10:25:28.032Z</time></trkpt><trkpt lat="43.633965" lon="11.8773267"><ele>499.0</ele><time>2026-04-25T10:25:29.029Z</time></trkpt><trkpt lat="43.6338483" lon="11.87742"><ele>499.0</ele><time>2026-04-25T10:25:30.024Z</time></trkpt><trkpt lat="43.633725" lon="11.8775183"><ele>499.0</ele><time>2026-04-25T10:25:31.03Z</time></trkpt><trkpt lat="43.6335983" lon="11.87761"><ele>497.25</ele><time>2026-04-25T10:25:32.03Z</time></trkpt><trkpt lat="43.6334633" lon="11.87768"><ele>495.5</ele><time>2026-04-25T10:25:33.029Z</time></trkpt><trkpt lat="43.63333" lon="11.8777533"><ele>493.75</ele><time>2026-04-25T10:25:34.024Z</time></trkpt><trkpt lat="43.6332033" lon="11.8778217"><ele>492.0</ele><time>2026-04-25T10:25:35.031Z</time></trkpt><trkpt lat="43.633095" lon="11.8779183"><ele>492.0</ele><time>2026-04-25T10:25:36.026Z</time></trkpt><trkpt lat="43.6330083" lon="11.8780467"><ele>492.0</ele><time>2026-04-25T10:25:37.028Z</time></trkpt><trkpt lat="43.63294" lon="11.8781983"><ele>492.0</ele><time>2026-04-25T10:25:38.026Z</time></trkpt><trkpt lat="43.6328933" lon="11.87839"><ele>492.0</ele><time>2026-04-25T10:25:39.036Z</time></trkpt><trkpt lat="43.6328433" lon="11.8785783"><ele>489.75</ele><time>2026-04-25T10:25:40.029Z</time></trkpt><trkpt lat="43.632785" lon="11.8787533"><ele>487.5</ele><time>2026-04-25T10:25:41.034Z</time></trkpt><trkpt lat="43.6327317" lon="11.8789083"><ele>485.25</ele><time>2026-04-25T10:25:42.028Z</time></trkpt><trkpt lat="43.63268" lon="11.8790333"><ele>483.0</ele><time>2026-04-25T10:25:43.027Z</time></trkpt><trkpt lat="43.63263" lon="11.87913"><ele>483.0</ele><time>2026-04-25T10:25:44.04Z</time></trkpt><trkpt lat="43.6325783" lon="11.8792017"><ele>483.0</ele><time>2026-04-25T10:25:45.03Z</time></trkpt><trkpt lat="43.6325233" lon="11.8792617"><ele>483.0</ele><time>2026-04-25T10:25:46.029Z</time></trkpt><trkpt lat="43.63246" lon="11.8793283"><ele>483.0</ele><time>2026-04-25T10:25:47.028Z</time></trkpt><trkpt lat="43.63238" lon="11.879355"><ele>483.0</ele><time>2026-04-25T10:25:48.028Z</time></trkpt><trkpt lat="43.6322833" lon="11.8793433"><ele>483.0</ele><time>2026-04-25T10:25:49.029Z</time></trkpt><trkpt lat="43.632175" lon="11.879315"><ele>484.75</ele><time>2026-04-25T10:25:50.033Z</time></trkpt><trkpt lat="43.6320517" lon="11.8792967"><ele>486.5</ele><time>2026-04-25T10:25:51.03Z</time></trkpt><trkpt lat="43.631935" lon="11.87927"><ele>488.25</ele><time>2026-04-25T10:25:52.034Z</time></trkpt><trkpt lat="43.6318267" lon="11.8792717"><ele>490.0</ele><time>2026-04-25T10:25:53.033Z</time></trkpt><trkpt lat="43.6317217" lon="11.8793183"><ele>490.0</ele><time>2026-04-25T10:25:54.027Z</time></trkpt><trkpt lat="43.63163" lon="11.87939"><ele>490.0</ele><time>2026-04-25T10:25:55.03Z</time></trkpt><trkpt lat="43.6315567" lon="11.8794867"><ele>490.0</ele><time>2026-04-25T10:25:56.029Z</time></trkpt><trkpt lat="43.6314967" lon="11.8795967"><ele>490.0</ele><time>2026-04-25T10:25:57.032Z</time></trkpt><trkpt lat="43.631435" lon="11.8797217"><ele>490.0</ele><time>2026-04-25T10:25:58.029Z</time></trkpt><trkpt lat="43.6313733" lon="11.87986"><ele>490.0</ele><time>2026-04-25T10:25:59.032Z</time></trkpt><trkpt lat="43.63132" lon="11.8800067"><ele>490.0</ele><time>2026-04-25T10:26:00.029Z</time></trkpt><trkpt lat="43.6312533" lon="11.8801533"><ele>490.0</ele><time>2026-04-25T10:26:01.028Z</time></trkpt><trkpt lat="43.631185" lon="11.880295"><ele>490.0</ele><time>2026-04-25T10:26:02.028Z</time></trkpt><trkpt lat="43.6311217" lon="11.88044"><ele>489.4</ele><time>2026-04-25T10:26:03.034Z</time></trkpt><trkpt lat="43.63106" lon="11.8805717"><ele>488.8</ele><time>2026-04-25T10:26:04.034Z</time></trkpt><trkpt lat="43.6310017" lon="11.880695"><ele>488.20000000000005</ele><time>2026-04-25T10:26:05.03Z</time></trkpt><trkpt lat="43.6309667" lon="11.88082"><ele>487.6</ele><time>2026-04-25T10:26:06.026Z</time></trkpt><trkpt lat="43.6309467" lon="11.880955"><ele>487.0</ele><time>2026-04-25T10:26:07.028Z</time></trkpt><trkpt lat="43.630955" lon="11.8810933"><ele>488.8</ele><time>2026-04-25T10:26:08.028Z</time></trkpt><trkpt lat="43.6309867" lon="11.8812367"><ele>490.6</ele><time>2026-04-25T10:26:09.027Z</time></trkpt><trkpt lat="43.631005" lon="11.88138"><ele>492.40000000000003</ele><time>2026-04-25T10:26:10.034Z</time></trkpt><trkpt lat="43.6310317" lon="11.88151"><ele>494.20000000000005</ele><time>2026-04-25T10:26:11.034Z</time></trkpt><trkpt lat="43.6310583" lon="11.8816217"><ele>496.0</ele><time>2026-04-25T10:26:12.032Z</time></trkpt><trkpt lat="43.631075" lon="11.8817167"><ele>498.0</ele><time>2026-04-25T10:26:13.033Z</time></trkpt><trkpt lat="43.6310483" lon="11.8817983"><ele>500.0</ele><time>2026-04-25T10:26:14.031Z</time></trkpt><trkpt lat="43.6309783" lon="11.8819133"><ele>502.0</ele><time>2026-04-25T10:26:16.029Z</time></trkpt><trkpt lat="43.6308583" lon="11.8819517"><ele>504.0</ele><time>2026-04-25T10:26:18.036Z</time></trkpt><trkpt lat="43.6307967" lon="11.8819717"><ele>506.0</ele><time>2026-04-25T10:26:19.033Z</time></trkpt><trkpt lat="43.6306983" lon="11.8820967"><ele>506.0</ele><time>2026-04-25T10:26:21.03Z</time></trkpt><trkpt lat="43.6306517" lon="11.8821883"><ele>506.0</ele><time>2026-04-25T10:26:22.036Z</time></trkpt><trkpt lat="43.63062" lon="11.882295"><ele>506.0</ele><time>2026-04-25T10:26:23.039Z</time></trkpt><trkpt lat="43.6305833" lon="11.8824367"><ele>506.0</ele><time>2026-04-25T10:26:24.03Z</time></trkpt><trkpt lat="43.6305517" lon="11.882605"><ele>506.0</ele><time>2026-04-25T10:26:25.032Z</time></trkpt><trkpt lat="43.6305133" lon="11.8827433"><ele>507.6</ele><time>2026-04-25T10:26:26.03Z</time></trkpt><trkpt lat="43.6304667" lon="11.88287"><ele>509.20000000000005</ele><time>2026-04-25T10:26:27.033Z</time></trkpt><trkpt lat="43.6304017" lon="11.882975"><ele>510.79999999999995</ele><time>2026-04-25T10:26:28.027Z</time></trkpt><trkpt lat="43.630335" lon="11.88306"><ele>512.4</ele><time>2026-04-25T10:26:29.03Z</time></trkpt><trkpt lat="43.6302683" lon="11.8831417"><ele>514.0</ele><time>2026-04-25T10:26:30.031Z</time></trkpt><trkpt lat="43.6301883" lon="11.8832033"><ele>514.0</ele><time>2026-04-25T10:26:31.032Z</time></trkpt><trkpt lat="43.6301033" lon="11.883265"><ele>514.0</ele><time>2026-04-25T10:26:32.033Z</time></trkpt><trkpt lat="43.6300183" lon="11.88336"><ele>514.0</ele><time>2026-04-25T10:26:33.034Z</time></trkpt><trkpt lat="43.629935" lon="11.88346"><ele>514.0</ele><time>2026-04-25T10:26:34.031Z</time></trkpt><trkpt lat="43.6298317" lon="11.8835467"><ele>514.0</ele><time>2026-04-25T10:26:35.032Z</time></trkpt><trkpt lat="43.62973" lon="11.8836017"><ele>516.4</ele><time>2026-04-25T10:26:36.031Z</time></trkpt><trkpt lat="43.6296233" lon="11.88366"><ele>518.8</ele><time>2026-04-25T10:26:37.027Z</time></trkpt><trkpt lat="43.629535" lon="11.8837117"><ele>521.2</ele><time>2026-04-25T10:26:38.028Z</time></trkpt><trkpt lat="43.6294467" lon="11.88374"><ele>523.6</ele><time>2026-04-25T10:26:39.034Z</time></trkpt><trkpt lat="43.6293667" lon="11.8837617"><ele>526.0</ele><time>2026-04-25T10:26:40.03Z</time></trkpt><trkpt lat="43.6292967" lon="11.8837633"><ele>527.4</ele><time>2026-04-25T10:26:41.028Z</time></trkpt><trkpt lat="43.6292233" lon="11.8837383"><ele>528.8</ele><time>2026-04-25T10:26:42.033Z</time></trkpt><trkpt lat="43.6291467" lon="11.8836967"><ele>530.1999999999999</ele><time>2026-04-25T10:26:43.053Z</time></trkpt><trkpt lat="43.6290767" lon="11.8836017"><ele>531.6</ele><time>2026-04-25T10:26:44.035Z</time></trkpt><trkpt lat="43.6290017" lon="11.8834817"><ele>533.0</ele><time>2026-04-25T10:26:45.036Z</time></trkpt><trkpt lat="43.62893" lon="11.8833583"><ele>530.3333333333333</ele><time>2026-04-25T10:26:46.03Z</time></trkpt><trkpt lat="43.62886" lon="11.8832467"><ele>527.6666666666666</ele><time>2026-04-25T10:26:47.033Z</time></trkpt><trkpt lat="43.6288133" lon="11.8831417"><ele>525.0</ele><time>2026-04-25T10:26:48.03Z</time></trkpt><trkpt lat="43.6288017" lon="11.8830417"><ele>522.3333333333334</ele><time>2026-04-25T10:26:49.029Z</time></trkpt><trkpt lat="43.628815" lon="11.882945"><ele>519.6666666666667</ele><time>2026-04-25T10:26:50.031Z</time></trkpt><trkpt lat="43.6288583" lon="11.8828483"><ele>517.0</ele><time>2026-04-25T10:26:51.031Z</time></trkpt><trkpt lat="43.6289183" lon="11.8827467"><ele>517.0</ele><time>2026-04-25T10:26:52.032Z</time></trkpt><trkpt lat="43.6289833" lon="11.882645"><ele>517.0</ele><time>2026-04-25T10:26:53.036Z</time></trkpt><trkpt lat="43.6290483" lon="11.8825567"><ele>517.0</ele><time>2026-04-25T10:26:54.029Z</time></trkpt><trkpt lat="43.629105" lon="11.8824833"><ele>517.0</ele><time>2026-04-25T10:26:55.03Z</time></trkpt><trkpt lat="43.6291617" lon="11.8824233"><ele>517.0</ele><time>2026-04-25T10:26:56.027Z</time></trkpt><trkpt lat="43.6292117" lon="11.8823633"><ele>517.0</ele><time>2026-04-25T10:26:57.031Z</time></trkpt><trkpt lat="43.629245" lon="11.8822867"><ele>529.0</ele><time>2026-04-25T10:26:58.026Z</time></trkpt><trkpt lat="43.629275" lon="11.882205"><ele>529.0</ele><time>2026-04-25T10:26:59.031Z</time></trkpt><trkpt lat="43.6292817" lon="11.8821183"><ele>529.0</ele><time>2026-04-25T10:27:00.026Z</time></trkpt><trkpt lat="43.6293083" lon="11.882"><ele>529.0</ele><time>2026-04-25T10:27:02.032Z</time></trkpt></trkseg></trk></gpx>